<?xml version='1.0' encoding='UTF-8'?><gpx version="1.1" creator="JPX - https://github.com/jenetics/jpx" xmlns="http://www.topografix.com/GPX/1/1"><trk><trkseg><trkpt lat="1.1565328190356832" lon="-76.64802058428153"><ele>606.0</ele><time>2026-03-22T14:03:44.999Z</time></trkpt><trkpt lat="1.1564582771340266" lon="-76.64802875372168"><ele>606.0</ele><time>2026-03-22T14:03:51.999Z</time></trkpt><trkpt lat="1.1563732912991587" lon="-76.64801466024626"><ele>606.0</ele><time>2026-03-22T14:03:52.999Z</time></trkpt><trkpt lat="1.156306321056343" lon="-76.64796519316282"><ele>606.0</ele><time>2026-03-22T14:03:53.999Z</time></trkpt><trkpt lat="1.156229766811217" lon="-76.6480181576952"><ele>606.0</ele><time>2026-03-22T14:03:55.999Z</time></trkpt><trkpt lat="1.1561734796767924" lon="-76.6481090624065"><ele>606.0</ele><time>2026-03-22T14:03:56.999Z</time></trkpt><trkpt lat="1.1561098840442325" lon="-76.64811630019041"><ele>606.0</ele><time>2026-03-22T14:03:57.999Z</time></trkpt><trkpt lat="1.156022193895287" lon="-76.64812628016448"><ele>606.0</ele><time>2026-03-22T14:03:58.999Z</time></trkpt><trkpt lat="1.1559047594763472" lon="-76.6481396453099"><ele>606.0</ele><time>2026-03-22T14:04:00.999Z</time></trkpt><trkpt lat="1.1557798762400315" lon="-76.64815385820407"><ele>606.0</ele><time>2026-03-22T14:04:03.999Z</time></trkpt><trkpt lat="1.15565978680678" lon="-76.64816752551805"><ele>605.8333333333334</ele><time>2026-03-22T14:04:05.999Z</time></trkpt><trkpt lat="1.1555705650435797" lon="-76.64817767980136"><ele>605.6666666666666</ele><time>2026-03-22T14:04:06.999Z</time></trkpt><trkpt lat="1.1555078111395916" lon="-76.64818550996074"><ele>605.5</ele><time>2026-03-22T14:04:07.999Z</time></trkpt><trkpt lat="1.1554306901275408" lon="-76.64819479072963"><ele>605.3333333333333</ele><time>2026-03-22T14:04:08.999Z</time></trkpt><trkpt lat="1.1553199044664733" lon="-76.64820812880379"><ele>605.1666666666666</ele><time>2026-03-22T14:04:09.999Z</time></trkpt><trkpt lat="1.1552458701414061" lon="-76.64821707390037"><ele>605.0</ele><time>2026-03-22T14:04:10.999Z</time></trkpt><trkpt lat="1.1551754358353725" lon="-76.64822560071401"><ele>605.0</ele><time>2026-03-22T14:04:11.999Z</time></trkpt><trkpt lat="1.1551112338394474" lon="-76.64823355167674"><ele>605.0</ele><time>2026-03-22T14:04:12.999Z</time></trkpt><trkpt lat="1.1550303301738407" lon="-76.64824541701894"><ele>605.0</ele><time>2026-03-22T14:04:13.999Z</time></trkpt><trkpt lat="1.1549502590918344" lon="-76.64825989699553"><ele>605.0</ele><time>2026-03-22T14:04:14.999Z</time></trkpt><trkpt lat="1.1548392917966153" lon="-76.64827454598611"><ele>605.0</ele><time>2026-03-22T14:04:16.999Z</time></trkpt><trkpt lat="1.1547718609758133" lon="-76.6482895097583"><ele>605.0</ele><time>2026-03-22T14:04:17.999Z</time></trkpt><trkpt lat="1.1546898998260489" lon="-76.64830596798687"><ele>605.1666666666666</ele><time>2026-03-22T14:04:18.999Z</time></trkpt><trkpt lat="1.1546164325693478" lon="-76.64831428132554"><ele>605.3333333333333</ele><time>2026-03-22T14:04:19.999Z</time></trkpt><trkpt lat="1.1545489317770785" lon="-76.6483238932831"><ele>605.5</ele><time>2026-03-22T14:04:20.999Z</time></trkpt><trkpt lat="1.1544761932776393" lon="-76.64833398275243"><ele>605.6666666666666</ele><time>2026-03-22T14:04:21.999Z</time></trkpt><trkpt lat="1.1543863771320215" lon="-76.64835219750684"><ele>605.8333333333334</ele><time>2026-03-22T14:04:22.999Z</time></trkpt><trkpt lat="1.154275977988299" lon="-76.64835137876804"><ele>606.0</ele><time>2026-03-22T14:04:24.999Z</time></trkpt><trkpt lat="1.154174492213404" lon="-76.64838219080283"><ele>606.0</ele><time>2026-03-22T14:04:26.999Z</time></trkpt><trkpt lat="1.1540732260561857" lon="-76.64840598064224"><ele>606.0</ele><time>2026-03-22T14:04:28.999Z</time></trkpt><trkpt lat="1.153998248098653" lon="-76.64843983370844"><ele>606.0</ele><time>2026-03-22T14:04:29.999Z</time></trkpt><trkpt lat="1.153918931907218" lon="-76.64843436751156"><ele>606.0</ele><time>2026-03-22T14:04:30.999Z</time></trkpt><trkpt lat="1.1537822483004911" lon="-76.64843656981634"><ele>606.0</ele><time>2026-03-22T14:04:31.999Z</time></trkpt><trkpt lat="1.153626903453622" lon="-76.64841585498901"><ele>606.0</ele><time>2026-03-22T14:04:32.999Z</time></trkpt><trkpt lat="1.153504521050829" lon="-76.6484417119355"><ele>606.0</ele><time>2026-03-22T14:04:33.999Z</time></trkpt><trkpt lat="1.1534100271780643" lon="-76.64844435880839"><ele>606.0</ele><time>2026-03-22T14:04:34.999Z</time></trkpt><trkpt lat="1.1532951151996982" lon="-76.6484560337584"><ele>606.0</ele><time>2026-03-22T14:04:35.999Z</time></trkpt><trkpt lat="1.1531720114612094" lon="-76.64845051473614"><ele>605.6</ele><time>2026-03-22T14:04:36.999Z</time></trkpt><trkpt lat="1.153054012753555" lon="-76.64843756523541"><ele>605.2</ele><time>2026-03-22T14:04:37.999Z</time></trkpt><trkpt lat="1.1529453902281095" lon="-76.64842131370472"><ele>604.8</ele><time>2026-03-22T14:04:38.999Z</time></trkpt><trkpt lat="1.1528626462413498" lon="-76.64842638553048"><ele>604.4</ele><time>2026-03-22T14:04:39.999Z</time></trkpt><trkpt lat="1.1527866712976824" lon="-76.64842423434365"><ele>604.0</ele><time>2026-03-22T14:04:40.999Z</time></trkpt><trkpt lat="1.15269122022101" lon="-76.64842330606997"><ele>604.0</ele><time>2026-03-22T14:04:41.999Z</time></trkpt><trkpt lat="1.152605661394793" lon="-76.64841183457676"><ele>604.0</ele><time>2026-03-22T14:04:42.999Z</time></trkpt><trkpt lat="1.1525267877193173" lon="-76.64840044891712"><ele>604.0</ele><time>2026-03-22T14:04:43.999Z</time></trkpt><trkpt lat="1.1524084494475269" lon="-76.64840904296038"><ele>604.0</ele><time>2026-03-22T14:04:45.999Z</time></trkpt><trkpt lat="1.1523370898425533" lon="-76.64842027381238"><ele>604.0</ele><time>2026-03-22T14:04:46.999Z</time></trkpt><trkpt lat="1.1522825176834977" lon="-76.64845609509656"><ele>604.0</ele><time>2026-03-22T14:04:47.999Z</time></trkpt><trkpt lat="1.152222245070051" lon="-76.64854030576183"><ele>604.0</ele><time>2026-03-22T14:04:49.999Z</time></trkpt><trkpt lat="1.1522046549477465" lon="-76.64864744573659"><ele>604.0</ele><time>2026-03-22T14:04:51.999Z</time></trkpt><trkpt lat="1.1522702570017018" lon="-76.64874275096065"><ele>604.0</ele><time>2026-03-22T14:04:53.999Z</time></trkpt><trkpt lat="1.1523084866925204" lon="-76.64882709102088"><ele>604.0</ele><time>2026-03-22T14:04:55.999Z</time></trkpt><trkpt lat="1.1523375043723039" lon="-76.6488911081009"><ele>604.0</ele><time>2026-03-22T14:04:56.999Z</time></trkpt><trkpt lat="1.152388896742001" lon="-76.64900426491312"><ele>604.5</ele><time>2026-03-22T14:04:58.999Z</time></trkpt><trkpt lat="1.1524165172323413" lon="-76.64906499331434"><ele>605.0</ele><time>2026-03-22T14:04:59.999Z</time></trkpt><trkpt lat="1.1524448860024878" lon="-76.64912736694158"><ele>605.5</ele><time>2026-03-22T14:05:00.999Z</time></trkpt><trkpt lat="1.1524768836789772" lon="-76.64919771934798"><ele>606.0</ele><time>2026-03-22T14:05:01.999Z</time></trkpt><trkpt lat="1.1525151254931014" lon="-76.649281800552"><ele>606.5</ele><time>2026-03-22T14:05:02.999Z</time></trkpt><trkpt lat="1.1525436924997725" lon="-76.64934461003222"><ele>607.0</ele><time>2026-03-22T14:05:03.999Z</time></trkpt><trkpt lat="1.1525791223287543" lon="-76.64942280670925"><ele>607.2</ele><time>2026-03-22T14:05:04.999Z</time></trkpt><trkpt lat="1.152622631631436" lon="-76.64951900651253"><ele>607.4000000000001</ele><time>2026-03-22T14:05:05.999Z</time></trkpt><trkpt lat="1.1526630512648357" lon="-76.64960837500597"><ele>607.5999999999999</ele><time>2026-03-22T14:05:06.999Z</time></trkpt><trkpt lat="1.1527005647324402" lon="-76.64969131791443"><ele>607.8</ele><time>2026-03-22T14:05:07.999Z</time></trkpt><trkpt lat="1.1527375803300428" lon="-76.64977316002424"><ele>608.0</ele><time>2026-03-22T14:05:08.999Z</time></trkpt><trkpt lat="1.1527707464254657" lon="-76.64984649082062"><ele>608.0</ele><time>2026-03-22T14:05:09.999Z</time></trkpt><trkpt lat="1.152801836571223" lon="-76.64991523170258"><ele>608.0</ele><time>2026-03-22T14:05:10.999Z</time></trkpt><trkpt lat="1.1528249906605736" lon="-76.64999990559494"><ele>608.0</ele><time>2026-03-22T14:05:11.999Z</time></trkpt><trkpt lat="1.152863231470128" lon="-76.65008174825748"><ele>608.0</ele><time>2026-03-22T14:05:12.999Z</time></trkpt><trkpt lat="1.1529003595237302" lon="-76.65015543308638"><ele>608.0</ele><time>2026-03-22T14:05:13.999Z</time></trkpt><trkpt lat="1.1529415342120963" lon="-76.65023849010892"><ele>608.0</ele><time>2026-03-22T14:05:14.999Z</time></trkpt><trkpt lat="1.1529842907249372" lon="-76.65031137646913"><ele>608.6</ele><time>2026-03-22T14:05:15.999Z</time></trkpt><trkpt lat="1.153020163128096" lon="-76.65039068020475"><ele>609.1999999999999</ele><time>2026-03-22T14:05:16.999Z</time></trkpt><trkpt lat="1.1530633343511265" lon="-76.65047002342887"><ele>609.8</ele><time>2026-03-22T14:05:17.999Z</time></trkpt><trkpt lat="1.1531121486313947" lon="-76.65056502813589"><ele>610.4</ele><time>2026-03-22T14:05:18.999Z</time></trkpt><trkpt lat="1.1531736884710426" lon="-76.65064652441171"><ele>611.0</ele><time>2026-03-22T14:05:19.999Z</time></trkpt><trkpt lat="1.1532099116383483" lon="-76.65076090746581"><ele>612.5</ele><time>2026-03-22T14:05:20.999Z</time></trkpt><trkpt lat="1.1532637212258916" lon="-76.65087965581154"><ele>614.0</ele><time>2026-03-22T14:05:21.999Z</time></trkpt><trkpt lat="1.153315694626809" lon="-76.65099318483611"><ele>615.5</ele><time>2026-03-22T14:05:23Z</time></trkpt><trkpt lat="1.153375846536427" lon="-76.65112457887282"><ele>617.0</ele><time>2026-03-22T14:05:24Z</time></trkpt><trkpt lat="1.1534329715965885" lon="-76.65122613446836"><ele>617.0</ele><time>2026-03-22T14:05:25Z</time></trkpt><trkpt lat="1.1535217966044349" lon="-76.65131572999235"><ele>617.0</ele><time>2026-03-22T14:05:26Z</time></trkpt><trkpt lat="1.1535790066650524" lon="-76.65138604350179"><ele>617.0</ele><time>2026-03-22T14:05:27Z</time></trkpt><trkpt lat="1.1536331882697708" lon="-76.65147690592214"><ele>617.0</ele><time>2026-03-22T14:05:28Z</time></trkpt><trkpt lat="1.1536905924868506" lon="-76.65159796033603"><ele>617.0</ele><time>2026-03-22T14:05:29Z</time></trkpt><trkpt lat="1.153740085629229" lon="-76.65167711929762"><ele>617.0</ele><time>2026-03-22T14:05:30Z</time></trkpt><trkpt lat="1.153704279110962" lon="-76.6518392140873"><ele>617.0</ele><time>2026-03-22T14:05:31Z</time></trkpt><trkpt lat="1.153761683261332" lon="-76.65196572147374"><ele>617.0</ele><time>2026-03-22T14:05:32Z</time></trkpt><trkpt lat="1.1538182873963712" lon="-76.65209084550466"><ele>617.5</ele><time>2026-03-22T14:05:33Z</time></trkpt><trkpt lat="1.1538577440490514" lon="-76.65215943144477"><ele>618.0</ele><time>2026-03-22T14:05:34Z</time></trkpt><trkpt lat="1.153893143258012" lon="-76.65223436132382"><ele>618.5</ele><time>2026-03-22T14:05:35Z</time></trkpt><trkpt lat="1.153929450075317" lon="-76.6523072338498"><ele>619.0</ele><time>2026-03-22T14:05:36Z</time></trkpt><trkpt lat="1.1539741697187427" lon="-76.65240238873018"><ele>619.5</ele><time>2026-03-22T14:05:37Z</time></trkpt><trkpt lat="1.153990735859475" lon="-76.65247381658693"><ele>620.0</ele><time>2026-03-22T14:05:38Z</time></trkpt><trkpt lat="1.1540243190821045" lon="-76.652548697299"><ele>621.0</ele><time>2026-03-22T14:05:39Z</time></trkpt><trkpt lat="1.1540636861274627" lon="-76.65263655535871"><ele>622.0</ele><time>2026-03-22T14:05:40Z</time></trkpt><trkpt lat="1.1541029447743334" lon="-76.65272417149878"><ele>623.0</ele><time>2026-03-22T14:05:41Z</time></trkpt><trkpt lat="1.1541411258688419" lon="-76.65280938279189"><ele>624.0</ele><time>2026-03-22T14:05:42Z</time></trkpt><trkpt lat="1.1541809451550948" lon="-76.65289825014655"><ele>625.0</ele><time>2026-03-22T14:05:43Z</time></trkpt><trkpt lat="1.154219278529228" lon="-76.65298380142683"><ele>625.6666666666667</ele><time>2026-03-22T14:05:44Z</time></trkpt><trkpt lat="1.154277240321689" lon="-76.65306009266055"><ele>626.3333333333334</ele><time>2026-03-22T14:05:45Z</time></trkpt><trkpt lat="1.1543198394333536" lon="-76.65313693885592"><ele>627.0</ele><time>2026-03-22T14:05:46Z</time></trkpt><trkpt lat="1.1543573762889967" lon="-76.65320465303712"><ele>627.6666666666666</ele><time>2026-03-22T14:05:47Z</time></trkpt><trkpt lat="1.1543934991361005" lon="-76.65326981640338"><ele>628.3333333333333</ele><time>2026-03-22T14:05:48Z</time></trkpt><trkpt lat="1.1544294360049465" lon="-76.65333464430958"><ele>629.0</ele><time>2026-03-22T14:05:49Z</time></trkpt><trkpt lat="1.1544700535308265" lon="-76.65340791584663"><ele>629.0</ele><time>2026-03-22T14:05:50Z</time></trkpt><trkpt lat="1.1544997925831322" lon="-76.65347321049668"><ele>629.0</ele><time>2026-03-22T14:05:51Z</time></trkpt><trkpt lat="1.1545456762275155" lon="-76.65357449468283"><ele>629.0</ele><time>2026-03-22T14:05:52Z</time></trkpt><trkpt lat="1.1545895112687232" lon="-76.65367125678016"><ele>629.0</ele><time>2026-03-22T14:05:53Z</time></trkpt><trkpt lat="1.1548004458645889" lon="-76.65367185578052"><ele>629.75</ele><time>2026-03-22T14:05:54Z</time></trkpt><trkpt lat="1.1548510994774626" lon="-76.65373364199948"><ele>630.5</ele><time>2026-03-22T14:05:55Z</time></trkpt><trkpt lat="1.1549004056360228" lon="-76.65380204411336"><ele>631.25</ele><time>2026-03-22T14:05:56Z</time></trkpt><trkpt lat="1.1549639225314463" lon="-76.65386603160339"><ele>632.0</ele><time>2026-03-22T14:05:57Z</time></trkpt><trkpt lat="1.155181902632304" lon="-76.65377728693315"><ele>633.6666666666666</ele><time>2026-03-22T14:05:58Z</time></trkpt><trkpt lat="1.1551228980472334" lon="-76.65401751728855"><ele>635.3333333333334</ele><time>2026-03-22T14:05:59Z</time></trkpt><trkpt lat="1.1552015593410607" lon="-76.65417255986593"><ele>637.0</ele><time>2026-03-22T14:06:00Z</time></trkpt><trkpt lat="1.1552943663948068" lon="-76.65428718295482"><ele>637.0</ele><time>2026-03-22T14:06:01Z</time></trkpt><trkpt lat="1.155400159032323" lon="-76.65443002561582"><ele>637.0</ele><time>2026-03-22T14:06:02Z</time></trkpt><trkpt lat="1.155499020395745" lon="-76.65457053798193"><ele>637.0</ele><time>2026-03-22T14:06:03Z</time></trkpt><trkpt lat="1.1556298121837212" lon="-76.65465475412142"><ele>639.5</ele><time>2026-03-22T14:06:04Z</time></trkpt><trkpt lat="1.1557549470315696" lon="-76.65474152002137"><ele>642.0</ele><time>2026-03-22T14:06:05Z</time></trkpt><trkpt lat="1.155872967389092" lon="-76.65482303283359"><ele>644.5</ele><time>2026-03-22T14:06:06Z</time></trkpt><trkpt lat="1.155956827666063" lon="-76.65488504449945"><ele>647.0</ele><time>2026-03-22T14:06:07Z</time></trkpt><trkpt lat="1.156045003623065" lon="-76.65495024741216"><ele>647.0</ele><time>2026-03-22T14:06:08Z</time></trkpt><trkpt lat="1.156111688640887" lon="-76.65499955855884"><ele>647.0</ele><time>2026-03-22T14:06:09Z</time></trkpt><trkpt lat="1.1561981638311738" lon="-76.65507309555342"><ele>647.0</ele><time>2026-03-22T14:06:10Z</time></trkpt><trkpt lat="1.1562841602293445" lon="-76.65512801352949"><ele>647.0</ele><time>2026-03-22T14:06:11Z</time></trkpt><trkpt lat="1.1563720675045168" lon="-76.65516024323166"><ele>647.0</ele><time>2026-03-22T14:06:12Z</time></trkpt><trkpt lat="1.1564587355680462" lon="-76.65518449425137"><ele>647.0</ele><time>2026-03-22T14:06:13Z</time></trkpt><trkpt lat="1.156523038949882" lon="-76.65525087094265"><ele>647.0</ele><time>2026-03-22T14:06:14Z</time></trkpt><trkpt lat="1.1565897500696392" lon="-76.6552999358894"><ele>647.0</ele><time>2026-03-22T14:06:15Z</time></trkpt><trkpt lat="1.156650348841456" lon="-76.65534450530933"><ele>647.0</ele><time>2026-03-22T14:06:16Z</time></trkpt><trkpt lat="1.156723537399983" lon="-76.6553983343142"><ele>647.0</ele><time>2026-03-22T14:06:17Z</time></trkpt><trkpt lat="1.1568039883215993" lon="-76.65545759143554"><ele>647.0</ele><time>2026-03-22T14:06:18Z</time></trkpt><trkpt lat="1.1568917369971352" lon="-76.65555542699457"><ele>648.0</ele><time>2026-03-22T14:06:20Z</time></trkpt><trkpt lat="1.156943968074562" lon="-76.65561141650423"><ele>649.0</ele><time>2026-03-22T14:06:21Z</time></trkpt><trkpt lat="1.1570691694007256" lon="-76.65569036028637"><ele>650.0</ele><time>2026-03-22T14:06:23Z</time></trkpt><trkpt lat="1.1572193625090752" lon="-76.65574413437439"><ele>651.0</ele><time>2026-03-22T14:06:25Z</time></trkpt><trkpt lat="1.1572923054102848" lon="-76.65581822372464"><ele>652.5</ele><time>2026-03-22T14:06:26Z</time></trkpt><trkpt lat="1.1573876046750151" lon="-76.65588849098626"><ele>654.0</ele><time>2026-03-22T14:06:27Z</time></trkpt><trkpt lat="1.1574894339671027" lon="-76.65596357305263"><ele>655.5</ele><time>2026-03-22T14:06:28Z</time></trkpt><trkpt lat="1.1575853841739" lon="-76.65603428815459"><ele>657.0</ele><time>2026-03-22T14:06:29Z</time></trkpt><trkpt lat="1.157742178111474" lon="-76.65614860203415"><ele>657.6</ele><time>2026-03-22T14:06:30Z</time></trkpt><trkpt lat="1.15780968115468" lon="-76.6561973443212"><ele>658.2</ele><time>2026-03-22T14:06:31Z</time></trkpt><trkpt lat="1.1578908503065302" lon="-76.6562443524829"><ele>658.8</ele><time>2026-03-22T14:06:32Z</time></trkpt><trkpt lat="1.1579600401933945" lon="-76.65630974241918"><ele>659.4</ele><time>2026-03-22T14:06:33Z</time></trkpt><trkpt lat="1.158073009076411" lon="-76.65636905777743"><ele>660.0</ele><time>2026-03-22T14:06:34Z</time></trkpt><trkpt lat="1.158156380250818" lon="-76.65644760639478"><ele>661.0</ele><time>2026-03-22T14:06:35Z</time></trkpt><trkpt lat="1.1582509263491159" lon="-76.65651599810394"><ele>662.0</ele><time>2026-03-22T14:06:36Z</time></trkpt><trkpt lat="1.1583327357402837" lon="-76.65657517647567"><ele>663.0</ele><time>2026-03-22T14:06:37Z</time></trkpt><trkpt lat="1.158426087435442" lon="-76.65664450321614"><ele>664.0</ele><time>2026-03-22T14:06:38Z</time></trkpt><trkpt lat="1.1585171008243875" lon="-76.65673305420125"><ele>664.0</ele><time>2026-03-22T14:06:39Z</time></trkpt><trkpt lat="1.1586109933276372" lon="-76.65679152258544"><ele>664.0</ele><time>2026-03-22T14:06:40Z</time></trkpt><trkpt lat="1.1586711685242765" lon="-76.6568289946357"><ele>664.0</ele><time>2026-03-22T14:06:41Z</time></trkpt><trkpt lat="1.1587484063056224" lon="-76.65686439782532"><ele>664.0</ele><time>2026-03-22T14:06:42Z</time></trkpt><trkpt lat="1.1588164658871862" lon="-76.65691346920819"><ele>664.0</ele><time>2026-03-22T14:06:44Z</time></trkpt><trkpt lat="1.158918473906345" lon="-76.65695880788437"><ele>664.0</ele><time>2026-03-22T14:06:45Z</time></trkpt><trkpt lat="1.158996176412411" lon="-76.65695725133104"><ele>664.0</ele><time>2026-03-22T14:06:47Z</time></trkpt><trkpt lat="1.1588743230392418" lon="-76.65690873687325"><ele>664.0</ele><time>2026-03-22T14:06:53Z</time></trkpt><trkpt lat="1.1588013227617568" lon="-76.65687783919012"><ele>664.0</ele><time>2026-03-22T14:06:54Z</time></trkpt><trkpt lat="1.1587630467215115" lon="-76.656713201266"><ele>664.0</ele><time>2026-03-22T14:06:55Z</time></trkpt><trkpt lat="1.1586663608093286" lon="-76.65658723001475"><ele>664.0</ele><time>2026-03-22T14:06:58Z</time></trkpt><trkpt lat="1.158780769957675" lon="-76.65652124822606"><ele>664.0</ele><time>2026-03-22T14:07:00Z</time></trkpt><trkpt lat="1.158955329047285" lon="-76.65649666720451"><ele>666.0</ele><time>2026-03-22T14:07:02Z</time></trkpt><trkpt lat="1.1590406825439772" lon="-76.65643752525557"><ele>668.0</ele><time>2026-03-22T14:07:04Z</time></trkpt><trkpt lat="1.159263533621243" lon="-76.65635932560235"><ele>670.0</ele><time>2026-03-22T14:07:05Z</time></trkpt><trkpt lat="1.1593730217114058" lon="-76.65632276854075"><ele>670.0</ele><time>2026-03-22T14:07:06Z</time></trkpt><trkpt lat="1.1595020573802153" lon="-76.6563171645081"><ele>670.0</ele><time>2026-03-22T14:07:07Z</time></trkpt><trkpt lat="1.1599069378240454" lon="-76.65624616480514"><ele>671.6666666666667</ele><time>2026-03-22T14:07:08Z</time></trkpt><trkpt lat="1.1601669707872626" lon="-76.65619636366114"><ele>673.3333333333334</ele><time>2026-03-22T14:07:09Z</time></trkpt><trkpt lat="1.160312302634309" lon="-76.6561636593039"><ele>675.0</ele><time>2026-03-22T14:07:10Z</time></trkpt><trkpt lat="1.1604257236484607" lon="-76.65614918420809"><ele>675.1666666666666</ele><time>2026-03-22T14:07:11Z</time></trkpt><trkpt lat="1.1605028289405614" lon="-76.65611292527043"><ele>675.3333333333334</ele><time>2026-03-22T14:07:12Z</time></trkpt><trkpt lat="1.1606351315963062" lon="-76.65609720130757"><ele>675.5</ele><time>2026-03-22T14:07:14Z</time></trkpt><trkpt lat="1.1607256620671054" lon="-76.6560787090453"><ele>675.6666666666667</ele><time>2026-03-22T14:07:16Z</time></trkpt><trkpt lat="1.1607964466914118" lon="-76.65606404703884"><ele>675.8333333333334</ele><time>2026-03-22T14:07:18Z</time></trkpt><trkpt lat="1.1608581412177243" lon="-76.65605126793332"><ele>676.0</ele><time>2026-03-22T14:07:19Z</time></trkpt><trkpt lat="1.1609302964335804" lon="-76.65603456402498"><ele>676.0</ele><time>2026-03-22T14:07:20Z</time></trkpt><trkpt lat="1.1610028216478667" lon="-76.65600398289186"><ele>676.0</ele><time>2026-03-22T14:07:21Z</time></trkpt><trkpt lat="1.1610974624024555" lon="-76.65599041288347"><ele>676.0</ele><time>2026-03-22T14:07:22Z</time></trkpt><trkpt lat="1.1611641685522793" lon="-76.65597817231493"><ele>676.0</ele><time>2026-03-22T14:07:23Z</time></trkpt><trkpt lat="1.161247113001469" lon="-76.65595573534692"><ele>676.0</ele><time>2026-03-22T14:07:24Z</time></trkpt><trkpt lat="1.1613351704712143" lon="-76.65593141695612"><ele>676.0</ele><time>2026-03-22T14:07:25Z</time></trkpt><trkpt lat="1.1614077110420296" lon="-76.65591175350622"><ele>676.0</ele><time>2026-03-22T14:07:26Z</time></trkpt><trkpt lat="1.1614971402282377" lon="-76.65588534654827"><ele>676.0</ele><time>2026-03-22T14:07:27Z</time></trkpt><trkpt lat="1.161601718315605" lon="-76.65587550672"><ele>676.0</ele><time>2026-03-22T14:07:28Z</time></trkpt><trkpt lat="1.1616773038308803" lon="-76.65585774261409"><ele>676.0</ele><time>2026-03-22T14:07:29Z</time></trkpt><trkpt lat="1.1617455956342426" lon="-76.65584169267562"><ele>676.0</ele><time>2026-03-22T14:07:30Z</time></trkpt><trkpt lat="1.1618344688297841" lon="-76.6558206781384"><ele>676.0</ele><time>2026-03-22T14:07:32Z</time></trkpt><trkpt lat="1.1618803041348627" lon="-76.65577248787703"><ele>676.3333333333334</ele><time>2026-03-22T14:07:36Z</time></trkpt><trkpt lat="1.1619624146992864" lon="-76.65575585608241"><ele>676.6666666666667</ele><time>2026-03-22T14:13:24.001Z</time></trkpt><trkpt lat="1.1620505069262381" lon="-76.65574608232943"><ele>677.0</ele><time>2026-03-22T14:13:26.001Z</time></trkpt><trkpt lat="1.1621334210147531" lon="-76.65571929267446"><ele>677.3333333333334</ele><time>2026-03-22T14:13:28.001Z</time></trkpt><trkpt lat="1.1622255603429037" lon="-76.65569672600532"><ele>677.6666666666666</ele><time>2026-03-22T14:13:30.001Z</time></trkpt><trkpt lat="1.1622880144380123" lon="-76.65568392455235"><ele>678.0</ele><time>2026-03-22T14:13:31.001Z</time></trkpt><trkpt lat="1.1623728302167762" lon="-76.65567467798884"><ele>680.2</ele><time>2026-03-22T14:13:32.001Z</time></trkpt><trkpt lat="1.162483467531365" lon="-76.65567155746277"><ele>682.4</ele><time>2026-03-22T14:13:34.001Z</time></trkpt><trkpt lat="1.1625916254244666" lon="-76.65564747758057"><ele>684.6</ele><time>2026-03-22T14:13:36.001Z</time></trkpt><trkpt lat="1.162700739350037" lon="-76.65562318485094"><ele>686.8000000000001</ele><time>2026-03-22T14:13:38.001Z</time></trkpt><trkpt lat="1.162808000679483" lon="-76.6555883424966"><ele>689.0</ele><time>2026-03-22T14:13:40.001Z</time></trkpt><trkpt lat="1.1629200239329882" lon="-76.65558503900233"><ele>689.0</ele><time>2026-03-22T14:13:42.001Z</time></trkpt><trkpt lat="1.1630225632266753" lon="-76.65557326518307"><ele>689.0</ele><time>2026-03-22T14:13:44.001Z</time></trkpt><trkpt lat="1.1631317011859097" lon="-76.655545337087"><ele>689.0</ele><time>2026-03-22T14:13:46.001Z</time></trkpt><trkpt lat="1.1632340911088273" lon="-76.65553884399024"><ele>689.0</ele><time>2026-03-22T14:13:48.001Z</time></trkpt><trkpt lat="1.1633269693189952" lon="-76.65555755066136"><ele>689.0</ele><time>2026-03-22T14:13:50.001Z</time></trkpt><trkpt lat="1.1634064004634428" lon="-76.65555932327597"><ele>689.6</ele><time>2026-03-22T14:13:52.001Z</time></trkpt><trkpt lat="1.1634797931732581" lon="-76.65556095422785"><ele>690.2</ele><time>2026-03-22T14:13:54.001Z</time></trkpt><trkpt lat="1.1635717973480253" lon="-76.65556630137543"><ele>690.8000000000001</ele><time>2026-03-22T14:13:56.001Z</time></trkpt><trkpt lat="1.1636827732804778" lon="-76.65557233936148"><ele>691.4000000000001</ele><time>2026-03-22T14:13:58.001Z</time></trkpt><trkpt lat="1.1637906811872742" lon="-76.65557806495795"><ele>692.0</ele><time>2026-03-22T14:14:00.001Z</time></trkpt><trkpt lat="1.1639011625092386" lon="-76.6555833891538"><ele>692.0</ele><time>2026-03-22T14:14:02.001Z</time></trkpt><trkpt lat="1.1640190022957948" lon="-76.65558932515006"><ele>692.0</ele><time>2026-03-22T14:14:04.001Z</time></trkpt><trkpt lat="1.1641390737251402" lon="-76.65559575540264"><ele>692.0</ele><time>2026-03-22T14:14:06.001Z</time></trkpt><trkpt lat="1.1642364947934774" lon="-76.6556038850762"><ele>692.0</ele><time>2026-03-22T14:14:08.001Z</time></trkpt><trkpt lat="1.164336486291304" lon="-76.65562785530084"><ele>692.0</ele><time>2026-03-22T14:14:10.001Z</time></trkpt><trkpt lat="1.1644362370621348" lon="-76.65564989453422"><ele>692.8</ele><time>2026-03-22T14:14:12.001Z</time></trkpt><trkpt lat="1.1645473640080588" lon="-76.65567463178972"><ele>693.6</ele><time>2026-03-22T14:14:14.001Z</time></trkpt><trkpt lat="1.1646492907207564" lon="-76.65569702589453"><ele>694.4</ele><time>2026-03-22T14:14:16.001Z</time></trkpt><trkpt lat="1.1647563519533661" lon="-76.65572110477083"><ele>695.1999999999999</ele><time>2026-03-22T14:14:18.001Z</time></trkpt><trkpt lat="1.1648200492508438" lon="-76.65569938016095"><ele>696.0</ele><time>2026-03-22T14:14:19.001Z</time></trkpt><trkpt lat="1.1649257498071535" lon="-76.65569971328419"><ele>697.1666666666666</ele><time>2026-03-22T14:14:21.001Z</time></trkpt><trkpt lat="1.1650363265527712" lon="-76.65568611170666"><ele>698.3333333333334</ele><time>2026-03-22T14:14:23.001Z</time></trkpt><trkpt lat="1.1651561622977251" lon="-76.65569056438484"><ele>699.5</ele><time>2026-03-22T14:14:25.001Z</time></trkpt><trkpt lat="1.1652201820827501" lon="-76.6556942559927"><ele>700.6666666666667</ele><time>2026-03-22T14:14:26.001Z</time></trkpt><trkpt lat="1.1652856604479052" lon="-76.65569595468634"><ele>701.8333333333334</ele><time>2026-03-22T14:14:27.001Z</time></trkpt><trkpt lat="1.16535390876678" lon="-76.65569826029405"><ele>703.0</ele><time>2026-03-22T14:14:28.001Z</time></trkpt><trkpt lat="1.1654235916158635" lon="-76.65569827241173"><ele>703.0</ele><time>2026-03-22T14:14:29.001Z</time></trkpt><trkpt lat="1.1654897080316442" lon="-76.65569441939515"><ele>703.0</ele><time>2026-03-22T14:14:30.001Z</time></trkpt><trkpt lat="1.1655536917292082" lon="-76.65569135317146"><ele>703.0</ele><time>2026-03-22T14:14:31.001Z</time></trkpt><trkpt lat="1.1656171349923594" lon="-76.65568815361478"><ele>703.0</ele><time>2026-03-22T14:14:32Z</time></trkpt><trkpt lat="1.1656805629378033" lon="-76.65568301516866"><ele>703.0</ele><time>2026-03-22T14:14:33Z</time></trkpt><trkpt lat="1.1657445482392437" lon="-76.65567375551707"><ele>703.0</ele><time>2026-03-22T14:14:34Z</time></trkpt><trkpt lat="1.1658096240007045" lon="-76.65566243446183"><ele>703.0</ele><time>2026-03-22T14:14:35Z</time></trkpt><trkpt lat="1.165873704992981" lon="-76.65564933040851"><ele>702.7142857142857</ele><time>2026-03-22T14:14:36Z</time></trkpt><trkpt lat="1.1659386494759103" lon="-76.65563319397049"><ele>702.4285714285714</ele><time>2026-03-22T14:14:37Z</time></trkpt><trkpt lat="1.1660015673263622" lon="-76.65561568329183"><ele>702.1428571428571</ele><time>2026-03-22T14:14:38Z</time></trkpt><trkpt lat="1.1660641013348607" lon="-76.65559848716457"><ele>701.8571428571429</ele><time>2026-03-22T14:14:39Z</time></trkpt><trkpt lat="1.1661277034648003" lon="-76.65558119880781"><ele>701.5714285714286</ele><time>2026-03-22T14:14:40Z</time></trkpt><trkpt lat="1.1661910267464148" lon="-76.65556374970178"><ele>701.2857142857143</ele><time>2026-03-22T14:14:41Z</time></trkpt><trkpt lat="1.1662552837344957" lon="-76.65554359635901"><ele>701.0</ele><time>2026-03-22T14:14:42Z</time></trkpt><trkpt lat="1.166318786557888" lon="-76.65552215569096"><ele>701.0</ele><time>2026-03-22T14:14:43Z</time></trkpt><trkpt lat="1.1663832708079622" lon="-76.65549945753452"><ele>701.0</ele><time>2026-03-22T14:14:44Z</time></trkpt><trkpt lat="1.166449229189105" lon="-76.65547677572306"><ele>701.0</ele><time>2026-03-22T14:14:45Z</time></trkpt><trkpt lat="1.1665151750867027" lon="-76.65545557571285"><ele>701.0</ele><time>2026-03-22T14:14:46Z</time></trkpt><trkpt lat="1.1665785161126963" lon="-76.65543427197382"><ele>701.0</ele><time>2026-03-22T14:14:47Z</time></trkpt><trkpt lat="1.1666396273798383" lon="-76.65541526095456"><ele>701.0</ele><time>2026-03-22T14:14:48Z</time></trkpt><trkpt lat="1.166703326184929" lon="-76.65539752958162"><ele>701.0</ele><time>2026-03-22T14:14:49Z</time></trkpt><trkpt lat="1.1667651689250804" lon="-76.65537949976934"><ele>701.7142857142858</ele><time>2026-03-22T14:14:50Z</time></trkpt><trkpt lat="1.1668276688407613" lon="-76.65536324336227"><ele>702.4285714285713</ele><time>2026-03-22T14:14:51Z</time></trkpt><trkpt lat="1.1668907992600934" lon="-76.65534817251351"><ele>703.1428571428571</ele><time>2026-03-22T14:14:52Z</time></trkpt><trkpt lat="1.1669555969535053" lon="-76.65533625342827"><ele>703.8571428571429</ele><time>2026-03-22T14:14:53Z</time></trkpt><trkpt lat="1.1670214092090403" lon="-76.65532406717801"><ele>704.5714285714287</ele><time>2026-03-22T14:14:54Z</time></trkpt><trkpt lat="1.1670886764960173" lon="-76.65531672744281"><ele>705.2857142857142</ele><time>2026-03-22T14:14:55Z</time></trkpt><trkpt lat="1.167157040625522" lon="-76.65531213092406"><ele>706.0</ele><time>2026-03-22T14:14:56Z</time></trkpt><trkpt lat="1.1672208857409465" lon="-76.6553096465036"><ele>706.0</ele><time>2026-03-22T14:14:57Z</time></trkpt><trkpt lat="1.1672846834963098" lon="-76.65531205339812"><ele>706.0</ele><time>2026-03-22T14:14:58Z</time></trkpt><trkpt lat="1.1673493530025447" lon="-76.65531767928181"><ele>706.0</ele><time>2026-03-22T14:14:59Z</time></trkpt><trkpt lat="1.1674165875635962" lon="-76.65532707480268"><ele>706.0</ele><time>2026-03-22T14:15:00Z</time></trkpt><trkpt lat="1.1674791493846406" lon="-76.65535452147162"><ele>706.0</ele><time>2026-03-22T14:15:01Z</time></trkpt><trkpt lat="1.1675470168694306" lon="-76.65535149374237"><ele>706.0</ele><time>2026-03-22T14:15:02Z</time></trkpt><trkpt lat="1.1676126341425646" lon="-76.65536551506003"><ele>706.0</ele><time>2026-03-22T14:15:03Z</time></trkpt><trkpt lat="1.1676767912198394" lon="-76.6553810546"><ele>707.1428571428571</ele><time>2026-03-22T14:15:04Z</time></trkpt><trkpt lat="1.1677431634099356" lon="-76.6553943736495"><ele>708.2857142857143</ele><time>2026-03-22T14:15:05Z</time></trkpt><trkpt lat="1.1678099687958357" lon="-76.65541030422769"><ele>709.4285714285714</ele><time>2026-03-22T14:15:06Z</time></trkpt><trkpt lat="1.1678774802113885" lon="-76.65542509545978"><ele>710.5714285714286</ele><time>2026-03-22T14:15:07Z</time></trkpt><trkpt lat="1.167946157767522" lon="-76.65544001735614"><ele>711.7142857142858</ele><time>2026-03-22T14:15:08Z</time></trkpt><trkpt lat="1.1680161107220897" lon="-76.6554587139259"><ele>712.8571428571429</ele><time>2026-03-22T14:15:09Z</time></trkpt><trkpt lat="1.1680887049493913" lon="-76.65547283501932"><ele>714.0</ele><time>2026-03-22T14:15:10Z</time></trkpt><trkpt lat="1.1681643514074413" lon="-76.65548300395996"><ele>714.8571428571429</ele><time>2026-03-22T14:15:11Z</time></trkpt><trkpt lat="1.168231787014299" lon="-76.65549591254025"><ele>715.7142857142858</ele><time>2026-03-22T14:15:12Z</time></trkpt><trkpt lat="1.168298263685847" lon="-76.65551347707115"><ele>716.5714285714286</ele><time>2026-03-22T14:15:13Z</time></trkpt><trkpt lat="1.1683657206691842" lon="-76.65552092009052"><ele>717.4285714285714</ele><time>2026-03-22T14:15:14Z</time></trkpt><trkpt lat="1.1684309880041477" lon="-76.65552832512951"><ele>718.2857142857143</ele><time>2026-03-22T14:15:15Z</time></trkpt><trkpt lat="1.168495050690475" lon="-76.65553704949397"><ele>719.1428571428571</ele><time>2026-03-22T14:15:16Z</time></trkpt><trkpt lat="1.1685580128452095" lon="-76.65553845672032"><ele>720.0</ele><time>2026-03-22T14:15:17Z</time></trkpt><trkpt lat="1.168623747289467" lon="-76.65553680176794"><ele>720.0</ele><time>2026-03-22T14:15:18Z</time></trkpt><trkpt lat="1.168688624092792" lon="-76.65552774128118"><ele>720.0</ele><time>2026-03-22T14:15:19Z</time></trkpt><trkpt lat="1.1687558010137238" lon="-76.65551458627894"><ele>720.0</ele><time>2026-03-22T14:15:20Z</time></trkpt><trkpt lat="1.1688261807360474" lon="-76.65550297989445"><ele>720.0</ele><time>2026-03-22T14:15:21Z</time></trkpt><trkpt lat="1.168898933644462" lon="-76.65549328589988"><ele>720.0</ele><time>2026-03-22T14:15:22Z</time></trkpt><trkpt lat="1.1689748818486092" lon="-76.65548117234053"><ele>720.0</ele><time>2026-03-22T14:15:23Z</time></trkpt><trkpt lat="1.1690714242664064" lon="-76.65546205421279"><ele>722.0</ele><time>2026-03-22T14:15:24Z</time></trkpt><trkpt lat="1.1691946248489322" lon="-76.65543279458991"><ele>724.0</ele><time>2026-03-22T14:15:25Z</time></trkpt><trkpt lat="1.1693490213691937" lon="-76.65539572467722"><ele>726.0</ele><time>2026-03-22T14:15:26Z</time></trkpt><trkpt lat="1.1695083336437477" lon="-76.65534402400742"><ele>726.0</ele><time>2026-03-22T14:15:27.001Z</time></trkpt><trkpt lat="1.1696318220489863" lon="-76.65529543857191"><ele>726.0</ele><time>2026-03-22T14:15:28.001Z</time></trkpt><trkpt lat="1.1697329696475414" lon="-76.65525342998363"><ele>726.0</ele><time>2026-03-22T14:15:29.001Z</time></trkpt><trkpt lat="1.1698198244764104" lon="-76.65521650089758"><ele>726.0</ele><time>2026-03-22T14:15:30.001Z</time></trkpt><trkpt lat="1.1699076638886878" lon="-76.6551778663841"><ele>726.0</ele><time>2026-03-22T14:15:31.001Z</time></trkpt><trkpt lat="1.1699921327242753" lon="-76.65514194494551"><ele>726.8</ele><time>2026-03-22T14:15:32.001Z</time></trkpt><trkpt lat="1.170082114080967" lon="-76.65510322613167"><ele>727.5999999999999</ele><time>2026-03-22T14:15:33.001Z</time></trkpt><trkpt lat="1.170172592672756" lon="-76.65506553367833"><ele>728.4</ele><time>2026-03-22T14:15:34.001Z</time></trkpt><trkpt lat="1.1702630364989344" lon="-76.65502890501004"><ele>729.2</ele><time>2026-03-22T14:15:35.001Z</time></trkpt><trkpt lat="1.170349704850019" lon="-76.65499514070386"><ele>730.0</ele><time>2026-03-22T14:15:36.001Z</time></trkpt><trkpt lat="1.1704350481424197" lon="-76.65496027186381"><ele>730.0</ele><time>2026-03-22T14:15:37.001Z</time></trkpt><trkpt lat="1.1705247098161875" lon="-76.65492479612463"><ele>730.0</ele><time>2026-03-22T14:15:38.001Z</time></trkpt><trkpt lat="1.1706090971244059" lon="-76.65489242231557"><ele>730.0</ele><time>2026-03-22T14:15:39.001Z</time></trkpt><trkpt lat="1.170687549000081" lon="-76.65485983095857"><ele>730.0</ele><time>2026-03-22T14:15:40.001Z</time></trkpt><trkpt lat="1.1707641041865715" lon="-76.65482291145976"><ele>730.0</ele><time>2026-03-22T14:15:41.001Z</time></trkpt><trkpt lat="1.1708458158747204" lon="-76.65478800067245"><ele>730.0</ele><time>2026-03-22T14:15:42.001Z</time></trkpt><trkpt lat="1.1709273951500068" lon="-76.65475389785324"><ele>731.0</ele><time>2026-03-22T14:15:43.001Z</time></trkpt><trkpt lat="1.1710007369299222" lon="-76.65472120828854"><ele>732.0</ele><time>2026-03-22T14:15:44.001Z</time></trkpt><trkpt lat="1.1710792313206229" lon="-76.65468807297"><ele>733.0</ele><time>2026-03-22T14:15:45.001Z</time></trkpt><trkpt lat="1.1711665003493896" lon="-76.65465353098297"><ele>734.0</ele><time>2026-03-22T14:15:46.001Z</time></trkpt><trkpt lat="1.171260649801916" lon="-76.65461041641034"><ele>735.0</ele><time>2026-03-22T14:15:47.001Z</time></trkpt><trkpt lat="1.1713457963749676" lon="-76.65457402725362"><ele>735.0</ele><time>2026-03-22T14:15:48.001Z</time></trkpt><trkpt lat="1.171433380252832" lon="-76.65453323905466"><ele>735.0</ele><time>2026-03-22T14:15:49.001Z</time></trkpt><trkpt lat="1.1715207619381085" lon="-76.65449609660202"><ele>735.0</ele><time>2026-03-22T14:15:50.001Z</time></trkpt><trkpt lat="1.171605223670629" lon="-76.65446137652206"><ele>735.0</ele><time>2026-03-22T14:15:51.001Z</time></trkpt><trkpt lat="1.1716911637119543" lon="-76.65442914896755"><ele>735.0</ele><time>2026-03-22T14:15:52.001Z</time></trkpt><trkpt lat="1.1717761981355233" lon="-76.65439685438196"><ele>735.0</ele><time>2026-03-22T14:15:53.001Z</time></trkpt><trkpt lat="1.1718624790277243" lon="-76.65436649281922"><ele>735.0</ele><time>2026-03-22T14:15:54.001Z</time></trkpt><trkpt lat="1.1719453228766106" lon="-76.6543391064122"><ele>735.0</ele><time>2026-03-22T14:15:55.001Z</time></trkpt><trkpt lat="1.1720279212364137" lon="-76.65431828067764"><ele>735.0</ele><time>2026-03-22T14:15:56.001Z</time></trkpt><trkpt lat="1.1721095962898342" lon="-76.6542929153506"><ele>735.0</ele><time>2026-03-22T14:15:57.001Z</time></trkpt><trkpt lat="1.1721877735028527" lon="-76.65427071833929"><ele>735.0</ele><time>2026-03-22T14:15:58.001Z</time></trkpt><trkpt lat="1.1722665451335517" lon="-76.65425122697961"><ele>735.0</ele><time>2026-03-22T14:15:59.001Z</time></trkpt><trkpt lat="1.1723476575377128" lon="-76.65425158392374"><ele>735.0</ele><time>2026-03-22T14:16:00.001Z</time></trkpt><trkpt lat="1.1724306996520368" lon="-76.6542354427461"><ele>735.0</ele><time>2026-03-22T14:16:01.001Z</time></trkpt><trkpt lat="1.1725095063387927" lon="-76.65422012482514"><ele>735.0</ele><time>2026-03-22T14:16:02.001Z</time></trkpt><trkpt lat="1.1725880416518788" lon="-76.65420487899225"><ele>735.0</ele><time>2026-03-22T14:16:03.001Z</time></trkpt><trkpt lat="1.1726639806985808" lon="-76.65419015363281"><ele>735.0</ele><time>2026-03-22T14:16:04.001Z</time></trkpt><trkpt lat="1.1727385229289768" lon="-76.6541805566067"><ele>735.6666666666666</ele><time>2026-03-22T14:16:05.001Z</time></trkpt><trkpt lat="1.1728180081300443" lon="-76.6541715646026"><ele>736.3333333333334</ele><time>2026-03-22T14:16:06.001Z</time></trkpt><trkpt lat="1.1728949704695661" lon="-76.6541628580046"><ele>737.0</ele><time>2026-03-22T14:16:07.001Z</time></trkpt><trkpt lat="1.1729713761669784" lon="-76.65415421437832"><ele>737.6666666666667</ele><time>2026-03-22T14:16:08.001Z</time></trkpt><trkpt lat="1.1730468484158971" lon="-76.65414588043095"><ele>738.3333333333334</ele><time>2026-03-22T14:16:09.001Z</time></trkpt><trkpt lat="1.1731228295837897" lon="-76.65412253077801"><ele>739.0</ele><time>2026-03-22T14:16:10.001Z</time></trkpt><trkpt lat="1.1731956470043803" lon="-76.65411852877958"><ele>739.7142857142858</ele><time>2026-03-22T14:16:11.001Z</time></trkpt><trkpt lat="1.173264091927397" lon="-76.6541347219603"><ele>740.4285714285714</ele><time>2026-03-22T14:16:12.001Z</time></trkpt><trkpt lat="1.173333949687579" lon="-76.65413679011976"><ele>741.1428571428571</ele><time>2026-03-22T14:16:13.001Z</time></trkpt><trkpt lat="1.173409855458626" lon="-76.6541379206516"><ele>741.8571428571429</ele><time>2026-03-22T14:16:14.001Z</time></trkpt><trkpt lat="1.1734860084811107" lon="-76.65413996955503"><ele>742.5714285714286</ele><time>2026-03-22T14:16:15.001Z</time></trkpt><trkpt lat="1.1735585475228243" lon="-76.65414231232492"><ele>743.2857142857143</ele><time>2026-03-22T14:16:16.001Z</time></trkpt><trkpt lat="1.173627553118464" lon="-76.65414454097748"><ele>744.0</ele><time>2026-03-22T14:16:17.001Z</time></trkpt><trkpt lat="1.1737038193739173" lon="-76.65414720030203"><ele>744.0</ele><time>2026-03-22T14:16:18.001Z</time></trkpt><trkpt lat="1.1737840394606984" lon="-76.6541513976864"><ele>744.0</ele><time>2026-03-22T14:16:19.001Z</time></trkpt><trkpt lat="1.1738579440025987" lon="-76.65415526461616"><ele>744.0</ele><time>2026-03-22T14:16:20.001Z</time></trkpt><trkpt lat="1.1739326911902352" lon="-76.6541591756379"><ele>744.0</ele><time>2026-03-22T14:16:21.001Z</time></trkpt><trkpt lat="1.1740069588549298" lon="-76.65415190183818"><ele>744.0</ele><time>2026-03-22T14:16:22.001Z</time></trkpt><trkpt lat="1.174077729636328" lon="-76.65416544154114"><ele>744.0</ele><time>2026-03-22T14:16:23Z</time></trkpt><trkpt lat="1.174155204176649" lon="-76.65418048430485"><ele>744.8333333333334</ele><time>2026-03-22T14:16:24Z</time></trkpt><trkpt lat="1.1742374786402443" lon="-76.65419460382958"><ele>745.6666666666666</ele><time>2026-03-22T14:16:25Z</time></trkpt><trkpt lat="1.1743216873785147" lon="-76.65421427762877"><ele>746.5</ele><time>2026-03-22T14:16:26Z</time></trkpt><trkpt lat="1.1743963915903493" lon="-76.65423119774354"><ele>747.3333333333333</ele><time>2026-03-22T14:16:27Z</time></trkpt><trkpt lat="1.1744655927569032" lon="-76.65424652258422"><ele>748.1666666666666</ele><time>2026-03-22T14:16:28Z</time></trkpt><trkpt lat="1.174533965249091" lon="-76.65426495405382"><ele>749.0</ele><time>2026-03-22T14:16:29Z</time></trkpt><trkpt lat="1.1746037042126394" lon="-76.65428500409494"><ele>749.0</ele><time>2026-03-22T14:16:30Z</time></trkpt><trkpt lat="1.1746806353334893" lon="-76.65432316979013"><ele>749.0</ele><time>2026-03-22T14:16:31Z</time></trkpt><trkpt lat="1.174756931979951" lon="-76.65434647678397"><ele>749.0</ele><time>2026-03-22T14:16:32Z</time></trkpt><trkpt lat="1.1748409827412403" lon="-76.65435985876888"><ele>749.0</ele><time>2026-03-22T14:16:33Z</time></trkpt><trkpt lat="1.1749323875404065" lon="-76.65439760608916"><ele>749.0</ele><time>2026-03-22T14:16:34Z</time></trkpt><trkpt lat="1.175018410461054" lon="-76.65443121382276"><ele>749.0</ele><time>2026-03-22T14:16:35Z</time></trkpt><trkpt lat="1.1750936829026366" lon="-76.6544609043114"><ele>750.0</ele><time>2026-03-22T14:16:36Z</time></trkpt><trkpt lat="1.1751636293492878" lon="-76.65449011870497"><ele>751.0</ele><time>2026-03-22T14:16:37Z</time></trkpt><trkpt lat="1.1752167057065612" lon="-76.65453012847186"><ele>752.0</ele><time>2026-03-22T14:16:38Z</time></trkpt><trkpt lat="1.1752797667851143" lon="-76.65456039914646"><ele>753.0</ele><time>2026-03-22T14:16:39Z</time></trkpt><trkpt lat="1.175340248576545" lon="-76.65459123578934"><ele>754.0</ele><time>2026-03-22T14:16:40Z</time></trkpt><trkpt lat="1.175399725925642" lon="-76.6546215603116"><ele>755.0</ele><time>2026-03-22T14:16:41Z</time></trkpt><trkpt lat="1.1754625887291463" lon="-76.65465361090891"><ele>756.0</ele><time>2026-03-22T14:16:42Z</time></trkpt><trkpt lat="1.1755216106563697" lon="-76.65468358551996"><ele>756.0</ele><time>2026-03-22T14:16:43Z</time></trkpt><trkpt lat="1.1755831003345305" lon="-76.65471497569271"><ele>756.0</ele><time>2026-03-22T14:16:44Z</time></trkpt><trkpt lat="1.1756504049147594" lon="-76.65473152988359"><ele>756.0</ele><time>2026-03-22T14:16:45Z</time></trkpt><trkpt lat="1.175711147155002" lon="-76.65476629052404"><ele>756.0</ele><time>2026-03-22T14:16:46Z</time></trkpt><trkpt lat="1.1757688100396215" lon="-76.65480231905221"><ele>756.0</ele><time>2026-03-22T14:16:47Z</time></trkpt><trkpt lat="1.1758270208918595" lon="-76.65483692790421"><ele>756.0</ele><time>2026-03-22T14:16:48Z</time></trkpt><trkpt lat="1.1758769938153324" lon="-76.65488712071158"><ele>756.0</ele><time>2026-03-22T14:16:49Z</time></trkpt><trkpt lat="1.1759354458613884" lon="-76.6549244473218"><ele>756.2857142857143</ele><time>2026-03-22T14:16:50Z</time></trkpt><trkpt lat="1.1760045513660937" lon="-76.65494929252229"><ele>756.5714285714286</ele><time>2026-03-22T14:16:51Z</time></trkpt><trkpt lat="1.1760641659423667" lon="-76.65498785725457"><ele>756.8571428571429</ele><time>2026-03-22T14:16:52Z</time></trkpt><trkpt lat="1.1761224637187253" lon="-76.65502775559142"><ele>757.1428571428571</ele><time>2026-03-22T14:16:53Z</time></trkpt><trkpt lat="1.176181639364855" lon="-76.65506811599069"><ele>757.4285714285714</ele><time>2026-03-22T14:16:54Z</time></trkpt><trkpt lat="1.1762437507079828" lon="-76.6551103506569"><ele>757.7142857142858</ele><time>2026-03-22T14:16:55Z</time></trkpt><trkpt lat="1.1763041175411155" lon="-76.65515378448254"><ele>758.0</ele><time>2026-03-22T14:16:56Z</time></trkpt><trkpt lat="1.1763616295102322" lon="-76.655194823927"><ele>758.0000000000001</ele><time>2026-03-22T14:16:57Z</time></trkpt><trkpt lat="1.176415493923032" lon="-76.6552319722665"><ele>758.0</ele><time>2026-03-22T14:16:58Z</time></trkpt><trkpt lat="1.1764723043167642" lon="-76.6552677216172"><ele>758.0</ele><time>2026-03-22T14:16:59Z</time></trkpt><trkpt lat="1.176535853654772" lon="-76.65530904263227"><ele>758.0</ele><time>2026-03-22T14:17:00Z</time></trkpt><trkpt lat="1.1765936000809198" lon="-76.65534856974551"><ele>758.0</ele><time>2026-03-22T14:17:01Z</time></trkpt><trkpt lat="1.1766511461580826" lon="-76.65538916111623"><ele>758.0000000000001</ele><time>2026-03-22T14:17:02Z</time></trkpt><trkpt lat="1.1767071752294043" lon="-76.65543169445539"><ele>758.0</ele><time>2026-03-22T14:17:03Z</time></trkpt><trkpt lat="1.1767629129056874" lon="-76.65547269810632"><ele>758.8571428571429</ele><time>2026-03-22T14:17:04Z</time></trkpt><trkpt lat="1.1768194328093124" lon="-76.65551205998807"><ele>759.7142857142858</ele><time>2026-03-22T14:17:05Z</time></trkpt><trkpt lat="1.1768736814516316" lon="-76.65555049806987"><ele>760.5714285714287</ele><time>2026-03-22T14:17:06Z</time></trkpt><trkpt lat="1.1769330522186485" lon="-76.6555912225458"><ele>761.4285714285714</ele><time>2026-03-22T14:17:07Z</time></trkpt><trkpt lat="1.1769988005962373" lon="-76.65562940934424"><ele>762.2857142857142</ele><time>2026-03-22T14:17:08Z</time></trkpt><trkpt lat="1.1770665005779934" lon="-76.65566440134553"><ele>763.1428571428572</ele><time>2026-03-22T14:17:09Z</time></trkpt><trkpt lat="1.1771269965023872" lon="-76.65571141740422"><ele>764.0</ele><time>2026-03-22T14:17:10Z</time></trkpt><trkpt lat="1.1771843268285098" lon="-76.65575415287694"><ele>764.0</ele><time>2026-03-22T14:17:11Z</time></trkpt><trkpt lat="1.1772408859086725" lon="-76.65579996625375"><ele>764.0</ele><time>2026-03-22T14:17:12Z</time></trkpt><trkpt lat="1.1773023927840696" lon="-76.65584386063257"><ele>764.0</ele><time>2026-03-22T14:17:13Z</time></trkpt><trkpt lat="1.177357100982821" lon="-76.6558825195687"><ele>764.0</ele><time>2026-03-22T14:17:14Z</time></trkpt><trkpt lat="1.1774166054864899" lon="-76.65592145622402"><ele>764.0</ele><time>2026-03-22T14:17:15Z</time></trkpt><trkpt lat="1.1774793644104815" lon="-76.65596596752623"><ele>764.0</ele><time>2026-03-22T14:17:16Z</time></trkpt><trkpt lat="1.1775386062450506" lon="-76.65601243517325"><ele>764.0</ele><time>2026-03-22T14:17:17Z</time></trkpt><trkpt lat="1.1775934965064454" lon="-76.65605670297107"><ele>765.0</ele><time>2026-03-22T14:17:18Z</time></trkpt><trkpt lat="1.177645659171721" lon="-76.65609916853967"><ele>766.0</ele><time>2026-03-22T14:17:19Z</time></trkpt><trkpt lat="1.1777375258427134" lon="-76.65617034784272"><ele>767.0</ele><time>2026-03-22T14:17:21Z</time></trkpt><trkpt lat="1.1778348571461084" lon="-76.65624276600116"><ele>768.0</ele><time>2026-03-22T14:17:23Z</time></trkpt><trkpt lat="1.1778869355998565" lon="-76.65628171358149"><ele>769.0</ele><time>2026-03-22T14:17:24Z</time></trkpt><trkpt lat="1.1779884073918663" lon="-76.65635877448118"><ele>769.8571428571428</ele><time>2026-03-22T14:17:26Z</time></trkpt><trkpt lat="1.17804150590832" lon="-76.6564024990713"><ele>770.7142857142858</ele><time>2026-03-22T14:17:27Z</time></trkpt><trkpt lat="1.17809619431105" lon="-76.65644436086279"><ele>771.5714285714286</ele><time>2026-03-22T14:17:28Z</time></trkpt><trkpt lat="1.1781504717254396" lon="-76.65648707661163"><ele>772.4285714285713</ele><time>2026-03-22T14:17:29Z</time></trkpt><trkpt lat="1.1782051830095863" lon="-76.65652397054774"><ele>773.2857142857142</ele><time>2026-03-22T14:17:30Z</time></trkpt><trkpt lat="1.1782618738286192" lon="-76.65656250576465"><ele>774.1428571428571</ele><time>2026-03-22T14:17:31Z</time></trkpt><trkpt lat="1.1783172043805081" lon="-76.6566022166391"><ele>775.0</ele><time>2026-03-22T14:17:32Z</time></trkpt><trkpt lat="1.178372443306199" lon="-76.6566454371407"><ele>774.9999999999999</ele><time>2026-03-22T14:17:33.001Z</time></trkpt><trkpt lat="1.1784249937421394" lon="-76.65668915270264"><ele>775.0</ele><time>2026-03-22T14:17:34.001Z</time></trkpt><trkpt lat="1.1784781313762556" lon="-76.65672446653468"><ele>775.0</ele><time>2026-03-22T14:17:35.001Z</time></trkpt><trkpt lat="1.1785331332666311" lon="-76.65676361253809"><ele>775.0</ele><time>2026-03-22T14:17:36.001Z</time></trkpt><trkpt lat="1.1785864325331192" lon="-76.65680262462827"><ele>775.0</ele><time>2026-03-22T14:17:37.001Z</time></trkpt><trkpt lat="1.1786385537836601" lon="-76.65684375568196"><ele>774.9999999999999</ele><time>2026-03-22T14:17:38.001Z</time></trkpt><trkpt lat="1.1786939148176718" lon="-76.65688357862261"><ele>775.0</ele><time>2026-03-22T14:17:39.001Z</time></trkpt><trkpt lat="1.178750227139368" lon="-76.65692556839934"><ele>775.9999999999999</ele><time>2026-03-22T14:17:40.001Z</time></trkpt><trkpt lat="1.1788037133862015" lon="-76.65696263164158"><ele>777.0</ele><time>2026-03-22T14:17:41.001Z</time></trkpt><trkpt lat="1.178864134425147" lon="-76.65700394781702"><ele>778.0</ele><time>2026-03-22T14:17:42.001Z</time></trkpt><trkpt lat="1.178927391894924" lon="-76.65704827541323"><ele>779.0</ele><time>2026-03-22T14:17:43.001Z</time></trkpt><trkpt lat="1.1789891839360638" lon="-76.65709549136986"><ele>780.0</ele><time>2026-03-22T14:17:44.001Z</time></trkpt><trkpt lat="1.1790499052297145" lon="-76.65714080961405"><ele>780.9999999999999</ele><time>2026-03-22T14:17:45.001Z</time></trkpt><trkpt lat="1.1791133949572605" lon="-76.65718662263862"><ele>782.0</ele><time>2026-03-22T14:17:46.001Z</time></trkpt><trkpt lat="1.1791736106016721" lon="-76.65722955706266"><ele>781.9999999999999</ele><time>2026-03-22T14:17:47.001Z</time></trkpt><trkpt lat="1.1792327244078884" lon="-76.65727325178781"><ele>782.0</ele><time>2026-03-22T14:17:48.001Z</time></trkpt><trkpt lat="1.1792918868645748" lon="-76.65731791355857"><ele>782.0</ele><time>2026-03-22T14:17:49.001Z</time></trkpt><trkpt lat="1.1793543062673835" lon="-76.65735791101133"><ele>782.0</ele><time>2026-03-22T14:17:50.001Z</time></trkpt><trkpt lat="1.17941422587357" lon="-76.65739848527234"><ele>782.0</ele><time>2026-03-22T14:17:51.001Z</time></trkpt><trkpt lat="1.1794603843990445" lon="-76.65744954090516"><ele>781.9999999999999</ele><time>2026-03-22T14:17:52.001Z</time></trkpt><trkpt lat="1.179511932737857" lon="-76.65749131245295"><ele>782.0</ele><time>2026-03-22T14:17:53.001Z</time></trkpt><trkpt lat="1.179570388844586" lon="-76.6575383363038"><ele>781.9999999999999</ele><time>2026-03-22T14:17:54.001Z</time></trkpt><trkpt lat="1.1796274103628928" lon="-76.65758420612757"><ele>782.0</ele><time>2026-03-22T14:17:55.001Z</time></trkpt><trkpt lat="1.1796842260416027" lon="-76.65762991037009"><ele>782.0</ele><time>2026-03-22T14:17:56.001Z</time></trkpt><trkpt lat="1.179735629526202" lon="-76.65768003865202"><ele>782.0</ele><time>2026-03-22T14:17:57.001Z</time></trkpt><trkpt lat="1.1797851433502409" lon="-76.65773012066927"><ele>782.0</ele><time>2026-03-22T14:17:58.001Z</time></trkpt><trkpt lat="1.1798347618565521" lon="-76.65778064053539"><ele>781.9999999999999</ele><time>2026-03-22T14:17:59.001Z</time></trkpt><trkpt lat="1.1798800402727088" lon="-76.65782726953752"><ele>782.0</ele><time>2026-03-22T14:18:00.001Z</time></trkpt><trkpt lat="1.1799476579893742" lon="-76.65789699517333"><ele>781.4000000000001</ele><time>2026-03-22T14:18:02.001Z</time></trkpt><trkpt lat="1.1800575855056377" lon="-76.65785029240605"><ele>780.8000000000001</ele><time>2026-03-22T14:18:06.001Z</time></trkpt><trkpt lat="1.1801080650786508" lon="-76.65779210753503"><ele>780.2</ele><time>2026-03-22T14:18:08.001Z</time></trkpt><trkpt lat="1.1801304077419925" lon="-76.65771405166414"><ele>779.6</ele><time>2026-03-22T14:18:10Z</time></trkpt><trkpt lat="1.180188035432694" lon="-76.65761418178944"><ele>779.0</ele><time>2026-03-22T14:18:12Z</time></trkpt><trkpt lat="1.1802419057492408" lon="-76.65751692593702"><ele>779.0000000000001</ele><time>2026-03-22T14:18:14Z</time></trkpt><trkpt lat="1.180285438932147" lon="-76.65743541253813"><ele>779.0</ele><time>2026-03-22T14:18:16Z</time></trkpt><trkpt lat="1.1803248898850698" lon="-76.65736096352913"><ele>779.0</ele><time>2026-03-22T14:18:18Z</time></trkpt><trkpt lat="1.1803682126013484" lon="-76.65731155574126"><ele>779.0</ele><time>2026-03-22T14:18:20Z</time></trkpt><trkpt lat="1.1803874472019518" lon="-76.65724361739007"><ele>779.0000000000001</ele><time>2026-03-22T14:18:22Z</time></trkpt><trkpt lat="1.1804285791870468" lon="-76.65719124826721"><ele>779.0</ele><time>2026-03-22T14:18:28Z</time></trkpt><trkpt lat="1.180483660153334" lon="-76.65725449343321"><ele>779.0000000000001</ele><time>2026-03-22T14:28:28.999Z</time></trkpt><trkpt lat="1.180563771218598" lon="-76.6572304899508"><ele>779.0</ele><time>2026-03-22T14:28:32.999Z</time></trkpt><trkpt lat="1.1806234416705965" lon="-76.65720826767698"><ele>779.0</ele><time>2026-03-22T14:28:34.999Z</time></trkpt><trkpt lat="1.1806984101016098" lon="-76.657188951876"><ele>779.0</ele><time>2026-03-22T14:28:38.999Z</time></trkpt><trkpt lat="1.1807620373649015" lon="-76.65718225394836"><ele>779.0000000000001</ele><time>2026-03-22T14:28:42.999Z</time></trkpt><trkpt lat="1.1808360743049031" lon="-76.65720285069564"><ele>779.0</ele><time>2026-03-22T14:28:54.999Z</time></trkpt><trkpt lat="1.1809518876826746" lon="-76.65718027407266"><ele>778.4285714285714</ele><time>2026-03-22T14:29:44.999Z</time></trkpt><trkpt lat="1.1810256932904968" lon="-76.65718057444019"><ele>777.8571428571429</ele><time>2026-03-22T14:30:18Z</time></trkpt><trkpt lat="1.1810731517460218" lon="-76.65712476226197"><ele>777.2857142857142</ele><time>2026-03-22T14:31:22.999Z</time></trkpt><trkpt lat="1.1811270257761461" lon="-76.65708125493414"><ele>776.7142857142858</ele><time>2026-03-22T14:31:25.999Z</time></trkpt><trkpt lat="1.1811894648931955" lon="-76.65706443582634"><ele>776.1428571428571</ele><time>2026-03-22T14:31:31.999Z</time></trkpt><trkpt lat="1.1812467615495015" lon="-76.65703115335427"><ele>775.5714285714286</ele><time>2026-03-22T14:31:37.999Z</time></trkpt><trkpt lat="1.1813077629454818" lon="-76.65705294906185"><ele>775.0</ele><time>2026-03-22T14:31:57.999Z</time></trkpt><trkpt lat="1.1813764389962649" lon="-76.65703239315728"><ele>774.9999999999999</ele><time>2026-03-22T14:32:10.999Z</time></trkpt><trkpt lat="1.1814473790894373" lon="-76.65699774713651"><ele>775.0</ele><time>2026-03-22T14:32:30Z</time></trkpt><trkpt lat="1.1814981901160169" lon="-76.65695631011528"><ele>775.0</ele><time>2026-03-22T14:32:55.999Z</time></trkpt><trkpt lat="1.1815798720853956" lon="-76.6569639463273"><ele>775.0</ele><time>2026-03-22T14:33:51.999Z</time></trkpt><trkpt lat="1.181656156184418" lon="-76.65694730782351"><ele>774.9999999999999</ele><time>2026-03-22T14:36:56Z</time></trkpt><trkpt lat="1.1817222574718598" lon="-76.65691055774056"><ele>775.0</ele><time>2026-03-22T14:38:19.999Z</time></trkpt><trkpt lat="1.181810534244465" lon="-76.65696768589184"><ele>774.4285714285713</ele><time>2026-03-22T14:40:50Z</time></trkpt><trkpt lat="1.1818838756606775" lon="-76.65698320077867"><ele>773.8571428571429</ele><time>2026-03-22T14:40:52Z</time></trkpt><trkpt lat="1.181830291508778" lon="-76.65694302337167"><ele>773.2857142857142</ele><time>2026-03-22T14:41:17Z</time></trkpt><trkpt lat="1.1818929015375472" lon="-76.6569574465498"><ele>772.7142857142857</ele><time>2026-03-22T14:51:04.999Z</time></trkpt><trkpt lat="1.1819394999220074" lon="-76.65701114400731"><ele>772.1428571428571</ele><time>2026-03-22T14:52:23Z</time></trkpt><trkpt lat="1.18191762038582" lon="-76.65707133489131"><ele>771.5714285714286</ele><time>2026-03-22T14:52:30Z</time></trkpt><trkpt lat="1.181878502573332" lon="-76.65712745653204"><ele>771.0</ele><time>2026-03-22T14:52:50.999Z</time></trkpt><trkpt lat="1.1819316159611402" lon="-76.65708361107122"><ele>771.0</ele><time>2026-03-22T14:53:11.999Z</time></trkpt><trkpt lat="1.1819687571586064" lon="-76.65702408415619"><ele>771.0</ele><time>2026-03-22T14:53:14Z</time></trkpt><trkpt lat="1.1820135861632564" lon="-76.65697437712801"><ele>771.0</ele><time>2026-03-22T14:53:17Z</time></trkpt><trkpt lat="1.1820874257463443" lon="-76.65692805370416"><ele>771.0</ele><time>2026-03-22T14:53:21Z</time></trkpt><trkpt lat="1.1821459378769241" lon="-76.65689349914959"><ele>771.0</ele><time>2026-03-22T14:53:24Z</time></trkpt><trkpt lat="1.182223007017655" lon="-76.65684411912856"><ele>771.0</ele><time>2026-03-22T14:53:28Z</time></trkpt><trkpt lat="1.1822998826815385" lon="-76.6568403358119"><ele>769.2857142857143</ele><time>2026-03-22T14:53:32Z</time></trkpt><trkpt lat="1.1823520569779604" lon="-76.65680489572753"><ele>767.5714285714286</ele><time>2026-03-22T14:53:36Z</time></trkpt><trkpt lat="1.1824010823991664" lon="-76.65676224521091"><ele>765.8571428571429</ele><time>2026-03-22T14:53:39Z</time></trkpt><trkpt lat="1.1824691270623688" lon="-76.65672918260454"><ele>764.1428571428571</ele><time>2026-03-22T14:53:42Z</time></trkpt><trkpt lat="1.1825284856132328" lon="-76.65668182096624"><ele>762.4285714285713</ele><time>2026-03-22T14:53:46Z</time></trkpt><trkpt lat="1.182586918173773" lon="-76.65663323516829"><ele>760.7142857142857</ele><time>2026-03-22T14:53:51Z</time></trkpt><trkpt lat="1.1826442487603672" lon="-76.65658532414317"><ele>759.0</ele><time>2026-03-22T14:53:56Z</time></trkpt><trkpt lat="1.182691281782765" lon="-76.65653220299347"><ele>759.0</ele><time>2026-03-22T14:53:59Z</time></trkpt><trkpt lat="1.1827207119040042" lon="-76.65646488597079"><ele>759.0</ele><time>2026-03-22T14:54:03Z</time></trkpt><trkpt lat="1.182768734602867" lon="-76.65642198667712"><ele>759.0</ele><time>2026-03-22T14:54:07Z</time></trkpt><trkpt lat="1.1828304249115178" lon="-76.65645669632364"><ele>759.0</ele><time>2026-03-22T14:54:12Z</time></trkpt><trkpt lat="1.1828987771996515" lon="-76.65644481879967"><ele>759.0</ele><time>2026-03-22T14:54:18Z</time></trkpt><trkpt lat="1.1829293627981257" lon="-76.65638118727279"><ele>759.0</ele><time>2026-03-22T14:54:21Z</time></trkpt><trkpt lat="1.1829886474512168" lon="-76.65634972153275"><ele>759.0</ele><time>2026-03-22T14:54:25Z</time></trkpt><trkpt lat="1.183056851692628" lon="-76.65631520736065"><ele>759.0</ele><time>2026-03-22T14:55:42Z</time></trkpt><trkpt lat="1.1831259290800158" lon="-76.65628882315436"><ele>759.0</ele><time>2026-03-22T14:55:44Z</time></trkpt><trkpt lat="1.1831604586331115" lon="-76.6562304873957"><ele>759.0</ele><time>2026-03-22T14:55:46Z</time></trkpt><trkpt lat="1.183197858892509" lon="-76.65615040886196"><ele>759.0</ele><time>2026-03-22T14:55:48Z</time></trkpt><trkpt lat="1.1832532206441635" lon="-76.65606728238113"><ele>759.0</ele><time>2026-03-22T14:55:50Z</time></trkpt><trkpt lat="1.183278622817721" lon="-76.65598044475749"><ele>759.0</ele><time>2026-03-22T14:55:52Z</time></trkpt><trkpt lat="1.1833095146111483" lon="-76.65591410430963"><ele>757.2857142857142</ele><time>2026-03-22T14:55:54Z</time></trkpt><trkpt lat="1.183319382331583" lon="-76.65583902371071"><ele>755.5714285714286</ele><time>2026-03-22T14:55:57Z</time></trkpt><trkpt lat="1.1833045468018175" lon="-76.65576338640864"><ele>753.8571428571429</ele><time>2026-03-22T14:56:01Z</time></trkpt><trkpt lat="1.183335016420063" lon="-76.65570420641353"><ele>752.1428571428571</ele><time>2026-03-22T14:56:11Z</time></trkpt><trkpt lat="1.183373012013233" lon="-76.65564391422652"><ele>750.4285714285714</ele><time>2026-03-22T14:56:35Z</time></trkpt><trkpt lat="1.1834283112297235" lon="-76.65561332421888"><ele>748.7142857142857</ele><time>2026-03-22T14:56:42Z</time></trkpt><trkpt lat="1.1834977289933493" lon="-76.65562203158473"><ele>747.0</ele><time>2026-03-22T14:56:44Z</time></trkpt><trkpt lat="1.1835604563273936" lon="-76.65564557305572"><ele>747.0</ele><time>2026-03-22T14:56:46Z</time></trkpt><trkpt lat="1.1836640518016386" lon="-76.65567034456221"><ele>747.0</ele><time>2026-03-22T14:56:48Z</time></trkpt><trkpt lat="1.1837437898696523" lon="-76.65568672541602"><ele>747.0</ele><time>2026-03-22T14:56:50Z</time></trkpt><trkpt lat="1.183815519915433" lon="-76.65571058323721"><ele>747.0</ele><time>2026-03-22T14:56:52Z</time></trkpt><trkpt lat="1.1838816741538403" lon="-76.65574145128528"><ele>747.0</ele><time>2026-03-22T14:56:54Z</time></trkpt><trkpt lat="1.1839641916204942" lon="-76.65575978808718"><ele>747.0</ele><time>2026-03-22T14:56:56Z</time></trkpt><trkpt lat="1.184031059641538" lon="-76.65577841256426"><ele>746.3333333333334</ele><time>2026-03-22T14:56:57.999Z</time></trkpt><trkpt lat="1.184087034863846" lon="-76.65580903371252"><ele>745.6666666666666</ele><time>2026-03-22T14:56:59.999Z</time></trkpt><trkpt lat="1.1841623061615396" lon="-76.65579823697688"><ele>745.0</ele><time>2026-03-22T14:57:02.999Z</time></trkpt><trkpt lat="1.18421582146091" lon="-76.65573383672121"><ele>744.3333333333333</ele><time>2026-03-22T14:57:04.999Z</time></trkpt><trkpt lat="1.184287053331168" lon="-76.65564234296441"><ele>743.6666666666666</ele><time>2026-03-22T14:57:06.999Z</time></trkpt><trkpt lat="1.1843591128223188" lon="-76.65557920845382"><ele>743.0</ele><time>2026-03-22T14:57:08.999Z</time></trkpt><trkpt lat="1.1844326825797706" lon="-76.65553253202386"><ele>743.0</ele><time>2026-03-22T14:57:10.999Z</time></trkpt><trkpt lat="1.184493638319063" lon="-76.65549559786642"><ele>743.0</ele><time>2026-03-22T14:57:12.999Z</time></trkpt><trkpt lat="1.1845613809643747" lon="-76.65546060541078"><ele>743.0</ele><time>2026-03-22T14:57:15.999Z</time></trkpt><trkpt lat="1.1846003350491003" lon="-76.65540504432845"><ele>743.0</ele><time>2026-03-22T14:57:18.999Z</time></trkpt><trkpt lat="1.1845557703036622" lon="-76.65535840855543"><ele>743.0</ele><time>2026-03-22T14:57:42Z</time></trkpt><trkpt lat="1.1844967605941508" lon="-76.65538347899813"><ele>743.0</ele><time>2026-03-22T15:02:25Z</time></trkpt><trkpt lat="1.1845592195231502" lon="-76.65536571117384"><ele>743.0</ele><time>2026-03-22T15:04:36.996Z</time></trkpt><trkpt lat="1.184543112640689" lon="-76.6552914969618"><ele>742.6666666666666</ele><time>2026-03-22T15:06:32.999Z</time></trkpt><trkpt lat="1.1845519692162254" lon="-76.6552097246423"><ele>742.3333333333333</ele><time>2026-03-22T15:06:35.999Z</time></trkpt><trkpt lat="1.1845421109017054" lon="-76.65514438292173"><ele>742.0</ele><time>2026-03-22T15:06:38.999Z</time></trkpt><trkpt lat="1.1845533796482361" lon="-76.65507755220862"><ele>741.6666666666666</ele><time>2026-03-22T15:06:40.999Z</time></trkpt><trkpt lat="1.1846246328462473" lon="-76.65504483646149"><ele>741.3333333333334</ele><time>2026-03-22T15:06:45.999Z</time></trkpt><trkpt lat="1.1846535943602101" lon="-76.65497720220358"><ele>741.0</ele><time>2026-03-22T15:06:48.999Z</time></trkpt><trkpt lat="1.1846353724068588" lon="-76.6548869208713"><ele>741.0</ele><time>2026-03-22T15:06:52.999Z</time></trkpt><trkpt lat="1.1846014587721307" lon="-76.65481767794034"><ele>741.0</ele><time>2026-03-22T15:06:55.999Z</time></trkpt><trkpt lat="1.184587754506146" lon="-76.65475602410517"><ele>741.0</ele><time>2026-03-22T15:06:57.999Z</time></trkpt><trkpt lat="1.1845632989273691" lon="-76.65467073171442"><ele>741.0</ele><time>2026-03-22T15:07:00.999Z</time></trkpt><trkpt lat="1.1845724354542013" lon="-76.65460525980924"><ele>741.0</ele><time>2026-03-22T15:07:03.999Z</time></trkpt><trkpt lat="1.184608851381646" lon="-76.65453326269342"><ele>741.0</ele><time>2026-03-22T15:07:07.999Z</time></trkpt><trkpt lat="1.1846836436712984" lon="-76.65450657960524"><ele>741.0</ele><time>2026-03-22T15:07:11.999Z</time></trkpt><trkpt lat="1.184747258450904" lon="-76.65449179699823"><ele>741.0</ele><time>2026-03-22T15:07:15.999Z</time></trkpt><trkpt lat="1.1848097716609636" lon="-76.6544807090387"><ele>741.0</ele><time>2026-03-22T15:07:25.999Z</time></trkpt><trkpt lat="1.1848798134559027" lon="-76.65445960944412"><ele>741.0</ele><time>2026-03-22T15:07:28.999Z</time></trkpt><trkpt lat="1.1849532978099295" lon="-76.65444812428046"><ele>741.0</ele><time>2026-03-22T15:07:33.999Z</time></trkpt><trkpt lat="1.1850268662970846" lon="-76.65441971225071"><ele>741.0</ele><time>2026-03-22T15:07:37.999Z</time></trkpt><trkpt lat="1.1850942120066188" lon="-76.65440627681582"><ele>741.0</ele><time>2026-03-22T15:07:40.999Z</time></trkpt><trkpt lat="1.1851656665173884" lon="-76.65438743287386"><ele>738.2857142857142</ele><time>2026-03-22T15:07:43.999Z</time></trkpt><trkpt lat="1.1852087083445564" lon="-76.6543358561623"><ele>735.5714285714287</ele><time>2026-03-22T15:07:46.999Z</time></trkpt><trkpt lat="1.18526229122419" lon="-76.65428174239361"><ele>732.8571428571429</ele><time>2026-03-22T15:07:49.999Z</time></trkpt><trkpt lat="1.1853126666666651" lon="-76.65422335815481"><ele>730.1428571428571</ele><time>2026-03-22T15:07:54.999Z</time></trkpt><trkpt lat="1.1853430130048996" lon="-76.65416772447787"><ele>727.4285714285713</ele><time>2026-03-22T15:07:57.999Z</time></trkpt><trkpt lat="1.1853674788397681" lon="-76.65409648083889"><ele>724.7142857142858</ele><time>2026-03-22T15:08:00.999Z</time></trkpt><trkpt lat="1.1853691577940604" lon="-76.65402743607548"><ele>722.0</ele><time>2026-03-22T15:08:10.999Z</time></trkpt><trkpt lat="1.1853297177284996" lon="-76.65397443881959"><ele>722.0</ele><time>2026-03-22T15:08:46Z</time></trkpt><trkpt lat="1.1852596321595423" lon="-76.65399831425995"><ele>722.0</ele><time>2026-03-22T15:10:23Z</time></trkpt><trkpt lat="1.1852132984261914" lon="-76.6540471041938"><ele>722.0</ele><time>2026-03-22T15:10:29Z</time></trkpt><trkpt lat="1.1851888714397714" lon="-76.65398200804414"><ele>722.0</ele><time>2026-03-22T15:11:05Z</time></trkpt><trkpt lat="1.1851881462964189" lon="-76.65390595188738"><ele>722.0</ele><time>2026-03-22T15:11:12Z</time></trkpt><trkpt lat="1.1852011704380303" lon="-76.6538426709128"><ele>722.0</ele><time>2026-03-22T15:11:42Z</time></trkpt><trkpt lat="1.1852713430099149" lon="-76.65384641852982"><ele>722.0</ele><time>2026-03-22T15:11:50Z</time></trkpt><trkpt lat="1.1853093560336612" lon="-76.65379533996618"><ele>722.0</ele><time>2026-03-22T15:11:57Z</time></trkpt><trkpt lat="1.1853482904039434" lon="-76.65373911997823"><ele>722.0</ele><time>2026-03-22T15:12:10Z</time></trkpt><trkpt lat="1.1853174177940453" lon="-76.65367480347199"><ele>722.0</ele><time>2026-03-22T15:12:48Z</time></trkpt><trkpt lat="1.1852709513183919" lon="-76.65360474163599"><ele>722.0</ele><time>2026-03-22T15:12:59Z</time></trkpt><trkpt lat="1.185305890831534" lon="-76.65353568410848"><ele>722.0</ele><time>2026-03-22T15:13:04Z</time></trkpt><trkpt lat="1.185338843548551" lon="-76.65347810148738"><ele>722.0</ele><time>2026-03-22T15:13:12Z</time></trkpt><trkpt lat="1.1852846366879115" lon="-76.65351626892483"><ele>722.0</ele><time>2026-03-22T15:13:25Z</time></trkpt><trkpt lat="1.1853442968754282" lon="-76.65346946807574"><ele>721.4285714285714</ele><time>2026-03-22T15:19:40.001Z</time></trkpt><trkpt lat="1.1853750998960064" lon="-76.65338887514012"><ele>720.8571428571428</ele><time>2026-03-22T15:23:12.001Z</time></trkpt><trkpt lat="1.1854048894098714" lon="-76.65332876559651"><ele>720.2857142857142</ele><time>2026-03-22T15:23:38.001Z</time></trkpt><trkpt lat="1.185437866896392" lon="-76.65327360222368"><ele>719.7142857142858</ele><time>2026-03-22T15:23:44.001Z</time></trkpt><trkpt lat="1.1854670058254808" lon="-76.65320775073128"><ele>719.1428571428571</ele><time>2026-03-22T15:23:53.001Z</time></trkpt><trkpt lat="1.185520885822191" lon="-76.65315823996754"><ele>718.5714285714286</ele><time>2026-03-22T15:24:09.001Z</time></trkpt><trkpt lat="1.1855571663184494" lon="-76.65309975740168"><ele>718.0</ele><time>2026-03-22T15:24:23.001Z</time></trkpt><trkpt lat="1.1856061152525639" lon="-76.65305671448588"><ele>718.0</ele><time>2026-03-22T15:24:32.001Z</time></trkpt><trkpt lat="1.1856557610377625" lon="-76.65301257364398"><ele>718.0</ele><time>2026-03-22T15:24:35.001Z</time></trkpt><trkpt lat="1.1857200490062012" lon="-76.65296346485887"><ele>718.0</ele><time>2026-03-22T15:24:39.001Z</time></trkpt><trkpt lat="1.1857721048322638" lon="-76.65292090277704"><ele>718.0</ele><time>2026-03-22T15:24:41.001Z</time></trkpt><trkpt lat="1.1858381122072106" lon="-76.65283993258065"><ele>718.0</ele><time>2026-03-22T15:24:44.001Z</time></trkpt><trkpt lat="1.1858921142372627" lon="-76.65279768500008"><ele>718.0</ele><time>2026-03-22T15:24:47.001Z</time></trkpt><trkpt lat="1.1859093499539208" lon="-76.65273045700592"><ele>717.3333333333334</ele><time>2026-03-22T15:24:52.001Z</time></trkpt><trkpt lat="1.1859122944239135" lon="-76.65266458218515"><ele>716.6666666666667</ele><time>2026-03-22T15:24:57.001Z</time></trkpt><trkpt lat="1.1859548087989553" lon="-76.65260514405647"><ele>716.0</ele><time>2026-03-22T15:25:08.001Z</time></trkpt><trkpt lat="1.1859563373041593" lon="-76.65253533505623"><ele>715.3333333333334</ele><time>2026-03-22T15:25:22.001Z</time></trkpt><trkpt lat="1.185922033019896" lon="-76.65247786629058"><ele>714.6666666666666</ele><time>2026-03-22T15:25:27.001Z</time></trkpt><trkpt lat="1.1859821185558312" lon="-76.65244381760526"><ele>714.0</ele><time>2026-03-22T15:25:31.001Z</time></trkpt><trkpt lat="1.185957115237032" lon="-76.65232493164783"><ele>714.0</ele><time>2026-03-22T15:25:35.001Z</time></trkpt><trkpt lat="1.1860073572307517" lon="-76.65225501726674"><ele>714.0</ele><time>2026-03-22T15:25:40.001Z</time></trkpt><trkpt lat="1.186008744703586" lon="-76.65219070322185"><ele>714.0</ele><time>2026-03-22T15:25:44.001Z</time></trkpt><trkpt lat="1.186057786964861" lon="-76.65213546050215"><ele>714.0</ele><time>2026-03-22T15:25:50Z</time></trkpt><trkpt lat="1.186122552319617" lon="-76.65209708245636"><ele>714.0</ele><time>2026-03-22T15:25:55Z</time></trkpt><trkpt lat="1.1861465575848849" lon="-76.65202378326764"><ele>714.0</ele><time>2026-03-22T15:25:59Z</time></trkpt><trkpt lat="1.1862086082161998" lon="-76.65197482263575"><ele>713.0</ele><time>2026-03-22T15:26:02Z</time></trkpt><trkpt lat="1.1862253730271068" lon="-76.6518948242987"><ele>712.0</ele><time>2026-03-22T15:26:13Z</time></trkpt><trkpt lat="1.1862802208668826" lon="-76.65186213124828"><ele>711.0</ele><time>2026-03-22T15:26:15Z</time></trkpt><trkpt lat="1.1863332349578197" lon="-76.65181659420993"><ele>710.0</ele><time>2026-03-22T15:26:16Z</time></trkpt><trkpt lat="1.186406714898131" lon="-76.65175692730031"><ele>709.0</ele><time>2026-03-22T15:26:25Z</time></trkpt><trkpt lat="1.1864659311669703" lon="-76.65171482513891"><ele>708.0</ele><time>2026-03-22T15:26:27Z</time></trkpt><trkpt lat="1.1865416244152425" lon="-76.6516672619252"><ele>708.0</ele><time>2026-03-22T15:26:37Z</time></trkpt><trkpt lat="1.1865850674105574" lon="-76.6516183513345"><ele>708.0</ele><time>2026-03-22T15:26:42Z</time></trkpt><trkpt lat="1.1866568672699094" lon="-76.65157740704913"><ele>708.0</ele><time>2026-03-22T15:26:46Z</time></trkpt><trkpt lat="1.1867095920965225" lon="-76.65152592044069"><ele>708.0</ele><time>2026-03-22T15:26:49Z</time></trkpt><trkpt lat="1.186674824176322" lon="-76.65146361214988"><ele>708.0</ele><time>2026-03-22T15:26:53Z</time></trkpt><trkpt lat="1.1866819568452978" lon="-76.65139925206498"><ele>708.0</ele><time>2026-03-22T15:26:56Z</time></trkpt><trkpt lat="1.186672061422972" lon="-76.65133686548441"><ele>708.0</ele><time>2026-03-22T15:27:00Z</time></trkpt><trkpt lat="1.1866161271461406" lon="-76.65130691031071"><ele>708.0</ele><time>2026-03-22T15:27:03Z</time></trkpt><trkpt lat="1.1866193862237495" lon="-76.65137312986516"><ele>708.0</ele><time>2026-03-22T15:27:08Z</time></trkpt><trkpt lat="1.1866229345120127" lon="-76.65130733815099"><ele>708.0</ele><time>2026-03-22T15:27:16Z</time></trkpt><trkpt lat="1.1865440670465874" lon="-76.65129062660822"><ele>708.0</ele><time>2026-03-22T15:27:25Z</time></trkpt><trkpt lat="1.1865900070584818" lon="-76.65122321988137"><ele>708.0</ele><time>2026-03-22T15:27:32Z</time></trkpt><trkpt lat="1.186617104714577" lon="-76.65115367813677"><ele>708.0</ele><time>2026-03-22T15:27:39Z</time></trkpt><trkpt lat="1.1865654413596152" lon="-76.65110828577288"><ele>708.0</ele><time>2026-03-22T15:27:43Z</time></trkpt><trkpt lat="1.186567213587784" lon="-76.6509978645768"><ele>706.6666666666666</ele><time>2026-03-22T15:28:02Z</time></trkpt><trkpt lat="1.1865337581283228" lon="-76.65094063633379"><ele>705.3333333333334</ele><time>2026-03-22T15:28:04Z</time></trkpt><trkpt lat="1.1865347670025719" lon="-76.65085236902294"><ele>704.0</ele><time>2026-03-22T15:28:07Z</time></trkpt><trkpt lat="1.1866027802066461" lon="-76.65083408647806"><ele>702.6666666666667</ele><time>2026-03-22T15:28:13Z</time></trkpt><trkpt lat="1.1866565234299713" lon="-76.65087740872677"><ele>701.3333333333334</ele><time>2026-03-22T15:28:27Z</time></trkpt><trkpt lat="1.1867141793801026" lon="-76.65081816845745"><ele>700.0</ele><time>2026-03-22T15:28:51Z</time></trkpt><trkpt lat="1.1866325884392657" lon="-76.65081273964736"><ele>700.0</ele><time>2026-03-22T15:29:14Z</time></trkpt><trkpt lat="1.1866022784006924" lon="-76.65075248426476"><ele>700.0</ele><time>2026-03-22T15:29:31Z</time></trkpt><trkpt lat="1.1866093433154183" lon="-76.65068935489475"><ele>700.0</ele><time>2026-03-22T15:29:36Z</time></trkpt><trkpt lat="1.186663074875917" lon="-76.65064144214882"><ele>700.0</ele><time>2026-03-22T15:29:47Z</time></trkpt><trkpt lat="1.18669841034623" lon="-76.65058864396647"><ele>700.0</ele><time>2026-03-22T15:29:52Z</time></trkpt><trkpt lat="1.1867128715608175" lon="-76.6504963159383"><ele>700.0</ele><time>2026-03-22T15:30:21Z</time></trkpt><trkpt lat="1.186657303375423" lon="-76.65046172085776"><ele>700.0</ele><time>2026-03-22T15:30:27Z</time></trkpt><trkpt lat="1.1867288051909073" lon="-76.65043694456648"><ele>700.0</ele><time>2026-03-22T15:31:11Z</time></trkpt><trkpt lat="1.1867936845203084" lon="-76.65041108181454"><ele>700.0</ele><time>2026-03-22T15:31:19Z</time></trkpt><trkpt lat="1.186811833415542" lon="-76.65034673823936"><ele>700.0</ele><time>2026-03-22T15:31:28Z</time></trkpt><trkpt lat="1.186812398569344" lon="-76.65043792597847"><ele>700.0</ele><time>2026-03-22T15:31:46Z</time></trkpt><trkpt lat="1.1868173980834902" lon="-76.65054117258859"><ele>700.0</ele><time>2026-03-22T15:32:16Z</time></trkpt><trkpt lat="1.1868717234286412" lon="-76.65058707595038"><ele>700.0</ele><time>2026-03-22T15:32:41Z</time></trkpt><trkpt lat="1.1868995495087495" lon="-76.65064377660053"><ele>700.0</ele><time>2026-03-22T15:32:43.999Z</time></trkpt><trkpt lat="1.1868768301534254" lon="-76.650573036124"><ele>700.0</ele><time>2026-03-22T15:32:52.999Z</time></trkpt><trkpt lat="1.1868559542528805" lon="-76.65051158914093"><ele>700.0</ele><time>2026-03-22T15:32:57.999Z</time></trkpt><trkpt lat="1.1868424039713243" lon="-76.6504499597994"><ele>700.0</ele><time>2026-03-22T15:33:00.999Z</time></trkpt><trkpt lat="1.1868942046491167" lon="-76.65040516650251"><ele>700.0</ele><time>2026-03-22T15:33:08Z</time></trkpt><trkpt lat="1.186967648511944" lon="-76.65039411018441"><ele>700.0</ele><time>2026-03-22T15:33:12Z</time></trkpt><trkpt lat="1.1870309733961923" lon="-76.65038333353075"><ele>700.0</ele><time>2026-03-22T15:33:27Z</time></trkpt><trkpt lat="1.1870953390488788" lon="-76.65037877415479"><ele>700.0</ele><time>2026-03-22T15:33:32Z</time></trkpt><trkpt lat="1.1871589369183542" lon="-76.65032974042678"><ele>700.0</ele><time>2026-03-22T15:33:39Z</time></trkpt><trkpt lat="1.1872283039892113" lon="-76.65031462043652"><ele>700.0</ele><time>2026-03-22T15:33:42Z</time></trkpt><trkpt lat="1.1872842859285" lon="-76.65034994516121"><ele>700.0</ele><time>2026-03-22T15:33:44Z</time></trkpt><trkpt lat="1.1873508550766625" lon="-76.65029580067153"><ele>700.0</ele><time>2026-03-22T15:33:47Z</time></trkpt><trkpt lat="1.1874193283214634" lon="-76.65028102428133"><ele>700.0</ele><time>2026-03-22T15:33:48Z</time></trkpt><trkpt lat="1.1875100243380472" lon="-76.65025302901869"><ele>698.5</ele><time>2026-03-22T15:33:50Z</time></trkpt><trkpt lat="1.1875697206211049" lon="-76.6502078170737"><ele>697.0</ele><time>2026-03-22T15:33:53Z</time></trkpt><trkpt lat="1.1876340751039116" lon="-76.65017133505663"><ele>695.5</ele><time>2026-03-22T15:35:21Z</time></trkpt><trkpt lat="1.1877064950867442" lon="-76.65014979742895"><ele>694.0</ele><time>2026-03-22T15:35:28Z</time></trkpt><trkpt lat="1.1877910867079509" lon="-76.65009844205059"><ele>692.5</ele><time>2026-03-22T15:35:31Z</time></trkpt><trkpt lat="1.1878588214196393" lon="-76.65005901178667"><ele>691.0</ele><time>2026-03-22T15:35:33Z</time></trkpt><trkpt lat="1.187941923169382" lon="-76.65001395807504"><ele>691.0</ele><time>2026-03-22T15:35:36Z</time></trkpt><trkpt lat="1.1880333097107567" lon="-76.64996984891704"><ele>691.0</ele><time>2026-03-22T15:35:39Z</time></trkpt><trkpt lat="1.1881007192374162" lon="-76.64991399364767"><ele>691.0</ele><time>2026-03-22T15:35:41Z</time></trkpt><trkpt lat="1.1881891341564588" lon="-76.64985742154077"><ele>691.0</ele><time>2026-03-22T15:35:43Z</time></trkpt><trkpt lat="1.1882821292524828" lon="-76.6498522691718"><ele>691.0</ele><time>2026-03-22T15:35:45Z</time></trkpt><trkpt lat="1.1884013121252233" lon="-76.64980923559764"><ele>689.8333333333334</ele><time>2026-03-22T15:35:47Z</time></trkpt><trkpt lat="1.188483342129889" lon="-76.64976173730133"><ele>688.6666666666667</ele><time>2026-03-22T15:35:49Z</time></trkpt><trkpt lat="1.1885642801022953" lon="-76.64971346456967"><ele>687.5</ele><time>2026-03-22T15:35:51Z</time></trkpt><trkpt lat="1.1886350737904559" lon="-76.64967121112487"><ele>686.3333333333334</ele><time>2026-03-22T15:35:53Z</time></trkpt><trkpt lat="1.1886945784784644" lon="-76.64963836142746"><ele>685.1666666666666</ele><time>2026-03-22T15:35:55Z</time></trkpt><trkpt lat="1.188767997506075" lon="-76.64955779095561"><ele>684.0</ele><time>2026-03-22T15:35:58Z</time></trkpt><trkpt lat="1.188799816382889" lon="-76.64947531301645"><ele>683.8000000000001</ele><time>2026-03-22T15:36:00Z</time></trkpt><trkpt lat="1.1888406621212997" lon="-76.64939673989582"><ele>683.6</ele><time>2026-03-22T15:36:02Z</time></trkpt><trkpt lat="1.1888680187816418" lon="-76.6492965772145"><ele>683.4</ele><time>2026-03-22T15:36:04Z</time></trkpt><trkpt lat="1.1888935315168352" lon="-76.64921596575459"><ele>683.2</ele><time>2026-03-22T15:36:06Z</time></trkpt><trkpt lat="1.1888812881516406" lon="-76.64912411128866"><ele>683.0</ele><time>2026-03-22T15:36:08Z</time></trkpt><trkpt lat="1.1888838550262633" lon="-76.64903692803563"><ele>683.0</ele><time>2026-03-22T15:36:10Z</time></trkpt><trkpt lat="1.1889549710248308" lon="-76.64896794392266"><ele>683.0</ele><time>2026-03-22T15:36:12Z</time></trkpt><trkpt lat="1.1890011244850516" lon="-76.64891707009528"><ele>683.0</ele><time>2026-03-22T15:36:15Z</time></trkpt><trkpt lat="1.1890088409765405" lon="-76.64885016651466"><ele>683.0</ele><time>2026-03-22T15:36:18Z</time></trkpt><trkpt lat="1.189069969799551" lon="-76.64882704541766"><ele>683.0</ele><time>2026-03-22T15:36:20Z</time></trkpt><trkpt lat="1.1891306208833905" lon="-76.64877131673805"><ele>683.0</ele><time>2026-03-22T15:36:22Z</time></trkpt><trkpt lat="1.189192342948569" lon="-76.6486739016997"><ele>680.5714285714286</ele><time>2026-03-22T15:36:25Z</time></trkpt><trkpt lat="1.1891903451940289" lon="-76.64861022064433"><ele>678.1428571428571</ele><time>2026-03-22T15:36:29Z</time></trkpt><trkpt lat="1.1892113951206353" lon="-76.64854984979776"><ele>675.7142857142858</ele><time>2026-03-22T15:36:34Z</time></trkpt><trkpt lat="1.1892210989821266" lon="-76.64847224445433"><ele>673.2857142857142</ele><time>2026-03-22T15:36:39.999Z</time></trkpt><trkpt lat="1.189217924206266" lon="-76.64853938171834"><ele>670.8571428571428</ele><time>2026-03-22T15:36:49.999Z</time></trkpt><trkpt lat="1.1892315349252836" lon="-76.64844807110002"><ele>668.4285714285714</ele><time>2026-03-22T15:37:40Z</time></trkpt><trkpt lat="1.1892260576511626" lon="-76.64837816511195"><ele>666.0</ele><time>2026-03-22T15:37:46Z</time></trkpt><trkpt lat="1.1892024056673087" lon="-76.64831641981911"><ele>666.0</ele><time>2026-03-22T15:37:59Z</time></trkpt><trkpt lat="1.1891791553958198" lon="-76.64822742102182"><ele>666.0</ele><time>2026-03-22T15:38:01Z</time></trkpt><trkpt lat="1.1891868306202176" lon="-76.64814929883217"><ele>666.0</ele><time>2026-03-22T15:38:03Z</time></trkpt><trkpt lat="1.1891671979540885" lon="-76.64807683742256"><ele>666.0</ele><time>2026-03-22T15:38:07Z</time></trkpt><trkpt lat="1.1891571688434208" lon="-76.64800711161274"><ele>666.0</ele><time>2026-03-22T15:38:10Z</time></trkpt><trkpt lat="1.1891511071237526" lon="-76.64794080277045"><ele>666.0</ele><time>2026-03-22T15:38:12Z</time></trkpt><trkpt lat="1.1891613104766334" lon="-76.64785962377522"><ele>666.0</ele><time>2026-03-22T15:38:47Z</time></trkpt><trkpt lat="1.1892462493537233" lon="-76.64781412537143"><ele>666.0</ele><time>2026-03-22T15:38:49Z</time></trkpt><trkpt lat="1.1893928990451492" lon="-76.6477695307848"><ele>666.0</ele><time>2026-03-22T15:38:51Z</time></trkpt><trkpt lat="1.1894854252870877" lon="-76.6477537130765"><ele>666.0</ele><time>2026-03-22T15:38:51.999Z</time></trkpt><trkpt lat="1.1895709629594966" lon="-76.64774900665562"><ele>666.0</ele><time>2026-03-22T15:38:52.999Z</time></trkpt><trkpt lat="1.1896396653495631" lon="-76.64773806091584"><ele>665.8333333333334</ele><time>2026-03-22T15:38:53.999Z</time></trkpt><trkpt lat="1.189724471707582" lon="-76.64773312125227"><ele>665.6666666666666</ele><time>2026-03-22T15:38:54.999Z</time></trkpt><trkpt lat="1.1898029908371455" lon="-76.64771491374367"><ele>665.5</ele><time>2026-03-22T15:38:55.999Z</time></trkpt><trkpt lat="1.1898845773603246" lon="-76.64769468652038"><ele>665.3333333333333</ele><time>2026-03-22T15:38:56.999Z</time></trkpt><trkpt lat="1.1899666574383354" lon="-76.64767437279446"><ele>665.1666666666666</ele><time>2026-03-22T15:38:57.999Z</time></trkpt><trkpt lat="1.1900605536749704" lon="-76.64766091141648"><ele>665.0</ele><time>2026-03-22T15:38:58.999Z</time></trkpt><trkpt lat="1.190154988570025" lon="-76.6476473477611"><ele>665.0</ele><time>2026-03-22T15:38:59.999Z</time></trkpt><trkpt lat="1.1902492614125826" lon="-76.64763250864146"><ele>665.0</ele><time>2026-03-22T15:39:00.999Z</time></trkpt><trkpt lat="1.1903450239992655" lon="-76.64761741880228"><ele>665.0</ele><time>2026-03-22T15:39:01.999Z</time></trkpt><trkpt lat="1.1904371665435192" lon="-76.64760392637193"><ele>665.0</ele><time>2026-03-22T15:39:02.999Z</time></trkpt><trkpt lat="1.1905129073576262" lon="-76.6475913093509"><ele>665.0</ele><time>2026-03-22T15:39:03.999Z</time></trkpt><trkpt lat="1.1905884129678934" lon="-76.64758528225315"><ele>665.0</ele><time>2026-03-22T15:39:04.999Z</time></trkpt><trkpt lat="1.1906634107197933" lon="-76.64757746853235"><ele>665.3333333333333</ele><time>2026-03-22T15:39:05.999Z</time></trkpt><trkpt lat="1.19079292412947" lon="-76.64756266655081"><ele>665.6666666666666</ele><time>2026-03-22T15:39:07.999Z</time></trkpt><trkpt lat="1.1908750638832697" lon="-76.64755594420016"><ele>666.0</ele><time>2026-03-22T15:39:08.999Z</time></trkpt><trkpt lat="1.1909517368121605" lon="-76.64754640857736"><ele>666.3333333333334</ele><time>2026-03-22T15:39:09.999Z</time></trkpt><trkpt lat="1.1910238163610245" lon="-76.64753555751996"><ele>666.6666666666667</ele><time>2026-03-22T15:39:10.999Z</time></trkpt><trkpt lat="1.1911005340500689" lon="-76.64752267249251"><ele>667.0</ele><time>2026-03-22T15:39:11.999Z</time></trkpt><trkpt lat="1.1911748720511939" lon="-76.64750657217606"><ele>667.0</ele><time>2026-03-22T15:39:12.999Z</time></trkpt><trkpt lat="1.191247571944597" lon="-76.64749409708874"><ele>667.0</ele><time>2026-03-22T15:39:13.999Z</time></trkpt><trkpt lat="1.1913206711988793" lon="-76.64749251946688"><ele>667.0</ele><time>2026-03-22T15:39:14.999Z</time></trkpt><trkpt lat="1.1913863693459101" lon="-76.64749221373705"><ele>667.0</ele><time>2026-03-22T15:39:15.999Z</time></trkpt><trkpt lat="1.1915128533868784" lon="-76.64754356514784"><ele>667.0</ele><time>2026-03-22T15:39:17.999Z</time></trkpt><trkpt lat="1.191580690224853" lon="-76.64755882170874"><ele>667.0</ele><time>2026-03-22T15:39:18.999Z</time></trkpt><trkpt lat="1.1916516335067686" lon="-76.6475737318265"><ele>667.4285714285714</ele><time>2026-03-22T15:39:19.999Z</time></trkpt><trkpt lat="1.1917199284359317" lon="-76.64758808533766"><ele>667.8571428571429</ele><time>2026-03-22T15:39:20.999Z</time></trkpt><trkpt lat="1.191789339545176" lon="-76.64760240559794"><ele>668.2857142857142</ele><time>2026-03-22T15:39:22Z</time></trkpt><trkpt lat="1.191861683955079" lon="-76.64761676769832"><ele>668.7142857142858</ele><time>2026-03-22T15:39:23Z</time></trkpt><trkpt lat="1.1919399044945815" lon="-76.64763260761569"><ele>669.1428571428571</ele><time>2026-03-22T15:39:24Z</time></trkpt><trkpt lat="1.192013806172893" lon="-76.64764788231906"><ele>669.5714285714286</ele><time>2026-03-22T15:39:25Z</time></trkpt><trkpt lat="1.1920910391963981" lon="-76.64765862406763"><ele>670.0</ele><time>2026-03-22T15:39:26Z</time></trkpt><trkpt lat="1.1921716597626406" lon="-76.64766957253772"><ele>670.0</ele><time>2026-03-22T15:39:27Z</time></trkpt><trkpt lat="1.1922625262123248" lon="-76.64768191242884"><ele>670.0</ele><time>2026-03-22T15:39:28Z</time></trkpt><trkpt lat="1.1923477755221652" lon="-76.64769348949689"><ele>670.0</ele><time>2026-03-22T15:39:29Z</time></trkpt><trkpt lat="1.192439897662746" lon="-76.64770606511692"><ele>670.0</ele><time>2026-03-22T15:39:30Z</time></trkpt><trkpt lat="1.1925326085335743" lon="-76.64771898033112"><ele>670.0</ele><time>2026-03-22T15:39:31Z</time></trkpt><trkpt lat="1.1926263933971373" lon="-76.64773204515748"><ele>670.8</ele><time>2026-03-22T15:39:32Z</time></trkpt><trkpt lat="1.1927254351473147" lon="-76.64774476433945"><ele>671.6</ele><time>2026-03-22T15:39:33Z</time></trkpt><trkpt lat="1.192820802992952" lon="-76.64775724781327"><ele>672.4000000000001</ele><time>2026-03-22T15:39:34Z</time></trkpt><trkpt lat="1.1929186935267666" lon="-76.64776999658189"><ele>673.2</ele><time>2026-03-22T15:39:35Z</time></trkpt><trkpt lat="1.1930179128087615" lon="-76.64778295342047"><ele>674.0</ele><time>2026-03-22T15:39:36Z</time></trkpt><trkpt lat="1.1931180444833618" lon="-76.6477961476004"><ele>675.6</ele><time>2026-03-22T15:39:37Z</time></trkpt><trkpt lat="1.1932166217157592" lon="-76.64780913695245"><ele>677.2</ele><time>2026-03-22T15:39:38Z</time></trkpt><trkpt lat="1.1933161740247784" lon="-76.64780677042614"><ele>678.8000000000001</ele><time>2026-03-22T15:39:39Z</time></trkpt><trkpt lat="1.1934206659735862" lon="-76.6478217841213"><ele>680.4000000000001</ele><time>2026-03-22T15:39:40Z</time></trkpt><trkpt lat="1.1935206459727379" lon="-76.64783313409146"><ele>682.0</ele><time>2026-03-22T15:39:41Z</time></trkpt><trkpt lat="1.1936206973500618" lon="-76.64784886077837"><ele>682.0</ele><time>2026-03-22T15:39:42Z</time></trkpt><trkpt lat="1.1937218110899246" lon="-76.64786470563504"><ele>682.0</ele><time>2026-03-22T15:39:43Z</time></trkpt><trkpt lat="1.1938224600309406" lon="-76.64787657227346"><ele>682.0</ele><time>2026-03-22T15:39:44Z</time></trkpt><trkpt lat="1.1939231979218428" lon="-76.64789262543913"><ele>682.0</ele><time>2026-03-22T15:39:45Z</time></trkpt><trkpt lat="1.1940195747773603" lon="-76.64790936937027"><ele>682.0</ele><time>2026-03-22T15:39:46Z</time></trkpt><trkpt lat="1.1941165378862042" lon="-76.64791899927046"><ele>683.2</ele><time>2026-03-22T15:39:47Z</time></trkpt><trkpt lat="1.1942095079569586" lon="-76.64793002533797"><ele>684.4000000000001</ele><time>2026-03-22T15:39:48Z</time></trkpt><trkpt lat="1.194307507162964" lon="-76.64794449134826"><ele>685.5999999999999</ele><time>2026-03-22T15:39:49Z</time></trkpt><trkpt lat="1.194406638084055" lon="-76.64795918031903"><ele>686.8</ele><time>2026-03-22T15:39:50Z</time></trkpt><trkpt lat="1.1945058922590714" lon="-76.64797502669569"><ele>688.0</ele><time>2026-03-22T15:39:51Z</time></trkpt><trkpt lat="1.1946034603682285" lon="-76.64798836085971"><ele>688.0</ele><time>2026-03-22T15:39:52Z</time></trkpt><trkpt lat="1.1947011752850012" lon="-76.64800422035992"><ele>688.0</ele><time>2026-03-22T15:39:53Z</time></trkpt><trkpt lat="1.1947941308948684" lon="-76.64801956118374"><ele>688.0</ele><time>2026-03-22T15:39:54Z</time></trkpt><trkpt lat="1.1948891290375543" lon="-76.64803177807481"><ele>688.0</ele><time>2026-03-22T15:39:55Z</time></trkpt><trkpt lat="1.1949859545950756" lon="-76.64804379551127"><ele>688.0</ele><time>2026-03-22T15:39:56Z</time></trkpt><trkpt lat="1.1950864552468625" lon="-76.64805667324134"><ele>688.0</ele><time>2026-03-22T15:39:57Z</time></trkpt><trkpt lat="1.195188737598191" lon="-76.64807138370993"><ele>688.0</ele><time>2026-03-22T15:39:58Z</time></trkpt><trkpt lat="1.19528652842398" lon="-76.64808934491649"><ele>688.0</ele><time>2026-03-22T15:39:59Z</time></trkpt><trkpt lat="1.1953822843637991" lon="-76.64810871170856"><ele>688.0</ele><time>2026-03-22T15:40:00Z</time></trkpt><trkpt lat="1.1954858821445757" lon="-76.64812660612235"><ele>688.0</ele><time>2026-03-22T15:40:01Z</time></trkpt><trkpt lat="1.1955889913329145" lon="-76.64812788742363"><ele>688.8</ele><time>2026-03-22T15:40:02Z</time></trkpt><trkpt lat="1.1956986499966717" lon="-76.64812943020691"><ele>689.5999999999999</ele><time>2026-03-22T15:40:03Z</time></trkpt><trkpt lat="1.1958106805384265" lon="-76.64813175535555"><ele>690.4000000000001</ele><time>2026-03-22T15:40:04Z</time></trkpt><trkpt lat="1.1959199636397724" lon="-76.64813879185684"><ele>691.2</ele><time>2026-03-22T15:40:05Z</time></trkpt><trkpt lat="1.1960245611586768" lon="-76.64815884205508"><ele>692.0</ele><time>2026-03-22T15:40:06Z</time></trkpt><trkpt lat="1.1961314164361512" lon="-76.64818675248212"><ele>692.0</ele><time>2026-03-22T15:40:07Z</time></trkpt><trkpt lat="1.1962374993731748" lon="-76.64821463840639"><ele>692.0</ele><time>2026-03-22T15:40:08Z</time></trkpt><trkpt lat="1.1963458383990249" lon="-76.6482458803988"><ele>692.0</ele><time>2026-03-22T15:40:09Z</time></trkpt><trkpt lat="1.1964595405270255" lon="-76.64827678560312"><ele>692.0</ele><time>2026-03-22T15:40:10Z</time></trkpt><trkpt lat="1.1965752018163693" lon="-76.64830523555158"><ele>692.0</ele><time>2026-03-22T15:40:11Z</time></trkpt><trkpt lat="1.1966916218143513" lon="-76.64833758968709"><ele>692.0</ele><time>2026-03-22T15:40:12Z</time></trkpt><trkpt lat="1.1968090232651551" lon="-76.64837130831633"><ele>692.0</ele><time>2026-03-22T15:40:13Z</time></trkpt><trkpt lat="1.1969253758599556" lon="-76.64840200920771"><ele>692.0</ele><time>2026-03-22T15:40:14Z</time></trkpt><trkpt lat="1.1970404481036778" lon="-76.6484343937022"><ele>692.0</ele><time>2026-03-22T15:40:15Z</time></trkpt><trkpt lat="1.1971550233070942" lon="-76.64846652530798"><ele>692.0</ele><time>2026-03-22T15:40:16Z</time></trkpt><trkpt lat="1.1972692669486829" lon="-76.64849778222073"><ele>692.0</ele><time>2026-03-22T15:40:17Z</time></trkpt><trkpt lat="1.19737617711567" lon="-76.6485442842085"><ele>692.0</ele><time>2026-03-22T15:40:18Z</time></trkpt><trkpt lat="1.197486188070764" lon="-76.6485782746112"><ele>692.75</ele><time>2026-03-22T15:40:19Z</time></trkpt><trkpt lat="1.1975978871840265" lon="-76.64861285442397"><ele>693.5</ele><time>2026-03-22T15:40:20Z</time></trkpt><trkpt lat="1.1977120319392147" lon="-76.64864818896686"><ele>694.25</ele><time>2026-03-22T15:40:21Z</time></trkpt><trkpt lat="1.1978265958579641" lon="-76.64868365326713"><ele>695.0</ele><time>2026-03-22T15:40:22Z</time></trkpt><trkpt lat="1.1979400268395608" lon="-76.64871932056909"><ele>695.25</ele><time>2026-03-22T15:40:23Z</time></trkpt><trkpt lat="1.1980502398401116" lon="-76.6487532736098"><ele>695.5</ele><time>2026-03-22T15:40:24Z</time></trkpt><trkpt lat="1.198165094623197" lon="-76.64878865663361"><ele>695.75</ele><time>2026-03-22T15:40:25Z</time></trkpt><trkpt lat="1.1982802078553965" lon="-76.64882411927928"><ele>696.0</ele><time>2026-03-22T15:40:26Z</time></trkpt><trkpt lat="1.1983869113176266" lon="-76.64885700948957"><ele>697.1999999999999</ele><time>2026-03-22T15:40:27Z</time></trkpt><trkpt lat="1.1984988106896255" lon="-76.64889215580807"><ele>698.4</ele><time>2026-03-22T15:40:28Z</time></trkpt><trkpt lat="1.198602285069174" lon="-76.64892391948293"><ele>699.6</ele><time>2026-03-22T15:40:29Z</time></trkpt><trkpt lat="1.1986975584994737" lon="-76.64895315994465"><ele>700.8</ele><time>2026-03-22T15:40:30Z</time></trkpt><trkpt lat="1.198794681077036" lon="-76.6489829270985"><ele>702.0</ele><time>2026-03-22T15:40:31Z</time></trkpt><trkpt lat="1.1988992289995393" lon="-76.64900067625646"><ele>702.0</ele><time>2026-03-22T15:40:32Z</time></trkpt><trkpt lat="1.199000330471802" lon="-76.6490211492087"><ele>702.0</ele><time>2026-03-22T15:40:33Z</time></trkpt><trkpt lat="1.1990999318687268" lon="-76.64904197292992"><ele>702.0</ele><time>2026-03-22T15:40:34Z</time></trkpt><trkpt lat="1.1992055064418663" lon="-76.64905083424938"><ele>702.0</ele><time>2026-03-22T15:40:35Z</time></trkpt><trkpt lat="1.1993122124567783" lon="-76.64908332372997"><ele>702.0</ele><time>2026-03-22T15:40:36Z</time></trkpt><trkpt lat="1.199413215249437" lon="-76.64911157153038"><ele>702.0</ele><time>2026-03-22T15:40:37Z</time></trkpt><trkpt lat="1.1995265166030615" lon="-76.64914584447972"><ele>702.0</ele><time>2026-03-22T15:40:38Z</time></trkpt><trkpt lat="1.1996378040474183" lon="-76.64916936270843"><ele>702.0</ele><time>2026-03-22T15:40:39Z</time></trkpt><trkpt lat="1.1997459843687863" lon="-76.64918614528466"><ele>702.0</ele><time>2026-03-22T15:40:40Z</time></trkpt><trkpt lat="1.1998537633714124" lon="-76.64919837846523"><ele>702.2</ele><time>2026-03-22T15:40:41Z</time></trkpt><trkpt lat="1.199960259920547" lon="-76.64920422470654"><ele>702.4000000000001</ele><time>2026-03-22T15:40:42Z</time></trkpt><trkpt lat="1.2000687219218156" lon="-76.64920094625525"><ele>702.5999999999999</ele><time>2026-03-22T15:40:43Z</time></trkpt><trkpt lat="1.200182507838959" lon="-76.6492035207522"><ele>702.8</ele><time>2026-03-22T15:40:44Z</time></trkpt><trkpt lat="1.2003002422204407" lon="-76.64921112378954"><ele>703.0</ele><time>2026-03-22T15:40:45Z</time></trkpt><trkpt lat="1.2004137126675043" lon="-76.64921765907327"><ele>703.0</ele><time>2026-03-22T15:40:46Z</time></trkpt><trkpt lat="1.200529577098575" lon="-76.64922187968024"><ele>703.0</ele><time>2026-03-22T15:40:47Z</time></trkpt><trkpt lat="1.2006488817008962" lon="-76.64922880446689"><ele>703.0</ele><time>2026-03-22T15:40:48Z</time></trkpt><trkpt lat="1.2007707176973306" lon="-76.64923133425329"><ele>703.0</ele><time>2026-03-22T15:40:49Z</time></trkpt><trkpt lat="1.2008907161700162" lon="-76.6492403505805"><ele>703.0</ele><time>2026-03-22T15:40:50Z</time></trkpt><trkpt lat="1.2010107617968586" lon="-76.64925451855606"><ele>703.0</ele><time>2026-03-22T15:40:51Z</time></trkpt><trkpt lat="1.2011243505406992" lon="-76.64926175819637"><ele>703.0</ele><time>2026-03-22T15:40:52Z</time></trkpt><trkpt lat="1.2012415459637147" lon="-76.64927195564889"><ele>703.0</ele><time>2026-03-22T15:40:53Z</time></trkpt><trkpt lat="1.2013609417706035" lon="-76.64927558070308"><ele>703.0</ele><time>2026-03-22T15:40:54Z</time></trkpt><trkpt lat="1.2014842049667414" lon="-76.64928087360067"><ele>703.0</ele><time>2026-03-22T15:40:55Z</time></trkpt><trkpt lat="1.201606215185448" lon="-76.64928284545826"><ele>703.0</ele><time>2026-03-22T15:40:56Z</time></trkpt><trkpt lat="1.2017243727579447" lon="-76.64928524057241"><ele>703.0</ele><time>2026-03-22T15:40:57Z</time></trkpt><trkpt lat="1.2018466386582383" lon="-76.64928650194967"><ele>702.5</ele><time>2026-03-22T15:40:58Z</time></trkpt><trkpt lat="1.2019617352947205" lon="-76.64929353114897"><ele>702.0</ele><time>2026-03-22T15:40:59Z</time></trkpt><trkpt lat="1.2020725678513597" lon="-76.6493012664765"><ele>701.5</ele><time>2026-03-22T15:41:00Z</time></trkpt><trkpt lat="1.2021978767977313" lon="-76.64931672058562"><ele>701.0</ele><time>2026-03-22T15:41:01Z</time></trkpt><trkpt lat="1.2023077990497235" lon="-76.64934110706709"><ele>700.0</ele><time>2026-03-22T15:41:02Z</time></trkpt><trkpt lat="1.2024186563161192" lon="-76.64937478116585"><ele>699.0</ele><time>2026-03-22T15:41:03Z</time></trkpt><trkpt lat="1.2025196453326417" lon="-76.64941326748014"><ele>698.0</ele><time>2026-03-22T15:41:04Z</time></trkpt><trkpt lat="1.2026178994649452" lon="-76.64946162485609"><ele>697.0</ele><time>2026-03-22T15:41:05Z</time></trkpt><trkpt lat="1.202705647999576" lon="-76.64953017248216"><ele>696.0</ele><time>2026-03-22T15:41:06Z</time></trkpt><trkpt lat="1.2027598670077315" lon="-76.64962896809749"><ele>698.8</ele><time>2026-03-22T15:41:07Z</time></trkpt><trkpt lat="1.2028315229671116" lon="-76.64971544381117"><ele>701.5999999999999</ele><time>2026-03-22T15:41:08Z</time></trkpt><trkpt lat="1.2029111896755862" lon="-76.64979441283548"><ele>704.4</ele><time>2026-03-22T15:41:09Z</time></trkpt><trkpt lat="1.2029843257985258" lon="-76.64987595443458"><ele>707.2</ele><time>2026-03-22T15:41:09.999Z</time></trkpt><trkpt lat="1.2030482379418221" lon="-76.649952094876"><ele>710.0</ele><time>2026-03-22T15:41:10.999Z</time></trkpt><trkpt lat="1.2031029053342803" lon="-76.65004284456968"><ele>709.4</ele><time>2026-03-22T15:41:11.999Z</time></trkpt><trkpt lat="1.2031723125376337" lon="-76.65012685838447"><ele>708.8</ele><time>2026-03-22T15:41:12.999Z</time></trkpt><trkpt lat="1.203237069241522" lon="-76.65020536613883"><ele>708.2</ele><time>2026-03-22T15:41:13.999Z</time></trkpt><trkpt lat="1.2032997866514616" lon="-76.65028107374334"><ele>707.6</ele><time>2026-03-22T15:41:14.999Z</time></trkpt><trkpt lat="1.2033918955480114" lon="-76.6503338428644"><ele>707.0</ele><time>2026-03-22T15:41:15.999Z</time></trkpt><trkpt lat="1.2034699428481153" lon="-76.65039311880174"><ele>708.2</ele><time>2026-03-22T15:41:16.999Z</time></trkpt><trkpt lat="1.203559203763312" lon="-76.6504475847354"><ele>709.4000000000001</ele><time>2026-03-22T15:41:17.999Z</time></trkpt><trkpt lat="1.2036516428752126" lon="-76.650499666395"><ele>710.5999999999999</ele><time>2026-03-22T15:41:18.999Z</time></trkpt><trkpt lat="1.2037365492362275" lon="-76.65056833611672"><ele>711.8</ele><time>2026-03-22T15:41:19.999Z</time></trkpt><trkpt lat="1.2038296954849599" lon="-76.65062476546738"><ele>713.0</ele><time>2026-03-22T15:41:20.999Z</time></trkpt><trkpt lat="1.2039253265520589" lon="-76.65068316507113"><ele>713.0</ele><time>2026-03-22T15:41:21.999Z</time></trkpt><trkpt lat="1.204029779483088" lon="-76.65073006571399"><ele>713.0</ele><time>2026-03-22T15:41:22.999Z</time></trkpt><trkpt lat="1.2041276268413192" lon="-76.65079066239403"><ele>713.0</ele><time>2026-03-22T15:41:23.999Z</time></trkpt><trkpt lat="1.2042253177636606" lon="-76.65085128393657"><ele>713.0</ele><time>2026-03-22T15:41:24.999Z</time></trkpt><trkpt lat="1.2043221441951324" lon="-76.65090961474773"><ele>713.0</ele><time>2026-03-22T15:41:25.999Z</time></trkpt><trkpt lat="1.2044210436932083" lon="-76.65096654039004"><ele>713.0</ele><time>2026-03-22T15:41:26.999Z</time></trkpt><trkpt lat="1.2045138432761369" lon="-76.65102881180283"><ele>713.0</ele><time>2026-03-22T15:41:28Z</time></trkpt><trkpt lat="1.2046055997065506" lon="-76.65108845474987"><ele>713.0</ele><time>2026-03-22T15:41:29Z</time></trkpt><trkpt lat="1.204694309237917" lon="-76.65114585475624"><ele>713.0</ele><time>2026-03-22T15:41:30Z</time></trkpt><trkpt lat="1.2047800282849426" lon="-76.65120341511293"><ele>714.2</ele><time>2026-03-22T15:41:31Z</time></trkpt><trkpt lat="1.2048724746375803" lon="-76.65125746100092"><ele>715.4</ele><time>2026-03-22T15:41:32Z</time></trkpt><trkpt lat="1.20496078794663" lon="-76.65130890507525"><ele>716.6</ele><time>2026-03-22T15:41:33Z</time></trkpt><trkpt lat="1.2050570599463715" lon="-76.65136392919916"><ele>717.8000000000001</ele><time>2026-03-22T15:41:34Z</time></trkpt><trkpt lat="1.2051482116779422" lon="-76.65141696547728"><ele>719.0</ele><time>2026-03-22T15:41:35Z</time></trkpt><trkpt lat="1.2052387949357797" lon="-76.65147095557435"><ele>719.0</ele><time>2026-03-22T15:41:36Z</time></trkpt><trkpt lat="1.2053256406250874" lon="-76.65152385593679"><ele>719.0</ele><time>2026-03-22T15:41:37Z</time></trkpt><trkpt lat="1.2054155116368699" lon="-76.65157551448718"><ele>719.0</ele><time>2026-03-22T15:41:38Z</time></trkpt><trkpt lat="1.2055093524050835" lon="-76.65163197387331"><ele>719.0</ele><time>2026-03-22T15:41:39Z</time></trkpt><trkpt lat="1.2056022173551448" lon="-76.65169062542786"><ele>719.0</ele><time>2026-03-22T15:41:40Z</time></trkpt><trkpt lat="1.205694563756487" lon="-76.65174881056461"><ele>718.8000000000001</ele><time>2026-03-22T15:41:41Z</time></trkpt><trkpt lat="1.205788824082528" lon="-76.65180298501475"><ele>718.6</ele><time>2026-03-22T15:41:42Z</time></trkpt><trkpt lat="1.205880813575744" lon="-76.65185670097311"><ele>718.4</ele><time>2026-03-22T15:41:43Z</time></trkpt><trkpt lat="1.2059711035348613" lon="-76.65191354132389"><ele>718.2</ele><time>2026-03-22T15:41:44Z</time></trkpt><trkpt lat="1.2060618938564442" lon="-76.65197070643839"><ele>718.0</ele><time>2026-03-22T15:41:45Z</time></trkpt><trkpt lat="1.206152941656322" lon="-76.65202886538782"><ele>718.5999999999999</ele><time>2026-03-22T15:41:46Z</time></trkpt><trkpt lat="1.206247208652614" lon="-76.65208891996764"><ele>719.1999999999999</ele><time>2026-03-22T15:41:47Z</time></trkpt><trkpt lat="1.2063398578998068" lon="-76.65214495151365"><ele>719.8</ele><time>2026-03-22T15:41:48Z</time></trkpt><trkpt lat="1.2064302281208155" lon="-76.65220372363046"><ele>720.4</ele><time>2026-03-22T15:41:49Z</time></trkpt><trkpt lat="1.2065149022223274" lon="-76.65226452201864"><ele>721.0</ele><time>2026-03-22T15:41:50Z</time></trkpt><trkpt lat="1.206601053622833" lon="-76.65231964355493"><ele>721.0</ele><time>2026-03-22T15:41:51Z</time></trkpt><trkpt lat="1.2066969040599698" lon="-76.65237115812988"><ele>721.0</ele><time>2026-03-22T15:41:52Z</time></trkpt><trkpt lat="1.2067854516900964" lon="-76.65242084862818"><ele>721.0</ele><time>2026-03-22T15:41:53Z</time></trkpt><trkpt lat="1.2068731103417123" lon="-76.65247519079352"><ele>721.0</ele><time>2026-03-22T15:41:54Z</time></trkpt><trkpt lat="1.2069666597288473" lon="-76.65252998908933"><ele>721.0</ele><time>2026-03-22T15:41:55Z</time></trkpt><trkpt lat="1.2070643856586714" lon="-76.65258421971154"><ele>721.0</ele><time>2026-03-22T15:41:56Z</time></trkpt><trkpt lat="1.2071606699777262" lon="-76.65264149151226"><ele>721.0</ele><time>2026-03-22T15:41:57Z</time></trkpt><trkpt lat="1.2072550670585331" lon="-76.65269069444206"><ele>721.0</ele><time>2026-03-22T15:41:58Z</time></trkpt><trkpt lat="1.2073501054533733" lon="-76.65274592871125"><ele>721.0</ele><time>2026-03-22T15:41:59Z</time></trkpt><trkpt lat="1.2074405030654514" lon="-76.65280188417323"><ele>721.0</ele><time>2026-03-22T15:42:00Z</time></trkpt><trkpt lat="1.207534543353402" lon="-76.65285568904274"><ele>722.4</ele><time>2026-03-22T15:42:01Z</time></trkpt><trkpt lat="1.207629623777628" lon="-76.65290999063764"><ele>723.8</ele><time>2026-03-22T15:42:02Z</time></trkpt><trkpt lat="1.207721548242002" lon="-76.65296689545029"><ele>725.1999999999999</ele><time>2026-03-22T15:42:03Z</time></trkpt><trkpt lat="1.207813226225878" lon="-76.65302331844401"><ele>726.5999999999999</ele><time>2026-03-22T15:42:04Z</time></trkpt><trkpt lat="1.207905111117283" lon="-76.65308096045946"><ele>728.0</ele><time>2026-03-22T15:42:05Z</time></trkpt><trkpt lat="1.2079921367630104" lon="-76.65314014619236"><ele>728.0</ele><time>2026-03-22T15:42:06Z</time></trkpt><trkpt lat="1.20807514312319" lon="-76.65320613917298"><ele>728.0</ele><time>2026-03-22T15:42:07Z</time></trkpt><trkpt lat="1.2081503143150814" lon="-76.65328613333449"><ele>728.0</ele><time>2026-03-22T15:42:08Z</time></trkpt><trkpt lat="1.208216657865345" lon="-76.65337321630572"><ele>728.0</ele><time>2026-03-22T15:42:09Z</time></trkpt><trkpt lat="1.208277902443904" lon="-76.653465526529"><ele>728.0</ele><time>2026-03-22T15:42:10Z</time></trkpt><trkpt lat="1.2083353382150022" lon="-76.6535545724685"><ele>729.0</ele><time>2026-03-22T15:42:11Z</time></trkpt><trkpt lat="1.2083920497070328" lon="-76.65364069975985"><ele>730.0</ele><time>2026-03-22T15:42:12Z</time></trkpt><trkpt lat="1.2084471169838904" lon="-76.65373060232723"><ele>731.0</ele><time>2026-03-22T15:42:13Z</time></trkpt><trkpt lat="1.2084863231869314" lon="-76.65381128086501"><ele>732.0</ele><time>2026-03-22T15:42:14Z</time></trkpt><trkpt lat="1.2085160666616952" lon="-76.65389277363178"><ele>733.0</ele><time>2026-03-22T15:42:15Z</time></trkpt><trkpt lat="1.2085434003403233" lon="-76.6539675246856"><ele>733.0</ele><time>2026-03-22T15:42:16Z</time></trkpt><trkpt lat="1.2085842857333304" lon="-76.65402462326234"><ele>733.0</ele><time>2026-03-22T15:42:17Z</time></trkpt><trkpt lat="1.208650015488914" lon="-76.65407646315009"><ele>733.0</ele><time>2026-03-22T15:42:18Z</time></trkpt><trkpt lat="1.2087238398659985" lon="-76.65412294440017"><ele>733.0</ele><time>2026-03-22T15:42:19Z</time></trkpt><trkpt lat="1.2088002119448278" lon="-76.65416781076823"><ele>733.0</ele><time>2026-03-22T15:42:20Z</time></trkpt><trkpt lat="1.2088740591054472" lon="-76.65421531262714"><ele>733.0</ele><time>2026-03-22T15:42:21Z</time></trkpt><trkpt lat="1.2089514994177166" lon="-76.65426388060669"><ele>732.8</ele><time>2026-03-22T15:42:22Z</time></trkpt><trkpt lat="1.209043137218496" lon="-76.65429706530935"><ele>732.5999999999999</ele><time>2026-03-22T15:42:23Z</time></trkpt><trkpt lat="1.2091259768176714" lon="-76.654342969209"><ele>732.4000000000001</ele><time>2026-03-22T15:42:24Z</time></trkpt><trkpt lat="1.2092069230520255" lon="-76.65440435574146"><ele>732.2</ele><time>2026-03-22T15:42:25Z</time></trkpt><trkpt lat="1.2092965948863186" lon="-76.65444337046834"><ele>732.0</ele><time>2026-03-22T15:42:26Z</time></trkpt><trkpt lat="1.2093900770748747" lon="-76.65448429251093"><ele>732.0</ele><time>2026-03-22T15:42:27Z</time></trkpt><trkpt lat="1.2094805444852583" lon="-76.65452360752711"><ele>732.0</ele><time>2026-03-22T15:42:28Z</time></trkpt><trkpt lat="1.2095723491148038" lon="-76.65455700183868"><ele>732.0</ele><time>2026-03-22T15:42:29Z</time></trkpt><trkpt lat="1.209668081865518" lon="-76.65459894020731"><ele>732.0</ele><time>2026-03-22T15:42:30Z</time></trkpt><trkpt lat="1.2097638068946608" lon="-76.65464297557189"><ele>732.0</ele><time>2026-03-22T15:42:31Z</time></trkpt><trkpt lat="1.2098566082227815" lon="-76.65468007586804"><ele>731.5</ele><time>2026-03-22T15:42:32Z</time></trkpt><trkpt lat="1.2099426556697082" lon="-76.65471585877604"><ele>731.0</ele><time>2026-03-22T15:42:33Z</time></trkpt><trkpt lat="1.2100108107369938" lon="-76.65474468811303"><ele>730.5</ele><time>2026-03-22T15:42:34Z</time></trkpt><trkpt lat="1.2100823308944146" lon="-76.65477865582055"><ele>730.0</ele><time>2026-03-22T15:42:35Z</time></trkpt><trkpt lat="1.2101638283115208" lon="-76.65480997670335"><ele>729.5</ele><time>2026-03-22T15:42:36Z</time></trkpt><trkpt lat="1.2102438719126316" lon="-76.65484017637786"><ele>729.0</ele><time>2026-03-22T15:42:37Z</time></trkpt><trkpt lat="1.2103194830234534" lon="-76.65487433010341"><ele>729.0</ele><time>2026-03-22T15:42:38Z</time></trkpt><trkpt lat="1.2104011537463888" lon="-76.65490784509542"><ele>729.0</ele><time>2026-03-22T15:42:39Z</time></trkpt><trkpt lat="1.2104800809615426" lon="-76.65494410050755"><ele>729.0</ele><time>2026-03-22T15:42:40Z</time></trkpt><trkpt lat="1.2105511994194" lon="-76.65499238061741"><ele>729.0</ele><time>2026-03-22T15:42:41Z</time></trkpt><trkpt lat="1.210626408981318" lon="-76.65503914326727"><ele>729.0</ele><time>2026-03-22T15:42:42Z</time></trkpt><trkpt lat="1.2106967327691351" lon="-76.65509074887677"><ele>729.0</ele><time>2026-03-22T15:42:43Z</time></trkpt><trkpt lat="1.210769495443876" lon="-76.65514607497926"><ele>729.3333333333334</ele><time>2026-03-22T15:42:44Z</time></trkpt><trkpt lat="1.2108456460530423" lon="-76.6551944253521"><ele>729.6666666666666</ele><time>2026-03-22T15:42:45Z</time></trkpt><trkpt lat="1.2109142015825747" lon="-76.65523823782438"><ele>730.0</ele><time>2026-03-22T15:42:46Z</time></trkpt><trkpt lat="1.210984980753434" lon="-76.65527412714"><ele>730.3333333333333</ele><time>2026-03-22T15:42:47Z</time></trkpt><trkpt lat="1.2110665707011639" lon="-76.65531007065874"><ele>730.6666666666666</ele><time>2026-03-22T15:42:48Z</time></trkpt><trkpt lat="1.211149888213542" lon="-76.65534804187199"><ele>731.0</ele><time>2026-03-22T15:42:49Z</time></trkpt><trkpt lat="1.2112303411659782" lon="-76.65537627786648"><ele>731.0</ele><time>2026-03-22T15:42:50Z</time></trkpt><trkpt lat="1.2113125322667895" lon="-76.65541270574151"><ele>731.0</ele><time>2026-03-22T15:42:51Z</time></trkpt><trkpt lat="1.2113975708529237" lon="-76.65545608016153"><ele>731.0</ele><time>2026-03-22T15:42:52Z</time></trkpt><trkpt lat="1.2114772221734675" lon="-76.65550324821604"><ele>731.0</ele><time>2026-03-22T15:42:53Z</time></trkpt><trkpt lat="1.2115514384138288" lon="-76.65555299384131"><ele>731.0</ele><time>2026-03-22T15:42:54Z</time></trkpt><trkpt lat="1.2116284993265838" lon="-76.65560949715292"><ele>729.8333333333333</ele><time>2026-03-22T15:42:55Z</time></trkpt><trkpt lat="1.2117019790957737" lon="-76.65566745352525"><ele>728.6666666666666</ele><time>2026-03-22T15:42:56Z</time></trkpt><trkpt lat="1.2117678535232403" lon="-76.6557302407643"><ele>727.5</ele><time>2026-03-22T15:42:57Z</time></trkpt><trkpt lat="1.211829133730941" lon="-76.65579539133923"><ele>726.3333333333334</ele><time>2026-03-22T15:42:58Z</time></trkpt><trkpt lat="1.2118848989075994" lon="-76.65584918871035"><ele>725.1666666666667</ele><time>2026-03-22T15:42:59Z</time></trkpt><trkpt lat="1.211931282110889" lon="-76.65592621595107"><ele>724.0</ele><time>2026-03-22T15:43:00Z</time></trkpt><trkpt lat="1.2119854620955943" lon="-76.65599876382873"><ele>724.0</ele><time>2026-03-22T15:43:01Z</time></trkpt><trkpt lat="1.2120380145724052" lon="-76.65606915000023"><ele>724.0</ele><time>2026-03-22T15:43:02Z</time></trkpt><trkpt lat="1.2120925934767413" lon="-76.65614267968662"><ele>724.0</ele><time>2026-03-22T15:43:03Z</time></trkpt><trkpt lat="1.212149826745467" lon="-76.65621793012649"><ele>724.0</ele><time>2026-03-22T15:43:04Z</time></trkpt><trkpt lat="1.2122060123869722" lon="-76.6562902589286"><ele>724.0</ele><time>2026-03-22T15:43:05Z</time></trkpt><trkpt lat="1.212254916964807" lon="-76.656353045587"><ele>724.0</ele><time>2026-03-22T15:43:06Z</time></trkpt><trkpt lat="1.2123058704029552" lon="-76.65641846271116"><ele>724.3333333333334</ele><time>2026-03-22T15:43:07Z</time></trkpt><trkpt lat="1.2123457518227936" lon="-76.6564961294126"><ele>724.6666666666667</ele><time>2026-03-22T15:43:08Z</time></trkpt><trkpt lat="1.2123877353061285" lon="-76.6565686624555"><ele>725.0</ele><time>2026-03-22T15:43:09Z</time></trkpt><trkpt lat="1.212431237593732" lon="-76.65664381948048"><ele>725.3333333333334</ele><time>2026-03-22T15:43:10Z</time></trkpt><trkpt lat="1.2124767805597432" lon="-76.65672244041389"><ele>725.6666666666666</ele><time>2026-03-22T15:43:11Z</time></trkpt><trkpt lat="1.2125216090423727" lon="-76.65679965208726"><ele>726.0</ele><time>2026-03-22T15:43:12Z</time></trkpt><trkpt lat="1.2125775932445426" lon="-76.65686862560634"><ele>726.0</ele><time>2026-03-22T15:43:13Z</time></trkpt><trkpt lat="1.2126114736281681" lon="-76.65694622049868"><ele>726.0</ele><time>2026-03-22T15:43:14Z</time></trkpt><trkpt lat="1.2126322984595403" lon="-76.65702545867524"><ele>726.0</ele><time>2026-03-22T15:43:15Z</time></trkpt><trkpt lat="1.2126439349007097" lon="-76.65711125380884"><ele>726.0</ele><time>2026-03-22T15:43:16Z</time></trkpt><trkpt lat="1.212662086607777" lon="-76.65718895295754"><ele>726.0</ele><time>2026-03-22T15:43:17Z</time></trkpt><trkpt lat="1.2126893302787203" lon="-76.65726073831033"><ele>726.0</ele><time>2026-03-22T15:43:18Z</time></trkpt><trkpt lat="1.212715081294133" lon="-76.65733955882429"><ele>727.5999999999999</ele><time>2026-03-22T15:43:19Z</time></trkpt><trkpt lat="1.2127483649219788" lon="-76.65743019976465"><ele>729.2</ele><time>2026-03-22T15:43:20Z</time></trkpt><trkpt lat="1.2128051741332566" lon="-76.65750001165598"><ele>730.8</ele><time>2026-03-22T15:43:21Z</time></trkpt><trkpt lat="1.2128400053480686" lon="-76.65757142487527"><ele>732.4000000000001</ele><time>2026-03-22T15:43:22Z</time></trkpt><trkpt lat="1.2129058200409146" lon="-76.6576680659207"><ele>734.0</ele><time>2026-03-22T15:43:24Z</time></trkpt><trkpt lat="1.2129515177849859" lon="-76.65771752587507"><ele>734.0</ele><time>2026-03-22T15:43:25Z</time></trkpt><trkpt lat="1.2130430964200185" lon="-76.65778157137626"><ele>734.0</ele><time>2026-03-22T15:43:27Z</time></trkpt><trkpt lat="1.2131138992819508" lon="-76.65782487634799"><ele>734.0</ele><time>2026-03-22T15:43:29Z</time></trkpt><trkpt lat="1.2131733047256614" lon="-76.65787516098585"><ele>734.0</ele><time>2026-03-22T15:43:31Z</time></trkpt><trkpt lat="1.21323543221859" lon="-76.65789196614966"><ele>734.0</ele><time>2026-03-22T15:43:33Z</time></trkpt><trkpt lat="1.2132973776095197" lon="-76.65792027390923"><ele>734.0</ele><time>2026-03-22T15:43:36Z</time></trkpt><trkpt lat="1.2133425433174687" lon="-76.65796621482933"><ele>732.6666666666666</ele><time>2026-03-22T15:43:51Z</time></trkpt><trkpt lat="1.2134004371141842" lon="-76.6579367059201"><ele>731.3333333333333</ele><time>2026-03-22T15:43:55Z</time></trkpt><trkpt lat="1.2134469806702326" lon="-76.65788749366013"><ele>730.0</ele><time>2026-03-22T15:43:58Z</time></trkpt><trkpt lat="1.213513246598157" lon="-76.6578297048011"><ele>728.6666666666666</ele><time>2026-03-22T15:44:02Z</time></trkpt><trkpt lat="1.2135682600977478" lon="-76.65777578129422"><ele>727.3333333333334</ele><time>2026-03-22T15:44:04Z</time></trkpt><trkpt lat="1.2136341513636637" lon="-76.65771798734986"><ele>726.0</ele><time>2026-03-22T15:44:05Z</time></trkpt><trkpt lat="1.2136929021273906" lon="-76.6576630682759"><ele>725.5</ele><time>2026-03-22T15:44:06Z</time></trkpt><trkpt lat="1.213754489276594" lon="-76.65760424499122"><ele>725.0</ele><time>2026-03-22T15:44:07Z</time></trkpt><trkpt lat="1.2138255570921919" lon="-76.65753948035619"><ele>724.5</ele><time>2026-03-22T15:44:08Z</time></trkpt><trkpt lat="1.2138958281819823" lon="-76.65747148089184"><ele>724.0</ele><time>2026-03-22T15:44:09Z</time></trkpt><trkpt lat="1.213953710012637" lon="-76.65742233398447"><ele>723.5</ele><time>2026-03-22T15:44:10Z</time></trkpt><trkpt lat="1.214026829541739" lon="-76.65741379456618"><ele>723.0</ele><time>2026-03-22T15:44:11Z</time></trkpt><trkpt lat="1.214165819481335" lon="-76.65742668782106"><ele>726.5999999999999</ele><time>2026-03-22T15:44:13Z</time></trkpt><trkpt lat="1.2142404126086952" lon="-76.65746067628082"><ele>730.1999999999999</ele><time>2026-03-22T15:44:14Z</time></trkpt><trkpt lat="1.2143179443435315" lon="-76.65751799470932"><ele>733.8</ele><time>2026-03-22T15:44:15Z</time></trkpt><trkpt lat="1.2143796926093509" lon="-76.65758691676923"><ele>737.4</ele><time>2026-03-22T15:44:16Z</time></trkpt><trkpt lat="1.214440051903933" lon="-76.65762950994907"><ele>741.0</ele><time>2026-03-22T15:44:17Z</time></trkpt><trkpt lat="1.2144758684516328" lon="-76.65772823822698"><ele>738.8</ele><time>2026-03-22T15:44:18Z</time></trkpt><trkpt lat="1.214507469469228" lon="-76.65782388727403"><ele>736.5999999999999</ele><time>2026-03-22T15:44:19Z</time></trkpt><trkpt lat="1.2145135479703155" lon="-76.65793201520212"><ele>734.4</ele><time>2026-03-22T15:44:20Z</time></trkpt><trkpt lat="1.2145273236955887" lon="-76.65799801917115"><ele>732.2</ele><time>2026-03-22T15:44:21Z</time></trkpt><trkpt lat="1.2145261171730728" lon="-76.65807027848837"><ele>730.0</ele><time>2026-03-22T15:44:22Z</time></trkpt><trkpt lat="1.2145203521155534" lon="-76.6582131080826"><ele>730.0</ele><time>2026-03-22T15:44:24Z</time></trkpt><trkpt lat="1.2145160964540151" lon="-76.6583009769156"><ele>730.0</ele><time>2026-03-22T15:44:25Z</time></trkpt><trkpt lat="1.214524167978585" lon="-76.65838468775102"><ele>730.0</ele><time>2026-03-22T15:44:26Z</time></trkpt><trkpt lat="1.214533577016242" lon="-76.65846875181016"><ele>730.0</ele><time>2026-03-22T15:44:27Z</time></trkpt><trkpt lat="1.2145474335157154" lon="-76.65855880933488"><ele>730.0</ele><time>2026-03-22T15:44:28Z</time></trkpt><trkpt lat="1.2145366244596076" lon="-76.65865639597291"><ele>730.0</ele><time>2026-03-22T15:44:29Z</time></trkpt><trkpt lat="1.2145391860910522" lon="-76.65875861124306"><ele>730.8</ele><time>2026-03-22T15:44:30Z</time></trkpt><trkpt lat="1.2145412002626021" lon="-76.65884887929846"><ele>731.6</ele><time>2026-03-22T15:44:31Z</time></trkpt><trkpt lat="1.2145432017902462" lon="-76.65894604547697"><ele>732.4000000000001</ele><time>2026-03-22T15:44:32Z</time></trkpt><trkpt lat="1.2145451065242259" lon="-76.65903874262816"><ele>733.2</ele><time>2026-03-22T15:44:33Z</time></trkpt><trkpt lat="1.2145473200920915" lon="-76.6591287292715"><ele>734.0</ele><time>2026-03-22T15:44:34Z</time></trkpt><trkpt lat="1.2145494308284097" lon="-76.6592099673781"><ele>734.0</ele><time>2026-03-22T15:44:35Z</time></trkpt><trkpt lat="1.2145512263063953" lon="-76.65929382290798"><ele>734.0</ele><time>2026-03-22T15:44:36Z</time></trkpt><trkpt lat="1.2145536164367752" lon="-76.65937833051646"><ele>734.0</ele><time>2026-03-22T15:44:37Z</time></trkpt><trkpt lat="1.2145562291481995" lon="-76.6594575488782"><ele>734.0</ele><time>2026-03-22T15:44:38Z</time></trkpt><trkpt lat="1.2145575921784768" lon="-76.65953629008315"><ele>734.0</ele><time>2026-03-22T15:44:39Z</time></trkpt><trkpt lat="1.2145592484988614" lon="-76.6596189997313"><ele>734.0</ele><time>2026-03-22T15:44:40Z</time></trkpt><trkpt lat="1.2145618372509723" lon="-76.65970388126004"><ele>735.1666666666666</ele><time>2026-03-22T15:44:41Z</time></trkpt><trkpt lat="1.2145706482496423" lon="-76.65978331220657"><ele>736.3333333333333</ele><time>2026-03-22T15:44:42Z</time></trkpt><trkpt lat="1.2145610049160702" lon="-76.65987238426949"><ele>737.5</ele><time>2026-03-22T15:44:43Z</time></trkpt><trkpt lat="1.2145538300550038" lon="-76.65996324324922"><ele>738.6666666666666</ele><time>2026-03-22T15:44:44Z</time></trkpt><trkpt lat="1.214542310137497" lon="-76.6600478367491"><ele>739.8333333333334</ele><time>2026-03-22T15:44:45Z</time></trkpt><trkpt lat="1.214536149636461" lon="-76.66013001804015"><ele>741.0</ele><time>2026-03-22T15:44:46Z</time></trkpt><trkpt lat="1.2145111967676498" lon="-76.66020620684704"><ele>741.0</ele><time>2026-03-22T15:44:47Z</time></trkpt><trkpt lat="1.214464948560118" lon="-76.66027176551756"><ele>741.0</ele><time>2026-03-22T15:44:48Z</time></trkpt><trkpt lat="1.2144328736369918" lon="-76.66033365752385"><ele>741.0</ele><time>2026-03-22T15:44:49Z</time></trkpt><trkpt lat="1.2144008891111973" lon="-76.66039967446639"><ele>741.0</ele><time>2026-03-22T15:44:50Z</time></trkpt><trkpt lat="1.2143435293141445" lon="-76.6605100933514"><ele>741.0</ele><time>2026-03-22T15:44:52Z</time></trkpt><trkpt lat="1.2142914290998135" lon="-76.66061536198899"><ele>741.8</ele><time>2026-03-22T15:44:54Z</time></trkpt><trkpt lat="1.2142640825634585" lon="-76.66067673958072"><ele>742.5999999999999</ele><time>2026-03-22T15:44:55Z</time></trkpt><trkpt lat="1.2142249385474624" lon="-76.66078600319246"><ele>743.4</ele><time>2026-03-22T15:44:57Z</time></trkpt><trkpt lat="1.2142543435570758" lon="-76.66086680502646"><ele>744.2</ele><time>2026-03-22T15:44:59Z</time></trkpt><trkpt lat="1.2143007593392505" lon="-76.66096185238293"><ele>745.0</ele><time>2026-03-22T15:45:01Z</time></trkpt><trkpt lat="1.2143572097109911" lon="-76.6610598492189"><ele>746.4</ele><time>2026-03-22T15:45:03Z</time></trkpt><trkpt lat="1.2144092308819938" lon="-76.66114847124192"><ele>747.8</ele><time>2026-03-22T15:45:05Z</time></trkpt><trkpt lat="1.2144693871290446" lon="-76.66123233151224"><ele>749.2</ele><time>2026-03-22T15:45:07Z</time></trkpt><trkpt lat="1.2145340167621075" lon="-76.66133573751178"><ele>750.6</ele><time>2026-03-22T15:45:09Z</time></trkpt><trkpt lat="1.2145670005863616" lon="-76.66138964394315"><ele>752.0</ele><time>2026-03-22T15:45:10Z</time></trkpt><trkpt lat="1.214594241670049" lon="-76.66149999977075"><ele>752.0</ele><time>2026-03-22T15:45:12Z</time></trkpt><trkpt lat="1.2146253807331275" lon="-76.6615878391817"><ele>752.0</ele><time>2026-03-22T15:45:14Z</time></trkpt><trkpt lat="1.214644990638143" lon="-76.66168063477093"><ele>752.0</ele><time>2026-03-22T15:45:16Z</time></trkpt><trkpt lat="1.2146764081011554" lon="-76.66179833476211"><ele>752.0</ele><time>2026-03-22T15:45:18Z</time></trkpt><trkpt lat="1.2146750076751167" lon="-76.66186892152436"><ele>752.0</ele><time>2026-03-22T15:45:19Z</time></trkpt><trkpt lat="1.2146724998153866" lon="-76.6619390707485"><ele>753.1666666666666</ele><time>2026-03-22T15:45:20Z</time></trkpt><trkpt lat="1.2146548852946188" lon="-76.66200091500838"><ele>754.3333333333333</ele><time>2026-03-22T15:45:21Z</time></trkpt><trkpt lat="1.2146225854937036" lon="-76.66209963826317"><ele>755.5</ele><time>2026-03-22T15:45:23Z</time></trkpt><trkpt lat="1.214608603756828" lon="-76.66216677146018"><ele>756.6666666666666</ele><time>2026-03-22T15:45:24Z</time></trkpt><trkpt lat="1.2145965347163712" lon="-76.66224237717931"><ele>757.8333333333334</ele><time>2026-03-22T15:45:25Z</time></trkpt><trkpt lat="1.2146082254413195" lon="-76.66230921768708"><ele>759.0</ele><time>2026-03-22T15:45:26Z</time></trkpt><trkpt lat="1.2145794354820112" lon="-76.6624127168989"><ele>759.0</ele><time>2026-03-22T15:45:28Z</time></trkpt><trkpt lat="1.214574054331405" lon="-76.66248110309921"><ele>759.0</ele><time>2026-03-22T15:45:29Z</time></trkpt><trkpt lat="1.2145843266989202" lon="-76.6626080110353"><ele>759.0</ele><time>2026-03-22T15:45:31Z</time></trkpt><trkpt lat="1.2145809882589818" lon="-76.66273378842061"><ele>759.0</ele><time>2026-03-22T15:45:33Z</time></trkpt><trkpt lat="1.214577020315481" lon="-76.66280554956936"><ele>759.0</ele><time>2026-03-22T15:45:34Z</time></trkpt><trkpt lat="1.2145690575333745" lon="-76.66287657616525"><ele>760.0</ele><time>2026-03-22T15:45:35Z</time></trkpt><trkpt lat="1.214560990086744" lon="-76.66294517598632"><ele>761.0</ele><time>2026-03-22T15:45:36Z</time></trkpt><trkpt lat="1.2145518555791632" lon="-76.66302072768671"><ele>762.0</ele><time>2026-03-22T15:45:37Z</time></trkpt><trkpt lat="1.2145618116444241" lon="-76.66310450814761"><ele>763.0</ele><time>2026-03-22T15:45:38Z</time></trkpt><trkpt lat="1.214566245246885" lon="-76.66320805429122"><ele>764.0</ele><time>2026-03-22T15:45:39Z</time></trkpt><trkpt lat="1.2145701547184242" lon="-76.6633155648604"><ele>765.0</ele><time>2026-03-22T15:45:40Z</time></trkpt><trkpt lat="1.2145742287134924" lon="-76.66343054145518"><ele>765.0</ele><time>2026-03-22T15:45:41Z</time></trkpt><trkpt lat="1.2146122620883797" lon="-76.66351543814586"><ele>765.0</ele><time>2026-03-22T15:45:42Z</time></trkpt><trkpt lat="1.214648321057682" lon="-76.66361781734884"><ele>765.0</ele><time>2026-03-22T15:45:43Z</time></trkpt><trkpt lat="1.214668358758306" lon="-76.66375241668256"><ele>765.0</ele><time>2026-03-22T15:45:44Z</time></trkpt><trkpt lat="1.2146812207940452" lon="-76.66388333786604"><ele>766.0</ele><time>2026-03-22T15:45:45Z</time></trkpt><trkpt lat="1.2147089775728857" lon="-76.6640001556584"><ele>767.0</ele><time>2026-03-22T15:45:46Z</time></trkpt><trkpt lat="1.2147442405822313" lon="-76.66410448706445"><ele>768.0</ele><time>2026-03-22T15:45:47Z</time></trkpt><trkpt lat="1.2147855940237666" lon="-76.66420697463252"><ele>769.0</ele><time>2026-03-22T15:45:48Z</time></trkpt><trkpt lat="1.214824493795402" lon="-76.66430220019969"><ele>770.0</ele><time>2026-03-22T15:45:49Z</time></trkpt><trkpt lat="1.21486564507899" lon="-76.66440571162988"><ele>772.4</ele><time>2026-03-22T15:45:50Z</time></trkpt><trkpt lat="1.2148991543822605" lon="-76.66451047665872"><ele>774.8</ele><time>2026-03-22T15:45:51Z</time></trkpt><trkpt lat="1.214927879628995" lon="-76.66460095720868"><ele>777.2</ele><time>2026-03-22T15:45:52Z</time></trkpt><trkpt lat="1.214953975826398" lon="-76.6646831566255"><ele>779.6</ele><time>2026-03-22T15:45:53Z</time></trkpt><trkpt lat="1.2149801709896713" lon="-76.66476566777715"><ele>782.0</ele><time>2026-03-22T15:45:54Z</time></trkpt><trkpt lat="1.2150044970454803" lon="-76.66484229149414"><ele>782.0</ele><time>2026-03-22T15:45:55Z</time></trkpt><trkpt lat="1.2150267824014371" lon="-76.66491248728434"><ele>782.0</ele><time>2026-03-22T15:45:56Z</time></trkpt><trkpt lat="1.2150598306347233" lon="-76.66501510914085"><ele>782.0</ele><time>2026-03-22T15:45:58Z</time></trkpt><trkpt lat="1.2150735334579048" lon="-76.66514663671263"><ele>782.0</ele><time>2026-03-22T15:46:30Z</time></trkpt><trkpt lat="1.2151372533484825" lon="-76.66525947147451"><ele>782.0</ele><time>2026-03-22T15:46:32Z</time></trkpt><trkpt lat="1.2151622968050528" lon="-76.66533752946924"><ele>782.6666666666667</ele><time>2026-03-22T15:46:33Z</time></trkpt><trkpt lat="1.2151850424961357" lon="-76.66540842554996"><ele>783.3333333333334</ele><time>2026-03-22T15:46:34Z</time></trkpt><trkpt lat="1.2152107820966027" lon="-76.66548891718267"><ele>784.0</ele><time>2026-03-22T15:46:35Z</time></trkpt><trkpt lat="1.215237114158015" lon="-76.66557253662639"><ele>784.6666666666667</ele><time>2026-03-22T15:46:36Z</time></trkpt><trkpt lat="1.2152180741624534" lon="-76.66567855823452"><ele>785.3333333333334</ele><time>2026-03-22T15:46:37Z</time></trkpt><trkpt lat="1.2152098187560278" lon="-76.66576506721702"><ele>786.0</ele><time>2026-03-22T15:46:38Z</time></trkpt><trkpt lat="1.2152024653826599" lon="-76.66584113200277"><ele>786.0</ele><time>2026-03-22T15:46:39Z</time></trkpt><trkpt lat="1.215195211947599" lon="-76.6659159397983"><ele>786.0</ele><time>2026-03-22T15:46:40Z</time></trkpt><trkpt lat="1.2151954170182917" lon="-76.66598109345124"><ele>786.0</ele><time>2026-03-22T15:46:41Z</time></trkpt><trkpt lat="1.215193556867247" lon="-76.66608977948749"><ele>786.0</ele><time>2026-03-22T15:46:43Z</time></trkpt><trkpt lat="1.2152250106233262" lon="-76.6661720787174"><ele>786.0</ele><time>2026-03-22T15:46:45Z</time></trkpt><trkpt lat="1.2153021248153688" lon="-76.66624304384179"><ele>786.0</ele><time>2026-03-22T15:46:47Z</time></trkpt><trkpt lat="1.2154023862036287" lon="-76.66631196627021"><ele>786.5999999999999</ele><time>2026-03-22T15:46:49Z</time></trkpt><trkpt lat="1.2154854714431584" lon="-76.66639703260853"><ele>787.2</ele><time>2026-03-22T15:46:51Z</time></trkpt><trkpt lat="1.2154855350086766" lon="-76.66646431974947"><ele>787.8</ele><time>2026-03-22T15:46:53Z</time></trkpt><trkpt lat="1.2154648441139129" lon="-76.66654893632605"><ele>788.4000000000001</ele><time>2026-03-22T15:46:56Z</time></trkpt><trkpt lat="1.2154670876352625" lon="-76.66661712621605"><ele>789.0</ele><time>2026-03-22T15:46:58Z</time></trkpt><trkpt lat="1.2153580903582084" lon="-76.66665275378271"><ele>789.0</ele><time>2026-03-22T15:46:59Z</time></trkpt><trkpt lat="1.2152777782324944" lon="-76.6666910980333"><ele>789.0</ele><time>2026-03-22T15:47:01Z</time></trkpt><trkpt lat="1.2152591065537877" lon="-76.6667753619624"><ele>789.0</ele><time>2026-03-22T15:47:07Z</time></trkpt><trkpt lat="1.2153751022914494" lon="-76.66682131020842"><ele>789.0</ele><time>2026-03-22T15:47:09Z</time></trkpt><trkpt lat="1.2154447861698754" lon="-76.66685481484066"><ele>789.0</ele><time>2026-03-22T15:47:10Z</time></trkpt><trkpt lat="1.2155019145592896" lon="-76.66688202981972"><ele>789.0</ele><time>2026-03-22T15:47:11Z</time></trkpt><trkpt lat="1.2156517566925629" lon="-76.66691138078639"><ele>789.0</ele><time>2026-03-22T15:47:13Z</time></trkpt><trkpt lat="1.21564702866062" lon="-76.66698980385665"><ele>789.0</ele><time>2026-03-22T15:47:14Z</time></trkpt><trkpt lat="1.2156470286594172" lon="-76.6671067384284"><ele>789.0</ele><time>2026-03-22T15:47:16Z</time></trkpt><trkpt lat="1.2156471343173032" lon="-76.66723742377447"><ele>789.0</ele><time>2026-03-22T15:47:18Z</time></trkpt><trkpt lat="1.2156377301020165" lon="-76.66730720504945"><ele>789.0</ele><time>2026-03-22T15:47:19Z</time></trkpt><trkpt lat="1.2156231211800708" lon="-76.66739388007467"><ele>788.9999999999999</ele><time>2026-03-22T15:47:20Z</time></trkpt><trkpt lat="1.2155959746981386" lon="-76.66747066004203"><ele>789.0</ele><time>2026-03-22T15:47:21Z</time></trkpt><trkpt lat="1.215572077470111" lon="-76.66753829703549"><ele>789.0</ele><time>2026-03-22T15:47:22Z</time></trkpt><trkpt lat="1.2155454182518017" lon="-76.66761447618946"><ele>789.0</ele><time>2026-03-22T15:47:23Z</time></trkpt><trkpt lat="1.2155202933161529" lon="-76.66768627110757"><ele>789.0</ele><time>2026-03-22T15:47:24Z</time></trkpt><trkpt lat="1.215497839056308" lon="-76.66775043453127"><ele>788.9999999999999</ele><time>2026-03-22T15:47:25Z</time></trkpt><trkpt lat="1.2154839353577938" lon="-76.667819771483"><ele>789.0</ele><time>2026-03-22T15:47:26Z</time></trkpt><trkpt lat="1.2154691343412574" lon="-76.66789417092215"><ele>788.8571428571428</ele><time>2026-03-22T15:47:27Z</time></trkpt><trkpt lat="1.215453216993336" lon="-76.66797418175109"><ele>788.7142857142857</ele><time>2026-03-22T15:47:28Z</time></trkpt><trkpt lat="1.2154383712782373" lon="-76.66804872225336"><ele>788.5714285714286</ele><time>2026-03-22T15:47:29Z</time></trkpt><trkpt lat="1.2154248228852929" lon="-76.66811646422292"><ele>788.4285714285713</ele><time>2026-03-22T15:47:30Z</time></trkpt><trkpt lat="1.215410622503432" lon="-76.66818746614152"><ele>788.2857142857143</ele><time>2026-03-22T15:47:31Z</time></trkpt><trkpt lat="1.2153962101971885" lon="-76.66825952767036"><ele>788.1428571428571</ele><time>2026-03-22T15:47:32Z</time></trkpt><trkpt lat="1.2153831312266077" lon="-76.66832492253057"><ele>788.0</ele><time>2026-03-22T15:47:33Z</time></trkpt><trkpt lat="1.2154246522546512" lon="-76.66845312029047"><ele>788.0000000000001</ele><time>2026-03-22T15:47:35Z</time></trkpt><trkpt lat="1.215428823129831" lon="-76.66853231076762"><ele>788.0</ele><time>2026-03-22T15:47:36Z</time></trkpt><trkpt lat="1.2154435558775196" lon="-76.66860758070186"><ele>788.0</ele><time>2026-03-22T15:47:37Z</time></trkpt><trkpt lat="1.2154736047435781" lon="-76.66868109607505"><ele>788.0</ele><time>2026-03-22T15:47:38Z</time></trkpt><trkpt lat="1.2154905118875203" lon="-76.66876020913038"><ele>788.0000000000001</ele><time>2026-03-22T15:47:39Z</time></trkpt><trkpt lat="1.2155092992558145" lon="-76.66884312719723"><ele>788.0</ele><time>2026-03-22T15:47:40Z</time></trkpt><trkpt lat="1.2155306868114337" lon="-76.6689280500619"><ele>788.5000000000001</ele><time>2026-03-22T15:47:41Z</time></trkpt><trkpt lat="1.2155501620075084" lon="-76.66900537956793"><ele>789.0</ele><time>2026-03-22T15:47:42Z</time></trkpt><trkpt lat="1.2155834188001924" lon="-76.66906264039744"><ele>789.5</ele><time>2026-03-22T15:47:43Z</time></trkpt><trkpt lat="1.2156097537351436" lon="-76.66912860081156"><ele>790.0</ele><time>2026-03-22T15:47:44Z</time></trkpt><trkpt lat="1.21570062090145" lon="-76.66922448795508"><ele>790.5000000000001</ele><time>2026-03-22T15:47:46Z</time></trkpt><trkpt lat="1.2157451743064678" lon="-76.66928079137958"><ele>791.0</ele><time>2026-03-22T15:47:47Z</time></trkpt><trkpt lat="1.2157798606109382" lon="-76.66934686741548"><ele>791.7142857142857</ele><time>2026-03-22T15:47:48Z</time></trkpt><trkpt lat="1.2158331701468945" lon="-76.669407007326"><ele>792.4285714285714</ele><time>2026-03-22T15:47:49Z</time></trkpt><trkpt lat="1.2158808653610054" lon="-76.66946873660784"><ele>793.1428571428571</ele><time>2026-03-22T15:47:50Z</time></trkpt><trkpt lat="1.2159218414046156" lon="-76.6695326208064"><ele>793.8571428571429</ele><time>2026-03-22T15:47:51Z</time></trkpt><trkpt lat="1.2159813708514147" lon="-76.66958138482"><ele>794.5714285714286</ele><time>2026-03-22T15:47:52Z</time></trkpt><trkpt lat="1.216012615813553" lon="-76.6696433664221"><ele>795.2857142857142</ele><time>2026-03-22T15:47:53Z</time></trkpt><trkpt lat="1.2160575424955589" lon="-76.6696944623163"><ele>796.0</ele><time>2026-03-22T15:47:54Z</time></trkpt><trkpt lat="1.2160966675821998" lon="-76.66974682932567"><ele>795.9999999999999</ele><time>2026-03-22T15:47:55Z</time></trkpt><trkpt lat="1.216153270569708" lon="-76.66978685373755"><ele>796.0</ele><time>2026-03-22T15:47:56Z</time></trkpt><trkpt lat="1.21620056682549" lon="-76.66983731892297"><ele>796.0</ele><time>2026-03-22T15:47:57Z</time></trkpt><trkpt lat="1.216250923648606" lon="-76.66989047134554"><ele>796.0</ele><time>2026-03-22T15:47:58Z</time></trkpt><trkpt lat="1.2163004371423616" lon="-76.66994469789712"><ele>796.0</ele><time>2026-03-22T15:47:59Z</time></trkpt><trkpt lat="1.216357735662127" lon="-76.66998424362166"><ele>795.9999999999999</ele><time>2026-03-22T15:48:00Z</time></trkpt><trkpt lat="1.2164119181290058" lon="-76.67003129735599"><ele>796.0</ele><time>2026-03-22T15:48:01Z</time></trkpt><trkpt lat="1.2165099824775816" lon="-76.67009141460194"><ele>798.8333333333333</ele><time>2026-03-22T15:48:03Z</time></trkpt><trkpt lat="1.2166180204977148" lon="-76.67014514078626"><ele>801.6666666666666</ele><time>2026-03-22T15:48:05Z</time></trkpt><trkpt lat="1.2166783820253426" lon="-76.67017409099734"><ele>804.5</ele><time>2026-03-22T15:48:06Z</time></trkpt><trkpt lat="1.216734136293866" lon="-76.67021611848656"><ele>807.3333333333333</ele><time>2026-03-22T15:48:07Z</time></trkpt><trkpt lat="1.2167894450448957" lon="-76.67026578248779"><ele>810.1666666666666</ele><time>2026-03-22T15:48:08Z</time></trkpt><trkpt lat="1.2168489324175336" lon="-76.67031195683208"><ele>813.0</ele><time>2026-03-22T15:48:09Z</time></trkpt><trkpt lat="1.2169124969793235" lon="-76.67035642015212"><ele>813.0</ele><time>2026-03-22T15:48:10Z</time></trkpt><trkpt lat="1.2169704349664812" lon="-76.67039732824222"><ele>813.0</ele><time>2026-03-22T15:48:11Z</time></trkpt><trkpt lat="1.2170796150397516" lon="-76.67047087366815"><ele>813.0</ele><time>2026-03-22T15:48:13Z</time></trkpt><trkpt lat="1.217135893734898" lon="-76.67050572719636"><ele>813.0</ele><time>2026-03-22T15:48:14Z</time></trkpt><trkpt lat="1.2171914194586224" lon="-76.67054868545897"><ele>813.0</ele><time>2026-03-22T15:48:15Z</time></trkpt><trkpt lat="1.2172600552887896" lon="-76.67057615094171"><ele>813.0</ele><time>2026-03-22T15:48:16Z</time></trkpt><trkpt lat="1.217312755798935" lon="-76.67061110536282"><ele>815.8</ele><time>2026-03-22T15:48:17Z</time></trkpt><trkpt lat="1.2173929327989315" lon="-76.67068474212498"><ele>818.5999999999999</ele><time>2026-03-22T15:48:19Z</time></trkpt><trkpt lat="1.2174803620690946" lon="-76.67074105102505"><ele>821.4000000000001</ele><time>2026-03-22T15:48:21Z</time></trkpt><trkpt lat="1.2175727519495803" lon="-76.67082317807444"><ele>824.2</ele><time>2026-03-22T15:48:23Z</time></trkpt><trkpt lat="1.2176339978318949" lon="-76.67086250362104"><ele>827.0</ele><time>2026-03-22T15:48:24Z</time></trkpt><trkpt lat="1.2176893546259888" lon="-76.67092418118573"><ele>827.0000000000001</ele><time>2026-03-22T15:48:25Z</time></trkpt><trkpt lat="1.2177561469285034" lon="-76.67097786852923"><ele>827.0</ele><time>2026-03-22T15:48:26Z</time></trkpt><trkpt lat="1.2178453437696852" lon="-76.67104632142728"><ele>827.0</ele><time>2026-03-22T15:48:27Z</time></trkpt><trkpt lat="1.2179128672974524" lon="-76.67111176799894"><ele>827.0</ele><time>2026-03-22T15:48:28Z</time></trkpt><trkpt lat="1.2179694050768124" lon="-76.67116320925558"><ele>827.0000000000001</ele><time>2026-03-22T15:48:29Z</time></trkpt><trkpt lat="1.2180197738730323" lon="-76.67121801930728"><ele>827.0</ele><time>2026-03-22T15:48:30Z</time></trkpt><trkpt lat="1.2180781350813183" lon="-76.67127422721403"><ele>827.4000000000001</ele><time>2026-03-22T15:48:31Z</time></trkpt><trkpt lat="1.2181449949548901" lon="-76.67133335949815"><ele>827.8000000000001</ele><time>2026-03-22T15:48:32Z</time></trkpt><trkpt lat="1.2181782572803395" lon="-76.67141015700413"><ele>828.2</ele><time>2026-03-22T15:48:33Z</time></trkpt><trkpt lat="1.2182182236484553" lon="-76.67148209595454"><ele>828.6</ele><time>2026-03-22T15:48:34Z</time></trkpt><trkpt lat="1.2182246082859676" lon="-76.67155642179829"><ele>829.0</ele><time>2026-03-22T15:48:35Z</time></trkpt><trkpt lat="1.2182302556570375" lon="-76.6716889984146"><ele>830.9999999999999</ele><time>2026-03-22T15:48:37Z</time></trkpt><trkpt lat="1.2182376237308314" lon="-76.67176182571474"><ele>833.0</ele><time>2026-03-22T15:48:38Z</time></trkpt><trkpt lat="1.2182531510453198" lon="-76.67183310471867"><ele>835.0</ele><time>2026-03-22T15:48:39Z</time></trkpt><trkpt lat="1.2182612230480003" lon="-76.67190014148869"><ele>837.0</ele><time>2026-03-22T15:48:40Z</time></trkpt><trkpt lat="1.218276318948102" lon="-76.67202670445695"><ele>838.9999999999999</ele><time>2026-03-22T15:48:42Z</time></trkpt><trkpt lat="1.2182842275532069" lon="-76.67209300963926"><ele>841.0</ele><time>2026-03-22T15:48:43Z</time></trkpt><trkpt lat="1.2182922020550182" lon="-76.67215986728728"><ele>842.1666666666666</ele><time>2026-03-22T15:48:44Z</time></trkpt><trkpt lat="1.21830133876008" lon="-76.67223222947484"><ele>843.3333333333333</ele><time>2026-03-22T15:48:45Z</time></trkpt><trkpt lat="1.218307378146693" lon="-76.67229965251231"><ele>844.5</ele><time>2026-03-22T15:48:46Z</time></trkpt><trkpt lat="1.2182967300951033" lon="-76.67239971831991"><ele>845.6666666666667</ele><time>2026-03-22T15:48:48Z</time></trkpt><trkpt lat="1.2182578964613622" lon="-76.67247562567954"><ele>846.8333333333334</ele><time>2026-03-22T15:48:50Z</time></trkpt><trkpt lat="1.21823298708021" lon="-76.67254067884602"><ele>848.0</ele><time>2026-03-22T15:48:53Z</time></trkpt><trkpt lat="1.2181250789158369" lon="-76.67258413019232"><ele>846.2</ele><time>2026-03-22T15:48:56Z</time></trkpt><trkpt lat="1.2180300999245872" lon="-76.67262237535857"><ele>844.4</ele><time>2026-03-22T15:48:58Z</time></trkpt><trkpt lat="1.2179371597419721" lon="-76.6725924206178"><ele>842.6</ele><time>2026-03-22T15:48:59Z</time></trkpt><trkpt lat="1.217877016505285" lon="-76.67262245605383"><ele>840.8000000000001</ele><time>2026-03-22T15:49:00Z</time></trkpt><trkpt lat="1.2177979480666683" lon="-76.67271845512647"><ele>839.0</ele><time>2026-03-22T15:49:02Z</time></trkpt><trkpt lat="1.217784511704789" lon="-76.67278284747971"><ele>839.0000000000001</ele><time>2026-03-22T15:49:03Z</time></trkpt><trkpt lat="1.217774500288364" lon="-76.67286124418848"><ele>839.0</ele><time>2026-03-22T15:49:04Z</time></trkpt><trkpt lat="1.2177488320749819" lon="-76.67293086611349"><ele>839.0</ele><time>2026-03-22T15:49:05Z</time></trkpt><trkpt lat="1.2177408863278825" lon="-76.67301349691071"><ele>839.0</ele><time>2026-03-22T15:49:06Z</time></trkpt><trkpt lat="1.217730567899898" lon="-76.67309116168278"><ele>839.0000000000001</ele><time>2026-03-22T15:49:07Z</time></trkpt><trkpt lat="1.2177317614879888" lon="-76.67316531385639"><ele>839.0</ele><time>2026-03-22T15:49:08Z</time></trkpt><trkpt lat="1.217725896514355" lon="-76.67324061309719"><ele>839.0000000000001</ele><time>2026-03-22T15:49:09Z</time></trkpt><trkpt lat="1.217723866256006" lon="-76.67331407442978"><ele>839.0</ele><time>2026-03-22T15:49:10Z</time></trkpt><trkpt lat="1.217717436498841" lon="-76.67339774553763"><ele>839.0</ele><time>2026-03-22T15:49:11Z</time></trkpt><trkpt lat="1.2177135270957988" lon="-76.67349498031244"><ele>839.0</ele><time>2026-03-22T15:49:12Z</time></trkpt><trkpt lat="1.2177172868771036" lon="-76.67359148774534"><ele>839.0000000000001</ele><time>2026-03-22T15:49:13Z</time></trkpt><trkpt lat="1.2177169834627959" lon="-76.67368849437729"><ele>839.0</ele><time>2026-03-22T15:49:14Z</time></trkpt><trkpt lat="1.2177182298586782" lon="-76.67376963037749"><ele>839.3333333333334</ele><time>2026-03-22T15:49:15Z</time></trkpt><trkpt lat="1.217717427633897" lon="-76.67384051093292"><ele>839.6666666666667</ele><time>2026-03-22T15:49:16Z</time></trkpt><trkpt lat="1.2177210370533482" lon="-76.67390579877481"><ele>840.0</ele><time>2026-03-22T15:49:17Z</time></trkpt><trkpt lat="1.2177365397227706" lon="-76.67397192758342"><ele>840.3333333333333</ele><time>2026-03-22T15:49:18Z</time></trkpt><trkpt lat="1.2177384753156435" lon="-76.67406464343345"><ele>840.6666666666666</ele><time>2026-03-22T15:49:20Z</time></trkpt><trkpt lat="1.2177472474792503" lon="-76.67415546229255"><ele>841.0</ele><time>2026-03-22T15:49:22Z</time></trkpt><trkpt lat="1.2177552902239837" lon="-76.67423872940356"><ele>840.9999999999999</ele><time>2026-03-22T15:49:24Z</time></trkpt><trkpt lat="1.2177811365620461" lon="-76.67434858844116"><ele>841.0</ele><time>2026-03-22T15:49:26Z</time></trkpt><trkpt lat="1.2177826340328894" lon="-76.67444671849245"><ele>841.0</ele><time>2026-03-22T15:49:28Z</time></trkpt><trkpt lat="1.217769102503498" lon="-76.67453078073497"><ele>841.0</ele><time>2026-03-22T15:49:30Z</time></trkpt><trkpt lat="1.2177005973302126" lon="-76.67455299521849"><ele>840.9999999999999</ele><time>2026-03-22T15:49:31Z</time></trkpt><trkpt lat="1.2176492671627093" lon="-76.67460098123674"><ele>841.0</ele><time>2026-03-22T15:49:34Z</time></trkpt><trkpt lat="1.217579903670769" lon="-76.6746207466402"><ele>842.5999999999999</ele><time>2026-03-22T15:50:33Z</time></trkpt><trkpt lat="1.2175290654781028" lon="-76.67467020448377"><ele>844.2</ele><time>2026-03-22T15:50:35Z</time></trkpt><trkpt lat="1.2174941254742797" lon="-76.67473441827012"><ele>845.8</ele><time>2026-03-22T15:50:37Z</time></trkpt><trkpt lat="1.2174415464984543" lon="-76.67479256256763"><ele>847.4000000000001</ele><time>2026-03-22T15:50:38Z</time></trkpt><trkpt lat="1.2173842221576563" lon="-76.67486362822605"><ele>849.0</ele><time>2026-03-22T15:50:39Z</time></trkpt><trkpt lat="1.2174175888244763" lon="-76.67499819673068"><ele>849.0</ele><time>2026-03-22T15:50:40Z</time></trkpt><trkpt lat="1.2173814652682566" lon="-76.67506087898744"><ele>849.0</ele><time>2026-03-22T15:50:41Z</time></trkpt><trkpt lat="1.2173431563560357" lon="-76.67512735331239"><ele>849.0</ele><time>2026-03-22T15:50:42Z</time></trkpt><trkpt lat="1.2172887295530375" lon="-76.67521503975983"><ele>849.0</ele><time>2026-03-22T15:50:43Z</time></trkpt><trkpt lat="1.2172479215086687" lon="-76.67532494234558"><ele>849.0</ele><time>2026-03-22T15:50:44Z</time></trkpt><trkpt lat="1.2172136487320784" lon="-76.67542691303937"><ele>847.6666666666666</ele><time>2026-03-22T15:50:45Z</time></trkpt><trkpt lat="1.2171879461556916" lon="-76.67551848016618"><ele>846.3333333333333</ele><time>2026-03-22T15:50:46Z</time></trkpt><trkpt lat="1.2171667227567056" lon="-76.67559481593388"><ele>845.0</ele><time>2026-03-22T15:50:47Z</time></trkpt><trkpt lat="1.217149167183247" lon="-76.67565795934905"><ele>843.6666666666666</ele><time>2026-03-22T15:50:48Z</time></trkpt><trkpt lat="1.2171258072434183" lon="-76.67574001636959"><ele>842.3333333333333</ele><time>2026-03-22T15:50:50Z</time></trkpt><trkpt lat="1.2171077548448788" lon="-76.67580326715121"><ele>841.0</ele><time>2026-03-22T15:50:52Z</time></trkpt><trkpt lat="1.2171112164772018" lon="-76.67591888804829"><ele>840.9999999999999</ele><time>2026-03-22T15:50:55Z</time></trkpt><trkpt lat="1.2171078272566944" lon="-76.67598270633653"><ele>841.0</ele><time>2026-03-22T15:50:56Z</time></trkpt><trkpt lat="1.2171062189489374" lon="-76.67605401857033"><ele>841.0</ele><time>2026-03-22T15:50:57Z</time></trkpt><trkpt lat="1.2171180887787005" lon="-76.676147756295"><ele>841.0</ele><time>2026-03-22T15:50:58Z</time></trkpt><trkpt lat="1.2171305817773452" lon="-76.67625376920684"><ele>840.9999999999999</ele><time>2026-03-22T15:50:59Z</time></trkpt><trkpt lat="1.2171436086354948" lon="-76.67636492804378"><ele>841.0</ele><time>2026-03-22T15:51:00Z</time></trkpt><trkpt lat="1.2171573472679076" lon="-76.67647729456091"><ele>841.75</ele><time>2026-03-22T15:51:01Z</time></trkpt><trkpt lat="1.2171699004132446" lon="-76.67657598824988"><ele>842.5</ele><time>2026-03-22T15:51:02Z</time></trkpt><trkpt lat="1.2171632326920598" lon="-76.67669412458815"><ele>843.25</ele><time>2026-03-22T15:51:03Z</time></trkpt><trkpt lat="1.2171570549972057" lon="-76.67680782043885"><ele>844.0</ele><time>2026-03-22T15:51:04Z</time></trkpt><trkpt lat="1.21715021600225" lon="-76.6769295140009"><ele>844.8000000000001</ele><time>2026-03-22T15:51:05Z</time></trkpt><trkpt lat="1.2171493066555805" lon="-76.67704954756968"><ele>845.6</ele><time>2026-03-22T15:51:06Z</time></trkpt><trkpt lat="1.2171486889683345" lon="-76.67717302185656"><ele>846.4</ele><time>2026-03-22T15:51:07Z</time></trkpt><trkpt lat="1.2171480301060957" lon="-76.67726836821085"><ele>847.2</ele><time>2026-03-22T15:51:08Z</time></trkpt><trkpt lat="1.2171474488438432" lon="-76.6773524842537"><ele>848.0</ele><time>2026-03-22T15:51:09Z</time></trkpt><trkpt lat="1.217157707669877" lon="-76.6774330660609"><ele>848.0</ele><time>2026-03-22T15:51:10Z</time></trkpt><trkpt lat="1.217165362989849" lon="-76.67750890384166"><ele>848.0</ele><time>2026-03-22T15:51:11Z</time></trkpt><trkpt lat="1.21717264854361" lon="-76.67757909559147"><ele>848.0</ele><time>2026-03-22T15:51:12Z</time></trkpt><trkpt lat="1.217176252581818" lon="-76.67765783010255"><ele>848.0</ele><time>2026-03-22T15:51:13Z</time></trkpt><trkpt lat="1.2171713641836972" lon="-76.67773604443111"><ele>848.0</ele><time>2026-03-22T15:51:14Z</time></trkpt><trkpt lat="1.2171668283614367" lon="-76.67780861755577"><ele>848.0</ele><time>2026-03-22T15:51:15Z</time></trkpt><trkpt lat="1.2171625315386114" lon="-76.67787736670627"><ele>848.0</ele><time>2026-03-22T15:51:16Z</time></trkpt><trkpt lat="1.2171394784968965" lon="-76.67800385062498"><ele>848.1666666666667</ele><time>2026-03-22T15:51:18Z</time></trkpt><trkpt lat="1.2171254375779794" lon="-76.67809051858674"><ele>848.3333333333334</ele><time>2026-03-22T15:51:20Z</time></trkpt><trkpt lat="1.217130887189199" lon="-76.67815829081745"><ele>848.5</ele><time>2026-03-22T15:51:25Z</time></trkpt><trkpt lat="1.2171382061083522" lon="-76.67823668498649"><ele>848.6666666666667</ele><time>2026-03-22T15:51:27Z</time></trkpt><trkpt lat="1.2171877883527151" lon="-76.67832013218451"><ele>848.8333333333334</ele><time>2026-03-22T15:51:29Z</time></trkpt><trkpt lat="1.217183866884517" lon="-76.67838910704147"><ele>849.0</ele><time>2026-03-22T15:51:36Z</time></trkpt><trkpt lat="1.217221193917777" lon="-76.67844453571993"><ele>849.0000000000001</ele><time>2026-03-22T15:51:39Z</time></trkpt><trkpt lat="1.217283704806494" lon="-76.67846156997264"><ele>849.0</ele><time>2026-03-22T15:51:51Z</time></trkpt><trkpt lat="1.217237165232157" lon="-76.67852206117979"><ele>849.0</ele><time>2026-03-22T15:54:42Z</time></trkpt><trkpt lat="1.2171845188667967" lon="-76.67856122480735"><ele>849.0</ele><time>2026-03-22T15:54:54Z</time></trkpt><trkpt lat="1.2171428606027912" lon="-76.67862175255254"><ele>849.0</ele><time>2026-03-22T15:55:06Z</time></trkpt><trkpt lat="1.217109255197182" lon="-76.67868792851081"><ele>849.0000000000001</ele><time>2026-03-22T15:55:31Z</time></trkpt><trkpt lat="1.217064773791457" lon="-76.67863617033778"><ele>849.0</ele><time>2026-03-22T15:57:06Z</time></trkpt><trkpt lat="1.217060769093789" lon="-76.67871937690468"><ele>850.1666666666666</ele><time>2026-03-22T15:57:18Z</time></trkpt><trkpt lat="1.2170136011237855" lon="-76.67877636820275"><ele>851.3333333333333</ele><time>2026-03-22T15:57:21Z</time></trkpt><trkpt lat="1.2169919041987878" lon="-76.67884038358429"><ele>852.5</ele><time>2026-03-22T15:57:25Z</time></trkpt><trkpt lat="1.2169429691660307" lon="-76.67889147963581"><ele>853.6666666666666</ele><time>2026-03-22T15:57:27Z</time></trkpt><trkpt lat="1.2169360562128384" lon="-76.6789664239841"><ele>854.8333333333333</ele><time>2026-03-22T15:57:30Z</time></trkpt><trkpt lat="1.2168980912550584" lon="-76.67905562091323"><ele>856.0</ele><time>2026-03-22T15:57:33Z</time></trkpt><trkpt lat="1.2168526249024423" lon="-76.67911672962651"><ele>856.0</ele><time>2026-03-22T15:57:37Z</time></trkpt><trkpt lat="1.216754416839495" lon="-76.67921388717303"><ele>855.9999999999999</ele><time>2026-03-22T16:00:46Z</time></trkpt><trkpt lat="1.2167477074436548" lon="-76.67931304926998"><ele>855.9999999999999</ele><time>2026-03-22T16:00:48Z</time></trkpt><trkpt lat="1.216740895435544" lon="-76.67938010466185"><ele>856.0</ele><time>2026-03-22T16:00:49Z</time></trkpt><trkpt lat="1.2167454616040445" lon="-76.67948401318499"><ele>856.0</ele><time>2026-03-22T16:00:51Z</time></trkpt><trkpt lat="1.2168596968147418" lon="-76.6795243311614"><ele>857.8333333333333</ele><time>2026-03-22T16:00:52Z</time></trkpt><trkpt lat="1.2168760018226739" lon="-76.67963936951422"><ele>859.6666666666666</ele><time>2026-03-22T16:00:54Z</time></trkpt><trkpt lat="1.2168918171948233" lon="-76.67973381544641"><ele>861.5</ele><time>2026-03-22T16:00:56Z</time></trkpt><trkpt lat="1.2169172832158914" lon="-76.67981885726384"><ele>863.3333333333333</ele><time>2026-03-22T16:00:58Z</time></trkpt><trkpt lat="1.2169398990873628" lon="-76.67989316942996"><ele>865.1666666666666</ele><time>2026-03-22T16:01:00Z</time></trkpt><trkpt lat="1.2169675113096066" lon="-76.6799553462613"><ele>867.0</ele><time>2026-03-22T16:01:02Z</time></trkpt><trkpt lat="1.217002069591951" lon="-76.68002859340393"><ele>867.0</ele><time>2026-03-22T16:01:05Z</time></trkpt><trkpt lat="1.2170533004712119" lon="-76.68010137105591"><ele>867.0</ele><time>2026-03-22T16:01:07Z</time></trkpt><trkpt lat="1.2170936866741833" lon="-76.68015874295226"><ele>867.0</ele><time>2026-03-22T16:01:09Z</time></trkpt><trkpt lat="1.2171419671728385" lon="-76.680227329355"><ele>867.0</ele><time>2026-03-22T16:01:12Z</time></trkpt><trkpt lat="1.2171606001422228" lon="-76.68031309964485"><ele>867.0</ele><time>2026-03-22T16:01:16Z</time></trkpt><trkpt lat="1.2171469546993676" lon="-76.6803749464828"><ele>867.0</ele><time>2026-03-22T16:01:18Z</time></trkpt><trkpt lat="1.2170872888360564" lon="-76.68043054387866"><ele>868.1428571428571</ele><time>2026-03-22T16:01:22Z</time></trkpt><trkpt lat="1.2170384119727586" lon="-76.68047176227513"><ele>869.2857142857143</ele><time>2026-03-22T16:01:24Z</time></trkpt><trkpt lat="1.2170724303331903" lon="-76.68053083686544"><ele>870.4285714285714</ele><time>2026-03-22T16:01:33Z</time></trkpt><trkpt lat="1.2171474898949064" lon="-76.68057621524858"><ele>871.5714285714286</ele><time>2026-03-22T16:01:36Z</time></trkpt><trkpt lat="1.2172055590544912" lon="-76.68061894380295"><ele>872.7142857142858</ele><time>2026-03-22T16:01:38Z</time></trkpt><trkpt lat="1.2172613794778273" lon="-76.6806745400635"><ele>873.8571428571429</ele><time>2026-03-22T16:01:41Z</time></trkpt><trkpt lat="1.2173017669973538" lon="-76.68073693520333"><ele>875.0</ele><time>2026-03-22T16:01:44Z</time></trkpt><trkpt lat="1.2173375803223632" lon="-76.6807978880252"><ele>875.5714285714286</ele><time>2026-03-22T16:01:47Z</time></trkpt><trkpt lat="1.217384930655955" lon="-76.68085966093699"><ele>876.1428571428571</ele><time>2026-03-22T16:01:51Z</time></trkpt><trkpt lat="1.2174183441225193" lon="-76.68091586581919"><ele>876.7142857142858</ele><time>2026-03-22T16:01:53Z</time></trkpt><trkpt lat="1.2174366919830166" lon="-76.6809866277165"><ele>877.2857142857142</ele><time>2026-03-22T16:01:57Z</time></trkpt><trkpt lat="1.2174669167273484" lon="-76.68104808669685"><ele>877.8571428571429</ele><time>2026-03-22T16:02:00Z</time></trkpt><trkpt lat="1.2175261966732236" lon="-76.68109618604731"><ele>878.4285714285714</ele><time>2026-03-22T16:02:03Z</time></trkpt><trkpt lat="1.2175680823560417" lon="-76.6811606300324"><ele>879.0</ele><time>2026-03-22T16:02:07Z</time></trkpt><trkpt lat="1.2176054824003721" lon="-76.68122883170072"><ele>880.6666666666666</ele><time>2026-03-22T16:02:10Z</time></trkpt><trkpt lat="1.21765068361041" lon="-76.68130405969862"><ele>882.3333333333333</ele><time>2026-03-22T16:02:13Z</time></trkpt><trkpt lat="1.2176937313565612" lon="-76.68139341036012"><ele>884.0</ele><time>2026-03-22T16:02:16Z</time></trkpt><trkpt lat="1.2176971258293903" lon="-76.6814677308635"><ele>885.6666666666666</ele><time>2026-03-22T16:02:17.999Z</time></trkpt><trkpt lat="1.2177209493390302" lon="-76.6815358429299"><ele>887.3333333333333</ele><time>2026-03-22T16:02:19.999Z</time></trkpt><trkpt lat="1.2177495224399957" lon="-76.68162023533627"><ele>889.0</ele><time>2026-03-22T16:02:21.999Z</time></trkpt><trkpt lat="1.2177874718352355" lon="-76.68167578029038"><ele>888.9999999999999</ele><time>2026-03-22T16:02:23.999Z</time></trkpt><trkpt lat="1.2178533607332698" lon="-76.6817203535535"><ele>889.0</ele><time>2026-03-22T16:02:27Z</time></trkpt><trkpt lat="1.2179005018224323" lon="-76.68176545527142"><ele>889.0</ele><time>2026-03-22T16:02:29Z</time></trkpt><trkpt lat="1.2179682959995413" lon="-76.68182479685035"><ele>889.0</ele><time>2026-03-22T16:02:32Z</time></trkpt><trkpt lat="1.2180508639148857" lon="-76.68186804404591"><ele>888.9999999999999</ele><time>2026-03-22T16:02:35Z</time></trkpt><trkpt lat="1.2181043564993332" lon="-76.68191767431809"><ele>889.0</ele><time>2026-03-22T16:02:37Z</time></trkpt><trkpt lat="1.2181500398049083" lon="-76.68200227839675"><ele>894.1666666666666</ele><time>2026-03-22T16:02:39Z</time></trkpt><trkpt lat="1.2181720954116029" lon="-76.68208296893998"><ele>899.3333333333333</ele><time>2026-03-22T16:02:41Z</time></trkpt><trkpt lat="1.2181885919031346" lon="-76.68217413971253"><ele>904.5</ele><time>2026-03-22T16:04:01Z</time></trkpt><trkpt lat="1.2182186722408335" lon="-76.6822449506899"><ele>909.6666666666667</ele><time>2026-03-22T16:04:44Z</time></trkpt><trkpt lat="1.2182868121885597" lon="-76.68219581348674"><ele>914.8333333333334</ele><time>2026-03-22T16:06:14Z</time></trkpt><trkpt lat="1.2183677063845046" lon="-76.68221899031563"><ele>920.0</ele><time>2026-03-22T16:06:18Z</time></trkpt><trkpt lat="1.2184156103187735" lon="-76.68227850412168"><ele>919.9999999999999</ele><time>2026-03-22T16:06:21Z</time></trkpt><trkpt lat="1.218467140349682" lon="-76.68234368547431"><ele>920.0</ele><time>2026-03-22T16:06:38Z</time></trkpt><trkpt lat="1.21848559836035" lon="-76.68242070421992"><ele>919.9999999999999</ele><time>2026-03-22T16:06:46Z</time></trkpt><trkpt lat="1.2185192763000674" lon="-76.6824798639449"><ele>919.9999999999999</ele><time>2026-03-22T16:08:37Z</time></trkpt><trkpt lat="1.2185818404422983" lon="-76.68244639017438"><ele>920.0</ele><time>2026-03-22T16:08:44Z</time></trkpt><trkpt lat="1.2186618255813895" lon="-76.68244976573838"><ele>919.9999999999999</ele><time>2026-03-22T16:08:47Z</time></trkpt><trkpt lat="1.2187242423252962" lon="-76.68246043205862"><ele>919.9999999999999</ele><time>2026-03-22T16:08:49Z</time></trkpt><trkpt lat="1.2187724432764708" lon="-76.68252124713477"><ele>919.9999999999999</ele><time>2026-03-22T16:08:52Z</time></trkpt><trkpt lat="1.2188640519221607" lon="-76.68254626491873"><ele>920.0</ele><time>2026-03-22T16:08:55Z</time></trkpt><trkpt lat="1.2189110676582766" lon="-76.68249798845916"><ele>919.9999999999999</ele><time>2026-03-22T16:08:57Z</time></trkpt><trkpt lat="1.218975756496999" lon="-76.68249856477195"><ele>919.9999999999999</ele><time>2026-03-22T16:09:01Z</time></trkpt><trkpt lat="1.2190414753415937" lon="-76.68248829532614"><ele>920.0</ele><time>2026-03-22T16:09:10Z</time></trkpt><trkpt lat="1.2191061988734622" lon="-76.68248545842575"><ele>919.9999999999999</ele><time>2026-03-22T16:09:12Z</time></trkpt><trkpt lat="1.2190432343112005" lon="-76.68248551405007"><ele>919.9999999999999</ele><time>2026-03-22T16:10:38Z</time></trkpt><trkpt lat="1.2190881011191648" lon="-76.68254078678464"><ele>920.0000000000001</ele><time>2026-03-22T16:12:50Z</time></trkpt><trkpt lat="1.219008815971019" lon="-76.68257644625217"><ele>920.0</ele><time>2026-03-22T16:13:19Z</time></trkpt><trkpt lat="1.2189802441670154" lon="-76.6826344757801"><ele>920.0</ele><time>2026-03-22T16:13:30Z</time></trkpt><trkpt lat="1.2189084825565104" lon="-76.68266811756835"><ele>920.0</ele><time>2026-03-22T16:13:34Z</time></trkpt><trkpt lat="1.2189425857074327" lon="-76.6827421982498"><ele>920.0000000000001</ele><time>2026-03-22T16:13:44Z</time></trkpt><trkpt lat="1.218880509728114" lon="-76.68281613333335"><ele>920.0</ele><time>2026-03-22T16:13:47Z</time></trkpt><trkpt lat="1.2189193733970969" lon="-76.68288924369577"><ele>919.3333333333334</ele><time>2026-03-22T16:13:54Z</time></trkpt><trkpt lat="1.2189703268931293" lon="-76.68294482326867"><ele>918.6666666666667</ele><time>2026-03-22T16:13:57Z</time></trkpt><trkpt lat="1.219041217766584" lon="-76.68295279267262"><ele>918.0</ele><time>2026-03-22T16:14:04Z</time></trkpt><trkpt lat="1.2191197432614305" lon="-76.6829675819993"><ele>917.3333333333333</ele><time>2026-03-22T16:14:07Z</time></trkpt><trkpt lat="1.2191880560941524" lon="-76.68292218391696"><ele>916.6666666666666</ele><time>2026-03-22T16:14:10Z</time></trkpt><trkpt lat="1.2192514273570507" lon="-76.68295305825454"><ele>916.0</ele><time>2026-03-22T16:14:12Z</time></trkpt><trkpt lat="1.219316032819919" lon="-76.68298721340062"><ele>923.4999999999999</ele><time>2026-03-22T16:14:15Z</time></trkpt><trkpt lat="1.219400290434052" lon="-76.68300695702727"><ele>931.0</ele><time>2026-03-22T16:14:18Z</time></trkpt><trkpt lat="1.2194624254037947" lon="-76.68303625352058"><ele>938.5</ele><time>2026-03-22T16:14:21Z</time></trkpt><trkpt lat="1.219518015188136" lon="-76.68307443384126"><ele>946.0</ele><time>2026-03-22T16:14:26Z</time></trkpt><trkpt lat="1.2195532219382985" lon="-76.68314030549989"><ele>953.4999999999999</ele><time>2026-03-22T16:14:30Z</time></trkpt><trkpt lat="1.219645413740629" lon="-76.68314369574166"><ele>961.0</ele><time>2026-03-22T16:14:34Z</time></trkpt><trkpt lat="1.219662738896679" lon="-76.68320963026052"><ele>961.0</ele><time>2026-03-22T16:14:39Z</time></trkpt><trkpt lat="1.2196337680999925" lon="-76.68327417699976"><ele>960.9999999999999</ele><time>2026-03-22T16:14:45Z</time></trkpt><trkpt lat="1.2196445548975403" lon="-76.68320615304602"><ele>961.0</ele><time>2026-03-22T16:15:14Z</time></trkpt><trkpt lat="1.219702833591291" lon="-76.6832460864053"><ele>961.0</ele><time>2026-03-22T16:15:43Z</time></trkpt><trkpt lat="1.219723672823339" lon="-76.6831845687235"><ele>960.9999999999999</ele><time>2026-03-22T16:15:47Z</time></trkpt><trkpt lat="1.2196833888786756" lon="-76.68312691887445"><ele>961.0</ele><time>2026-03-22T16:15:53Z</time></trkpt><trkpt lat="1.2196687567511908" lon="-76.68306486583218"><ele>961.0</ele><time>2026-03-22T16:15:56Z</time></trkpt><trkpt lat="1.2196787525942872" lon="-76.68299945180678"><ele>960.9999999999999</ele><time>2026-03-22T16:16:00Z</time></trkpt><trkpt lat="1.2197357076572357" lon="-76.6830345382808"><ele>961.0</ele><time>2026-03-22T16:16:10Z</time></trkpt><trkpt lat="1.219799141423161" lon="-76.68304629851289"><ele>961.0</ele><time>2026-03-22T16:16:13Z</time></trkpt><trkpt lat="1.219889046653152" lon="-76.68306832097967"><ele>961.0</ele><time>2026-03-22T16:16:23Z</time></trkpt><trkpt lat="1.2199403299486873" lon="-76.68314381973558"><ele>960.9999999999999</ele><time>2026-03-22T16:16:26Z</time></trkpt><trkpt lat="1.2200138270778202" lon="-76.68313586504009"><ele>961.0</ele><time>2026-03-22T16:16:29Z</time></trkpt><trkpt lat="1.220083540426111" lon="-76.68315680910285"><ele>972.1999999999999</ele><time>2026-03-22T16:16:31Z</time></trkpt><trkpt lat="1.220182730660381" lon="-76.68317083817453"><ele>983.3999999999999</ele><time>2026-03-22T16:16:33Z</time></trkpt><trkpt lat="1.2203324996399831" lon="-76.68314104980392"><ele>994.6</ele><time>2026-03-22T16:16:41Z</time></trkpt><trkpt lat="1.220417227177254" lon="-76.6831439585635"><ele>1005.8</ele><time>2026-03-22T16:16:49Z</time></trkpt><trkpt lat="1.2204689421918797" lon="-76.68322359765351"><ele>1017.0</ele><time>2026-03-22T16:16:57Z</time></trkpt><trkpt lat="1.2203525169151297" lon="-76.68316348880086"><ele>1017.0</ele><time>2026-03-22T16:17:01Z</time></trkpt><trkpt lat="1.2204173220832144" lon="-76.68310894999604"><ele>1017.0</ele><time>2026-03-22T16:17:10Z</time></trkpt><trkpt lat="1.2203634489206057" lon="-76.68315148978401"><ele>1017.0</ele><time>2026-03-22T16:17:14Z</time></trkpt><trkpt lat="1.2204471003493316" lon="-76.68315095450318"><ele>1017.0</ele><time>2026-03-22T16:17:29Z</time></trkpt><trkpt lat="1.2205122702863487" lon="-76.68311755734653"><ele>1017.0</ele><time>2026-03-22T16:17:37Z</time></trkpt><trkpt lat="1.2204859158864771" lon="-76.68302194826487"><ele>1017.0</ele><time>2026-03-22T16:17:39Z</time></trkpt><trkpt lat="1.2205784737829533" lon="-76.6831192862225"><ele>1017.0</ele><time>2026-03-22T16:17:42Z</time></trkpt><trkpt lat="1.220628911655395" lon="-76.68324087958572"><ele>1017.0</ele><time>2026-03-22T16:17:43Z</time></trkpt><trkpt lat="1.2206435417226378" lon="-76.68331443028846"><ele>1017.0</ele><time>2026-03-22T16:17:45Z</time></trkpt><trkpt lat="1.2206730704323843" lon="-76.6833706169596"><ele>1017.0</ele><time>2026-03-22T16:17:46Z</time></trkpt><trkpt lat="1.2207218630988457" lon="-76.68341171762147"><ele>1017.0</ele><time>2026-03-22T16:17:48Z</time></trkpt><trkpt lat="1.2207911474906954" lon="-76.68340899311869"><ele>1017.0</ele><time>2026-03-22T16:17:53Z</time></trkpt><trkpt lat="1.2208619378115013" lon="-76.68348859188634"><ele>1018.7142857142857</ele><time>2026-03-22T16:18:03Z</time></trkpt><trkpt lat="1.2209337356466279" lon="-76.68350671328854"><ele>1020.4285714285713</ele><time>2026-03-22T16:19:16Z</time></trkpt><trkpt lat="1.221003646156145" lon="-76.68351830749796"><ele>1022.1428571428571</ele><time>2026-03-22T16:19:22Z</time></trkpt><trkpt lat="1.2210740483119233" lon="-76.683501967287"><ele>1023.8571428571429</ele><time>2026-03-22T16:19:25Z</time></trkpt><trkpt lat="1.2211100211337393" lon="-76.68356992454756"><ele>1025.5714285714284</ele><time>2026-03-22T16:19:28Z</time></trkpt><trkpt lat="1.2211658328056796" lon="-76.68360028711042"><ele>1027.2857142857142</ele><time>2026-03-22T16:19:30Z</time></trkpt><trkpt lat="1.2212478988328668" lon="-76.68359139312777"><ele>1029.0</ele><time>2026-03-22T16:19:33Z</time></trkpt><trkpt lat="1.2213307266429703" lon="-76.68359329122259"><ele>1031.6666666666667</ele><time>2026-03-22T16:19:36Z</time></trkpt><trkpt lat="1.2214045621249106" lon="-76.6835921602476"><ele>1034.3333333333333</ele><time>2026-03-22T16:19:39Z</time></trkpt><trkpt lat="1.2214937391880556" lon="-76.68360149292982"><ele>1037.0</ele><time>2026-03-22T16:19:42Z</time></trkpt><trkpt lat="1.221583179547464" lon="-76.683585486613"><ele>1039.6666666666665</ele><time>2026-03-22T16:19:46Z</time></trkpt><trkpt lat="1.2216620385020898" lon="-76.68359076958404"><ele>1042.3333333333333</ele><time>2026-03-22T16:19:48Z</time></trkpt><trkpt lat="1.221740609660216" lon="-76.68360979987922"><ele>1045.0</ele><time>2026-03-22T16:19:52Z</time></trkpt><trkpt lat="1.2218260710740654" lon="-76.68364212132494"><ele>1049.6666666666665</ele><time>2026-03-22T16:19:56Z</time></trkpt><trkpt lat="1.221893321791477" lon="-76.68366711759285"><ele>1054.3333333333333</ele><time>2026-03-22T16:19:59Z</time></trkpt><trkpt lat="1.221985552222081" lon="-76.6836991394208"><ele>1059.0</ele><time>2026-03-22T16:20:07Z</time></trkpt><trkpt lat="1.2220743070601883" lon="-76.68367638994663"><ele>1063.6666666666667</ele><time>2026-03-22T16:21:01Z</time></trkpt><trkpt lat="1.2221430162956375" lon="-76.6837118293414"><ele>1068.3333333333335</ele><time>2026-03-22T16:21:05Z</time></trkpt><trkpt lat="1.222183057803972" lon="-76.68376555835452"><ele>1073.0</ele><time>2026-03-22T16:21:09Z</time></trkpt><trkpt lat="1.2222338843838854" lon="-76.6838146978564"><ele>1073.0</ele><time>2026-03-22T16:21:11Z</time></trkpt><trkpt lat="1.2222834504871407" lon="-76.68388661862993"><ele>1073.0</ele><time>2026-03-22T16:21:21Z</time></trkpt><trkpt lat="1.2223363672873524" lon="-76.68395715906296"><ele>1073.0</ele><time>2026-03-22T16:21:24Z</time></trkpt><trkpt lat="1.2223859134798036" lon="-76.68401212363857"><ele>1073.0</ele><time>2026-03-22T16:21:27Z</time></trkpt><trkpt lat="1.22238991159571" lon="-76.68409562505592"><ele>1073.0</ele><time>2026-03-22T16:21:31Z</time></trkpt><trkpt lat="1.222397614150196" lon="-76.68416506661141"><ele>1073.0</ele><time>2026-03-22T16:21:34Z</time></trkpt><trkpt lat="1.2224711574488543" lon="-76.68418347388474"><ele>1079.0</ele><time>2026-03-22T16:22:11Z</time></trkpt><trkpt lat="1.2224824056471233" lon="-76.68409791678808"><ele>1085.0</ele><time>2026-03-22T16:22:29Z</time></trkpt><trkpt lat="1.2225416133406555" lon="-76.68406607450812"><ele>1091.0</ele><time>2026-03-22T16:22:39Z</time></trkpt><trkpt lat="1.2224815624091885" lon="-76.6840430694424"><ele>1097.0</ele><time>2026-03-22T16:23:39Z</time></trkpt><trkpt lat="1.2225485631497781" lon="-76.68404343107035"><ele>1103.0</ele><time>2026-03-22T16:24:24Z</time></trkpt><trkpt lat="1.2226027782554378" lon="-76.68408270707778"><ele>1109.0</ele><time>2026-03-22T16:24:31Z</time></trkpt><trkpt lat="1.2226593678513473" lon="-76.68411914672842"><ele>1115.0</ele><time>2026-03-22T16:24:35Z</time></trkpt><trkpt lat="1.2227468274040028" lon="-76.68414089824299"><ele>1115.0</ele><time>2026-03-22T16:24:38Z</time></trkpt><trkpt lat="1.2228402229404858" lon="-76.68413904817132"><ele>1115.0</ele><time>2026-03-22T16:24:41Z</time></trkpt><trkpt lat="1.2229080017283636" lon="-76.6841592342526"><ele>1115.0</ele><time>2026-03-22T16:24:43Z</time></trkpt><trkpt lat="1.222981120810629" lon="-76.68418246561154"><ele>1115.0</ele><time>2026-03-22T16:24:46Z</time></trkpt><trkpt lat="1.22304515003869" lon="-76.68417489029174"><ele>1115.0</ele><time>2026-03-22T16:24:52Z</time></trkpt><trkpt lat="1.2231414317310596" lon="-76.68428013092357"><ele>1115.0</ele><time>2026-03-22T16:25:17Z</time></trkpt><trkpt lat="1.2232134593797819" lon="-76.68435738870853"><ele>1115.0</ele><time>2026-03-22T16:33:36Z</time></trkpt><trkpt lat="1.2232029687496473" lon="-76.68428598263344"><ele>1115.0</ele><time>2026-03-22T16:37:16Z</time></trkpt><trkpt lat="1.2231518263061671" lon="-76.68422755389767"><ele>1115.0</ele><time>2026-03-22T16:51:50Z</time></trkpt><trkpt lat="1.2231415182993894" lon="-76.68429881956072"><ele>1115.0</ele><time>2026-03-22T16:53:08Z</time></trkpt><trkpt lat="1.2230965280851878" lon="-76.68434876922433"><ele>1115.0</ele><time>2026-03-22T16:53:12Z</time></trkpt><trkpt lat="1.2231492389846492" lon="-76.68426097319428"><ele>1115.0</ele><time>2026-03-22T16:53:16Z</time></trkpt><trkpt lat="1.2231788484471573" lon="-76.68433719919044"><ele>1117.8333333333335</ele><time>2026-03-22T16:55:59Z</time></trkpt><trkpt lat="1.2231487468434283" lon="-76.68441487046303"><ele>1120.6666666666667</ele><time>2026-03-22T16:56:03Z</time></trkpt><trkpt lat="1.2231458030431293" lon="-76.68448020168766"><ele>1123.5</ele><time>2026-03-22T16:56:05Z</time></trkpt><trkpt lat="1.223123727993918" lon="-76.68454114436754"><ele>1126.3333333333333</ele><time>2026-03-22T16:56:08Z</time></trkpt><trkpt lat="1.2231242472485018" lon="-76.68461248815046"><ele>1129.1666666666665</ele><time>2026-03-22T16:56:11Z</time></trkpt><trkpt lat="1.2231768166238695" lon="-76.68467411888108"><ele>1132.0</ele><time>2026-03-22T16:56:16Z</time></trkpt><trkpt lat="1.22324752413852" lon="-76.68473405664953"><ele>1132.0</ele><time>2026-03-22T16:56:20Z</time></trkpt><trkpt lat="1.2231854615549433" lon="-76.68471491761595"><ele>1132.0</ele><time>2026-03-22T16:56:23Z</time></trkpt><trkpt lat="1.2231063084400111" lon="-76.68468764573475"><ele>1132.0</ele><time>2026-03-22T16:56:40Z</time></trkpt><trkpt lat="1.2230386036160035" lon="-76.6846799536368"><ele>1132.0</ele><time>2026-03-22T16:56:42Z</time></trkpt><trkpt lat="1.2231312335426776" lon="-76.68469811217936"><ele>1132.0</ele><time>2026-03-22T16:56:56Z</time></trkpt><trkpt lat="1.2234358322260492" lon="-76.6846430063257"><ele>1144.0</ele><time>2026-03-22T16:57:16Z</time></trkpt><trkpt lat="1.223677528882563" lon="-76.68408914947932"><ele>1144.0</ele><time>2026-03-22T17:03:05.013Z</time></trkpt><trkpt lat="1.223583299878238" lon="-76.68435632053877"><ele>1144.0</ele><time>2026-03-22T17:03:10.017Z</time></trkpt><trkpt lat="1.2235166500484878" lon="-76.68450589063208"><ele>1144.0</ele><time>2026-03-22T17:03:11.016Z</time></trkpt><trkpt lat="1.2235065695479246" lon="-76.68460168530383"><ele>1141.6000000000001</ele><time>2026-03-22T17:03:12.016Z</time></trkpt><trkpt lat="1.2235684798109545" lon="-76.68464251437234"><ele>1139.2</ele><time>2026-03-22T17:03:26.016Z</time></trkpt><trkpt lat="1.2235845999237445" lon="-76.68470715711912"><ele>1136.8000000000002</ele><time>2026-03-22T17:03:36.015Z</time></trkpt><trkpt lat="1.2235164551963837" lon="-76.6846183953355"><ele>1134.4</ele><time>2026-03-22T17:03:46.074Z</time></trkpt><trkpt lat="1.2234635831317" lon="-76.68465275962203"><ele>1132.0</ele><time>2026-03-22T17:03:56.072Z</time></trkpt><trkpt lat="1.2240956360746724" lon="-76.68490253007502"><ele>1136.4285714285716</ele><time>2026-03-22T17:05:30.015Z</time></trkpt><trkpt lat="1.224073851177671" lon="-76.68496762087632"><ele>1140.857142857143</ele><time>2026-03-22T17:05:39Z</time></trkpt><trkpt lat="1.2240677141224707" lon="-76.68503030357435"><ele>1145.2857142857142</ele><time>2026-03-22T17:05:45Z</time></trkpt><trkpt lat="1.2240578513107911" lon="-76.6849677433558"><ele>1149.7142857142858</ele><time>2026-03-22T17:05:54Z</time></trkpt><trkpt lat="1.2241027434530218" lon="-76.68489883206192"><ele>1154.142857142857</ele><time>2026-03-22T17:05:59Z</time></trkpt><trkpt lat="1.2241442277732264" lon="-76.68496485621448"><ele>1158.5714285714287</ele><time>2026-03-22T17:06:30Z</time></trkpt><trkpt lat="1.224094860987015" lon="-76.685030082739"><ele>1163.0</ele><time>2026-03-22T17:06:37Z</time></trkpt><trkpt lat="1.22423694793861" lon="-76.68504951083224"><ele>1163.0</ele><time>2026-03-22T17:06:41Z</time></trkpt><trkpt lat="1.2241644572924282" lon="-76.68509823103076"><ele>1163.0</ele><time>2026-03-22T17:06:44Z</time></trkpt><trkpt lat="1.2240012936424078" lon="-76.6854154765171"><ele>1163.0</ele><time>2026-03-22T17:07:00Z</time></trkpt><trkpt lat="1.2243284952739089" lon="-76.68502848211887"><ele>1163.0</ele><time>2026-03-22T17:07:05Z</time></trkpt><trkpt lat="1.2243685647139877" lon="-76.6849028161681"><ele>1163.0</ele><time>2026-03-22T17:07:13Z</time></trkpt><trkpt lat="1.2241883479622964" lon="-76.68496863905924"><ele>1163.0</ele><time>2026-03-22T17:07:15Z</time></trkpt><trkpt lat="1.2241326048528764" lon="-76.68490267621615"><ele>1163.0</ele><time>2026-03-22T17:07:22Z</time></trkpt><trkpt lat="1.2240689560681772" lon="-76.68494735882982"><ele>1163.0</ele><time>2026-03-22T17:07:25Z</time></trkpt><trkpt lat="1.22418135479821" lon="-76.68488902746768"><ele>1163.0</ele><time>2026-03-22T17:08:30.029Z</time></trkpt><trkpt lat="1.2241151628184956" lon="-76.68494285190917"><ele>1163.0</ele><time>2026-03-22T17:08:35.027Z</time></trkpt><trkpt lat="1.2241269865593296" lon="-76.68500576056323"><ele>1163.0</ele><time>2026-03-22T17:08:40.027Z</time></trkpt><trkpt lat="1.2240928970710727" lon="-76.68507585927073"><ele>1163.0</ele><time>2026-03-22T17:08:57.018Z</time></trkpt><trkpt lat="1.224505260802246" lon="-76.68485060042794"><ele>1163.0</ele><time>2026-03-22T17:10:39.012Z</time></trkpt><trkpt lat="1.2244727490178628" lon="-76.68479542328521"><ele>1163.0</ele><time>2026-03-22T17:10:50.013Z</time></trkpt><trkpt lat="1.2244232232071326" lon="-76.68475039772107"><ele>1163.0</ele><time>2026-03-22T17:10:55.013Z</time></trkpt><trkpt lat="1.2242375318525476" lon="-76.6846060292925"><ele>1163.0</ele><time>2026-03-22T17:11:19.013Z</time></trkpt><trkpt lat="1.2243135991376226" lon="-76.68463260468359"><ele>1163.0</ele><time>2026-03-22T17:11:21.013Z</time></trkpt><trkpt lat="1.22451369307548" lon="-76.68455436394649"><ele>1163.0</ele><time>2026-03-22T17:18:31.998Z</time></trkpt><trkpt lat="1.224471434792017" lon="-76.68449716204655"><ele>1163.0</ele><time>2026-03-22T17:18:37.001Z</time></trkpt><trkpt lat="1.2245434945981477" lon="-76.68445149699448"><ele>1163.0</ele><time>2026-03-22T17:18:58.001Z</time></trkpt><trkpt lat="1.2245686696453393" lon="-76.68438243616598"><ele>1163.0</ele><time>2026-03-22T17:19:01.001Z</time></trkpt><trkpt lat="1.2245907873248647" lon="-76.68432292428066"><ele>1163.0</ele><time>2026-03-22T17:19:03.001Z</time></trkpt><trkpt lat="1.2245984474129576" lon="-76.68425092394216"><ele>1163.0</ele><time>2026-03-22T17:19:25Z</time></trkpt><trkpt lat="1.224664426347175" lon="-76.68425275410168"><ele>1163.0</ele><time>2026-03-22T17:19:57Z</time></trkpt><trkpt lat="1.224697322200096" lon="-76.68419461327619"><ele>1166.7142857142858</ele><time>2026-03-22T17:20:02Z</time></trkpt><trkpt lat="1.2247581790682678" lon="-76.6841598454471"><ele>1170.4285714285713</ele><time>2026-03-22T17:21:04Z</time></trkpt><trkpt lat="1.2248098378006234" lon="-76.68410904722349"><ele>1174.142857142857</ele><time>2026-03-22T17:21:13Z</time></trkpt><trkpt lat="1.2248229321020516" lon="-76.68404359242712"><ele>1177.857142857143</ele><time>2026-03-22T17:21:23Z</time></trkpt><trkpt lat="1.2248084959647558" lon="-76.68397282939644"><ele>1181.5714285714287</ele><time>2026-03-22T17:25:41Z</time></trkpt><trkpt lat="1.2248770202600305" lon="-76.6839590952561"><ele>1185.2857142857142</ele><time>2026-03-22T17:25:46Z</time></trkpt><trkpt lat="1.2249522121126115" lon="-76.6839430992252"><ele>1189.0</ele><time>2026-03-22T17:25:51Z</time></trkpt><trkpt lat="1.2250286541550128" lon="-76.68391907273052"><ele>1193.5</ele><time>2026-03-22T17:25:55Z</time></trkpt><trkpt lat="1.225120902746197" lon="-76.68387134270131"><ele>1198.0</ele><time>2026-03-22T17:29:18.999Z</time></trkpt><trkpt lat="1.2251975308177192" lon="-76.6838782306236"><ele>1202.5</ele><time>2026-03-22T17:29:21.999Z</time></trkpt><trkpt lat="1.2252611499875177" lon="-76.68388384190861"><ele>1207.0</ele><time>2026-03-22T17:29:24.999Z</time></trkpt><trkpt lat="1.2253529635273916" lon="-76.6838963513904"><ele>1211.5</ele><time>2026-03-22T17:29:28.999Z</time></trkpt><trkpt lat="1.225415022667622" lon="-76.68387506160671"><ele>1216.0</ele><time>2026-03-22T17:29:31.999Z</time></trkpt><trkpt lat="1.2254790900077623" lon="-76.68385754336687"><ele>1216.0</ele><time>2026-03-22T17:29:34.999Z</time></trkpt><trkpt lat="1.2255364215173408" lon="-76.68380039185772"><ele>1216.0</ele><time>2026-03-22T17:29:37.999Z</time></trkpt><trkpt lat="1.225568322319719" lon="-76.68372177770328"><ele>1216.0</ele><time>2026-03-22T17:30:09.999Z</time></trkpt><trkpt lat="1.2256199423950256" lon="-76.68366334410149"><ele>1216.0</ele><time>2026-03-22T17:30:12.999Z</time></trkpt><trkpt lat="1.2256830318598524" lon="-76.68366795211904"><ele>1216.0</ele><time>2026-03-22T17:30:14.999Z</time></trkpt><trkpt lat="1.225773313758448" lon="-76.6836612886816"><ele>1216.0</ele><time>2026-03-22T17:30:17.999Z</time></trkpt><trkpt lat="1.225842248310125" lon="-76.68364904076716"><ele>1216.7142857142856</ele><time>2026-03-22T17:30:47.999Z</time></trkpt><trkpt lat="1.2258996168186207" lon="-76.68361913922902"><ele>1217.4285714285716</ele><time>2026-03-22T17:30:51.999Z</time></trkpt><trkpt lat="1.225948344774846" lon="-76.68356497327916"><ele>1218.142857142857</ele><time>2026-03-22T17:30:54.999Z</time></trkpt><trkpt lat="1.2260097804353474" lon="-76.68353397452019"><ele>1218.8571428571427</ele><time>2026-03-22T17:30:57.999Z</time></trkpt><trkpt lat="1.2260484324922218" lon="-76.68348083458733"><ele>1219.5714285714284</ele><time>2026-03-22T17:31:00.999Z</time></trkpt><trkpt lat="1.226086293764784" lon="-76.68342911106625"><ele>1220.2857142857142</ele><time>2026-03-22T17:31:36.999Z</time></trkpt><trkpt lat="1.226116137195738" lon="-76.68348940122267"><ele>1221.0</ele><time>2026-03-22T17:36:01.999Z</time></trkpt><trkpt lat="1.226150451634887" lon="-76.68354382269466"><ele>1221.0</ele><time>2026-03-22T17:36:07.999Z</time></trkpt><trkpt lat="1.2260818185229296" lon="-76.68352831996383"><ele>1221.0</ele><time>2026-03-22T17:37:03.025Z</time></trkpt><trkpt lat="1.2257789280028382" lon="-76.68370982785312"><ele>1221.0</ele><time>2026-03-22T17:38:04.015Z</time></trkpt><trkpt lat="1.2257613696598906" lon="-76.68362405641155"><ele>1221.0</ele><time>2026-03-22T17:38:07.014Z</time></trkpt><trkpt lat="1.2256830505397855" lon="-76.68359876095997"><ele>1221.0</ele><time>2026-03-22T17:38:10.999Z</time></trkpt><trkpt lat="1.2256101635879009" lon="-76.68358943829433"><ele>1221.0</ele><time>2026-03-22T17:38:13.999Z</time></trkpt><trkpt lat="1.225552059853599" lon="-76.68365457420163"><ele>1221.0</ele><time>2026-03-22T17:38:18Z</time></trkpt><trkpt lat="1.2255157013191826" lon="-76.68371111715432"><ele>1221.0</ele><time>2026-03-22T17:38:23Z</time></trkpt><trkpt lat="1.225478717120308" lon="-76.683774466533"><ele>1221.0</ele><time>2026-03-22T17:38:26Z</time></trkpt><trkpt lat="1.2254003294313784" lon="-76.68377726504957"><ele>1220.1666666666667</ele><time>2026-03-22T17:38:31Z</time></trkpt><trkpt lat="1.2253273541963663" lon="-76.68379747243759"><ele>1219.3333333333333</ele><time>2026-03-22T17:38:35Z</time></trkpt><trkpt lat="1.2252347942065565" lon="-76.68380362919368"><ele>1218.5</ele><time>2026-03-22T17:38:39Z</time></trkpt><trkpt lat="1.2251454800890396" lon="-76.68382253777311"><ele>1217.6666666666665</ele><time>2026-03-22T17:38:42Z</time></trkpt><trkpt lat="1.2250824143380912" lon="-76.68385999747079"><ele>1216.8333333333333</ele><time>2026-03-22T17:38:46Z</time></trkpt><trkpt lat="1.2250469967590256" lon="-76.6839156826013"><ele>1216.0</ele><time>2026-03-22T17:39:01Z</time></trkpt><trkpt lat="1.2249749572769664" lon="-76.683922584387"><ele>1216.0</ele><time>2026-03-22T17:39:04Z</time></trkpt><trkpt lat="1.22488905255095" lon="-76.68394385049265"><ele>1216.0</ele><time>2026-03-22T17:39:07Z</time></trkpt><trkpt lat="1.2248278817856988" lon="-76.68395983474966"><ele>1216.0</ele><time>2026-03-22T17:39:09Z</time></trkpt><trkpt lat="1.2248347727367639" lon="-76.68404340467717"><ele>1216.0</ele><time>2026-03-22T17:39:25Z</time></trkpt><trkpt lat="1.2248221205263896" lon="-76.68410525991274"><ele>1216.0</ele><time>2026-03-22T17:39:33Z</time></trkpt><trkpt lat="1.2247551098984966" lon="-76.6841267008782"><ele>1216.0</ele><time>2026-03-22T17:39:37Z</time></trkpt><trkpt lat="1.224696543346157" lon="-76.68417501717659"><ele>1216.0</ele><time>2026-03-22T17:39:41Z</time></trkpt><trkpt lat="1.2246458186642841" lon="-76.684223109908"><ele>1212.142857142857</ele><time>2026-03-22T17:39:46Z</time></trkpt><trkpt lat="1.2246072405165371" lon="-76.68429204744471"><ele>1208.2857142857144</ele><time>2026-03-22T17:39:52Z</time></trkpt><trkpt lat="1.2245697768079113" lon="-76.68435927108489"><ele>1204.4285714285716</ele><time>2026-03-22T17:39:57Z</time></trkpt><trkpt lat="1.2245459842848838" lon="-76.68443897659857"><ele>1200.5714285714284</ele><time>2026-03-22T17:40:02Z</time></trkpt><trkpt lat="1.2245351577842543" lon="-76.68450405305929"><ele>1196.7142857142858</ele><time>2026-03-22T17:40:09Z</time></trkpt><trkpt lat="1.2245108568670637" lon="-76.68456872628235"><ele>1192.857142857143</ele><time>2026-03-22T17:40:11Z</time></trkpt><trkpt lat="1.2244717428330283" lon="-76.68461991465549"><ele>1189.0</ele><time>2026-03-22T17:40:17.999Z</time></trkpt><trkpt lat="1.2244758921404804" lon="-76.68468560856441"><ele>1183.8</ele><time>2026-03-22T17:40:22Z</time></trkpt><trkpt lat="1.22453433718288" lon="-76.6847496965204"><ele>1178.6000000000001</ele><time>2026-03-22T17:40:26Z</time></trkpt><trkpt lat="1.2244966478501573" lon="-76.68484752014959"><ele>1173.4</ele><time>2026-03-22T17:40:28Z</time></trkpt><trkpt lat="1.2245177823472266" lon="-76.68491218280279"><ele>1168.2</ele><time>2026-03-22T17:40:31Z</time></trkpt><trkpt lat="1.2244288769737837" lon="-76.68481127179687"><ele>1163.0</ele><time>2026-03-22T17:40:36Z</time></trkpt><trkpt lat="1.2248741782011852" lon="-76.68478484043443"><ele>1163.0</ele><time>2026-03-22T17:40:37Z</time></trkpt><trkpt lat="1.2247936531319816" lon="-76.68459582735645"><ele>1163.0</ele><time>2026-03-22T17:40:42Z</time></trkpt><trkpt lat="1.223946178896388" lon="-76.6849868091573"><ele>1159.8333333333335</ele><time>2026-03-22T17:42:36.013Z</time></trkpt><trkpt lat="1.223896490707322" lon="-76.68493901654304"><ele>1156.6666666666667</ele><time>2026-03-22T17:42:39.014Z</time></trkpt><trkpt lat="1.2238475131966324" lon="-76.68486707996328"><ele>1153.5</ele><time>2026-03-22T17:42:42.013Z</time></trkpt><trkpt lat="1.2238024493810424" lon="-76.6848059331279"><ele>1150.3333333333333</ele><time>2026-03-22T17:42:45.012Z</time></trkpt><trkpt lat="1.2237519064640001" lon="-76.68475769941244"><ele>1147.1666666666665</ele><time>2026-03-22T17:42:52.013Z</time></trkpt><trkpt lat="1.223681082285787" lon="-76.68471197302188"><ele>1144.0</ele><time>2026-03-22T17:42:58.613Z</time></trkpt><trkpt lat="1.223304954932533" lon="-76.68439628236523"><ele>1144.0</ele><time>2026-03-22T17:43:45.014Z</time></trkpt><trkpt lat="1.2232590430706451" lon="-76.68432411720028"><ele>1144.0</ele><time>2026-03-22T17:43:47.015Z</time></trkpt><trkpt lat="1.2232330344160647" lon="-76.68438266415409"><ele>1144.0</ele><time>2026-03-22T17:43:52.017Z</time></trkpt><trkpt lat="1.223214650298025" lon="-76.68431783510876"><ele>1144.0</ele><time>2026-03-22T17:43:59.017Z</time></trkpt><trkpt lat="1.2228839381592849" lon="-76.6836739055813"><ele>1138.2</ele><time>2026-03-22T17:44:43.015Z</time></trkpt><trkpt lat="1.2229039521685554" lon="-76.6837349611666"><ele>1132.4</ele><time>2026-03-22T17:44:45.017Z</time></trkpt><trkpt lat="1.2229733786197698" lon="-76.68390213140725"><ele>1126.6</ele><time>2026-03-22T17:44:46.017Z</time></trkpt><trkpt lat="1.2230029920359078" lon="-76.68399730086209"><ele>1120.8</ele><time>2026-03-22T17:44:47.016Z</time></trkpt><trkpt lat="1.2230509743371456" lon="-76.68407319306071"><ele>1115.0</ele><time>2026-03-22T17:44:55.028Z</time></trkpt><trkpt lat="1.2231111395618943" lon="-76.68417846713356"><ele>1115.0</ele><time>2026-03-22T17:44:56.028Z</time></trkpt><trkpt lat="1.2230780945266528" lon="-76.68426724165211"><ele>1115.0</ele><time>2026-03-22T17:44:57.028Z</time></trkpt><trkpt lat="1.2230882169216208" lon="-76.68437770362232"><ele>1115.0</ele><time>2026-03-22T17:44:58.026Z</time></trkpt><trkpt lat="1.2230801202609758" lon="-76.68444810491008"><ele>1115.0</ele><time>2026-03-22T17:44:59.028Z</time></trkpt><trkpt lat="1.2230563599118962" lon="-76.68456189087634"><ele>1115.0</ele><time>2026-03-22T17:45:01.027Z</time></trkpt><trkpt lat="1.22303119035579" lon="-76.68466620716157"><ele>1129.5</ele><time>2026-03-22T17:45:03.026Z</time></trkpt><trkpt lat="1.2229656012834182" lon="-76.68491059970779"><ele>1144.0</ele><time>2026-03-22T17:45:08.472Z</time></trkpt><trkpt lat="1.2231680929365432" lon="-76.68423370412168"><ele>1144.0</ele><time>2026-03-22T17:46:17.014Z</time></trkpt><trkpt lat="1.2229272755891163" lon="-76.6841292724894"><ele>1144.0</ele><time>2026-03-22T17:46:29.014Z</time></trkpt><trkpt lat="1.223056412185847" lon="-76.68418247351839"><ele>1144.0</ele><time>2026-03-22T17:46:33.014Z</time></trkpt><trkpt lat="1.2233423176077332" lon="-76.68429283704863"><ele>1144.0</ele><time>2026-03-22T17:46:55.017Z</time></trkpt><trkpt lat="1.2232312174394424" lon="-76.68425130668254"><ele>1144.0</ele><time>2026-03-22T17:46:58.017Z</time></trkpt><trkpt lat="1.2231659633988146" lon="-76.68428003995383"><ele>1144.0</ele><time>2026-03-22T17:47:18.017Z</time></trkpt><trkpt lat="1.2231232259111557" lon="-76.68423017967736"><ele>1144.0</ele><time>2026-03-22T17:47:24.018Z</time></trkpt><trkpt lat="1.22310277331395" lon="-76.68416395930349"><ele>1144.0</ele><time>2026-03-22T17:47:28.017Z</time></trkpt><trkpt lat="1.2231496613875854" lon="-76.68422569610034"><ele>1144.0</ele><time>2026-03-22T17:47:34.017Z</time></trkpt><trkpt lat="1.223100245227392" lon="-76.6841786667761"><ele>1144.0</ele><time>2026-03-22T17:47:36.017Z</time></trkpt><trkpt lat="1.2231005820257812" lon="-76.68424220111648"><ele>1144.0</ele><time>2026-03-22T17:47:49.019Z</time></trkpt><trkpt lat="1.2230400541676645" lon="-76.68428426293751"><ele>1144.0</ele><time>2026-03-22T17:47:51.018Z</time></trkpt><trkpt lat="1.2231636912803732" lon="-76.68421962745578"><ele>1144.0</ele><time>2026-03-22T17:48:02.018Z</time></trkpt><trkpt lat="1.2232687099371378" lon="-76.68425485448101"><ele>1144.0</ele><time>2026-03-22T17:48:05.999Z</time></trkpt><trkpt lat="1.2232388547503372" lon="-76.68418744837139"><ele>1144.0</ele><time>2026-03-22T17:48:19.029Z</time></trkpt><trkpt lat="1.2232087110557648" lon="-76.68411410694927"><ele>1144.0</ele><time>2026-03-22T17:48:23.025Z</time></trkpt><trkpt lat="1.2233950923320276" lon="-76.68426845523187"><ele>1144.0</ele><time>2026-03-22T17:48:47.019Z</time></trkpt><trkpt lat="1.2233225848568434" lon="-76.68425519972791"><ele>1144.0</ele><time>2026-03-22T17:48:52.02Z</time></trkpt><trkpt lat="1.223201673204518" lon="-76.68421058912838"><ele>1139.8571428571427</ele><time>2026-03-22T17:48:54.021Z</time></trkpt><trkpt lat="1.2231361862495593" lon="-76.68419543811403"><ele>1135.7142857142858</ele><time>2026-03-22T17:48:55Z</time></trkpt><trkpt lat="1.2230751967257547" lon="-76.68417940278616"><ele>1131.5714285714284</ele><time>2026-03-22T17:48:56.027Z</time></trkpt><trkpt lat="1.2229863265268668" lon="-76.68416171405234"><ele>1127.4285714285713</ele><time>2026-03-22T17:48:59.028Z</time></trkpt><trkpt lat="1.2229036299906413" lon="-76.68414891605329"><ele>1123.2857142857142</ele><time>2026-03-22T17:49:03.027Z</time></trkpt><trkpt lat="1.2228345963936251" lon="-76.68415540432416"><ele>1119.142857142857</ele><time>2026-03-22T17:49:05.026Z</time></trkpt><trkpt lat="1.2227692356418496" lon="-76.68418237737392"><ele>1115.0</ele><time>2026-03-22T17:49:08.025Z</time></trkpt><trkpt lat="1.2226996725442592" lon="-76.68417384193427"><ele>1115.0</ele><time>2026-03-22T17:49:12.999Z</time></trkpt><trkpt lat="1.2226306108564722" lon="-76.68413508466946"><ele>1115.0</ele><time>2026-03-22T17:49:14.999Z</time></trkpt><trkpt lat="1.222558696033246" lon="-76.68410285209961"><ele>1115.0</ele><time>2026-03-22T17:49:16.999Z</time></trkpt><trkpt lat="1.2225091933240042" lon="-76.68405481128102"><ele>1115.0</ele><time>2026-03-22T17:49:21.999Z</time></trkpt><trkpt lat="1.2224900867899966" lon="-76.6839894910713"><ele>1115.0</ele><time>2026-03-22T17:49:26.999Z</time></trkpt><trkpt lat="1.222523416918341" lon="-76.68404324464403"><ele>1115.0</ele><time>2026-03-22T17:49:56.999Z</time></trkpt><trkpt lat="1.2225359149715642" lon="-76.68411075188016"><ele>1115.0</ele><time>2026-03-22T17:50:03.999Z</time></trkpt><trkpt lat="1.222482787299882" lon="-76.68416494947539"><ele>1115.0</ele><time>2026-03-22T17:50:27Z</time></trkpt><trkpt lat="1.2224151466475934" lon="-76.68415921568301"><ele>1115.0</ele><time>2026-03-22T17:50:33Z</time></trkpt><trkpt lat="1.2224352820806386" lon="-76.68408996949006"><ele>1115.0</ele><time>2026-03-22T17:50:38Z</time></trkpt><trkpt lat="1.2223918926516932" lon="-76.68403084198319"><ele>1115.0</ele><time>2026-03-22T17:50:41Z</time></trkpt><trkpt lat="1.2223537126546367" lon="-76.68397436954368"><ele>1115.0</ele><time>2026-03-22T17:50:43Z</time></trkpt><trkpt lat="1.2223046148573162" lon="-76.68391988971925"><ele>1115.0</ele><time>2026-03-22T17:50:45Z</time></trkpt><trkpt lat="1.2222359402082659" lon="-76.6838470269535"><ele>1108.0</ele><time>2026-03-22T17:50:50Z</time></trkpt><trkpt lat="1.2222008085357632" lon="-76.68379409388922"><ele>1101.0</ele><time>2026-03-22T17:51:02Z</time></trkpt><trkpt lat="1.22215271956252" lon="-76.68375149921579"><ele>1094.0</ele><time>2026-03-22T17:51:28Z</time></trkpt><trkpt lat="1.2220817073062022" lon="-76.6837213511176"><ele>1087.0</ele><time>2026-03-22T17:56:16.999Z</time></trkpt><trkpt lat="1.2220009637718336" lon="-76.68369897926833"><ele>1080.0</ele><time>2026-03-22T17:56:22.999Z</time></trkpt><trkpt lat="1.2219429277534821" lon="-76.68364899891249"><ele>1073.0</ele><time>2026-03-22T17:56:26.999Z</time></trkpt><trkpt lat="1.221848420216201" lon="-76.68361944124945"><ele>1073.0</ele><time>2026-03-22T17:56:30.999Z</time></trkpt><trkpt lat="1.2217917388321202" lon="-76.6835889484085"><ele>1073.0</ele><time>2026-03-22T17:56:37Z</time></trkpt><trkpt lat="1.2217209173033063" lon="-76.68358450827336"><ele>1073.0</ele><time>2026-03-22T17:56:44Z</time></trkpt><trkpt lat="1.2216222766245821" lon="-76.68358351769413"><ele>1073.0</ele><time>2026-03-22T17:56:48Z</time></trkpt><trkpt lat="1.2216993304327182" lon="-76.68359882520986"><ele>1073.0</ele><time>2026-03-22T17:56:50Z</time></trkpt><trkpt lat="1.2216026347744053" lon="-76.68361312254409"><ele>1073.0</ele><time>2026-03-22T17:56:59Z</time></trkpt><trkpt lat="1.2215130334623472" lon="-76.68356226699278"><ele>1068.3333333333335</ele><time>2026-03-22T17:57:02Z</time></trkpt><trkpt lat="1.221446254442127" lon="-76.68355326080939"><ele>1063.6666666666667</ele><time>2026-03-22T17:57:03Z</time></trkpt><trkpt lat="1.2213537309111333" lon="-76.68354412673602"><ele>1059.0</ele><time>2026-03-22T17:57:04Z</time></trkpt><trkpt lat="1.2212989424404737" lon="-76.68351014479127"><ele>1054.3333333333333</ele><time>2026-03-22T17:57:06Z</time></trkpt><trkpt lat="1.2212228686313056" lon="-76.68347542455531"><ele>1049.6666666666665</ele><time>2026-03-22T17:57:09Z</time></trkpt><trkpt lat="1.2211418304762556" lon="-76.68348608794918"><ele>1045.0</ele><time>2026-03-22T17:57:12Z</time></trkpt><trkpt lat="1.221301816784163" lon="-76.683370675642"><ele>961.0</ele><time>2026-03-22T17:57:34Z</time></trkpt><trkpt lat="1.219633173261972" lon="-76.6831385517386"><ele>961.0</ele><time>2026-03-22T17:59:52.014Z</time></trkpt><trkpt lat="1.2195741376330824" lon="-76.6830218235299"><ele>960.9999999999999</ele><time>2026-03-22T17:59:55.013Z</time></trkpt><trkpt lat="1.2194507558251402" lon="-76.68309993131315"><ele>960.9999999999999</ele><time>2026-03-22T17:59:56.014Z</time></trkpt><trkpt lat="1.2193862583975306" lon="-76.68312031171197"><ele>961.0</ele><time>2026-03-22T17:59:58.013Z</time></trkpt><trkpt lat="1.219353695822539" lon="-76.68305341624057"><ele>961.0</ele><time>2026-03-22T18:00:09.013Z</time></trkpt><trkpt lat="1.2192998517275127" lon="-76.68299891912307"><ele>961.0</ele><time>2026-03-22T18:00:14.013Z</time></trkpt><trkpt lat="1.219254557228867" lon="-76.68293747576725"><ele>961.0</ele><time>2026-03-22T18:00:18.013Z</time></trkpt><trkpt lat="1.2190644608418466" lon="-76.68272049561372"><ele>961.0</ele><time>2026-03-22T18:00:48.561Z</time></trkpt><trkpt lat="1.21886621968738" lon="-76.68303919824793"><ele>954.1666666666666</ele><time>2026-03-22T18:01:02.012Z</time></trkpt><trkpt lat="1.2189336419181092" lon="-76.68300828846512"><ele>947.3333333333333</ele><time>2026-03-22T18:01:07.013Z</time></trkpt><trkpt lat="1.2189641092844767" lon="-76.68291963411413"><ele>940.5</ele><time>2026-03-22T18:01:08.012Z</time></trkpt><trkpt lat="1.2189569627800698" lon="-76.682834951436"><ele>933.6666666666667</ele><time>2026-03-22T18:01:11.014Z</time></trkpt><trkpt lat="1.2189020310969083" lon="-76.68277194807379"><ele>926.8333333333334</ele><time>2026-03-22T18:01:14.014Z</time></trkpt><trkpt lat="1.2188499431269053" lon="-76.68271397473447"><ele>920.0</ele><time>2026-03-22T18:01:17.015Z</time></trkpt><trkpt lat="1.2188532660661078" lon="-76.68262668864527"><ele>920.0</ele><time>2026-03-22T18:01:40.014Z</time></trkpt><trkpt lat="1.2189028638371242" lon="-76.68258034327773"><ele>920.0</ele><time>2026-03-22T18:01:46.013Z</time></trkpt><trkpt lat="1.217100943757834" lon="-76.68050800088734"><ele>911.0</ele><time>2026-03-22T18:04:53.017Z</time></trkpt><trkpt lat="1.217109543037859" lon="-76.68036494945753"><ele>902.0</ele><time>2026-03-22T18:04:57.015Z</time></trkpt><trkpt lat="1.2172207664879295" lon="-76.68036869431178"><ele>893.0</ele><time>2026-03-22T18:04:59.016Z</time></trkpt><trkpt lat="1.2172472276169481" lon="-76.68029071761086"><ele>884.0</ele><time>2026-03-22T18:05:01.016Z</time></trkpt><trkpt lat="1.217301940684192" lon="-76.68024126876324"><ele>875.0</ele><time>2026-03-22T18:05:04.018Z</time></trkpt><trkpt lat="1.2172701963392283" lon="-76.68029884890741"><ele>875.0</ele><time>2026-03-22T18:05:10.016Z</time></trkpt><trkpt lat="1.2171984442056012" lon="-76.68032755499122"><ele>875.0</ele><time>2026-03-22T18:05:24.997Z</time></trkpt><trkpt lat="1.2171396273434623" lon="-76.68028767771915"><ele>875.0</ele><time>2026-03-22T18:05:32Z</time></trkpt><trkpt lat="1.2170538231835095" lon="-76.68023029425709"><ele>875.0</ele><time>2026-03-22T18:05:35Z</time></trkpt><trkpt lat="1.2169820992802058" lon="-76.68014320906157"><ele>875.0</ele><time>2026-03-22T18:05:37Z</time></trkpt><trkpt lat="1.2169434976794027" lon="-76.68004259716989"><ele>873.6666666666667</ele><time>2026-03-22T18:05:39Z</time></trkpt><trkpt lat="1.2169367228921253" lon="-76.67996477856737"><ele>872.3333333333334</ele><time>2026-03-22T18:05:41Z</time></trkpt><trkpt lat="1.2169281613219893" lon="-76.67990047216826"><ele>871.0</ele><time>2026-03-22T18:05:42Z</time></trkpt><trkpt lat="1.2169030748657852" lon="-76.67979276164137"><ele>869.6666666666667</ele><time>2026-03-22T18:05:44Z</time></trkpt><trkpt lat="1.2168874832895948" lon="-76.67967833197288"><ele>868.3333333333334</ele><time>2026-03-22T18:05:46Z</time></trkpt><trkpt lat="1.2168824333030732" lon="-76.67961260646551"><ele>867.0</ele><time>2026-03-22T18:05:47Z</time></trkpt><trkpt lat="1.216913277720687" lon="-76.67951642755246"><ele>864.8</ele><time>2026-03-22T18:05:49Z</time></trkpt><trkpt lat="1.216881878613395" lon="-76.67939093414951"><ele>862.6</ele><time>2026-03-22T18:05:51Z</time></trkpt><trkpt lat="1.2169033675179326" lon="-76.67928343493378"><ele>860.3999999999999</ele><time>2026-03-22T18:05:53Z</time></trkpt><trkpt lat="1.2168926757499667" lon="-76.67921888374335"><ele>858.1999999999999</ele><time>2026-03-22T18:05:54Z</time></trkpt><trkpt lat="1.2169183145512357" lon="-76.67914996425625"><ele>856.0</ele><time>2026-03-22T18:05:56Z</time></trkpt><trkpt lat="1.2169847914937446" lon="-76.67910133837523"><ele>856.0000000000001</ele><time>2026-03-22T18:05:58Z</time></trkpt><trkpt lat="1.21700601237168" lon="-76.67903457848877"><ele>856.0</ele><time>2026-03-22T18:06:00Z</time></trkpt><trkpt lat="1.2170174529284068" lon="-76.67896391263302"><ele>856.0</ele><time>2026-03-22T18:06:04Z</time></trkpt><trkpt lat="1.2170324638251997" lon="-76.67889086258506"><ele>856.0</ele><time>2026-03-22T18:06:08Z</time></trkpt><trkpt lat="1.2170566237651763" lon="-76.67882510134248"><ele>856.0</ele><time>2026-03-22T18:06:12Z</time></trkpt><trkpt lat="1.2170703424746805" lon="-76.67875619835176"><ele>856.0000000000001</ele><time>2026-03-22T18:06:17Z</time></trkpt><trkpt lat="1.2170973634715094" lon="-76.6786863764192"><ele>856.0</ele><time>2026-03-22T18:06:36Z</time></trkpt><trkpt lat="1.2171229513202966" lon="-76.67860878395679"><ele>855.9999999999999</ele><time>2026-03-22T18:07:44Z</time></trkpt><trkpt lat="1.2171791857771272" lon="-76.67857546800398"><ele>856.0</ele><time>2026-03-22T18:08:39Z</time></trkpt><trkpt lat="1.2171979483160023" lon="-76.67863572341578"><ele>856.0</ele><time>2026-03-22T18:09:10Z</time></trkpt><trkpt lat="1.217290647345228" lon="-76.67849713356824"><ele>856.0</ele><time>2026-03-22T18:10:06Z</time></trkpt><trkpt lat="1.2173285553520543" lon="-76.67844233720577"><ele>855.9999999999999</ele><time>2026-03-22T18:10:23Z</time></trkpt><trkpt lat="1.2172774672868674" lon="-76.67839022734715"><ele>856.0</ele><time>2026-03-22T18:10:26Z</time></trkpt><trkpt lat="1.2172241620179136" lon="-76.67833612401002"><ele>854.8333333333333</ele><time>2026-03-22T18:10:30Z</time></trkpt><trkpt lat="1.2171631459230505" lon="-76.67828799869405"><ele>853.6666666666666</ele><time>2026-03-22T18:10:36Z</time></trkpt><trkpt lat="1.217152772348866" lon="-76.67819564416212"><ele>852.5</ele><time>2026-03-22T18:10:40Z</time></trkpt><trkpt lat="1.2171252425060526" lon="-76.6781207804056"><ele>851.3333333333333</ele><time>2026-03-22T18:10:42Z</time></trkpt><trkpt lat="1.21712780191635" lon="-76.67804565506601"><ele>850.1666666666666</ele><time>2026-03-22T18:10:46Z</time></trkpt><trkpt lat="1.2171280114586744" lon="-76.67797097057664"><ele>849.0</ele><time>2026-03-22T18:10:48Z</time></trkpt><trkpt lat="1.2171115973396365" lon="-76.67789763601823"><ele>849.0000000000001</ele><time>2026-03-22T18:10:50Z</time></trkpt><trkpt lat="1.2170928798215503" lon="-76.67782739965197"><ele>849.0</ele><time>2026-03-22T18:10:52Z</time></trkpt><trkpt lat="1.217084260378286" lon="-76.67775489364055"><ele>849.0</ele><time>2026-03-22T18:10:54Z</time></trkpt><trkpt lat="1.2170636992620896" lon="-76.67768711593897"><ele>849.0</ele><time>2026-03-22T18:11:01Z</time></trkpt><trkpt lat="1.217083349000054" lon="-76.67761071447588"><ele>849.0</ele><time>2026-03-22T18:11:11Z</time></trkpt><trkpt lat="1.2170561242746964" lon="-76.67755021609145"><ele>849.0000000000001</ele><time>2026-03-22T18:11:19Z</time></trkpt><trkpt lat="1.217058514469082" lon="-76.67746941032644"><ele>849.0</ele><time>2026-03-22T18:11:21Z</time></trkpt><trkpt lat="1.2170696390531939" lon="-76.67740729195084"><ele>848.8000000000001</ele><time>2026-03-22T18:11:22Z</time></trkpt><trkpt lat="1.217064115836837" lon="-76.67733933996993"><ele>848.6</ele><time>2026-03-22T18:11:23Z</time></trkpt><trkpt lat="1.2170643779412282" lon="-76.67722899715012"><ele>848.4</ele><time>2026-03-22T18:11:25Z</time></trkpt><trkpt lat="1.2170749283815407" lon="-76.67716520432296"><ele>848.2</ele><time>2026-03-22T18:11:26Z</time></trkpt><trkpt lat="1.2170621924370129" lon="-76.67706932222117"><ele>848.0</ele><time>2026-03-22T18:11:27Z</time></trkpt><trkpt lat="1.2170768820260403" lon="-76.67695694723"><ele>847.3333333333334</ele><time>2026-03-22T18:11:28Z</time></trkpt><trkpt lat="1.2171198402235734" lon="-76.67685425888902"><ele>846.6666666666667</ele><time>2026-03-22T18:11:29Z</time></trkpt><trkpt lat="1.2171253542888494" lon="-76.67677460005136"><ele>846.0</ele><time>2026-03-22T18:11:30Z</time></trkpt><trkpt lat="1.2171288372777287" lon="-76.67671049815486"><ele>845.3333333333333</ele><time>2026-03-22T18:11:31Z</time></trkpt><trkpt lat="1.2171325582637755" lon="-76.67664201614508"><ele>844.6666666666666</ele><time>2026-03-22T18:11:32Z</time></trkpt><trkpt lat="1.2171336485594386" lon="-76.67655610718506"><ele>844.0</ele><time>2026-03-22T18:11:32.999Z</time></trkpt><trkpt lat="1.2171194740273805" lon="-76.67644460829206"><ele>843.9999999999999</ele><time>2026-03-22T18:11:34.999Z</time></trkpt><trkpt lat="1.2171096948623772" lon="-76.67637252454271"><ele>844.0</ele><time>2026-03-22T18:11:35.999Z</time></trkpt><trkpt lat="1.2171093673102802" lon="-76.67628550211431"><ele>844.0</ele><time>2026-03-22T18:11:36.999Z</time></trkpt><trkpt lat="1.2171038058237278" lon="-76.67620313433069"><ele>844.0</ele><time>2026-03-22T18:11:37.999Z</time></trkpt><trkpt lat="1.2170823153487829" lon="-76.6761315462103"><ele>843.9999999999999</ele><time>2026-03-22T18:11:38.999Z</time></trkpt><trkpt lat="1.2170727038355094" lon="-76.67605564270922"><ele>844.0</ele><time>2026-03-22T18:11:39.999Z</time></trkpt><trkpt lat="1.2170748123817192" lon="-76.67597350416385"><ele>843.4999999999999</ele><time>2026-03-22T18:11:40.999Z</time></trkpt><trkpt lat="1.2170784590750707" lon="-76.67590483770373"><ele>843.0</ele><time>2026-03-22T18:11:41.999Z</time></trkpt><trkpt lat="1.2170824145282177" lon="-76.67583473838246"><ele>842.5</ele><time>2026-03-22T18:11:42.999Z</time></trkpt><trkpt lat="1.2170877732592122" lon="-76.67575143095442"><ele>842.0</ele><time>2026-03-22T18:11:43.999Z</time></trkpt><trkpt lat="1.2171089906468364" lon="-76.67567709092684"><ele>841.4999999999999</ele><time>2026-03-22T18:11:44.999Z</time></trkpt><trkpt lat="1.2171302851405368" lon="-76.67560102977039"><ele>841.0</ele><time>2026-03-22T18:11:46Z</time></trkpt><trkpt lat="1.2171541161207293" lon="-76.6755153151299"><ele>840.9999999999999</ele><time>2026-03-22T18:11:47Z</time></trkpt><trkpt lat="1.2171753181428822" lon="-76.67543962253025"><ele>841.0</ele><time>2026-03-22T18:11:48Z</time></trkpt><trkpt lat="1.2171970973829571" lon="-76.67536844827195"><ele>841.0</ele><time>2026-03-22T18:11:49Z</time></trkpt><trkpt lat="1.2172237810679316" lon="-76.67529351914314"><ele>841.0</ele><time>2026-03-22T18:11:50Z</time></trkpt><trkpt lat="1.2172508531900552" lon="-76.67522092914639"><ele>840.9999999999999</ele><time>2026-03-22T18:11:51Z</time></trkpt><trkpt lat="1.2172922154440105" lon="-76.67515286951085"><ele>841.0</ele><time>2026-03-22T18:11:52Z</time></trkpt><trkpt lat="1.2173292490790826" lon="-76.67508458734872"><ele>842.3333333333333</ele><time>2026-03-22T18:11:53Z</time></trkpt><trkpt lat="1.217376811346564" lon="-76.67497725640457"><ele>843.6666666666666</ele><time>2026-03-22T18:11:55Z</time></trkpt><trkpt lat="1.2174143188235786" lon="-76.6749212778929"><ele>845.0</ele><time>2026-03-22T18:11:56Z</time></trkpt><trkpt lat="1.2174582358738018" lon="-76.67486814758388"><ele>846.3333333333333</ele><time>2026-03-22T18:11:57Z</time></trkpt><trkpt lat="1.217506802045369" lon="-76.67480615159006"><ele>847.6666666666666</ele><time>2026-03-22T18:11:58Z</time></trkpt><trkpt lat="1.2175281495025854" lon="-76.67473686139765"><ele>849.0</ele><time>2026-03-22T18:11:59Z</time></trkpt><trkpt lat="1.2175751601692748" lon="-76.6746721389704"><ele>849.0000000000001</ele><time>2026-03-22T18:12:00Z</time></trkpt><trkpt lat="1.2176205274688294" lon="-76.67460817720644"><ele>849.0</ele><time>2026-03-22T18:12:01Z</time></trkpt><trkpt lat="1.217663143891546" lon="-76.6745480938149"><ele>849.0</ele><time>2026-03-22T18:12:02Z</time></trkpt><trkpt lat="1.2177025976793483" lon="-76.67449246930776"><ele>849.0</ele><time>2026-03-22T18:12:03Z</time></trkpt><trkpt lat="1.2177407651065761" lon="-76.67443865837959"><ele>849.0</ele><time>2026-03-22T18:12:04Z</time></trkpt><trkpt lat="1.2177788800819578" lon="-76.67438492139419"><ele>849.0000000000001</ele><time>2026-03-22T18:12:05Z</time></trkpt><trkpt lat="1.2177686467479385" lon="-76.67429234778302"><ele>849.0</ele><time>2026-03-22T18:12:07Z</time></trkpt><trkpt lat="1.2177156770804978" lon="-76.6741765863792"><ele>847.6666666666666</ele><time>2026-03-22T18:12:10Z</time></trkpt><trkpt lat="1.2177049489272007" lon="-76.67406551704285"><ele>846.3333333333333</ele><time>2026-03-22T18:12:12Z</time></trkpt><trkpt lat="1.2176984021841224" lon="-76.67399773818441"><ele>845.0</ele><time>2026-03-22T18:12:14Z</time></trkpt><trkpt lat="1.2176921580460573" lon="-76.67393309223051"><ele>843.6666666666666</ele><time>2026-03-22T18:12:15Z</time></trkpt><trkpt lat="1.2176920714484367" lon="-76.67385916872988"><ele>842.3333333333333</ele><time>2026-03-22T18:12:16Z</time></trkpt><trkpt lat="1.2176920714474246" lon="-76.67378497459974"><ele>841.0</ele><time>2026-03-22T18:12:17Z</time></trkpt><trkpt lat="1.2176928009624717" lon="-76.67370741107592"><ele>841.0</ele><time>2026-03-22T18:12:18Z</time></trkpt><trkpt lat="1.217693371440268" lon="-76.67361772276432"><ele>841.0</ele><time>2026-03-22T18:12:19Z</time></trkpt><trkpt lat="1.217693592507806" lon="-76.67351302793166"><ele>841.0</ele><time>2026-03-22T18:12:20Z</time></trkpt><trkpt lat="1.2176939315802424" lon="-76.67340420933684"><ele>841.0</ele><time>2026-03-22T18:12:21Z</time></trkpt><trkpt lat="1.2176942720249773" lon="-76.67329495017678"><ele>841.0</ele><time>2026-03-22T18:12:22Z</time></trkpt><trkpt lat="1.217694574751568" lon="-76.67319779452556"><ele>840.5999999999999</ele><time>2026-03-22T18:12:23Z</time></trkpt><trkpt lat="1.2176964015108263" lon="-76.67310424622082"><ele>840.2</ele><time>2026-03-22T18:12:24Z</time></trkpt><trkpt lat="1.2177027714281912" lon="-76.67298782605302"><ele>839.8</ele><time>2026-03-22T18:12:25Z</time></trkpt><trkpt lat="1.2177330450405468" lon="-76.67286310918139"><ele>839.4000000000001</ele><time>2026-03-22T18:12:26Z</time></trkpt><trkpt lat="1.2177660078276258" lon="-76.67276354223708"><ele>839.0</ele><time>2026-03-22T18:12:27Z</time></trkpt><trkpt lat="1.217782389192219" lon="-76.67267887678967"><ele>838.0</ele><time>2026-03-22T18:12:28Z</time></trkpt><trkpt lat="1.2178329245797248" lon="-76.6726174921198"><ele>837.0</ele><time>2026-03-22T18:12:29Z</time></trkpt><trkpt lat="1.2178979031656711" lon="-76.67251240241741"><ele>836.0</ele><time>2026-03-22T18:12:31Z</time></trkpt><trkpt lat="1.2179707179877437" lon="-76.67253845798835"><ele>835.0</ele><time>2026-03-22T18:12:32Z</time></trkpt><trkpt lat="1.2180829317461246" lon="-76.67256523458268"><ele>834.0</ele><time>2026-03-22T18:12:34Z</time></trkpt><trkpt lat="1.2182023204371597" lon="-76.67250100476467"><ele>837.5</ele><time>2026-03-22T18:12:35Z</time></trkpt><trkpt lat="1.2183125811210216" lon="-76.67247276172866"><ele>841.0</ele><time>2026-03-22T18:12:38Z</time></trkpt><trkpt lat="1.2183796047552098" lon="-76.67244577333429"><ele>844.5</ele><time>2026-03-22T18:12:39Z</time></trkpt><trkpt lat="1.2182811323941412" lon="-76.67229145561338"><ele>848.0</ele><time>2026-03-22T18:12:40Z</time></trkpt><trkpt lat="1.2183124232325655" lon="-76.67219262320906"><ele>848.0000000000001</ele><time>2026-03-22T18:12:42Z</time></trkpt><trkpt lat="1.218267371475119" lon="-76.67213919725206"><ele>848.0</ele><time>2026-03-22T18:12:44Z</time></trkpt><trkpt lat="1.2182392644224262" lon="-76.67199850612427"><ele>848.0</ele><time>2026-03-22T18:12:46Z</time></trkpt><trkpt lat="1.218230386258785" lon="-76.67192407222022"><ele>848.0</ele><time>2026-03-22T18:12:47Z</time></trkpt><trkpt lat="1.2182215008520025" lon="-76.67185007774381"><ele>848.0000000000001</ele><time>2026-03-22T18:12:48Z</time></trkpt><trkpt lat="1.21821297537478" lon="-76.67177935041187"><ele>848.0</ele><time>2026-03-22T18:12:49Z</time></trkpt><trkpt lat="1.2182053025995614" lon="-76.67171569710233"><ele>846.5999999999999</ele><time>2026-03-22T18:12:50Z</time></trkpt><trkpt lat="1.2181909889938662" lon="-76.67159695148824"><ele>845.1999999999999</ele><time>2026-03-22T18:12:52Z</time></trkpt><trkpt lat="1.2181804325155583" lon="-76.6715073488941"><ele>843.8</ele><time>2026-03-22T18:12:53Z</time></trkpt><trkpt lat="1.2181717234876381" lon="-76.67143319219403"><ele>842.4</ele><time>2026-03-22T18:12:54Z</time></trkpt><trkpt lat="1.218122822420931" lon="-76.67131570974095"><ele>841.0</ele><time>2026-03-22T18:12:56Z</time></trkpt><trkpt lat="1.2180264095415596" lon="-76.67122328093673"><ele>838.9999999999999</ele><time>2026-03-22T18:12:58Z</time></trkpt><trkpt lat="1.217935703589102" lon="-76.67116716428757"><ele>837.0</ele><time>2026-03-22T18:13:00Z</time></trkpt><trkpt lat="1.2178781614800533" lon="-76.67111415728624"><ele>835.0</ele><time>2026-03-22T18:13:01Z</time></trkpt><trkpt lat="1.2178172725464096" lon="-76.6710580810736"><ele>833.0</ele><time>2026-03-22T18:13:02Z</time></trkpt><trkpt lat="1.2177549890593258" lon="-76.67100072805619"><ele>830.9999999999999</ele><time>2026-03-22T18:13:03Z</time></trkpt><trkpt lat="1.2177004475764321" lon="-76.67095952633638"><ele>829.0</ele><time>2026-03-22T18:13:04Z</time></trkpt><trkpt lat="1.2176236486030925" lon="-76.67089795102554"><ele>828.6666666666666</ele><time>2026-03-22T18:13:05Z</time></trkpt><trkpt lat="1.2175526310575713" lon="-76.67084044563764"><ele>828.3333333333333</ele><time>2026-03-22T18:13:06Z</time></trkpt><trkpt lat="1.217470373020338" lon="-76.6707750313931"><ele>828.0</ele><time>2026-03-22T18:13:07Z</time></trkpt><trkpt lat="1.2174174365419135" lon="-76.67073275682428"><ele>827.6666666666667</ele><time>2026-03-22T18:13:08Z</time></trkpt><trkpt lat="1.217354075331191" lon="-76.6706815630415"><ele>827.3333333333334</ele><time>2026-03-22T18:13:09Z</time></trkpt><trkpt lat="1.217296261388706" lon="-76.67063485124932"><ele>827.0</ele><time>2026-03-22T18:13:10Z</time></trkpt><trkpt lat="1.2171855249865682" lon="-76.67056667128602"><ele>825.0</ele><time>2026-03-22T18:13:12Z</time></trkpt><trkpt lat="1.2171181165597136" lon="-76.6705218021215"><ele>823.0</ele><time>2026-03-22T18:13:13Z</time></trkpt><trkpt lat="1.2170597333710238" lon="-76.67048316118245"><ele>821.0</ele><time>2026-03-22T18:13:14Z</time></trkpt><trkpt lat="1.2169946697388876" lon="-76.67044026330373"><ele>819.0</ele><time>2026-03-22T18:13:15Z</time></trkpt><trkpt lat="1.2169296696212986" lon="-76.67039740729743"><ele>817.0</ele><time>2026-03-22T18:13:16Z</time></trkpt><trkpt lat="1.2168682163529982" lon="-76.67035650843411"><ele>815.0</ele><time>2026-03-22T18:13:17Z</time></trkpt><trkpt lat="1.216813203324013" lon="-76.670319766862"><ele>813.0</ele><time>2026-03-22T18:13:18Z</time></trkpt><trkpt lat="1.2167480450408894" lon="-76.67027605158064"><ele>813.0</ele><time>2026-03-22T18:13:19Z</time></trkpt><trkpt lat="1.216645806420155" lon="-76.67021086196196"><ele>813.0</ele><time>2026-03-22T18:13:21Z</time></trkpt><trkpt lat="1.2165555336192087" lon="-76.67015713381608"><ele>813.0</ele><time>2026-03-22T18:13:23Z</time></trkpt><trkpt lat="1.2164914358216354" lon="-76.67011962759857"><ele>813.0</ele><time>2026-03-22T18:13:24Z</time></trkpt><trkpt lat="1.2164234207028033" lon="-76.6700736843353"><ele>813.0</ele><time>2026-03-22T18:13:25Z</time></trkpt><trkpt lat="1.2163659590771934" lon="-76.67003150875709"><ele>809.5999999999999</ele><time>2026-03-22T18:13:26Z</time></trkpt><trkpt lat="1.2162956458544738" lon="-76.669980147345"><ele>806.1999999999999</ele><time>2026-03-22T18:13:27Z</time></trkpt><trkpt lat="1.2162209499056218" lon="-76.66990733336932"><ele>802.8</ele><time>2026-03-22T18:13:28Z</time></trkpt><trkpt lat="1.2161581539086606" lon="-76.66984084307535"><ele>799.4</ele><time>2026-03-22T18:13:29Z</time></trkpt><trkpt lat="1.2160963369286795" lon="-76.66977488426168"><ele>796.0</ele><time>2026-03-22T18:13:30Z</time></trkpt><trkpt lat="1.2160315006104698" lon="-76.66970009043767"><ele>795.9999999999999</ele><time>2026-03-22T18:13:31Z</time></trkpt><trkpt lat="1.215974809120955" lon="-76.66962728302542"><ele>796.0</ele><time>2026-03-22T18:13:32Z</time></trkpt><trkpt lat="1.2159133092635375" lon="-76.66954982439157"><ele>796.0</ele><time>2026-03-22T18:13:33Z</time></trkpt><trkpt lat="1.21585606506055" lon="-76.66947704110338"><ele>796.0</ele><time>2026-03-22T18:13:34Z</time></trkpt><trkpt lat="1.2158087459220792" lon="-76.66941687707308"><ele>795.9999999999999</ele><time>2026-03-22T18:13:35Z</time></trkpt><trkpt lat="1.215761086165585" lon="-76.6693562799573"><ele>796.0</ele><time>2026-03-22T18:13:36Z</time></trkpt><trkpt lat="1.2157148303169065" lon="-76.66929622806677"><ele>797.0</ele><time>2026-03-22T18:13:37Z</time></trkpt><trkpt lat="1.2156738910336589" lon="-76.66924449191762"><ele>798.0</ele><time>2026-03-22T18:13:38Z</time></trkpt><trkpt lat="1.21560925602811" lon="-76.6691628108091"><ele>799.0</ele><time>2026-03-22T18:13:39.999Z</time></trkpt><trkpt lat="1.2155491954795914" lon="-76.66906707395187"><ele>800.0</ele><time>2026-03-22T18:13:40.999Z</time></trkpt><trkpt lat="1.2155078539493267" lon="-76.66897433187857"><ele>801.0</ele><time>2026-03-22T18:13:41.999Z</time></trkpt><trkpt lat="1.2154868426646033" lon="-76.66889090306404"><ele>799.5714285714286</ele><time>2026-03-22T18:13:42.999Z</time></trkpt><trkpt lat="1.2154680518867074" lon="-76.66881544810612"><ele>798.1428571428571</ele><time>2026-03-22T18:13:43.999Z</time></trkpt><trkpt lat="1.2154518340797964" lon="-76.66873910366293"><ele>796.7142857142858</ele><time>2026-03-22T18:13:44.999Z</time></trkpt><trkpt lat="1.215436055778284" lon="-76.66866554734797"><ele>795.2857142857142</ele><time>2026-03-22T18:13:45.999Z</time></trkpt><trkpt lat="1.2154203638763366" lon="-76.66859246887435"><ele>793.8571428571429</ele><time>2026-03-22T18:13:46.999Z</time></trkpt><trkpt lat="1.2154066640166654" lon="-76.66852866752417"><ele>792.4285714285714</ele><time>2026-03-22T18:13:47.999Z</time></trkpt><trkpt lat="1.2153933374398826" lon="-76.66846660456837"><ele>791.0</ele><time>2026-03-22T18:13:48.999Z</time></trkpt><trkpt lat="1.2153780036658943" lon="-76.66839519392776"><ele>790.4</ele><time>2026-03-22T18:13:49.999Z</time></trkpt><trkpt lat="1.2153638601180563" lon="-76.66832932625779"><ele>789.8</ele><time>2026-03-22T18:13:50.999Z</time></trkpt><trkpt lat="1.2153793121075351" lon="-76.66817346073753"><ele>789.1999999999999</ele><time>2026-03-22T18:13:53Z</time></trkpt><trkpt lat="1.2153918666281618" lon="-76.66811068813647"><ele>788.5999999999999</ele><time>2026-03-22T18:13:54Z</time></trkpt><trkpt lat="1.215416570620643" lon="-76.66798695826026"><ele>788.0</ele><time>2026-03-22T18:13:56Z</time></trkpt><trkpt lat="1.2154327328563066" lon="-76.66790571648502"><ele>788.0000000000001</ele><time>2026-03-22T18:13:57Z</time></trkpt><trkpt lat="1.2154484661673617" lon="-76.66782663074488"><ele>788.0</ele><time>2026-03-22T18:13:58Z</time></trkpt><trkpt lat="1.215457915135989" lon="-76.66776329895625"><ele>788.0</ele><time>2026-03-22T18:13:59Z</time></trkpt><trkpt lat="1.2154858370243637" lon="-76.66768351170269"><ele>788.0</ele><time>2026-03-22T18:14:00Z</time></trkpt><trkpt lat="1.2155111865372052" lon="-76.66761107506389"><ele>788.0000000000001</ele><time>2026-03-22T18:14:01Z</time></trkpt><trkpt lat="1.215538003997706" lon="-76.66753444373015"><ele>788.0</ele><time>2026-03-22T18:14:02Z</time></trkpt><trkpt lat="1.2155648473273333" lon="-76.66745840151381"><ele>788.1666666666667</ele><time>2026-03-22T18:14:03Z</time></trkpt><trkpt lat="1.2155904422125983" lon="-76.6673860100046"><ele>788.3333333333334</ele><time>2026-03-22T18:14:04Z</time></trkpt><trkpt lat="1.215603023131612" lon="-76.66731426211614"><ele>788.5</ele><time>2026-03-22T18:14:05Z</time></trkpt><trkpt lat="1.2156151744796029" lon="-76.66722409650697"><ele>788.6666666666667</ele><time>2026-03-22T18:14:06Z</time></trkpt><trkpt lat="1.2156135713247866" lon="-76.66714026778884"><ele>788.8333333333334</ele><time>2026-03-22T18:14:07Z</time></trkpt><trkpt lat="1.2156135713218839" lon="-76.66706942498003"><ele>789.0</ele><time>2026-03-22T18:14:08Z</time></trkpt><trkpt lat="1.215613571321781" lon="-76.66699409837658"><ele>789.0</ele><time>2026-03-22T18:14:09Z</time></trkpt><trkpt lat="1.2156135713181595" lon="-76.66691248941821"><ele>789.0</ele><time>2026-03-22T18:14:10Z</time></trkpt><trkpt lat="1.215587697796613" lon="-76.66679360638668"><ele>789.0</ele><time>2026-03-22T18:14:12Z</time></trkpt><trkpt lat="1.2155082621853082" lon="-76.6667250126169"><ele>789.0</ele><time>2026-03-22T18:14:14Z</time></trkpt><trkpt lat="1.2154670790005417" lon="-76.66667038344086"><ele>789.0</ele><time>2026-03-22T18:14:15Z</time></trkpt><trkpt lat="1.2154010290388801" lon="-76.66658185511014"><ele>789.0</ele><time>2026-03-22T18:14:16Z</time></trkpt><trkpt lat="1.215441078065451" lon="-76.66645259753263"><ele>789.0</ele><time>2026-03-22T18:14:17Z</time></trkpt><trkpt lat="1.2154021584719863" lon="-76.66638128520377"><ele>789.0</ele><time>2026-03-22T18:14:18Z</time></trkpt><trkpt lat="1.2154181916952398" lon="-76.66644936107348"><ele>789.0</ele><time>2026-03-22T18:14:20Z</time></trkpt><trkpt lat="1.2154732261768686" lon="-76.666409756961"><ele>789.0</ele><time>2026-03-22T18:14:27Z</time></trkpt><trkpt lat="1.2155182093429595" lon="-76.66633025742622"><ele>789.0</ele><time>2026-03-22T18:14:31Z</time></trkpt><trkpt lat="1.215472325759771" lon="-76.6663745283224"><ele>789.0</ele><time>2026-03-22T18:14:33Z</time></trkpt><trkpt lat="1.2153960272885391" lon="-76.66635712826547"><ele>789.0</ele><time>2026-03-22T18:14:34Z</time></trkpt><trkpt lat="1.215335452875066" lon="-76.66631433210412"><ele>789.0</ele><time>2026-03-22T18:14:35Z</time></trkpt><trkpt lat="1.2152897214861547" lon="-76.6662556445546"><ele>789.0</ele><time>2026-03-22T18:14:36Z</time></trkpt><trkpt lat="1.2152804300599658" lon="-76.66618416521031"><ele>789.0</ele><time>2026-03-22T18:14:37Z</time></trkpt><trkpt lat="1.215267340471668" lon="-76.66606087355648"><ele>789.0</ele><time>2026-03-22T18:14:38Z</time></trkpt><trkpt lat="1.2152801730009561" lon="-76.6659780631955"><ele>788.25</ele><time>2026-03-22T18:14:39Z</time></trkpt><trkpt lat="1.2151684923281743" lon="-76.66584485323561"><ele>787.5</ele><time>2026-03-22T18:14:40Z</time></trkpt><trkpt lat="1.2151795770232883" lon="-76.66572979820975"><ele>786.75</ele><time>2026-03-22T18:14:41Z</time></trkpt><trkpt lat="1.2151877464627867" lon="-76.66564419002721"><ele>786.0</ele><time>2026-03-22T18:14:42Z</time></trkpt><trkpt lat="1.2151984696097675" lon="-76.66556107845618"><ele>786.0</ele><time>2026-03-22T18:14:43Z</time></trkpt><trkpt lat="1.21516691838391" lon="-76.66546144263262"><ele>786.0</ele><time>2026-03-22T18:14:44Z</time></trkpt><trkpt lat="1.215137453362838" lon="-76.6653695479948"><ele>786.0</ele><time>2026-03-22T18:14:45Z</time></trkpt><trkpt lat="1.215108680674229" lon="-76.6652798663658"><ele>786.0</ele><time>2026-03-22T18:14:46Z</time></trkpt><trkpt lat="1.2150773015987375" lon="-76.66518067754068"><ele>786.0</ele><time>2026-03-22T18:14:47Z</time></trkpt><trkpt lat="1.2150471812498662" lon="-76.665084096623"><ele>785.1999999999999</ele><time>2026-03-22T18:14:48Z</time></trkpt><trkpt lat="1.2150144649199797" lon="-76.66498380021117"><ele>784.4</ele><time>2026-03-22T18:14:49Z</time></trkpt><trkpt lat="1.2149833671214114" lon="-76.66488623947349"><ele>783.6</ele><time>2026-03-22T18:14:50Z</time></trkpt><trkpt lat="1.2149511193036102" lon="-76.66478466330732"><ele>782.8</ele><time>2026-03-22T18:14:51Z</time></trkpt><trkpt lat="1.2149219563605427" lon="-76.66469280406811"><ele>782.0</ele><time>2026-03-22T18:14:52Z</time></trkpt><trkpt lat="1.214906301927356" lon="-76.66459064366998"><ele>782.0</ele><time>2026-03-22T18:14:53Z</time></trkpt><trkpt lat="1.2148621110816011" lon="-76.66450499186692"><ele>782.0</ele><time>2026-03-22T18:14:54Z</time></trkpt><trkpt lat="1.2148162510380367" lon="-76.66441330073738"><ele>782.0</ele><time>2026-03-22T18:14:55Z</time></trkpt><trkpt lat="1.2147771284722353" lon="-76.66428829022519"><ele>782.0</ele><time>2026-03-22T18:14:56Z</time></trkpt><trkpt lat="1.214745534144966" lon="-76.66419703115118"><ele>782.0</ele><time>2026-03-22T18:14:57Z</time></trkpt><trkpt lat="1.2146997876658812" lon="-76.66410045642489"><ele>779.6</ele><time>2026-03-22T18:14:58Z</time></trkpt><trkpt lat="1.2146782030044898" lon="-76.66401489290395"><ele>777.2</ele><time>2026-03-22T18:14:59Z</time></trkpt><trkpt lat="1.2146645685001871" lon="-76.66389318690042"><ele>774.8</ele><time>2026-03-22T18:15:00Z</time></trkpt><trkpt lat="1.2146398797380937" lon="-76.66380272969539"><ele>772.4</ele><time>2026-03-22T18:15:01Z</time></trkpt><trkpt lat="1.214629682236523" lon="-76.663703125139"><ele>770.0</ele><time>2026-03-22T18:15:02Z</time></trkpt><trkpt lat="1.2146200696016038" lon="-76.66360923324635"><ele>769.0</ele><time>2026-03-22T18:15:03Z</time></trkpt><trkpt lat="1.2145901025366386" lon="-76.66355316338753"><ele>768.0</ele><time>2026-03-22T18:15:04Z</time></trkpt><trkpt lat="1.214542256344772" lon="-76.66341763537949"><ele>767.0</ele><time>2026-03-22T18:15:05Z</time></trkpt><trkpt lat="1.2145365313003051" lon="-76.66331401204793"><ele>766.0</ele><time>2026-03-22T18:15:06Z</time></trkpt><trkpt lat="1.2145338464552127" lon="-76.6632377673397"><ele>765.0</ele><time>2026-03-22T18:15:07Z</time></trkpt><trkpt lat="1.2145310002105818" lon="-76.66316730082838"><ele>765.0</ele><time>2026-03-22T18:15:08Z</time></trkpt><trkpt lat="1.2145265012368178" lon="-76.66305821791512"><ele>765.0</ele><time>2026-03-22T18:15:09Z</time></trkpt><trkpt lat="1.2145293102272279" lon="-76.66292848416661"><ele>765.0</ele><time>2026-03-22T18:15:10Z</time></trkpt><trkpt lat="1.214541413015123" lon="-76.66282081230406"><ele>765.0</ele><time>2026-03-22T18:15:11Z</time></trkpt><trkpt lat="1.2145469330709788" lon="-76.66274634247242"><ele>765.0</ele><time>2026-03-22T18:15:12Z</time></trkpt><trkpt lat="1.2145498156963317" lon="-76.66266493078092"><ele>764.0</ele><time>2026-03-22T18:15:13Z</time></trkpt><trkpt lat="1.2145527579429904" lon="-76.66257623935384"><ele>763.0</ele><time>2026-03-22T18:15:14Z</time></trkpt><trkpt lat="1.214554401728977" lon="-76.66250004061095"><ele>762.0</ele><time>2026-03-22T18:15:15Z</time></trkpt><trkpt lat="1.2145568284166601" lon="-76.66242373976807"><ele>761.0</ele><time>2026-03-22T18:15:16Z</time></trkpt><trkpt lat="1.2145596127291722" lon="-76.66233915965843"><ele>760.0</ele><time>2026-03-22T18:15:17Z</time></trkpt><trkpt lat="1.2145474660483049" lon="-76.66222087593505"><ele>759.0</ele><time>2026-03-22T18:15:18Z</time></trkpt><trkpt lat="1.2145842514011023" lon="-76.66211101912221"><ele>759.0</ele><time>2026-03-22T18:15:20Z</time></trkpt><trkpt lat="1.2146066910321214" lon="-76.66204060913392"><ele>759.0</ele><time>2026-03-22T18:15:22Z</time></trkpt><trkpt lat="1.214630662574237" lon="-76.66196565627763"><ele>759.0</ele><time>2026-03-22T18:15:23Z</time></trkpt><trkpt lat="1.214644963226978" lon="-76.6618802028763"><ele>759.0</ele><time>2026-03-22T18:15:24Z</time></trkpt><trkpt lat="1.2146538415449502" lon="-76.66179448970618"><ele>759.0</ele><time>2026-03-22T18:15:25Z</time></trkpt><trkpt lat="1.2146637859455525" lon="-76.66169848436063"><ele>759.0</ele><time>2026-03-22T18:15:26Z</time></trkpt><trkpt lat="1.2145969324249615" lon="-76.66164650337998"><ele>757.6</ele><time>2026-03-22T18:15:27Z</time></trkpt><trkpt lat="1.2145757149269547" lon="-76.66156869578357"><ele>756.2</ele><time>2026-03-22T18:15:28Z</time></trkpt><trkpt lat="1.2145538327823753" lon="-76.66148866778644"><ele>754.8000000000001</ele><time>2026-03-22T18:15:29Z</time></trkpt><trkpt lat="1.21452876263778" lon="-76.66139698056823"><ele>753.4000000000001</ele><time>2026-03-22T18:15:30Z</time></trkpt><trkpt lat="1.214498151704463" lon="-76.66128502934988"><ele>752.0</ele><time>2026-03-22T18:15:32Z</time></trkpt><trkpt lat="1.2144097914579903" lon="-76.66120042474279"><ele>752.0</ele><time>2026-03-22T18:15:34Z</time></trkpt><trkpt lat="1.214366084656136" lon="-76.66113095555512"><ele>752.0</ele><time>2026-03-22T18:15:35Z</time></trkpt><trkpt lat="1.2143305514879081" lon="-76.66107405621105"><ele>752.0</ele><time>2026-03-22T18:15:36Z</time></trkpt><trkpt lat="1.214272111531969" lon="-76.66098023643991"><ele>752.0</ele><time>2026-03-22T18:15:37.999Z</time></trkpt><trkpt lat="1.2142221260757848" lon="-76.66087593452235"><ele>752.0</ele><time>2026-03-22T18:15:39.999Z</time></trkpt><trkpt lat="1.2142071096057028" lon="-76.66072728325078"><ele>750.6</ele><time>2026-03-22T18:15:40.999Z</time></trkpt><trkpt lat="1.2142501188999117" lon="-76.66060409759362"><ele>749.2</ele><time>2026-03-22T18:15:41.999Z</time></trkpt><trkpt lat="1.2142953085829684" lon="-76.66052260297451"><ele>747.8</ele><time>2026-03-22T18:15:42.999Z</time></trkpt><trkpt lat="1.2143392501676427" lon="-76.66044409344347"><ele>746.4</ele><time>2026-03-22T18:15:43.999Z</time></trkpt><trkpt lat="1.2143836886199908" lon="-76.66036510343237"><ele>745.0</ele><time>2026-03-22T18:15:44.999Z</time></trkpt><trkpt lat="1.2144360093650408" lon="-76.66027191826537"><ele>744.2</ele><time>2026-03-22T18:15:45.999Z</time></trkpt><trkpt lat="1.2144832791326274" lon="-76.66018768110186"><ele>743.4</ele><time>2026-03-22T18:15:46.999Z</time></trkpt><trkpt lat="1.2145057308175022" lon="-76.66011554054457"><ele>742.5999999999999</ele><time>2026-03-22T18:15:47.999Z</time></trkpt><trkpt lat="1.2145395925152307" lon="-76.66001395543545"><ele>741.8</ele><time>2026-03-22T18:15:48.999Z</time></trkpt><trkpt lat="1.2145155767877518" lon="-76.65985618695632"><ele>741.0</ele><time>2026-03-22T18:15:50.999Z</time></trkpt><trkpt lat="1.2145128954296593" lon="-76.65975210256534"><ele>741.0</ele><time>2026-03-22T18:15:51.999Z</time></trkpt><trkpt lat="1.2145099442938552" lon="-76.6596478445161"><ele>741.0</ele><time>2026-03-22T18:15:52.999Z</time></trkpt><trkpt lat="1.2145073678233076" lon="-76.65953452537647"><ele>741.0</ele><time>2026-03-22T18:15:53.999Z</time></trkpt><trkpt lat="1.214504997109053" lon="-76.65942530437793"><ele>741.0</ele><time>2026-03-22T18:15:54.999Z</time></trkpt><trkpt lat="1.2145015911889812" lon="-76.65932009985521"><ele>741.0</ele><time>2026-03-22T18:15:55.999Z</time></trkpt><trkpt lat="1.214499111721157" lon="-76.6592042993912"><ele>739.5999999999999</ele><time>2026-03-22T18:15:56.999Z</time></trkpt><trkpt lat="1.2144966144029152" lon="-76.65910964576942"><ele>738.2</ele><time>2026-03-22T18:15:58Z</time></trkpt><trkpt lat="1.2144943219340676" lon="-76.65901013919596"><ele>736.8</ele><time>2026-03-22T18:15:59Z</time></trkpt><trkpt lat="1.2144922979458022" lon="-76.65891166800725"><ele>735.4000000000001</ele><time>2026-03-22T18:16:00Z</time></trkpt><trkpt lat="1.214490038272322" lon="-76.65880207384575"><ele>734.0</ele><time>2026-03-22T18:16:01Z</time></trkpt><trkpt lat="1.214487702986299" lon="-76.65870749033104"><ele>733.2</ele><time>2026-03-22T18:16:02Z</time></trkpt><trkpt lat="1.2144847554233218" lon="-76.65859637869241"><ele>732.4000000000001</ele><time>2026-03-22T18:16:03Z</time></trkpt><trkpt lat="1.2144821502551741" lon="-76.65849992432176"><ele>731.6</ele><time>2026-03-22T18:16:04Z</time></trkpt><trkpt lat="1.214479746968588" lon="-76.65839806612287"><ele>730.8</ele><time>2026-03-22T18:16:05Z</time></trkpt><trkpt lat="1.214477632706088" lon="-76.65830845786114"><ele>730.0</ele><time>2026-03-22T18:16:06Z</time></trkpt><trkpt lat="1.2144755070069975" lon="-76.65821836470516"><ele>730.0</ele><time>2026-03-22T18:16:07Z</time></trkpt><trkpt lat="1.2144736326113732" lon="-76.65813892245555"><ele>730.0</ele><time>2026-03-22T18:16:08Z</time></trkpt><trkpt lat="1.2144720915572387" lon="-76.65807360794007"><ele>730.0</ele><time>2026-03-22T18:16:09Z</time></trkpt><trkpt lat="1.2144704670667275" lon="-76.65800475755309"><ele>730.0</ele><time>2026-03-22T18:16:10Z</time></trkpt><trkpt lat="1.2144683053999084" lon="-76.65791313982187"><ele>730.0</ele><time>2026-03-22T18:16:12Z</time></trkpt><trkpt lat="1.2144682104627158" lon="-76.65781164386814"><ele>730.0</ele><time>2026-03-22T18:16:14Z</time></trkpt><trkpt lat="1.2144314611607516" lon="-76.65770041224229"><ele>731.8333333333334</ele><time>2026-03-22T18:16:16Z</time></trkpt><trkpt lat="1.2143568464539145" lon="-76.65759878543037"><ele>733.6666666666667</ele><time>2026-03-22T18:16:18Z</time></trkpt><trkpt lat="1.2143011793905085" lon="-76.65754803251795"><ele>735.5</ele><time>2026-03-22T18:16:19Z</time></trkpt><trkpt lat="1.214248791758773" lon="-76.65750020031108"><ele>737.3333333333334</ele><time>2026-03-22T18:16:20Z</time></trkpt><trkpt lat="1.2141762092720725" lon="-76.65749856189562"><ele>739.1666666666666</ele><time>2026-03-22T18:16:22Z</time></trkpt><trkpt lat="1.2141161423820175" lon="-76.65747365069254"><ele>741.0</ele><time>2026-03-22T18:16:24Z</time></trkpt><trkpt lat="1.2140546394105267" lon="-76.65745679938198"><ele>738.0</ele><time>2026-03-22T18:16:28Z</time></trkpt><trkpt lat="1.2139231435759412" lon="-76.65747897065103"><ele>735.0</ele><time>2026-03-22T18:16:47Z</time></trkpt><trkpt lat="1.213885572560125" lon="-76.65752964280794"><ele>732.0</ele><time>2026-03-22T18:16:49Z</time></trkpt><trkpt lat="1.2138575156242473" lon="-76.65758625651866"><ele>729.0</ele><time>2026-03-22T18:16:51Z</time></trkpt><trkpt lat="1.213783186891301" lon="-76.65764081409297"><ele>726.0</ele><time>2026-03-22T18:16:54Z</time></trkpt><trkpt lat="1.2137117862255904" lon="-76.65770264268944"><ele>723.0</ele><time>2026-03-22T18:16:56Z</time></trkpt><trkpt lat="1.2136295468943217" lon="-76.65777590299153"><ele>723.5</ele><time>2026-03-22T18:16:58Z</time></trkpt><trkpt lat="1.2135544197586974" lon="-76.6578455772774"><ele>724.0</ele><time>2026-03-22T18:17:00Z</time></trkpt><trkpt lat="1.213495112411799" lon="-76.65790101535562"><ele>724.5</ele><time>2026-03-22T18:17:02Z</time></trkpt><trkpt lat="1.2134274995100702" lon="-76.65794222779833"><ele>725.0</ele><time>2026-03-22T18:17:04Z</time></trkpt><trkpt lat="1.21336745552333" lon="-76.65796411430406"><ele>725.5</ele><time>2026-03-22T18:17:06Z</time></trkpt><trkpt lat="1.213295707292846" lon="-76.65798036000902"><ele>726.0</ele><time>2026-03-22T18:17:08Z</time></trkpt><trkpt lat="1.2132397029701647" lon="-76.65793304939632"><ele>726.0</ele><time>2026-03-22T18:17:11Z</time></trkpt><trkpt lat="1.2131815033765219" lon="-76.65789433240745"><ele>726.0</ele><time>2026-03-22T18:17:13Z</time></trkpt><trkpt lat="1.2131017130481816" lon="-76.6578372554185"><ele>726.0</ele><time>2026-03-22T18:17:15Z</time></trkpt><trkpt lat="1.2130229816574793" lon="-76.65780164325022"><ele>726.0</ele><time>2026-03-22T18:17:17Z</time></trkpt><trkpt lat="1.2129426340515566" lon="-76.65775448677255"><ele>726.0</ele><time>2026-03-22T18:17:20Z</time></trkpt><trkpt lat="1.2128512247184005" lon="-76.65772261111418"><ele>726.0</ele><time>2026-03-22T18:18:39Z</time></trkpt><trkpt lat="1.2128311028505732" lon="-76.65764429165345"><ele>727.3333333333334</ele><time>2026-03-22T18:18:42Z</time></trkpt><trkpt lat="1.2128036046347614" lon="-76.65758644434264"><ele>728.6666666666666</ele><time>2026-03-22T18:18:44Z</time></trkpt><trkpt lat="1.2127543869148893" lon="-76.65752717302814"><ele>730.0</ele><time>2026-03-22T18:18:46Z</time></trkpt><trkpt lat="1.212717830172849" lon="-76.6574525153268"><ele>731.3333333333333</ele><time>2026-03-22T18:18:49Z</time></trkpt><trkpt lat="1.2126923119366178" lon="-76.65737233152906"><ele>732.6666666666666</ele><time>2026-03-22T18:18:51Z</time></trkpt><trkpt lat="1.2126671418091004" lon="-76.65729480201682"><ele>734.0</ele><time>2026-03-22T18:18:53Z</time></trkpt><trkpt lat="1.2126334235433442" lon="-76.6572035172498"><ele>734.0</ele><time>2026-03-22T18:18:55Z</time></trkpt><trkpt lat="1.2125959156815578" lon="-76.65711072054133"><ele>734.0</ele><time>2026-03-22T18:18:57Z</time></trkpt><trkpt lat="1.2125802514930966" lon="-76.6569840124685"><ele>734.0</ele><time>2026-03-22T18:18:59Z</time></trkpt><trkpt lat="1.2125639182371073" lon="-76.65687724496703"><ele>734.0</ele><time>2026-03-22T18:19:01Z</time></trkpt><trkpt lat="1.2125022478492267" lon="-76.65675874274218"><ele>734.3333333333333</ele><time>2026-03-22T18:19:03Z</time></trkpt><trkpt lat="1.2124736925294235" lon="-76.6567012132968"><ele>734.6666666666666</ele><time>2026-03-22T18:19:04Z</time></trkpt><trkpt lat="1.2123851613680332" lon="-76.6566642355159"><ele>735.0</ele><time>2026-03-22T18:19:05Z</time></trkpt><trkpt lat="1.2123470651591548" lon="-76.6565984183501"><ele>735.3333333333334</ele><time>2026-03-22T18:19:06Z</time></trkpt><trkpt lat="1.212322842394381" lon="-76.65653366919345"><ele>735.6666666666667</ele><time>2026-03-22T18:19:07Z</time></trkpt><trkpt lat="1.2122745362275642" lon="-76.6564634244196"><ele>736.0</ele><time>2026-03-22T18:19:08Z</time></trkpt><trkpt lat="1.2122350192235223" lon="-76.65639744414237"><ele>736.0</ele><time>2026-03-22T18:19:09Z</time></trkpt><trkpt lat="1.2121651792698003" lon="-76.65631930734942"><ele>736.0</ele><time>2026-03-22T18:19:10Z</time></trkpt><trkpt lat="1.2121186363660277" lon="-76.65625947938639"><ele>736.0</ele><time>2026-03-22T18:19:11Z</time></trkpt><trkpt lat="1.2120718167493163" lon="-76.65619880865292"><ele>736.0</ele><time>2026-03-22T18:19:12Z</time></trkpt><trkpt lat="1.2120178156223596" lon="-76.65612578871684"><ele>736.0</ele><time>2026-03-22T18:19:13Z</time></trkpt><trkpt lat="1.211968771989057" lon="-76.65606010211884"><ele>736.0</ele><time>2026-03-22T18:19:14Z</time></trkpt><trkpt lat="1.2119145128805526" lon="-76.65598743906615"><ele>733.5999999999999</ele><time>2026-03-22T18:19:15Z</time></trkpt><trkpt lat="1.2118542631638858" lon="-76.65590172640205"><ele>731.2</ele><time>2026-03-22T18:19:16Z</time></trkpt><trkpt lat="1.2117801380962274" lon="-76.65581992159295"><ele>728.8</ele><time>2026-03-22T18:19:17Z</time></trkpt><trkpt lat="1.2117099373163815" lon="-76.65574790479187"><ele>726.4000000000001</ele><time>2026-03-22T18:19:18Z</time></trkpt><trkpt lat="1.2116222085246495" lon="-76.65567818015944"><ele>724.0</ele><time>2026-03-22T18:19:19Z</time></trkpt><trkpt lat="1.2115507939057177" lon="-76.65560584490662"><ele>725.4000000000001</ele><time>2026-03-22T18:19:20Z</time></trkpt><trkpt lat="1.2114694516605806" lon="-76.6555660665813"><ele>726.8</ele><time>2026-03-22T18:19:21Z</time></trkpt><trkpt lat="1.2113616643403236" lon="-76.65551341237567"><ele>728.2</ele><time>2026-03-22T18:19:22Z</time></trkpt><trkpt lat="1.2112609330170392" lon="-76.65547770705005"><ele>729.5999999999999</ele><time>2026-03-22T18:19:23Z</time></trkpt><trkpt lat="1.2111817450171973" lon="-76.65542896903719"><ele>731.0</ele><time>2026-03-22T18:19:24Z</time></trkpt><trkpt lat="1.2110986664027104" lon="-76.65538161957666"><ele>731.0</ele><time>2026-03-22T18:19:25Z</time></trkpt><trkpt lat="1.2110181926333612" lon="-76.65534467021958"><ele>731.0</ele><time>2026-03-22T18:19:26Z</time></trkpt><trkpt lat="1.2109415255579317" lon="-76.65529513860176"><ele>731.0</ele><time>2026-03-22T18:19:27Z</time></trkpt><trkpt lat="1.2108564402997468" lon="-76.65524660675001"><ele>731.0</ele><time>2026-03-22T18:19:28Z</time></trkpt><trkpt lat="1.210758997150555" lon="-76.65520496909598"><ele>731.0</ele><time>2026-03-22T18:19:29Z</time></trkpt><trkpt lat="1.210695018680015" lon="-76.65514224843884"><ele>730.5999999999999</ele><time>2026-03-22T18:19:30Z</time></trkpt><trkpt lat="1.210602375685365" lon="-76.65509116682664"><ele>730.2</ele><time>2026-03-22T18:19:31Z</time></trkpt><trkpt lat="1.2105289691259344" lon="-76.6550381361955"><ele>729.8</ele><time>2026-03-22T18:19:32Z</time></trkpt><trkpt lat="1.2104607310656905" lon="-76.654982686044"><ele>729.4000000000001</ele><time>2026-03-22T18:19:33Z</time></trkpt><trkpt lat="1.2103774303004222" lon="-76.65495486234394"><ele>729.0</ele><time>2026-03-22T18:19:34Z</time></trkpt><trkpt lat="1.2102852417001817" lon="-76.65492137091854"><ele>729.0</ele><time>2026-03-22T18:19:35Z</time></trkpt><trkpt lat="1.2101919736082314" lon="-76.6548616094152"><ele>729.0</ele><time>2026-03-22T18:19:36Z</time></trkpt><trkpt lat="1.2101109981790021" lon="-76.65482812135193"><ele>729.0</ele><time>2026-03-22T18:19:37Z</time></trkpt><trkpt lat="1.2100242933532162" lon="-76.65479240101195"><ele>729.0</ele><time>2026-03-22T18:19:38Z</time></trkpt><trkpt lat="1.2099300703611706" lon="-76.65476785224841"><ele>729.0</ele><time>2026-03-22T18:19:39Z</time></trkpt><trkpt lat="1.2098383035493983" lon="-76.65471629470163"><ele>729.6</ele><time>2026-03-22T18:19:40Z</time></trkpt><trkpt lat="1.2097404940774519" lon="-76.65467642905996"><ele>730.2</ele><time>2026-03-22T18:19:41Z</time></trkpt><trkpt lat="1.2096486378951972" lon="-76.65463905206208"><ele>730.8000000000001</ele><time>2026-03-22T18:19:42Z</time></trkpt><trkpt lat="1.2095596552310153" lon="-76.65460306382731"><ele>731.4000000000001</ele><time>2026-03-22T18:19:43Z</time></trkpt><trkpt lat="1.209475161932772" lon="-76.65456825626673"><ele>732.0</ele><time>2026-03-22T18:19:44Z</time></trkpt><trkpt lat="1.2093800139141517" lon="-76.65452890014663"><ele>732.0</ele><time>2026-03-22T18:19:45Z</time></trkpt><trkpt lat="1.209275752525892" lon="-76.65448200856363"><ele>732.0</ele><time>2026-03-22T18:19:46Z</time></trkpt><trkpt lat="1.2091906839639444" lon="-76.65443545734784"><ele>732.0</ele><time>2026-03-22T18:19:47Z</time></trkpt><trkpt lat="1.2091057159388319" lon="-76.65438883492394"><ele>732.0</ele><time>2026-03-22T18:19:48Z</time></trkpt><trkpt lat="1.209025044617251" lon="-76.65434413252311"><ele>732.0</ele><time>2026-03-22T18:19:49Z</time></trkpt><trkpt lat="1.2089505983568516" lon="-76.65430287962896"><ele>732.1666666666666</ele><time>2026-03-22T18:19:50Z</time></trkpt><trkpt lat="1.208877215573865" lon="-76.65426382174022"><ele>732.3333333333334</ele><time>2026-03-22T18:19:51Z</time></trkpt><trkpt lat="1.2088070612996418" lon="-76.65422469941007"><ele>732.5</ele><time>2026-03-22T18:19:52Z</time></trkpt><trkpt lat="1.2087295139989158" lon="-76.65418240989237"><ele>732.6666666666667</ele><time>2026-03-22T18:19:53Z</time></trkpt><trkpt lat="1.2086558713649906" lon="-76.65413851682646"><ele>732.8333333333334</ele><time>2026-03-22T18:19:54Z</time></trkpt><trkpt lat="1.2085871392731724" lon="-76.65410816015175"><ele>733.0</ele><time>2026-03-22T18:19:55Z</time></trkpt><trkpt lat="1.2085073226182712" lon="-76.65399919704144"><ele>733.0</ele><time>2026-03-22T18:19:57Z</time></trkpt><trkpt lat="1.2084526255844423" lon="-76.65393887560917"><ele>733.0</ele><time>2026-03-22T18:19:58Z</time></trkpt><trkpt lat="1.2084439679326566" lon="-76.65386632916265"><ele>733.0</ele><time>2026-03-22T18:19:59Z</time></trkpt><trkpt lat="1.2083967781394462" lon="-76.65376710305465"><ele>733.0</ele><time>2026-03-22T18:20:00Z</time></trkpt><trkpt lat="1.2083614561608707" lon="-76.65369062312304"><ele>733.0</ele><time>2026-03-22T18:20:01Z</time></trkpt><trkpt lat="1.208317102888082" lon="-76.65359867829486"><ele>732.1666666666667</ele><time>2026-03-22T18:20:02Z</time></trkpt><trkpt lat="1.2082724971896068" lon="-76.65353537891897"><ele>731.3333333333334</ele><time>2026-03-22T18:20:03Z</time></trkpt><trkpt lat="1.208219753379779" lon="-76.6534615608754"><ele>730.5</ele><time>2026-03-22T18:20:04Z</time></trkpt><trkpt lat="1.2081650847995766" lon="-76.6533858891278"><ele>729.6666666666666</ele><time>2026-03-22T18:20:05Z</time></trkpt><trkpt lat="1.2080969349895014" lon="-76.65331880905055"><ele>728.8333333333333</ele><time>2026-03-22T18:20:06Z</time></trkpt><trkpt lat="1.2080413459569725" lon="-76.6532626452373"><ele>728.0</ele><time>2026-03-22T18:20:07Z</time></trkpt><trkpt lat="1.2079806694143913" lon="-76.65320023296293"><ele>728.0</ele><time>2026-03-22T18:20:08Z</time></trkpt><trkpt lat="1.2079197016190826" lon="-76.6531392651339"><ele>728.0</ele><time>2026-03-22T18:20:09Z</time></trkpt><trkpt lat="1.2078194066362133" lon="-76.65309177847806"><ele>728.0</ele><time>2026-03-22T18:20:10Z</time></trkpt><trkpt lat="1.2077498773176216" lon="-76.65304858067755"><ele>728.0</ele><time>2026-03-22T18:20:11Z</time></trkpt><trkpt lat="1.2076717741994254" lon="-76.6530000547243"><ele>728.0</ele><time>2026-03-22T18:20:12Z</time></trkpt><trkpt lat="1.207576940947709" lon="-76.65294902595295"><ele>728.0</ele><time>2026-03-22T18:20:13Z</time></trkpt><trkpt lat="1.2074909059638474" lon="-76.65289806840502"><ele>728.0</ele><time>2026-03-22T18:20:14Z</time></trkpt><trkpt lat="1.2074010981271086" lon="-76.6528511721261"><ele>728.0</ele><time>2026-03-22T18:20:15Z</time></trkpt><trkpt lat="1.2073232136755756" lon="-76.65278372973859"><ele>728.0</ele><time>2026-03-22T18:20:16Z</time></trkpt><trkpt lat="1.207229709877824" lon="-76.65274062714853"><ele>728.0</ele><time>2026-03-22T18:20:17Z</time></trkpt><trkpt lat="1.2071508548615406" lon="-76.65268515027766"><ele>726.5999999999999</ele><time>2026-03-22T18:20:18Z</time></trkpt><trkpt lat="1.207068941906998" lon="-76.65262402587436"><ele>725.1999999999999</ele><time>2026-03-22T18:20:19Z</time></trkpt><trkpt lat="1.206985979213187" lon="-76.65257061505848"><ele>723.8</ele><time>2026-03-22T18:20:20Z</time></trkpt><trkpt lat="1.206899622575999" lon="-76.65252182888095"><ele>722.4</ele><time>2026-03-22T18:20:21Z</time></trkpt><trkpt lat="1.2068130036864655" lon="-76.6524833707489"><ele>721.0</ele><time>2026-03-22T18:20:22Z</time></trkpt><trkpt lat="1.2067201805977792" lon="-76.65244863637231"><ele>721.0</ele><time>2026-03-22T18:20:23Z</time></trkpt><trkpt lat="1.2066349187304675" lon="-76.65240305663609"><ele>721.0</ele><time>2026-03-22T18:20:24Z</time></trkpt><trkpt lat="1.2065530922744092" lon="-76.65235547487173"><ele>721.0</ele><time>2026-03-22T18:20:25Z</time></trkpt><trkpt lat="1.2064643156398775" lon="-76.65230465837159"><ele>721.0</ele><time>2026-03-22T18:20:26Z</time></trkpt><trkpt lat="1.2063715816067415" lon="-76.652236942539"><ele>721.0</ele><time>2026-03-22T18:20:27Z</time></trkpt><trkpt lat="1.206296473803926" lon="-76.65217912456961"><ele>721.4</ele><time>2026-03-22T18:20:28Z</time></trkpt><trkpt lat="1.2062228225083105" lon="-76.65212829979919"><ele>721.8</ele><time>2026-03-22T18:20:29Z</time></trkpt><trkpt lat="1.2061423755873713" lon="-76.65207093570464"><ele>722.1999999999999</ele><time>2026-03-22T18:20:30Z</time></trkpt><trkpt lat="1.2060450030833891" lon="-76.6520281710787"><ele>722.5999999999999</ele><time>2026-03-22T18:20:31Z</time></trkpt><trkpt lat="1.2059523330891262" lon="-76.65197244764178"><ele>723.0</ele><time>2026-03-22T18:20:32Z</time></trkpt><trkpt lat="1.2058585471559742" lon="-76.65191522607977"><ele>722.2</ele><time>2026-03-22T18:20:33Z</time></trkpt><trkpt lat="1.2057704574839239" lon="-76.65186091780319"><ele>721.4</ele><time>2026-03-22T18:20:34Z</time></trkpt><trkpt lat="1.2056816145954625" lon="-76.65180740532935"><ele>720.6</ele><time>2026-03-22T18:20:35Z</time></trkpt><trkpt lat="1.2055884998445858" lon="-76.651750627041"><ele>719.8000000000001</ele><time>2026-03-22T18:20:36Z</time></trkpt><trkpt lat="1.2054904801536508" lon="-76.65169098198736"><ele>719.0</ele><time>2026-03-22T18:20:37Z</time></trkpt><trkpt lat="1.205400985983124" lon="-76.65163656150722"><ele>719.0</ele><time>2026-03-22T18:20:38Z</time></trkpt><trkpt lat="1.2053020652890372" lon="-76.65157698214385"><ele>719.0</ele><time>2026-03-22T18:20:39Z</time></trkpt><trkpt lat="1.2052133498572872" lon="-76.65152312381953"><ele>719.0</ele><time>2026-03-22T18:20:40Z</time></trkpt><trkpt lat="1.205129301179812" lon="-76.65147203317953"><ele>719.0</ele><time>2026-03-22T18:20:41Z</time></trkpt><trkpt lat="1.205040705968821" lon="-76.65141765404825"><ele>719.0</ele><time>2026-03-22T18:20:42Z</time></trkpt><trkpt lat="1.2049536765459739" lon="-76.6513644588145"><ele>719.0</ele><time>2026-03-22T18:20:43Z</time></trkpt><trkpt lat="1.2048675878044535" lon="-76.6513126124941"><ele>719.0</ele><time>2026-03-22T18:20:44Z</time></trkpt><trkpt lat="1.2047795916404056" lon="-76.65125926798578"><ele>719.0</ele><time>2026-03-22T18:20:45Z</time></trkpt><trkpt lat="1.2046885767592712" lon="-76.65120365164722"><ele>719.0</ele><time>2026-03-22T18:20:46Z</time></trkpt><trkpt lat="1.2045953022876998" lon="-76.65114750252609"><ele>719.0</ele><time>2026-03-22T18:20:47Z</time></trkpt><trkpt lat="1.2045020812191125" lon="-76.65109133261058"><ele>717.8000000000001</ele><time>2026-03-22T18:20:48Z</time></trkpt><trkpt lat="1.2044162223459522" lon="-76.65103952055995"><ele>716.6</ele><time>2026-03-22T18:20:49Z</time></trkpt><trkpt lat="1.2043263278177603" lon="-76.65098503829287"><ele>715.4</ele><time>2026-03-22T18:20:50Z</time></trkpt><trkpt lat="1.2042320508641673" lon="-76.65092718501936"><ele>714.2</ele><time>2026-03-22T18:20:51Z</time></trkpt><trkpt lat="1.2041436359737343" lon="-76.6508737979094"><ele>713.0</ele><time>2026-03-22T18:20:52Z</time></trkpt><trkpt lat="1.204057521242846" lon="-76.65082212907085"><ele>713.0</ele><time>2026-03-22T18:20:53Z</time></trkpt><trkpt lat="1.203965008765123" lon="-76.65076545652225"><ele>713.0</ele><time>2026-03-22T18:20:54Z</time></trkpt><trkpt lat="1.2038753445465935" lon="-76.65071104292835"><ele>713.0</ele><time>2026-03-22T18:20:55Z</time></trkpt><trkpt lat="1.2037880608033709" lon="-76.65065794567619"><ele>713.0</ele><time>2026-03-22T18:20:56Z</time></trkpt><trkpt lat="1.203708773621478" lon="-76.6506099094594"><ele>713.0</ele><time>2026-03-22T18:20:57Z</time></trkpt><trkpt lat="1.2036245921761235" lon="-76.65055881205528"><ele>713.0</ele><time>2026-03-22T18:20:58Z</time></trkpt><trkpt lat="1.203543863010843" lon="-76.65050961945673"><ele>713.0</ele><time>2026-03-22T18:20:59Z</time></trkpt><trkpt lat="1.203460057030216" lon="-76.65045601542965"><ele>713.0</ele><time>2026-03-22T18:21:00Z</time></trkpt><trkpt lat="1.2033769388509803" lon="-76.6503986812996"><ele>713.0</ele><time>2026-03-22T18:21:01Z</time></trkpt><trkpt lat="1.203293779113542" lon="-76.65034128666028"><ele>713.0</ele><time>2026-03-22T18:21:02Z</time></trkpt><trkpt lat="1.2032206620260297" lon="-76.6502641251388"><ele>712.4</ele><time>2026-03-22T18:21:03Z</time></trkpt><trkpt lat="1.2031581763797958" lon="-76.65018838532957"><ele>711.8</ele><time>2026-03-22T18:21:04Z</time></trkpt><trkpt lat="1.2030911292756423" lon="-76.65010710081816"><ele>711.2</ele><time>2026-03-22T18:21:05Z</time></trkpt><trkpt lat="1.2030249556329238" lon="-76.65002724384085"><ele>710.6</ele><time>2026-03-22T18:21:06Z</time></trkpt><trkpt lat="1.202957881327851" lon="-76.64994633153081"><ele>710.0</ele><time>2026-03-22T18:21:07Z</time></trkpt><trkpt lat="1.2029036583525632" lon="-76.64986016656826"><ele>710.0</ele><time>2026-03-22T18:21:08Z</time></trkpt><trkpt lat="1.2028340435563172" lon="-76.6497837722811"><ele>710.0</ele><time>2026-03-22T18:21:09Z</time></trkpt><trkpt lat="1.2027709068344619" lon="-76.64970416840477"><ele>710.0</ele><time>2026-03-22T18:21:10Z</time></trkpt><trkpt lat="1.2027037768513777" lon="-76.64963009509583"><ele>710.0</ele><time>2026-03-22T18:21:11Z</time></trkpt><trkpt lat="1.202648181828522" lon="-76.64955988336195"><ele>710.0</ele><time>2026-03-22T18:21:12Z</time></trkpt><trkpt lat="1.2025748930772797" lon="-76.64950491604623"><ele>710.0</ele><time>2026-03-22T18:21:13Z</time></trkpt><trkpt lat="1.2025065558942114" lon="-76.64946537765785"><ele>710.0</ele><time>2026-03-22T18:21:14Z</time></trkpt><trkpt lat="1.2024323460070419" lon="-76.64943263658402"><ele>710.0</ele><time>2026-03-22T18:21:15Z</time></trkpt><trkpt lat="1.202371107755326" lon="-76.64940655999554"><ele>710.0</ele><time>2026-03-22T18:21:16Z</time></trkpt><trkpt lat="1.2022985896817802" lon="-76.64938641372913"><ele>710.0</ele><time>2026-03-22T18:21:19Z</time></trkpt><trkpt lat="1.2022057930417842" lon="-76.6493801235701"><ele>710.0</ele><time>2026-03-22T18:21:23Z</time></trkpt><trkpt lat="1.2020983224470976" lon="-76.64934269514166"><ele>708.2</ele><time>2026-03-22T18:21:25Z</time></trkpt><trkpt lat="1.20202265496506" lon="-76.64934740682864"><ele>706.4</ele><time>2026-03-22T18:21:26Z</time></trkpt><trkpt lat="1.2019117941754998" lon="-76.64932891651712"><ele>704.5999999999999</ele><time>2026-03-22T18:21:27Z</time></trkpt><trkpt lat="1.2017974864851495" lon="-76.64932206863303"><ele>702.8</ele><time>2026-03-22T18:21:28Z</time></trkpt><trkpt lat="1.2017027045814088" lon="-76.64932772209133"><ele>701.0</ele><time>2026-03-22T18:21:29Z</time></trkpt><trkpt lat="1.201576932609238" lon="-76.64932236474561"><ele>701.5</ele><time>2026-03-22T18:21:30Z</time></trkpt><trkpt lat="1.2014342148782757" lon="-76.64931591422497"><ele>702.0</ele><time>2026-03-22T18:21:31Z</time></trkpt><trkpt lat="1.2013210488165948" lon="-76.64931066120104"><ele>702.5</ele><time>2026-03-22T18:21:32Z</time></trkpt><trkpt lat="1.201202428742866" lon="-76.64930437515252"><ele>703.0</ele><time>2026-03-22T18:21:33Z</time></trkpt><trkpt lat="1.2010879376228965" lon="-76.649299043553"><ele>703.0</ele><time>2026-03-22T18:21:34Z</time></trkpt><trkpt lat="1.200978146412451" lon="-76.64929376775295"><ele>703.0</ele><time>2026-03-22T18:21:35Z</time></trkpt><trkpt lat="1.2008647582766916" lon="-76.64928838227088"><ele>703.0</ele><time>2026-03-22T18:21:36Z</time></trkpt><trkpt lat="1.2007531779213343" lon="-76.64928317106298"><ele>703.0</ele><time>2026-03-22T18:21:37Z</time></trkpt><trkpt lat="1.200653403528491" lon="-76.64927838107589"><ele>703.0</ele><time>2026-03-22T18:21:38Z</time></trkpt><trkpt lat="1.2005590569639306" lon="-76.6492736726309"><ele>703.0</ele><time>2026-03-22T18:21:39Z</time></trkpt><trkpt lat="1.2004548432611253" lon="-76.64926845361664"><ele>703.0</ele><time>2026-03-22T18:21:40Z</time></trkpt><trkpt lat="1.200341502300356" lon="-76.64925931355106"><ele>703.0</ele><time>2026-03-22T18:21:41Z</time></trkpt><trkpt lat="1.2002392572648604" lon="-76.64923928320522"><ele>703.0</ele><time>2026-03-22T18:21:42Z</time></trkpt><trkpt lat="1.2001512280255955" lon="-76.64923756285819"><ele>703.0</ele><time>2026-03-22T18:21:43Z</time></trkpt><trkpt lat="1.2000543465707474" lon="-76.64923639761632"><ele>703.0</ele><time>2026-03-22T18:21:44Z</time></trkpt><trkpt lat="1.199956456496248" lon="-76.64923271115032"><ele>703.0</ele><time>2026-03-22T18:21:45Z</time></trkpt><trkpt lat="1.1998546046429828" lon="-76.6492233996541"><ele>703.0</ele><time>2026-03-22T18:21:46Z</time></trkpt><trkpt lat="1.1997615362596048" lon="-76.64921823504783"><ele>703.0</ele><time>2026-03-22T18:21:47Z</time></trkpt><trkpt lat="1.1996609605085213" lon="-76.64921208485406"><ele>703.0</ele><time>2026-03-22T18:21:48Z</time></trkpt><trkpt lat="1.199562794374015" lon="-76.6491976034719"><ele>702.8333333333334</ele><time>2026-03-22T18:21:49Z</time></trkpt><trkpt lat="1.1994727019588094" lon="-76.64917823904493"><ele>702.6666666666667</ele><time>2026-03-22T18:21:50Z</time></trkpt><trkpt lat="1.1993885037191863" lon="-76.64915572070964"><ele>702.5</ele><time>2026-03-22T18:21:51Z</time></trkpt><trkpt lat="1.1992995892518907" lon="-76.64913021317435"><ele>702.3333333333334</ele><time>2026-03-22T18:21:52Z</time></trkpt><trkpt lat="1.199215846426309" lon="-76.6491052623165"><ele>702.1666666666666</ele><time>2026-03-22T18:21:53Z</time></trkpt><trkpt lat="1.1991275940828863" lon="-76.64909814755013"><ele>702.0</ele><time>2026-03-22T18:21:54Z</time></trkpt><trkpt lat="1.1990404714863876" lon="-76.64908040118077"><ele>702.0</ele><time>2026-03-22T18:21:55Z</time></trkpt><trkpt lat="1.1989540229267925" lon="-76.64906289926284"><ele>702.0</ele><time>2026-03-22T18:21:56Z</time></trkpt><trkpt lat="1.1988557715394865" lon="-76.64904249407036"><ele>702.0</ele><time>2026-03-22T18:21:57Z</time></trkpt><trkpt lat="1.1987650907885787" lon="-76.64902336307341"><ele>702.0</ele><time>2026-03-22T18:21:58Z</time></trkpt><trkpt lat="1.19867398955019" lon="-76.64900398860057"><ele>702.0</ele><time>2026-03-22T18:21:59Z</time></trkpt><trkpt lat="1.1985798340959126" lon="-76.64896921425031"><ele>702.0</ele><time>2026-03-22T18:22:00Z</time></trkpt><trkpt lat="1.1984920126921585" lon="-76.64894224384854"><ele>702.0</ele><time>2026-03-22T18:22:01Z</time></trkpt><trkpt lat="1.1984052533777274" lon="-76.64891498733742"><ele>702.0</ele><time>2026-03-22T18:22:02Z</time></trkpt><trkpt lat="1.1983295703797603" lon="-76.64889153013118"><ele>702.0</ele><time>2026-03-22T18:22:03Z</time></trkpt><trkpt lat="1.1982659066611434" lon="-76.6488719174102"><ele>702.0</ele><time>2026-03-22T18:22:04Z</time></trkpt><trkpt lat="1.1981902909732036" lon="-76.6488486226765"><ele>702.0</ele><time>2026-03-22T18:22:05Z</time></trkpt><trkpt lat="1.1981230952822404" lon="-76.64882792187082"><ele>700.8</ele><time>2026-03-22T18:22:06Z</time></trkpt><trkpt lat="1.1980119002883023" lon="-76.64879366631216"><ele>699.6</ele><time>2026-03-22T18:22:08Z</time></trkpt><trkpt lat="1.197945296761519" lon="-76.64877314793277"><ele>698.4</ele><time>2026-03-22T18:22:10Z</time></trkpt><trkpt lat="1.1978602201528257" lon="-76.64874677955036"><ele>697.1999999999999</ele><time>2026-03-22T18:22:13Z</time></trkpt><trkpt lat="1.197791176134802" lon="-76.64867534353952"><ele>696.0</ele><time>2026-03-22T18:22:15Z</time></trkpt><trkpt lat="1.1977092936054006" lon="-76.64869956738649"><ele>696.0</ele><time>2026-03-22T18:22:16Z</time></trkpt><trkpt lat="1.1976388330028724" lon="-76.64867775566888"><ele>696.0</ele><time>2026-03-22T18:22:17Z</time></trkpt><trkpt lat="1.197542240107158" lon="-76.64864785446403"><ele>696.0</ele><time>2026-03-22T18:22:18Z</time></trkpt><trkpt lat="1.1974479302113719" lon="-76.64861869782989"><ele>696.0</ele><time>2026-03-22T18:22:19Z</time></trkpt><trkpt lat="1.1973638327016118" lon="-76.64859269027122"><ele>696.0</ele><time>2026-03-22T18:22:20Z</time></trkpt><trkpt lat="1.1972827385741085" lon="-76.64856754688246"><ele>696.0</ele><time>2026-03-22T18:22:21Z</time></trkpt><trkpt lat="1.197196568347624" lon="-76.64854100880416"><ele>695.1999999999999</ele><time>2026-03-22T18:22:22Z</time></trkpt><trkpt lat="1.1971040896595957" lon="-76.64851305382308"><ele>694.4</ele><time>2026-03-22T18:22:23Z</time></trkpt><trkpt lat="1.1969985928634352" lon="-76.64848016904944"><ele>693.6</ele><time>2026-03-22T18:22:24Z</time></trkpt><trkpt lat="1.1969020957949503" lon="-76.64844991770507"><ele>692.8</ele><time>2026-03-22T18:22:25Z</time></trkpt><trkpt lat="1.196812594953061" lon="-76.64842555387533"><ele>692.0</ele><time>2026-03-22T18:22:26Z</time></trkpt><trkpt lat="1.1967158188761802" lon="-76.64840125555543"><ele>692.0</ele><time>2026-03-22T18:22:27Z</time></trkpt><trkpt lat="1.1966200170212173" lon="-76.64837704044982"><ele>692.0</ele><time>2026-03-22T18:22:28Z</time></trkpt><trkpt lat="1.1965211427110811" lon="-76.6483520487417"><ele>692.0</ele><time>2026-03-22T18:22:29Z</time></trkpt><trkpt lat="1.1964356145692778" lon="-76.64833021327128"><ele>692.0</ele><time>2026-03-22T18:22:30Z</time></trkpt><trkpt lat="1.1963482327775077" lon="-76.64830756121577"><ele>692.0</ele><time>2026-03-22T18:22:31Z</time></trkpt><trkpt lat="1.1962580910094343" lon="-76.6482841827167"><ele>692.0</ele><time>2026-03-22T18:22:32Z</time></trkpt><trkpt lat="1.196175117587166" lon="-76.64826331496508"><ele>692.0</ele><time>2026-03-22T18:22:33Z</time></trkpt><trkpt lat="1.1960873517869413" lon="-76.64822612292105"><ele>692.0</ele><time>2026-03-22T18:22:34Z</time></trkpt><trkpt lat="1.1959734576885426" lon="-76.64821200320596"><ele>692.0</ele><time>2026-03-22T18:22:35Z</time></trkpt><trkpt lat="1.1959091315819532" lon="-76.6481837296842"><ele>692.0</ele><time>2026-03-22T18:22:36Z</time></trkpt><trkpt lat="1.195833401950391" lon="-76.64819190254592"><ele>692.0</ele><time>2026-03-22T18:22:37Z</time></trkpt><trkpt lat="1.195753641127511" lon="-76.64818132549209"><ele>691.3333333333333</ele><time>2026-03-22T18:22:38Z</time></trkpt><trkpt lat="1.1956570017033958" lon="-76.6481835196899"><ele>690.6666666666666</ele><time>2026-03-22T18:22:39Z</time></trkpt><trkpt lat="1.1955665167574216" lon="-76.6481806121532"><ele>690.0</ele><time>2026-03-22T18:22:40Z</time></trkpt><trkpt lat="1.1954897396947004" lon="-76.64817179759041"><ele>689.3333333333334</ele><time>2026-03-22T18:22:41Z</time></trkpt><trkpt lat="1.1954080327156358" lon="-76.64816219343743"><ele>688.6666666666667</ele><time>2026-03-22T18:22:42Z</time></trkpt><trkpt lat="1.1953275768054266" lon="-76.64815247146218"><ele>688.0</ele><time>2026-03-22T18:22:43Z</time></trkpt><trkpt lat="1.1952452888586451" lon="-76.64814067010857"><ele>688.0</ele><time>2026-03-22T18:22:44Z</time></trkpt><trkpt lat="1.1951580078247594" lon="-76.64812785297202"><ele>688.0</ele><time>2026-03-22T18:22:45Z</time></trkpt><trkpt lat="1.1950774077289052" lon="-76.64811604172256"><ele>688.0</ele><time>2026-03-22T18:22:46Z</time></trkpt><trkpt lat="1.194995873931709" lon="-76.64810417474665"><ele>688.0</ele><time>2026-03-22T18:22:47Z</time></trkpt><trkpt lat="1.1949144244145815" lon="-76.64809178093486"><ele>688.0</ele><time>2026-03-22T18:22:48Z</time></trkpt><trkpt lat="1.1948442037457798" lon="-76.6480812095487"><ele>688.0</ele><time>2026-03-22T18:22:49Z</time></trkpt><trkpt lat="1.19471691815052" lon="-76.64804907685917"><ele>688.0</ele><time>2026-03-22T18:22:51Z</time></trkpt><trkpt lat="1.1946221565636808" lon="-76.6480374008959"><ele>688.0</ele><time>2026-03-22T18:22:53Z</time></trkpt><trkpt lat="1.1945212314679903" lon="-76.64802383968409"><ele>688.0</ele><time>2026-03-22T18:22:55Z</time></trkpt><trkpt lat="1.1944350716944458" lon="-76.64800533861127"><ele>688.0</ele><time>2026-03-22T18:22:57Z</time></trkpt><trkpt lat="1.194350402809352" lon="-76.64800044365975"><ele>688.0</ele><time>2026-03-22T18:22:59Z</time></trkpt><trkpt lat="1.1942644515675043" lon="-76.64799846401412"><ele>688.0</ele><time>2026-03-22T18:23:01Z</time></trkpt><trkpt lat="1.1941508309340416" lon="-76.6479829391917"><ele>688.0</ele><time>2026-03-22T18:23:03Z</time></trkpt><trkpt lat="1.1940873669171665" lon="-76.64797426763822"><ele>688.0</ele><time>2026-03-22T18:23:04Z</time></trkpt><trkpt lat="1.194011411002475" lon="-76.6479646296871"><ele>688.0</ele><time>2026-03-22T18:23:05Z</time></trkpt><trkpt lat="1.1939231128681744" lon="-76.64795343325298"><ele>688.0</ele><time>2026-03-22T18:23:06Z</time></trkpt><trkpt lat="1.1938016486202623" lon="-76.64793737779407"><ele>686.5</ele><time>2026-03-22T18:23:07Z</time></trkpt><trkpt lat="1.1936684095525552" lon="-76.64791944583277"><ele>685.0</ele><time>2026-03-22T18:23:08Z</time></trkpt><trkpt lat="1.1935423952825435" lon="-76.64790248622154"><ele>683.5</ele><time>2026-03-22T18:23:09Z</time></trkpt><trkpt lat="1.193420643412262" lon="-76.64788663162459"><ele>682.0</ele><time>2026-03-22T18:23:10Z</time></trkpt><trkpt lat="1.1933008436774541" lon="-76.64787062304676"><ele>682.0</ele><time>2026-03-22T18:23:11Z</time></trkpt><trkpt lat="1.1931862493005554" lon="-76.64785543340778"><ele>682.0</ele><time>2026-03-22T18:23:12Z</time></trkpt><trkpt lat="1.1930690889437168" lon="-76.6478399953895"><ele>682.0</ele><time>2026-03-22T18:23:13Z</time></trkpt><trkpt lat="1.1929362637871466" lon="-76.64782257336537"><ele>682.0</ele><time>2026-03-22T18:23:14Z</time></trkpt><trkpt lat="1.1928146242020832" lon="-76.64780673164263"><ele>680.0</ele><time>2026-03-22T18:23:15Z</time></trkpt><trkpt lat="1.19269859554583" lon="-76.64779154002669"><ele>678.0</ele><time>2026-03-22T18:23:16Z</time></trkpt><trkpt lat="1.1925799602219727" lon="-76.64777598792969"><ele>676.0</ele><time>2026-03-22T18:23:17Z</time></trkpt><trkpt lat="1.1924604313669678" lon="-76.64775927532348"><ele>674.0</ele><time>2026-03-22T18:23:18Z</time></trkpt><trkpt lat="1.1923422265245014" lon="-76.64774306154594"><ele>673.2</ele><time>2026-03-22T18:23:19Z</time></trkpt><trkpt lat="1.1922237077208562" lon="-76.64772696640111"><ele>672.4000000000001</ele><time>2026-03-22T18:23:20Z</time></trkpt><trkpt lat="1.1921050046618025" lon="-76.6477108462342"><ele>671.6</ele><time>2026-03-22T18:23:21Z</time></trkpt><trkpt lat="1.1919939586715318" lon="-76.64769576592067"><ele>670.8</ele><time>2026-03-22T18:23:22Z</time></trkpt><trkpt lat="1.1919033380043789" lon="-76.64767597925538"><ele>670.0</ele><time>2026-03-22T18:23:23Z</time></trkpt><trkpt lat="1.191818722561591" lon="-76.64764256716745"><ele>670.0</ele><time>2026-03-22T18:23:24Z</time></trkpt><trkpt lat="1.1917301310711164" lon="-76.64763474486942"><ele>670.0</ele><time>2026-03-22T18:23:25Z</time></trkpt><trkpt lat="1.1916603231514609" lon="-76.64762006694178"><ele>670.0</ele><time>2026-03-22T18:23:26Z</time></trkpt><trkpt lat="1.1915802634975106" lon="-76.64760258657078"><ele>670.0</ele><time>2026-03-22T18:23:28Z</time></trkpt><trkpt lat="1.1915401475918277" lon="-76.64753387785672"><ele>670.0</ele><time>2026-03-22T18:26:43.086Z</time></trkpt><trkpt lat="1.191487397847793" lon="-76.6474829277158"><ele>670.0</ele><time>2026-03-22T18:29:25Z</time></trkpt><trkpt lat="1.1913965880782273" lon="-76.64752614131261"><ele>669.4</ele><time>2026-03-22T18:29:27Z</time></trkpt><trkpt lat="1.191319558417456" lon="-76.64753741484215"><ele>668.8</ele><time>2026-03-22T18:29:29Z</time></trkpt><trkpt lat="1.191210331683911" lon="-76.64757252983974"><ele>668.2</ele><time>2026-03-22T18:29:31Z</time></trkpt><trkpt lat="1.1910945777463506" lon="-76.64757105079947"><ele>667.6</ele><time>2026-03-22T18:29:33Z</time></trkpt><trkpt lat="1.1910317039572713" lon="-76.64764403174158"><ele>667.0</ele><time>2026-03-22T18:29:34Z</time></trkpt><trkpt lat="1.1909576490379494" lon="-76.64765356234389"><ele>667.0</ele><time>2026-03-22T18:29:35Z</time></trkpt><trkpt lat="1.1908947266729946" lon="-76.64766166022407"><ele>667.0</ele><time>2026-03-22T18:29:36Z</time></trkpt><trkpt lat="1.190769807958466" lon="-76.64767774251095"><ele>667.0</ele><time>2026-03-22T18:29:38Z</time></trkpt><trkpt lat="1.1906811713980583" lon="-76.64768838147182"><ele>667.0</ele><time>2026-03-22T18:29:39Z</time></trkpt><trkpt lat="1.1906029538306298" lon="-76.64769832119205"><ele>667.0</ele><time>2026-03-22T18:29:40Z</time></trkpt><trkpt lat="1.1905287531346602" lon="-76.6477077504504"><ele>667.0</ele><time>2026-03-22T18:29:41Z</time></trkpt><trkpt lat="1.1904535197201955" lon="-76.64771731095219"><ele>666.5</ele><time>2026-03-22T18:29:42Z</time></trkpt><trkpt lat="1.1903789325428984" lon="-76.64772678932823"><ele>666.0</ele><time>2026-03-22T18:29:43Z</time></trkpt><trkpt lat="1.190260191092457" lon="-76.64774187873363"><ele>665.5</ele><time>2026-03-22T18:29:44Z</time></trkpt><trkpt lat="1.1901080817474798" lon="-76.6477612084616"><ele>665.0</ele><time>2026-03-22T18:29:45Z</time></trkpt><trkpt lat="1.1899376759724978" lon="-76.64778259554139"><ele>665.25</ele><time>2026-03-22T18:29:46Z</time></trkpt><trkpt lat="1.189801771515178" lon="-76.6477993391253"><ele>665.5</ele><time>2026-03-22T18:29:47Z</time></trkpt><trkpt lat="1.1896925507276725" lon="-76.64781317030086"><ele>665.75</ele><time>2026-03-22T18:29:48Z</time></trkpt><trkpt lat="1.1895813623004288" lon="-76.64782726873213"><ele>666.0</ele><time>2026-03-22T18:29:49Z</time></trkpt><trkpt lat="1.1894753244669278" lon="-76.6478407635768"><ele>666.0</ele><time>2026-03-22T18:29:50Z</time></trkpt><trkpt lat="1.189362156211562" lon="-76.6478540730168"><ele>666.0</ele><time>2026-03-22T18:29:51Z</time></trkpt><trkpt lat="1.1892668675350075" lon="-76.64786556544965"><ele>666.0</ele><time>2026-03-22T18:29:52Z</time></trkpt><trkpt lat="1.1891640602966103" lon="-76.64787819796739"><ele>666.0</ele><time>2026-03-22T18:29:53Z</time></trkpt><trkpt lat="1.1890582587248941" lon="-76.64789370598616"><ele>666.0</ele><time>2026-03-22T18:29:54Z</time></trkpt><trkpt lat="1.188951882646884" lon="-76.6479085248501"><ele>666.0</ele><time>2026-03-22T18:29:55Z</time></trkpt><trkpt lat="1.1888580255515904" lon="-76.64792150270077"><ele>666.0</ele><time>2026-03-22T18:29:56Z</time></trkpt><trkpt lat="1.188766122250654" lon="-76.64793406356966"><ele>666.0</ele><time>2026-03-22T18:29:57Z</time></trkpt><trkpt lat="1.1886777669041486" lon="-76.6479461395235"><ele>666.0</ele><time>2026-03-22T18:29:58Z</time></trkpt><trkpt lat="1.1885878449172014" lon="-76.64795842959595"><ele>666.0</ele><time>2026-03-22T18:29:59Z</time></trkpt><trkpt lat="1.1884968350352099" lon="-76.64797086835503"><ele>666.0</ele><time>2026-03-22T18:30:00Z</time></trkpt><trkpt lat="1.1883989138587594" lon="-76.64798425171469"><ele>666.0</ele><time>2026-03-22T18:30:01Z</time></trkpt><trkpt lat="1.1883014480109306" lon="-76.64799757284415"><ele>666.0</ele><time>2026-03-22T18:30:02Z</time></trkpt><trkpt lat="1.1882046880596633" lon="-76.64801079749408"><ele>666.0</ele><time>2026-03-22T18:30:03Z</time></trkpt><trkpt lat="1.1881068469309684" lon="-76.64802416991324"><ele>666.0</ele><time>2026-03-22T18:30:04Z</time></trkpt><trkpt lat="1.188011769439896" lon="-76.64803716461134"><ele>665.0</ele><time>2026-03-22T18:30:05Z</time></trkpt><trkpt lat="1.1879133117001177" lon="-76.64805062130507"><ele>664.0</ele><time>2026-03-22T18:30:06Z</time></trkpt><trkpt lat="1.1878165118244939" lon="-76.64806385141064"><ele>663.0</ele><time>2026-03-22T18:30:07Z</time></trkpt><trkpt lat="1.187721940107102" lon="-76.64807677698333"><ele>662.0</ele><time>2026-03-22T18:30:08Z</time></trkpt><trkpt lat="1.1876214504849367" lon="-76.64809051138559"><ele>661.0</ele><time>2026-03-22T18:30:09Z</time></trkpt><trkpt lat="1.1875133998013692" lon="-76.64810527919404"><ele>661.0</ele><time>2026-03-22T18:30:10Z</time></trkpt><trkpt lat="1.1873937663571843" lon="-76.64810599245358"><ele>661.0</ele><time>2026-03-22T18:30:11Z</time></trkpt><trkpt lat="1.1872835423410764" lon="-76.64813669491984"><ele>661.0</ele><time>2026-03-22T18:30:12Z</time></trkpt><trkpt lat="1.1871721476321404" lon="-76.64813605807515"><ele>661.0</ele><time>2026-03-22T18:30:13Z</time></trkpt><trkpt lat="1.1870625230502514" lon="-76.64815732686492"><ele>661.8</ele><time>2026-03-22T18:30:14Z</time></trkpt><trkpt lat="1.1869513733672634" lon="-76.64816864272139"><ele>662.5999999999999</ele><time>2026-03-22T18:30:15Z</time></trkpt><trkpt lat="1.1868664917636012" lon="-76.64819500065636"><ele>663.4</ele><time>2026-03-22T18:30:16Z</time></trkpt><trkpt lat="1.1867739340695875" lon="-76.64821499686421"><ele>664.2</ele><time>2026-03-22T18:30:17Z</time></trkpt><trkpt lat="1.186661324674585" lon="-76.6482280946834"><ele>665.0</ele><time>2026-03-22T18:30:18Z</time></trkpt><trkpt lat="1.1865485954409305" lon="-76.64824380306165"><ele>664.75</ele><time>2026-03-22T18:30:19Z</time></trkpt><trkpt lat="1.186421030231093" lon="-76.6482501417443"><ele>664.5</ele><time>2026-03-22T18:30:20Z</time></trkpt><trkpt lat="1.186319717168351" lon="-76.64827937835592"><ele>664.25</ele><time>2026-03-22T18:30:21Z</time></trkpt><trkpt lat="1.1861836364634077" lon="-76.64828391288181"><ele>664.0</ele><time>2026-03-22T18:30:22Z</time></trkpt><trkpt lat="1.1860364412272881" lon="-76.64830888808585"><ele>664.0</ele><time>2026-03-22T18:30:23Z</time></trkpt><trkpt lat="1.185896853267069" lon="-76.64833145045661"><ele>664.0</ele><time>2026-03-22T18:30:24Z</time></trkpt><trkpt lat="1.1857498966050668" lon="-76.64834992869481"><ele>664.0</ele><time>2026-03-22T18:30:25Z</time></trkpt><trkpt lat="1.1856081008244526" lon="-76.64836951242121"><ele>664.0</ele><time>2026-03-22T18:30:26Z</time></trkpt><trkpt lat="1.1854614067736269" lon="-76.64838650047203"><ele>662.75</ele><time>2026-03-22T18:30:27Z</time></trkpt><trkpt lat="1.1853239734059702" lon="-76.6484082909281"><ele>661.5</ele><time>2026-03-22T18:30:28Z</time></trkpt><trkpt lat="1.1851819387014744" lon="-76.64842751154616"><ele>660.25</ele><time>2026-03-22T18:30:29Z</time></trkpt><trkpt lat="1.185040590966663" lon="-76.64844849298382"><ele>659.0</ele><time>2026-03-22T18:30:30Z</time></trkpt><trkpt lat="1.1849012856337673" lon="-76.64846748630865"><ele>659.5</ele><time>2026-03-22T18:30:31Z</time></trkpt><trkpt lat="1.1847723464581041" lon="-76.6484874677465"><ele>660.0</ele><time>2026-03-22T18:30:32Z</time></trkpt><trkpt lat="1.184641466032737" lon="-76.64850737410647"><ele>660.5</ele><time>2026-03-22T18:30:33Z</time></trkpt><trkpt lat="1.1845018600827164" lon="-76.64852435891767"><ele>661.0</ele><time>2026-03-22T18:30:34Z</time></trkpt><trkpt lat="1.1843614747429612" lon="-76.64854473362381"><ele>661.0</ele><time>2026-03-22T18:30:35Z</time></trkpt><trkpt lat="1.1842194353968554" lon="-76.6485589405458"><ele>661.0</ele><time>2026-03-22T18:30:36Z</time></trkpt><trkpt lat="1.1840829180073007" lon="-76.64858143362852"><ele>661.0</ele><time>2026-03-22T18:30:37Z</time></trkpt><trkpt lat="1.1839440299115251" lon="-76.64860117374458"><ele>661.0</ele><time>2026-03-22T18:30:38.001Z</time></trkpt><trkpt lat="1.1838050742783293" lon="-76.64861683882805"><ele>665.5</ele><time>2026-03-22T18:30:39.001Z</time></trkpt><trkpt lat="1.1836626000936477" lon="-76.64862877711883"><ele>670.0</ele><time>2026-03-22T18:30:40.001Z</time></trkpt><trkpt lat="1.183519051571872" lon="-76.64865118130545"><ele>674.5</ele><time>2026-03-22T18:30:41.001Z</time></trkpt><trkpt lat="1.183375947028762" lon="-76.64867157259533"><ele>679.0</ele><time>2026-03-22T18:30:42.001Z</time></trkpt><trkpt lat="1.1832305999126878" lon="-76.6486958119333"><ele>679.25</ele><time>2026-03-22T18:30:43.001Z</time></trkpt><trkpt lat="1.183084660822413" lon="-76.64871406100008"><ele>679.5</ele><time>2026-03-22T18:30:44.001Z</time></trkpt><trkpt lat="1.1829360590282179" lon="-76.64873539910386"><ele>679.75</ele><time>2026-03-22T18:30:45.001Z</time></trkpt><trkpt lat="1.1827880013650047" lon="-76.64875765948109"><ele>680.0</ele><time>2026-03-22T18:30:46.001Z</time></trkpt><trkpt lat="1.1826386825713586" lon="-76.64877351831576"><ele>680.0</ele><time>2026-03-22T18:30:47.001Z</time></trkpt><trkpt lat="1.182497245555971" lon="-76.64879604455038"><ele>680.0</ele><time>2026-03-22T18:30:48.001Z</time></trkpt><trkpt lat="1.1823549903559596" lon="-76.64881793018367"><ele>680.0</ele><time>2026-03-22T18:30:49.001Z</time></trkpt><trkpt lat="1.1822132745312712" lon="-76.6488412302945"><ele>680.0</ele><time>2026-03-22T18:30:50.001Z</time></trkpt><trkpt lat="1.182069986821496" lon="-76.6488611863431"><ele>678.5</ele><time>2026-03-22T18:30:51.001Z</time></trkpt><trkpt lat="1.1819257698334407" lon="-76.6488834542511"><ele>677.0</ele><time>2026-03-22T18:30:52.001Z</time></trkpt><trkpt lat="1.1817763143630085" lon="-76.6489051973253"><ele>675.5</ele><time>2026-03-22T18:30:53Z</time></trkpt><trkpt lat="1.1816300553506978" lon="-76.64892516107221"><ele>674.0</ele><time>2026-03-22T18:30:54Z</time></trkpt><trkpt lat="1.1815002445456504" lon="-76.64894681717111"><ele>670.75</ele><time>2026-03-22T18:30:55Z</time></trkpt><trkpt lat="1.1813821026270983" lon="-76.64896596851872"><ele>667.5</ele><time>2026-03-22T18:30:56Z</time></trkpt><trkpt lat="1.1812602288812963" lon="-76.64898465346268"><ele>664.25</ele><time>2026-03-22T18:30:57Z</time></trkpt><trkpt lat="1.1811370764646356" lon="-76.6489996545431"><ele>661.0</ele><time>2026-03-22T18:30:58Z</time></trkpt><trkpt lat="1.1810115334432683" lon="-76.64901690748566"><ele>661.0</ele><time>2026-03-22T18:30:59Z</time></trkpt><trkpt lat="1.1808708279323028" lon="-76.64903285681662"><ele>661.0</ele><time>2026-03-22T18:31:00Z</time></trkpt><trkpt lat="1.1807239816946393" lon="-76.64906347474533"><ele>661.0</ele><time>2026-03-22T18:31:01Z</time></trkpt><trkpt lat="1.1805740640100295" lon="-76.64908542880464"><ele>661.0</ele><time>2026-03-22T18:31:02Z</time></trkpt><trkpt lat="1.180428434405917" lon="-76.6490905343539"><ele>659.0</ele><time>2026-03-22T18:31:03Z</time></trkpt><trkpt lat="1.1802915291321021" lon="-76.64912623135395"><ele>657.0</ele><time>2026-03-22T18:31:04Z</time></trkpt><trkpt lat="1.180157766279489" lon="-76.64914521255899"><ele>655.0</ele><time>2026-03-22T18:31:05Z</time></trkpt><trkpt lat="1.1800153804675766" lon="-76.64916580850573"><ele>653.0</ele><time>2026-03-22T18:31:06Z</time></trkpt><trkpt lat="1.1798782664994663" lon="-76.64918642984003"><ele>651.0</ele><time>2026-03-22T18:31:07Z</time></trkpt><trkpt lat="1.17974275400767" lon="-76.64920326191772"><ele>649.0</ele><time>2026-03-22T18:31:08Z</time></trkpt><trkpt lat="1.179601574972186" lon="-76.6492127902725"><ele>647.0</ele><time>2026-03-22T18:31:09Z</time></trkpt><trkpt lat="1.179460048171996" lon="-76.64921362067597"><ele>645.0</ele><time>2026-03-22T18:31:10Z</time></trkpt><trkpt lat="1.1793224740049912" lon="-76.64921068553369"><ele>645.0</ele><time>2026-03-22T18:31:11Z</time></trkpt><trkpt lat="1.1791816523215686" lon="-76.64920868106992"><ele>645.0</ele><time>2026-03-22T18:31:12Z</time></trkpt><trkpt lat="1.179051942963606" lon="-76.64920616142832"><ele>645.0</ele><time>2026-03-22T18:31:13Z</time></trkpt><trkpt lat="1.1789202703908117" lon="-76.64920359086311"><ele>645.0</ele><time>2026-03-22T18:31:14Z</time></trkpt><trkpt lat="1.178785686087424" lon="-76.64920022304489"><ele>644.5</ele><time>2026-03-22T18:31:15Z</time></trkpt><trkpt lat="1.1786501402715026" lon="-76.64919789558202"><ele>644.0</ele><time>2026-03-22T18:31:16Z</time></trkpt><trkpt lat="1.1785145902910692" lon="-76.64919496098243"><ele>643.5</ele><time>2026-03-22T18:31:17Z</time></trkpt><trkpt lat="1.1783816315030171" lon="-76.64919194810066"><ele>643.0</ele><time>2026-03-22T18:31:18Z</time></trkpt><trkpt lat="1.1782470833774816" lon="-76.64919011846231"><ele>643.75</ele><time>2026-03-22T18:31:19Z</time></trkpt><trkpt lat="1.17811349812447" lon="-76.64918728978498"><ele>644.5</ele><time>2026-03-22T18:31:20Z</time></trkpt><trkpt lat="1.1779782261166982" lon="-76.64917206647867"><ele>645.25</ele><time>2026-03-22T18:31:21Z</time></trkpt><trkpt lat="1.177842083059684" lon="-76.64917929915237"><ele>646.0</ele><time>2026-03-22T18:31:22Z</time></trkpt><trkpt lat="1.1777045916732036" lon="-76.64917645342187"><ele>646.0</ele><time>2026-03-22T18:31:23Z</time></trkpt><trkpt lat="1.1775689517856935" lon="-76.64916807362611"><ele>646.0</ele><time>2026-03-22T18:31:24Z</time></trkpt><trkpt lat="1.1774359668415024" lon="-76.64916167651835"><ele>646.0</ele><time>2026-03-22T18:31:25Z</time></trkpt><trkpt lat="1.177303209494922" lon="-76.64916300847759"><ele>646.0</ele><time>2026-03-22T18:31:26Z</time></trkpt><trkpt lat="1.1771697080824264" lon="-76.64916285613675"><ele>646.75</ele><time>2026-03-22T18:31:27Z</time></trkpt><trkpt lat="1.1770376493887884" lon="-76.64915957024091"><ele>647.5</ele><time>2026-03-22T18:31:27.999Z</time></trkpt><trkpt lat="1.176905239133559" lon="-76.64915501968848"><ele>648.25</ele><time>2026-03-22T18:31:28.999Z</time></trkpt><trkpt lat="1.1767736241354014" lon="-76.64915173018221"><ele>649.0</ele><time>2026-03-22T18:31:29.999Z</time></trkpt><trkpt lat="1.1766429896316795" lon="-76.64914835869817"><ele>649.75</ele><time>2026-03-22T18:31:30.999Z</time></trkpt><trkpt lat="1.176516155251451" lon="-76.64914718675736"><ele>650.5</ele><time>2026-03-22T18:31:31.999Z</time></trkpt><trkpt lat="1.1763844438851083" lon="-76.64914578423841"><ele>651.25</ele><time>2026-03-22T18:31:32.999Z</time></trkpt><trkpt lat="1.1762541198516858" lon="-76.64914111818429"><ele>652.0</ele><time>2026-03-22T18:31:33.999Z</time></trkpt><trkpt lat="1.1761230972669716" lon="-76.64913716814262"><ele>652.0</ele><time>2026-03-22T18:31:34.999Z</time></trkpt><trkpt lat="1.1759944791413823" lon="-76.64913574621595"><ele>652.0</ele><time>2026-03-22T18:31:35.999Z</time></trkpt><trkpt lat="1.1758625541139198" lon="-76.64913904408826"><ele>652.0</ele><time>2026-03-22T18:31:36.999Z</time></trkpt><trkpt lat="1.1757302622563526" lon="-76.64914141412874"><ele>652.0</ele><time>2026-03-22T18:31:37.999Z</time></trkpt><trkpt lat="1.1755981984255908" lon="-76.64914321822499"><ele>650.75</ele><time>2026-03-22T18:31:38.999Z</time></trkpt><trkpt lat="1.1754663366072375" lon="-76.64914591879997"><ele>649.5</ele><time>2026-03-22T18:31:39.999Z</time></trkpt><trkpt lat="1.1753375700242892" lon="-76.64914733086788"><ele>648.25</ele><time>2026-03-22T18:31:40.999Z</time></trkpt><trkpt lat="1.1752107704406487" lon="-76.64915585944813"><ele>647.0</ele><time>2026-03-22T18:31:41.999Z</time></trkpt><trkpt lat="1.1750863151217488" lon="-76.6491789938006"><ele>647.0</ele><time>2026-03-22T18:31:42.999Z</time></trkpt><trkpt lat="1.1749586664759775" lon="-76.64918774854037"><ele>647.0</ele><time>2026-03-22T18:31:43.999Z</time></trkpt><trkpt lat="1.1748332617863795" lon="-76.64918393979019"><ele>647.0</ele><time>2026-03-22T18:31:44.999Z</time></trkpt><trkpt lat="1.1747056094883916" lon="-76.64920107313837"><ele>647.0</ele><time>2026-03-22T18:31:45.999Z</time></trkpt><trkpt lat="1.1745788963915254" lon="-76.64920989678095"><ele>646.25</ele><time>2026-03-22T18:31:46.999Z</time></trkpt><trkpt lat="1.1744512907005673" lon="-76.64921884900198"><ele>645.5</ele><time>2026-03-22T18:31:47.999Z</time></trkpt><trkpt lat="1.1743257842404862" lon="-76.64922531054178"><ele>644.75</ele><time>2026-03-22T18:31:48.999Z</time></trkpt><trkpt lat="1.1741960116905745" lon="-76.64923273822791"><ele>644.0</ele><time>2026-03-22T18:31:49.999Z</time></trkpt><trkpt lat="1.1740634489788861" lon="-76.64923786022966"><ele>642.75</ele><time>2026-03-22T18:31:50.999Z</time></trkpt><trkpt lat="1.1739328444267794" lon="-76.64924383175608"><ele>641.5</ele><time>2026-03-22T18:31:51.999Z</time></trkpt><trkpt lat="1.1738007015740248" lon="-76.6492524856701"><ele>640.25</ele><time>2026-03-22T18:31:52.999Z</time></trkpt><trkpt lat="1.1736716821819613" lon="-76.64926322299827"><ele>639.0</ele><time>2026-03-22T18:31:53.999Z</time></trkpt><trkpt lat="1.1735406493807288" lon="-76.64927210057859"><ele>639.0</ele><time>2026-03-22T18:31:54.999Z</time></trkpt><trkpt lat="1.173413224549469" lon="-76.64928063488098"><ele>639.0</ele><time>2026-03-22T18:31:55.999Z</time></trkpt><trkpt lat="1.1732929567344919" lon="-76.64928411850684"><ele>639.0</ele><time>2026-03-22T18:31:56.999Z</time></trkpt><trkpt lat="1.1731728094503737" lon="-76.64929101626824"><ele>639.0</ele><time>2026-03-22T18:31:57.999Z</time></trkpt><trkpt lat="1.173064156190791" lon="-76.64929536116045"><ele>638.8</ele><time>2026-03-22T18:31:58.999Z</time></trkpt><trkpt lat="1.17295644478097" lon="-76.64929536448733"><ele>638.5999999999999</ele><time>2026-03-22T18:31:59.999Z</time></trkpt><trkpt lat="1.1728497197781993" lon="-76.64929319813524"><ele>638.4</ele><time>2026-03-22T18:32:00.999Z</time></trkpt><trkpt lat="1.172746261443348" lon="-76.64931348670028"><ele>638.1999999999999</ele><time>2026-03-22T18:32:01.999Z</time></trkpt><trkpt lat="1.172641170883899" lon="-76.64930592991331"><ele>638.0</ele><time>2026-03-22T18:32:02.999Z</time></trkpt><trkpt lat="1.1725385932568706" lon="-76.64931729491158"><ele>638.0</ele><time>2026-03-22T18:32:03.999Z</time></trkpt><trkpt lat="1.172437713770794" lon="-76.64932991250647"><ele>638.0</ele><time>2026-03-22T18:32:04.999Z</time></trkpt><trkpt lat="1.172339138946215" lon="-76.6493404300618"><ele>638.0</ele><time>2026-03-22T18:32:05.999Z</time></trkpt><trkpt lat="1.1722305484761741" lon="-76.64934888503475"><ele>638.0</ele><time>2026-03-22T18:32:06.999Z</time></trkpt><trkpt lat="1.1721164691655193" lon="-76.64935629321099"><ele>638.0</ele><time>2026-03-22T18:32:07.999Z</time></trkpt><trkpt lat="1.172004063410044" lon="-76.64936494060477"><ele>636.5</ele><time>2026-03-22T18:32:08.999Z</time></trkpt><trkpt lat="1.1718886878627326" lon="-76.64936964216234"><ele>635.0</ele><time>2026-03-22T18:32:09.999Z</time></trkpt><trkpt lat="1.171773740786974" lon="-76.64937244603037"><ele>633.5</ele><time>2026-03-22T18:32:10.999Z</time></trkpt><trkpt lat="1.1716578375511328" lon="-76.64937291765825"><ele>632.0</ele><time>2026-03-22T18:32:11.999Z</time></trkpt><trkpt lat="1.171542806615243" lon="-76.64936765410744"><ele>631.5</ele><time>2026-03-22T18:32:12.999Z</time></trkpt><trkpt lat="1.1714271960486182" lon="-76.64935676548824"><ele>631.0</ele><time>2026-03-22T18:32:13.999Z</time></trkpt><trkpt lat="1.1713157478824974" lon="-76.64934163714322"><ele>630.5</ele><time>2026-03-22T18:32:14.999Z</time></trkpt><trkpt lat="1.171204027573082" lon="-76.64932171487942"><ele>630.0</ele><time>2026-03-22T18:32:15.999Z</time></trkpt><trkpt lat="1.17109408989697" lon="-76.64929733093017"><ele>630.0</ele><time>2026-03-22T18:32:16.999Z</time></trkpt><trkpt lat="1.1709848449071378" lon="-76.64926727773938"><ele>630.0</ele><time>2026-03-22T18:32:17.999Z</time></trkpt><trkpt lat="1.1708685426330727" lon="-76.64925992725247"><ele>630.0</ele><time>2026-03-22T18:32:18.999Z</time></trkpt><trkpt lat="1.170759660894475" lon="-76.64921779306982"><ele>630.0</ele><time>2026-03-22T18:32:19.999Z</time></trkpt><trkpt lat="1.17065330191966" lon="-76.64918181484965"><ele>629.8</ele><time>2026-03-22T18:32:20.999Z</time></trkpt><trkpt lat="1.1705472916367687" lon="-76.64914718713915"><ele>629.6</ele><time>2026-03-22T18:32:21.999Z</time></trkpt><trkpt lat="1.1704439479723963" lon="-76.64911353865068"><ele>629.4</ele><time>2026-03-22T18:32:22.999Z</time></trkpt><trkpt lat="1.1703381022042234" lon="-76.64907881244241"><ele>629.2</ele><time>2026-03-22T18:32:23.999Z</time></trkpt><trkpt lat="1.170235582209546" lon="-76.64904517736502"><ele>629.0</ele><time>2026-03-22T18:32:24.999Z</time></trkpt><trkpt lat="1.1701320492942366" lon="-76.64901120996478"><ele>629.0</ele><time>2026-03-22T18:32:25.999Z</time></trkpt><trkpt lat="1.1700332628697931" lon="-76.64896160970883"><ele>629.0</ele><time>2026-03-22T18:32:26.999Z</time></trkpt><trkpt lat="1.1699317995782545" lon="-76.64892672807765"><ele>629.0</ele><time>2026-03-22T18:32:27.999Z</time></trkpt><trkpt lat="1.1698339579723775" lon="-76.64888760098172"><ele>629.0</ele><time>2026-03-22T18:32:28.999Z</time></trkpt><trkpt lat="1.16973150251777" lon="-76.64885095709847"><ele>629.0</ele><time>2026-03-22T18:32:29.999Z</time></trkpt><trkpt lat="1.1696267263571851" lon="-76.64881988056705"><ele>629.0</ele><time>2026-03-22T18:32:30.999Z</time></trkpt><trkpt lat="1.1695246039626765" lon="-76.6487873278116"><ele>629.0</ele><time>2026-03-22T18:32:31.999Z</time></trkpt><trkpt lat="1.169421257185916" lon="-76.64875077158511"><ele>629.0</ele><time>2026-03-22T18:32:32.999Z</time></trkpt><trkpt lat="1.169312377894503" lon="-76.64874239418369"><ele>629.0</ele><time>2026-03-22T18:32:33.999Z</time></trkpt><trkpt lat="1.1692176961607466" lon="-76.64871141200474"><ele>629.0</ele><time>2026-03-22T18:32:34.999Z</time></trkpt><trkpt lat="1.1691228294360925" lon="-76.64868036929212"><ele>629.0</ele><time>2026-03-22T18:32:35.999Z</time></trkpt><trkpt lat="1.1690268385282652" lon="-76.64864895871867"><ele>629.0</ele><time>2026-03-22T18:32:36.999Z</time></trkpt><trkpt lat="1.168929321872976" lon="-76.64861704888322"><ele>629.0</ele><time>2026-03-22T18:32:37.999Z</time></trkpt><trkpt lat="1.168828891729664" lon="-76.64858418568262"><ele>629.0</ele><time>2026-03-22T18:32:38.999Z</time></trkpt><trkpt lat="1.1687267918098074" lon="-76.64855077609049"><ele>629.0</ele><time>2026-03-22T18:32:39.999Z</time></trkpt><trkpt lat="1.1686210874471534" lon="-76.64851612360174"><ele>628.4</ele><time>2026-03-22T18:32:40.999Z</time></trkpt><trkpt lat="1.1685149631604292" lon="-76.6484812829819"><ele>627.8</ele><time>2026-03-22T18:32:41.999Z</time></trkpt><trkpt lat="1.1684104519875096" lon="-76.64844697194765"><ele>627.2</ele><time>2026-03-22T18:32:42.999Z</time></trkpt><trkpt lat="1.1683087419246643" lon="-76.64841358051883"><ele>626.6</ele><time>2026-03-22T18:32:43.999Z</time></trkpt><trkpt lat="1.1682046536639166" lon="-76.64837935314651"><ele>626.0</ele><time>2026-03-22T18:32:44.999Z</time></trkpt><trkpt lat="1.1680998563432354" lon="-76.64834479713407"><ele>626.0</ele><time>2026-03-22T18:32:45.999Z</time></trkpt><trkpt lat="1.1679963960342168" lon="-76.64831068199082"><ele>626.0</ele><time>2026-03-22T18:32:46.999Z</time></trkpt><trkpt lat="1.1678946246964674" lon="-76.64827722990937"><ele>626.0</ele><time>2026-03-22T18:32:47.999Z</time></trkpt><trkpt lat="1.1677919309148133" lon="-76.6482439294733"><ele>626.0</ele><time>2026-03-22T18:32:48.999Z</time></trkpt><trkpt lat="1.1676886781349887" lon="-76.64821222875504"><ele>626.0</ele><time>2026-03-22T18:32:49.999Z</time></trkpt><trkpt lat="1.167584966663881" lon="-76.64817992582071"><ele>626.0</ele><time>2026-03-22T18:32:50.999Z</time></trkpt><trkpt lat="1.1674851694391966" lon="-76.64814789112494"><ele>626.0</ele><time>2026-03-22T18:32:51.999Z</time></trkpt><trkpt lat="1.1673859298711036" lon="-76.64811538389039"><ele>626.0</ele><time>2026-03-22T18:32:52.999Z</time></trkpt><trkpt lat="1.167281805139624" lon="-76.64808127645578"><ele>626.0</ele><time>2026-03-22T18:32:53.999Z</time></trkpt><trkpt lat="1.1671797457029083" lon="-76.64804868562831"><ele>626.0</ele><time>2026-03-22T18:32:54.999Z</time></trkpt><trkpt lat="1.1670780725142162" lon="-76.64801513347726"><ele>626.6</ele><time>2026-03-22T18:32:55.999Z</time></trkpt><trkpt lat="1.1669742315762583" lon="-76.64798123536671"><ele>627.2</ele><time>2026-03-22T18:32:56.999Z</time></trkpt><trkpt lat="1.1668709783451061" lon="-76.64794743494753"><ele>627.8</ele><time>2026-03-22T18:32:57.999Z</time></trkpt><trkpt lat="1.1667660221444218" lon="-76.64791298778401"><ele>628.4</ele><time>2026-03-22T18:32:58.999Z</time></trkpt><trkpt lat="1.1666583423314163" lon="-76.64787762368277"><ele>629.0</ele><time>2026-03-22T18:32:59.999Z</time></trkpt><trkpt lat="1.1665494844671473" lon="-76.64784180065033"><ele>628.5</ele><time>2026-03-22T18:33:00.999Z</time></trkpt><trkpt lat="1.1664446718231538" lon="-76.64780730882228"><ele>628.0</ele><time>2026-03-22T18:33:01.999Z</time></trkpt><trkpt lat="1.1663443002697746" lon="-76.64777427844649"><ele>627.5</ele><time>2026-03-22T18:33:02.999Z</time></trkpt><trkpt lat="1.1662305309147059" lon="-76.64773783470565"><ele>627.0</ele><time>2026-03-22T18:33:03.999Z</time></trkpt><trkpt lat="1.1661194509884418" lon="-76.64770164919955"><ele>627.0</ele><time>2026-03-22T18:33:04.999Z</time></trkpt><trkpt lat="1.1660098189567942" lon="-76.64766556676108"><ele>627.0</ele><time>2026-03-22T18:33:05.999Z</time></trkpt><trkpt lat="1.1659054217412057" lon="-76.64763120722043"><ele>627.0</ele><time>2026-03-22T18:33:06.999Z</time></trkpt><trkpt lat="1.1658038937276927" lon="-76.64759779199892"><ele>627.0</ele><time>2026-03-22T18:33:07.999Z</time></trkpt><trkpt lat="1.1657072598332898" lon="-76.6475672322595"><ele>627.0</ele><time>2026-03-22T18:33:08.999Z</time></trkpt><trkpt lat="1.1656068250879914" lon="-76.64753371620245"><ele>627.0</ele><time>2026-03-22T18:33:09.999Z</time></trkpt><trkpt lat="1.1655096004060796" lon="-76.64750057981918"><ele>627.0</ele><time>2026-03-22T18:33:10.999Z</time></trkpt><trkpt lat="1.1654116278313547" lon="-76.64746708943923"><ele>627.0</ele><time>2026-03-22T18:33:11.999Z</time></trkpt><trkpt lat="1.1653122516188323" lon="-76.64743226077944"><ele>627.0</ele><time>2026-03-22T18:33:12.999Z</time></trkpt><trkpt lat="1.1652087742305808" lon="-76.64739554299696"><ele>627.0</ele><time>2026-03-22T18:33:13.999Z</time></trkpt><trkpt lat="1.1651050117156925" lon="-76.64736004819757"><ele>627.0</ele><time>2026-03-22T18:33:14.999Z</time></trkpt><trkpt lat="1.165002288967738" lon="-76.6473261768417"><ele>627.0</ele><time>2026-03-22T18:33:15.999Z</time></trkpt><trkpt lat="1.1649008116518935" lon="-76.64729439873682"><ele>627.0</ele><time>2026-03-22T18:33:16.999Z</time></trkpt><trkpt lat="1.164802934034681" lon="-76.64727133406596"><ele>627.0</ele><time>2026-03-22T18:33:17.999Z</time></trkpt><trkpt lat="1.1647070793440484" lon="-76.64725323155085"><ele>627.0</ele><time>2026-03-22T18:33:18.999Z</time></trkpt><trkpt lat="1.1646163557327032" lon="-76.64724005672099"><ele>626.4</ele><time>2026-03-22T18:33:19.999Z</time></trkpt><trkpt lat="1.164523310967073" lon="-76.64722966611279"><ele>625.8000000000001</ele><time>2026-03-22T18:33:20.999Z</time></trkpt><trkpt lat="1.16442452890995" lon="-76.64722296423463"><ele>625.2</ele><time>2026-03-22T18:33:21.999Z</time></trkpt><trkpt lat="1.164323938605306" lon="-76.64721958879677"><ele>624.6</ele><time>2026-03-22T18:33:22.999Z</time></trkpt><trkpt lat="1.164215808578832" lon="-76.64722067210424"><ele>624.0</ele><time>2026-03-22T18:33:23.999Z</time></trkpt><trkpt lat="1.1641068726048565" lon="-76.64722016358643"><ele>623.25</ele><time>2026-03-22T18:33:24.999Z</time></trkpt><trkpt lat="1.1639891857300861" lon="-76.64723415919886"><ele>622.5</ele><time>2026-03-22T18:33:25.999Z</time></trkpt><trkpt lat="1.1638679313090463" lon="-76.64724857907261"><ele>621.75</ele><time>2026-03-22T18:33:26.999Z</time></trkpt><trkpt lat="1.1637528270262827" lon="-76.647262267559"><ele>621.0</ele><time>2026-03-22T18:33:27.999Z</time></trkpt><trkpt lat="1.163634022800269" lon="-76.6472758740699"><ele>621.0</ele><time>2026-03-22T18:33:28.999Z</time></trkpt><trkpt lat="1.1635138324968473" lon="-76.64728976169593"><ele>621.0</ele><time>2026-03-22T18:33:29.999Z</time></trkpt><trkpt lat="1.163393279132504" lon="-76.64730369126856"><ele>621.0</ele><time>2026-03-22T18:33:30.999Z</time></trkpt><trkpt lat="1.1632784770839057" lon="-76.64731695629662"><ele>621.0</ele><time>2026-03-22T18:33:31.999Z</time></trkpt><trkpt lat="1.163165727283883" lon="-76.64733016404398"><ele>620.6</ele><time>2026-03-22T18:33:32.999Z</time></trkpt><trkpt lat="1.1630534704549722" lon="-76.64734350657021"><ele>620.2</ele><time>2026-03-22T18:33:33.999Z</time></trkpt><trkpt lat="1.1629436765245968" lon="-76.64735655636271"><ele>619.8</ele><time>2026-03-22T18:33:34.999Z</time></trkpt><trkpt lat="1.1628382657961196" lon="-76.64736901123769"><ele>619.4</ele><time>2026-03-22T18:33:35.999Z</time></trkpt><trkpt lat="1.1627350465581274" lon="-76.64738103958297"><ele>619.0</ele><time>2026-03-22T18:33:36.999Z</time></trkpt><trkpt lat="1.162630245908208" lon="-76.64739325221365"><ele>619.0</ele><time>2026-03-22T18:33:37.999Z</time></trkpt><trkpt lat="1.1625302666936375" lon="-76.64740491801625"><ele>619.0</ele><time>2026-03-22T18:33:38.999Z</time></trkpt><trkpt lat="1.1624277258222993" lon="-76.64741695294704"><ele>619.0</ele><time>2026-03-22T18:33:39.999Z</time></trkpt><trkpt lat="1.1623297721375747" lon="-76.64742777852062"><ele>619.0</ele><time>2026-03-22T18:33:40.999Z</time></trkpt><trkpt lat="1.162231380660258" lon="-76.6474396162978"><ele>619.0</ele><time>2026-03-22T18:33:41.999Z</time></trkpt><trkpt lat="1.1621298198559713" lon="-76.6474520602116"><ele>619.6</ele><time>2026-03-22T18:33:42.999Z</time></trkpt><trkpt lat="1.162026214189203" lon="-76.64743923527125"><ele>620.2</ele><time>2026-03-22T18:33:43.999Z</time></trkpt><trkpt lat="1.1619214795433768" lon="-76.64746048745748"><ele>620.8000000000001</ele><time>2026-03-22T18:33:44.999Z</time></trkpt><trkpt lat="1.1618127719975513" lon="-76.64747480253725"><ele>621.4</ele><time>2026-03-22T18:33:45.999Z</time></trkpt><trkpt lat="1.1617012430813494" lon="-76.64748516612063"><ele>622.0</ele><time>2026-03-22T18:33:46.999Z</time></trkpt><trkpt lat="1.1615892090453652" lon="-76.64749878273919"><ele>621.5</ele><time>2026-03-22T18:33:47.999Z</time></trkpt><trkpt lat="1.1614736807849873" lon="-76.64751288129104"><ele>621.0</ele><time>2026-03-22T18:33:48.999Z</time></trkpt><trkpt lat="1.1613613326398025" lon="-76.64752575976937"><ele>620.5</ele><time>2026-03-22T18:33:49.999Z</time></trkpt><trkpt lat="1.1612509521041252" lon="-76.64753938922553"><ele>620.0</ele><time>2026-03-22T18:33:50.999Z</time></trkpt><trkpt lat="1.1611371826937853" lon="-76.64755270016254"><ele>620.0</ele><time>2026-03-22T18:33:51.999Z</time></trkpt><trkpt lat="1.161035138372481" lon="-76.64756371876699"><ele>620.0</ele><time>2026-03-22T18:33:52.999Z</time></trkpt><trkpt lat="1.1609393078245873" lon="-76.64758378806891"><ele>620.0</ele><time>2026-03-22T18:33:53.999Z</time></trkpt><trkpt lat="1.1608422994513334" lon="-76.64759345732293"><ele>620.0</ele><time>2026-03-22T18:33:54.999Z</time></trkpt><trkpt lat="1.1607512421011772" lon="-76.64760253344399"><ele>620.0</ele><time>2026-03-22T18:33:55.999Z</time></trkpt><trkpt lat="1.1606552827939602" lon="-76.64761249520994"><ele>619.2</ele><time>2026-03-22T18:33:56.999Z</time></trkpt><trkpt lat="1.1605612842635535" lon="-76.64762211647961"><ele>618.4</ele><time>2026-03-22T18:33:57.999Z</time></trkpt><trkpt lat="1.1604796975985359" lon="-76.64763046732651"><ele>617.6</ele><time>2026-03-22T18:33:58.999Z</time></trkpt><trkpt lat="1.1604089329501945" lon="-76.64763771047897"><ele>616.8</ele><time>2026-03-22T18:33:59.999Z</time></trkpt><trkpt lat="1.1602967342328312" lon="-76.64763968119611"><ele>616.0</ele><time>2026-03-22T18:34:01.999Z</time></trkpt><trkpt lat="1.1601785469871455" lon="-76.6476611388589"><ele>616.0</ele><time>2026-03-22T18:34:03.999Z</time></trkpt><trkpt lat="1.160089579198032" lon="-76.6476698535363"><ele>616.0</ele><time>2026-03-22T18:34:04.999Z</time></trkpt><trkpt lat="1.1599908971126232" lon="-76.6476806467861"><ele>616.0</ele><time>2026-03-22T18:34:05.999Z</time></trkpt><trkpt lat="1.159886475382906" lon="-76.64769308524826"><ele>616.0</ele><time>2026-03-22T18:34:06.999Z</time></trkpt><trkpt lat="1.1597920046289654" lon="-76.64768896982623"><ele>616.0</ele><time>2026-03-22T18:34:07.999Z</time></trkpt><trkpt lat="1.159708950769582" lon="-76.64771487561775"><ele>615.5</ele><time>2026-03-22T18:34:08.999Z</time></trkpt><trkpt lat="1.1596340909259668" lon="-76.64772406433623"><ele>615.0</ele><time>2026-03-22T18:34:09.999Z</time></trkpt><trkpt lat="1.1595601040009031" lon="-76.64771661617053"><ele>614.5</ele><time>2026-03-22T18:34:10.999Z</time></trkpt><trkpt lat="1.1594904228799066" lon="-76.64772577801472"><ele>614.0</ele><time>2026-03-22T18:34:11.999Z</time></trkpt><trkpt lat="1.1594240457379632" lon="-76.64773614335344"><ele>613.5</ele><time>2026-03-22T18:34:12.999Z</time></trkpt><trkpt lat="1.1593460989900004" lon="-76.64774588377361"><ele>613.0</ele><time>2026-03-22T18:34:13.999Z</time></trkpt><trkpt lat="1.1592622153559824" lon="-76.64775692816164"><ele>613.0</ele><time>2026-03-22T18:34:14.999Z</time></trkpt><trkpt lat="1.1591694580966951" lon="-76.64776719458692"><ele>613.0</ele><time>2026-03-22T18:34:15.999Z</time></trkpt><trkpt lat="1.1590742365017734" lon="-76.64777749157552"><ele>613.0</ele><time>2026-03-22T18:34:16.999Z</time></trkpt><trkpt lat="1.1589917754074943" lon="-76.6477906797277"><ele>613.0</ele><time>2026-03-22T18:34:17.999Z</time></trkpt><trkpt lat="1.1589217902224593" lon="-76.64780477732448"><ele>613.0</ele><time>2026-03-22T18:34:18.999Z</time></trkpt><trkpt lat="1.1587909997018482" lon="-76.64782994314862"><ele>613.3333333333334</ele><time>2026-03-22T18:34:20.999Z</time></trkpt><trkpt lat="1.1586992251775619" lon="-76.64783810264316"><ele>613.6666666666667</ele><time>2026-03-22T18:34:21.999Z</time></trkpt><trkpt lat="1.1586050176682532" lon="-76.64785530244264"><ele>614.0</ele><time>2026-03-22T18:34:22.999Z</time></trkpt><trkpt lat="1.1585219411336063" lon="-76.6478693515034"><ele>614.3333333333334</ele><time>2026-03-22T18:34:23.999Z</time></trkpt><trkpt lat="1.1584376431332437" lon="-76.64788045808598"><ele>614.6666666666666</ele><time>2026-03-22T18:34:24.999Z</time></trkpt><trkpt lat="1.1583456972764028" lon="-76.64788593777234"><ele>615.0</ele><time>2026-03-22T18:34:25.999Z</time></trkpt><trkpt lat="1.1582410562800085" lon="-76.64789470644088"><ele>614.3333333333334</ele><time>2026-03-22T18:34:26.999Z</time></trkpt><trkpt lat="1.158149327725443" lon="-76.64790119509718"><ele>613.6666666666666</ele><time>2026-03-22T18:34:27.999Z</time></trkpt><trkpt lat="1.1580631044189518" lon="-76.64791307001263"><ele>613.0</ele><time>2026-03-22T18:34:28.999Z</time></trkpt><trkpt lat="1.1579762749725182" lon="-76.64792206089122"><ele>612.3333333333333</ele><time>2026-03-22T18:34:29.999Z</time></trkpt><trkpt lat="1.1578881505147376" lon="-76.6479326412384"><ele>611.6666666666666</ele><time>2026-03-22T18:34:30.999Z</time></trkpt><trkpt lat="1.1578058957124313" lon="-76.64794033544514"><ele>611.0</ele><time>2026-03-22T18:34:31.999Z</time></trkpt><trkpt lat="1.1577198250795122" lon="-76.6479492564594"><ele>611.0</ele><time>2026-03-22T18:34:32.999Z</time></trkpt><trkpt lat="1.1576313577156399" lon="-76.64795942041333"><ele>611.0</ele><time>2026-03-22T18:34:33.999Z</time></trkpt><trkpt lat="1.1575598254540684" lon="-76.64795872501522"><ele>611.0</ele><time>2026-03-22T18:34:34.999Z</time></trkpt><trkpt lat="1.157476493122685" lon="-76.64796849120076"><ele>611.0</ele><time>2026-03-22T18:34:35.999Z</time></trkpt><trkpt lat="1.1573925149763566" lon="-76.64797800131936"><ele>611.0</ele><time>2026-03-22T18:34:36.999Z</time></trkpt><trkpt lat="1.1573152543179384" lon="-76.64798039963038"><ele>611.0</ele><time>2026-03-22T18:34:37.999Z</time></trkpt><trkpt lat="1.1572377916428125" lon="-76.64799041375677"><ele>610.6666666666666</ele><time>2026-03-22T18:34:38.999Z</time></trkpt><trkpt lat="1.1571491753978953" lon="-76.64799974605762"><ele>610.3333333333333</ele><time>2026-03-22T18:34:39.999Z</time></trkpt><trkpt lat="1.1570581312972892" lon="-76.64801461117179"><ele>610.0</ele><time>2026-03-22T18:34:40.999Z</time></trkpt><trkpt lat="1.1569707837545462" lon="-76.64802882414028"><ele>609.6666666666666</ele><time>2026-03-22T18:34:41.999Z</time></trkpt><trkpt lat="1.1568905383079473" lon="-76.64803858747472"><ele>609.3333333333334</ele><time>2026-03-22T18:34:42.999Z</time></trkpt><trkpt lat="1.1568075085381" lon="-76.64804990950184"><ele>609.0</ele><time>2026-03-22T18:34:43.999Z</time></trkpt><trkpt lat="1.1567242485864608" lon="-76.64806062104134"><ele>609.0</ele><time>2026-03-22T18:34:44.999Z</time></trkpt><trkpt lat="1.1566432007950682" lon="-76.64806229661416"><ele>609.0</ele><time>2026-03-22T18:34:45.999Z</time></trkpt><trkpt lat="1.1565535753997462" lon="-76.64806694941191"><ele>609.0</ele><time>2026-03-22T18:34:46.999Z</time></trkpt><trkpt lat="1.1564693839187357" lon="-76.64808162917188"><ele>609.0</ele><time>2026-03-22T18:34:47.999Z</time></trkpt><trkpt lat="1.1563861859442268" lon="-76.64809320916376"><ele>609.0</ele><time>2026-03-22T18:34:48.999Z</time></trkpt><trkpt lat="1.1563030772329446" lon="-76.64810135067279"><ele>609.0</ele><time>2026-03-22T18:34:49.999Z</time></trkpt><trkpt lat="1.1562155384440285" lon="-76.64810976397543"><ele>608.5</ele><time>2026-03-22T18:34:50.999Z</time></trkpt><trkpt lat="1.1561290798925594" lon="-76.64811489919177"><ele>608.0</ele><time>2026-03-22T18:34:51.999Z</time></trkpt><trkpt lat="1.1560398831479006" lon="-76.64811840146047"><ele>607.5</ele><time>2026-03-22T18:34:52.999Z</time></trkpt><trkpt lat="1.1559537545891203" lon="-76.64813032176404"><ele>607.0</ele><time>2026-03-22T18:34:53.999Z</time></trkpt><trkpt lat="1.1558678253691934" lon="-76.6481369308923"><ele>606.5</ele><time>2026-03-22T18:34:54.999Z</time></trkpt><trkpt lat="1.1557860477341295" lon="-76.64814184434397"><ele>606.0</ele><time>2026-03-22T18:34:55.999Z</time></trkpt><trkpt lat="1.1557145709970873" lon="-76.6481612905288"><ele>605.8</ele><time>2026-03-22T18:34:56.999Z</time></trkpt><trkpt lat="1.1556445018961947" lon="-76.64816926504633"><ele>605.6</ele><time>2026-03-22T18:34:57.999Z</time></trkpt><trkpt lat="1.1555580455654997" lon="-76.64799943132574"><ele>605.4</ele><time>2026-03-22T18:34:59.999Z</time></trkpt><trkpt lat="1.1555497099131893" lon="-76.64790706839614"><ele>605.2</ele><time>2026-03-22T18:35:00.999Z</time></trkpt><trkpt lat="1.1555373620322702" lon="-76.6478135371493"><ele>605.0</ele><time>2026-03-22T18:35:01.999Z</time></trkpt><trkpt lat="1.1555223924839573" lon="-76.64773332926472"><ele>604.6</ele><time>2026-03-22T18:35:02.999Z</time></trkpt><trkpt lat="1.1554988782801194" lon="-76.64765534176568"><ele>604.2</ele><time>2026-03-22T18:35:03.999Z</time></trkpt><trkpt lat="1.1555071543641875" lon="-76.64758290726898"><ele>603.8</ele><time>2026-03-22T18:35:04.999Z</time></trkpt><trkpt lat="1.1554836091531901" lon="-76.647509746687"><ele>603.4</ele><time>2026-03-22T18:35:05.999Z</time></trkpt><trkpt lat="1.1554867102812882" lon="-76.64739717632197"><ele>603.0</ele><time>2026-03-22T18:35:07.999Z</time></trkpt><trkpt lat="1.1553414570330982" lon="-76.6474211055325"><ele>603.0</ele><time>2026-03-22T18:35:09.999Z</time></trkpt><trkpt lat="1.1552422936697804" lon="-76.64742297548523"><ele>603.0</ele><time>2026-03-22T18:35:10.999Z</time></trkpt><trkpt lat="1.1551409082493382" lon="-76.64742488734468"><ele>603.0</ele><time>2026-03-22T18:35:11.999Z</time></trkpt><trkpt lat="1.1550061242916392" lon="-76.6474303741994"><ele>603.0</ele><time>2026-03-22T18:35:12.999Z</time></trkpt><trkpt lat="1.1548852823698947" lon="-76.64743487945967"><ele>602.8</ele><time>2026-03-22T18:35:13.999Z</time></trkpt><trkpt lat="1.1547752208493351" lon="-76.64743911554048"><ele>602.5999999999999</ele><time>2026-03-22T18:35:14.999Z</time></trkpt><trkpt lat="1.1546641649813099" lon="-76.6474433978093"><ele>602.4000000000001</ele><time>2026-03-22T18:35:15.999Z</time></trkpt><trkpt lat="1.1545549060958362" lon="-76.64744761078668"><ele>602.2</ele><time>2026-03-22T18:35:16.999Z</time></trkpt><trkpt lat="1.1544460643007344" lon="-76.64745011918781"><ele>602.0</ele><time>2026-03-22T18:35:17.999Z</time></trkpt><trkpt lat="1.154347175646451" lon="-76.64745253110746"><ele>602.0</ele><time>2026-03-22T18:35:18.999Z</time></trkpt><trkpt lat="1.1542475627934834" lon="-76.64745496068701"><ele>602.0</ele><time>2026-03-22T18:35:19.999Z</time></trkpt><trkpt lat="1.1541397874410968" lon="-76.64745758935405"><ele>602.0</ele><time>2026-03-22T18:35:20.999Z</time></trkpt><trkpt lat="1.1540324406451643" lon="-76.6474602075705"><ele>602.0</ele><time>2026-03-22T18:35:21.999Z</time></trkpt><trkpt lat="1.1539279161328204" lon="-76.64746275694797"><ele>602.0</ele><time>2026-03-22T18:35:22.999Z</time></trkpt><trkpt lat="1.1538269731338946" lon="-76.64746525306522"><ele>602.0</ele><time>2026-03-22T18:35:23.999Z</time></trkpt><trkpt lat="1.1537318494987798" lon="-76.64746770416556"><ele>602.0</ele><time>2026-03-22T18:35:24.999Z</time></trkpt><trkpt lat="1.1536358867563765" lon="-76.64747017689075"><ele>602.0</ele><time>2026-03-22T18:35:25.999Z</time></trkpt><trkpt lat="1.1535472284540518" lon="-76.6474724613968"><ele>602.0</ele><time>2026-03-22T18:35:26.999Z</time></trkpt><trkpt lat="1.1534666612752316" lon="-76.64747455564861"><ele>602.0</ele><time>2026-03-22T18:35:27.999Z</time></trkpt><trkpt lat="1.1533981960232749" lon="-76.64747638138871"><ele>602.0</ele><time>2026-03-22T18:35:28.999Z</time></trkpt><trkpt lat="1.1533111857235026" lon="-76.64750899727613"><ele>602.0</ele><time>2026-03-22T18:35:30.999Z</time></trkpt><trkpt lat="1.153317691967902" lon="-76.64761592202993"><ele>602.0</ele><time>2026-03-22T18:35:32.999Z</time></trkpt><trkpt lat="1.1532788273449395" lon="-76.64770637667804"><ele>602.0</ele><time>2026-03-22T18:35:34.999Z</time></trkpt><trkpt lat="1.15329979952005" lon="-76.6477685884636"><ele>602.0</ele><time>2026-03-22T18:35:42.999Z</time></trkpt><trkpt lat="1.1531413467363634" lon="-76.64772968515173"><ele>602.0</ele><time>2026-03-22T18:35:46.999Z</time></trkpt><trkpt lat="1.1531335452252474" lon="-76.64779253293827"><ele>600.0</ele><time>2026-03-22T18:36:09.999Z</time></trkpt><trkpt lat="1.1532017665938397" lon="-76.64778446504398"><ele>600.0</ele><time>2026-03-22T18:36:12.999Z</time></trkpt><trkpt lat="1.1531908414391403" lon="-76.6477215110433"><ele>600.0</ele><time>2026-03-22T18:36:19.999Z</time></trkpt><trkpt lat="1.153124441123859" lon="-76.64772119235106"><ele>600.0</ele><time>2026-03-22T18:36:56.999Z</time></trkpt><trkpt lat="1.1530555537539553" lon="-76.64772330290748"><ele>600.0</ele><time>2026-03-22T18:41:52.999Z</time></trkpt><trkpt lat="1.1530905708762087" lon="-76.64766900399626"><ele>600.0</ele><time>2026-03-22T18:42:01.999Z</time></trkpt></trkseg><trkseg><trkpt lat="1.1531936705325712" lon="-76.64765593992458"><ele>599.9999999999999</ele><time>2026-03-22T19:39:01.871Z</time></trkpt><trkpt lat="1.153147703549708" lon="-76.64770265381676"><ele>600.0</ele><time>2026-03-22T19:40:03Z</time></trkpt><trkpt lat="1.153208164502686" lon="-76.64774709426497"><ele>600.0</ele><time>2026-03-22T19:41:46Z</time></trkpt><trkpt lat="1.1531403075298694" lon="-76.64775330648484"><ele>600.0</ele><time>2026-03-22T19:41:56Z</time></trkpt><trkpt lat="1.153062710606192" lon="-76.64774257709949"><ele>600.0</ele><time>2026-03-22T19:43:01Z</time></trkpt><trkpt lat="1.1529852066908481" lon="-76.6477417385014"><ele>599.9999999999999</ele><time>2026-03-22T19:43:03Z</time></trkpt><trkpt lat="1.1529236473512612" lon="-76.64776144096703"><ele>600.0</ele><time>2026-03-22T19:43:05Z</time></trkpt><trkpt lat="1.1528687773224366" lon="-76.64779418026363"><ele>600.0</ele><time>2026-03-22T19:43:08Z</time></trkpt><trkpt lat="1.1527780723557746" lon="-76.64778469891688"><ele>600.0</ele><time>2026-03-22T19:43:10Z</time></trkpt><trkpt lat="1.1527030210059261" lon="-76.64777349396718"><ele>600.0</ele><time>2026-03-22T19:43:12Z</time></trkpt><trkpt lat="1.1526239133269565" lon="-76.64778062273578"><ele>600.0</ele><time>2026-03-22T19:43:13Z</time></trkpt><trkpt lat="1.1525327361430713" lon="-76.64778471213891"><ele>600.0</ele><time>2026-03-22T19:43:15Z</time></trkpt><trkpt lat="1.1524396676056863" lon="-76.64776597824361"><ele>600.0</ele><time>2026-03-22T19:43:17Z</time></trkpt><trkpt lat="1.152328016691425" lon="-76.64775602026505"><ele>599.6</ele><time>2026-03-22T19:43:19Z</time></trkpt><trkpt lat="1.1522049043782667" lon="-76.64775399897087"><ele>599.2</ele><time>2026-03-22T19:43:21Z</time></trkpt><trkpt lat="1.1521214150006789" lon="-76.64774540048151"><ele>598.8</ele><time>2026-03-22T19:43:22Z</time></trkpt><trkpt lat="1.1520444195416193" lon="-76.64774482745659"><ele>598.4</ele><time>2026-03-22T19:43:23Z</time></trkpt><trkpt lat="1.1519654075233579" lon="-76.64774878785119"><ele>598.0</ele><time>2026-03-22T19:43:24Z</time></trkpt><trkpt lat="1.1518592973819248" lon="-76.6477584538241"><ele>598.0</ele><time>2026-03-22T19:43:26Z</time></trkpt><trkpt lat="1.15178441666729" lon="-76.64776918877435"><ele>598.0</ele><time>2026-03-22T19:43:27Z</time></trkpt><trkpt lat="1.1517115696992004" lon="-76.647770740236"><ele>598.0</ele><time>2026-03-22T19:43:28Z</time></trkpt><trkpt lat="1.1516477080107863" lon="-76.6477734306621"><ele>598.0</ele><time>2026-03-22T19:43:29Z</time></trkpt><trkpt lat="1.1515354335839798" lon="-76.6477830864434"><ele>598.0</ele><time>2026-03-22T19:43:31Z</time></trkpt><trkpt lat="1.1514259366832673" lon="-76.64778668163116"><ele>598.0</ele><time>2026-03-22T19:43:33Z</time></trkpt><trkpt lat="1.151316709284375" lon="-76.64779566921753"><ele>597.5</ele><time>2026-03-22T19:43:35Z</time></trkpt><trkpt lat="1.1512538375863473" lon="-76.64779141051356"><ele>597.0</ele><time>2026-03-22T19:43:36Z</time></trkpt><trkpt lat="1.1511233238015894" lon="-76.647781520374"><ele>596.5</ele><time>2026-03-22T19:43:38Z</time></trkpt><trkpt lat="1.1510402784102267" lon="-76.64776949081555"><ele>596.0</ele><time>2026-03-22T19:43:39Z</time></trkpt><trkpt lat="1.1509504860494995" lon="-76.64775783001073"><ele>595.5</ele><time>2026-03-22T19:43:40Z</time></trkpt><trkpt lat="1.1508711503405795" lon="-76.64775980579013"><ele>595.0</ele><time>2026-03-22T19:43:41Z</time></trkpt><trkpt lat="1.1507881133109392" lon="-76.64776470424641"><ele>594.5</ele><time>2026-03-22T19:43:42Z</time></trkpt><trkpt lat="1.1507021460959836" lon="-76.64777060346947"><ele>594.0</ele><time>2026-03-22T19:43:43Z</time></trkpt><trkpt lat="1.1506206603818232" lon="-76.6477664275138"><ele>593.5</ele><time>2026-03-22T19:43:44Z</time></trkpt><trkpt lat="1.150527547299884" lon="-76.64775961708683"><ele>593.0</ele><time>2026-03-22T19:43:45Z</time></trkpt><trkpt lat="1.1504450348848714" lon="-76.64775186204707"><ele>592.5</ele><time>2026-03-22T19:43:46Z</time></trkpt><trkpt lat="1.1503597179669642" lon="-76.6477710311271"><ele>592.0</ele><time>2026-03-22T19:43:47Z</time></trkpt><trkpt lat="1.150278887792914" lon="-76.64778355658791"><ele>592.0</ele><time>2026-03-22T19:43:48Z</time></trkpt><trkpt lat="1.1501526801361368" lon="-76.64784495090659"><ele>592.0</ele><time>2026-03-22T19:43:50Z</time></trkpt><trkpt lat="1.1500811542834164" lon="-76.64787550564301"><ele>592.0</ele><time>2026-03-22T19:43:51Z</time></trkpt><trkpt lat="1.1500130074427206" lon="-76.64790444948544"><ele>592.0</ele><time>2026-03-22T19:43:52Z</time></trkpt><trkpt lat="1.1499445535832737" lon="-76.6479197881528"><ele>592.0</ele><time>2026-03-22T19:43:53Z</time></trkpt><trkpt lat="1.1498788584576145" lon="-76.64794939096682"><ele>592.0</ele><time>2026-03-22T19:43:54Z</time></trkpt><trkpt lat="1.1497896740981013" lon="-76.64800622674588"><ele>591.5</ele><time>2026-03-22T19:43:56Z</time></trkpt><trkpt lat="1.1496977023937982" lon="-76.64805020767766"><ele>591.0</ele><time>2026-03-22T19:43:58Z</time></trkpt><trkpt lat="1.1496191255533363" lon="-76.64809426128478"><ele>590.5</ele><time>2026-03-22T19:44:00Z</time></trkpt><trkpt lat="1.149532253310562" lon="-76.64812602415063"><ele>590.0</ele><time>2026-03-22T19:44:02Z</time></trkpt><trkpt lat="1.149460270917814" lon="-76.64815101349068"><ele>589.5</ele><time>2026-03-22T19:47:44.001Z</time></trkpt><trkpt lat="1.1493845161867027" lon="-76.64818723999339"><ele>589.0</ele><time>2026-03-22T19:47:47.001Z</time></trkpt><trkpt lat="1.149325110405003" lon="-76.64825110672152"><ele>589.0</ele><time>2026-03-22T19:47:50.001Z</time></trkpt><trkpt lat="1.1493063128081762" lon="-76.64831411860534"><ele>589.0</ele><time>2026-03-22T19:47:52.001Z</time></trkpt><trkpt lat="1.1492538346038659" lon="-76.64836487975818"><ele>589.0</ele><time>2026-03-22T19:48:00.001Z</time></trkpt><trkpt lat="1.1491549580271614" lon="-76.64835405943877"><ele>589.0</ele><time>2026-03-22T19:48:02.001Z</time></trkpt><trkpt lat="1.1490477810464936" lon="-76.64834831613985"><ele>589.0</ele><time>2026-03-22T19:48:04Z</time></trkpt><trkpt lat="1.1489522225710167" lon="-76.64834509203521"><ele>589.0</ele><time>2026-03-22T19:48:06Z</time></trkpt><trkpt lat="1.1488737067699808" lon="-76.64834117284815"><ele>590.2</ele><time>2026-03-22T19:48:08Z</time></trkpt><trkpt lat="1.1487860953335884" lon="-76.6483288694752"><ele>591.4</ele><time>2026-03-22T19:48:10Z</time></trkpt><trkpt lat="1.1486787291294045" lon="-76.64832763635597"><ele>592.6</ele><time>2026-03-22T19:48:12Z</time></trkpt><trkpt lat="1.1485591972325784" lon="-76.64832079279331"><ele>593.8</ele><time>2026-03-22T19:48:14Z</time></trkpt><trkpt lat="1.148450353336429" lon="-76.64830833505948"><ele>595.0</ele><time>2026-03-22T19:48:16Z</time></trkpt><trkpt lat="1.1483256375254667" lon="-76.64830803177381"><ele>595.0</ele><time>2026-03-22T19:48:18Z</time></trkpt><trkpt lat="1.1482441704221689" lon="-76.64830490675332"><ele>595.0</ele><time>2026-03-22T19:48:19Z</time></trkpt><trkpt lat="1.1481549304103449" lon="-76.64830129456908"><ele>595.0</ele><time>2026-03-22T19:48:20Z</time></trkpt><trkpt lat="1.1480653378330095" lon="-76.64828397198602"><ele>595.0</ele><time>2026-03-22T19:48:21Z</time></trkpt><trkpt lat="1.1479878299966355" lon="-76.64826115941268"><ele>595.0</ele><time>2026-03-22T19:48:22Z</time></trkpt><trkpt lat="1.1479213644891566" lon="-76.64822021246128"><ele>595.0</ele><time>2026-03-22T19:48:23Z</time></trkpt><trkpt lat="1.1478686873442043" lon="-76.64815425204846"><ele>596.8</ele><time>2026-03-22T19:48:24Z</time></trkpt><trkpt lat="1.1478156444938283" lon="-76.64809188810091"><ele>598.6</ele><time>2026-03-22T19:48:25Z</time></trkpt><trkpt lat="1.147658989448329" lon="-76.64809082674533"><ele>600.4</ele><time>2026-03-22T19:48:27Z</time></trkpt><trkpt lat="1.1475876007498322" lon="-76.64812412236252"><ele>602.2</ele><time>2026-03-22T19:48:28Z</time></trkpt><trkpt lat="1.1474783996138793" lon="-76.64818272244872"><ele>604.0</ele><time>2026-03-22T19:48:30Z</time></trkpt><trkpt lat="1.1473815582637559" lon="-76.64825888444209"><ele>604.4</ele><time>2026-03-22T19:48:32Z</time></trkpt><trkpt lat="1.1473176035147827" lon="-76.64829216049955"><ele>604.8</ele><time>2026-03-22T19:48:33Z</time></trkpt><trkpt lat="1.1472185687720737" lon="-76.64835381822778"><ele>605.2</ele><time>2026-03-22T19:48:35Z</time></trkpt><trkpt lat="1.1471203726709103" lon="-76.64840231769396"><ele>605.6</ele><time>2026-03-22T19:48:37Z</time></trkpt><trkpt lat="1.1470159665443904" lon="-76.64845566107141"><ele>606.0</ele><time>2026-03-22T19:48:39Z</time></trkpt><trkpt lat="1.1469228913286698" lon="-76.64850844279708"><ele>606.0</ele><time>2026-03-22T19:48:41Z</time></trkpt><trkpt lat="1.1468409168732754" lon="-76.64856640590594"><ele>606.0</ele><time>2026-03-22T19:48:43Z</time></trkpt><trkpt lat="1.1467755405792677" lon="-76.64859245073097"><ele>606.0</ele><time>2026-03-22T19:48:45Z</time></trkpt><trkpt lat="1.1467074784265898" lon="-76.64863545554684"><ele>606.0</ele><time>2026-03-22T19:48:48Z</time></trkpt><trkpt lat="1.1466320774107772" lon="-76.64869314574295"><ele>606.0</ele><time>2026-03-22T19:49:00Z</time></trkpt><trkpt lat="1.1465372012511892" lon="-76.64873750577955"><ele>605.8</ele><time>2026-03-22T19:49:02Z</time></trkpt><trkpt lat="1.1464301430581572" lon="-76.64879994650073"><ele>605.6</ele><time>2026-03-22T19:49:04Z</time></trkpt><trkpt lat="1.14631972881544" lon="-76.64885620527268"><ele>605.4</ele><time>2026-03-22T19:49:06Z</time></trkpt><trkpt lat="1.146257845525724" lon="-76.64888889345028"><ele>605.2</ele><time>2026-03-22T19:49:07Z</time></trkpt><trkpt lat="1.146191219141871" lon="-76.64891977064931"><ele>605.0</ele><time>2026-03-22T19:49:08Z</time></trkpt><trkpt lat="1.146096931718642" lon="-76.64900127340871"><ele>605.0</ele><time>2026-03-22T19:49:10Z</time></trkpt><trkpt lat="1.1460459222325008" lon="-76.64904536647512"><ele>605.0</ele><time>2026-03-22T19:49:11Z</time></trkpt><trkpt lat="1.146083049387677" lon="-76.64920336886658"><ele>605.0</ele><time>2026-03-22T19:49:12Z</time></trkpt><trkpt lat="1.1460751043859907" lon="-76.64930138147743"><ele>605.0</ele><time>2026-03-22T19:49:13Z</time></trkpt><trkpt lat="1.1460660413221453" lon="-76.64938723829819"><ele>605.0</ele><time>2026-03-22T19:49:14Z</time></trkpt><trkpt lat="1.1460653917875634" lon="-76.64948372887528"><ele>605.4</ele><time>2026-03-22T19:49:15Z</time></trkpt><trkpt lat="1.1460655949116714" lon="-76.64957884126247"><ele>605.8</ele><time>2026-03-22T19:49:16Z</time></trkpt><trkpt lat="1.1460759251176633" lon="-76.64966022975214"><ele>606.2</ele><time>2026-03-22T19:49:17Z</time></trkpt><trkpt lat="1.146072971037623" lon="-76.64975559741644"><ele>606.6</ele><time>2026-03-22T19:49:18Z</time></trkpt><trkpt lat="1.1460682698745683" lon="-76.64986595117023"><ele>607.0</ele><time>2026-03-22T19:49:19Z</time></trkpt><trkpt lat="1.1460523065600394" lon="-76.64995539095173"><ele>607.0</ele><time>2026-03-22T19:49:20Z</time></trkpt><trkpt lat="1.1460202980104126" lon="-76.65003442329144"><ele>607.0</ele><time>2026-03-22T19:49:21Z</time></trkpt><trkpt lat="1.145946247460762" lon="-76.65008885388761"><ele>607.0</ele><time>2026-03-22T19:49:22Z</time></trkpt><trkpt lat="1.1458852123423595" lon="-76.65017024651577"><ele>607.0</ele><time>2026-03-22T19:49:23Z</time></trkpt><trkpt lat="1.1458272960364302" lon="-76.6502699017046"><ele>607.0</ele><time>2026-03-22T19:49:24Z</time></trkpt><trkpt lat="1.1457776689810635" lon="-76.65035529378143"><ele>607.6</ele><time>2026-03-22T19:49:25Z</time></trkpt><trkpt lat="1.145743650965514" lon="-76.65044744885361"><ele>608.2</ele><time>2026-03-22T19:49:26Z</time></trkpt><trkpt lat="1.1457099705347822" lon="-76.65054108128592"><ele>608.8</ele><time>2026-03-22T19:49:27Z</time></trkpt><trkpt lat="1.1456848434713236" lon="-76.65065672541243"><ele>609.4</ele><time>2026-03-22T19:49:28Z</time></trkpt><trkpt lat="1.145673908410291" lon="-76.65076626694501"><ele>610.0</ele><time>2026-03-22T19:49:29Z</time></trkpt><trkpt lat="1.1456604465504634" lon="-76.65086249184063"><ele>610.0</ele><time>2026-03-22T19:49:30Z</time></trkpt><trkpt lat="1.145640623838028" lon="-76.65095617805893"><ele>610.0</ele><time>2026-03-22T19:49:31Z</time></trkpt><trkpt lat="1.145623227752277" lon="-76.65104849070207"><ele>610.0</ele><time>2026-03-22T19:49:32.001Z</time></trkpt><trkpt lat="1.1456046538143205" lon="-76.6511415427915"><ele>610.0</ele><time>2026-03-22T19:49:33.001Z</time></trkpt><trkpt lat="1.1455837133749471" lon="-76.65123979190243"><ele>610.0</ele><time>2026-03-22T19:49:34.001Z</time></trkpt><trkpt lat="1.145565173929662" lon="-76.65133738653707"><ele>610.8</ele><time>2026-03-22T19:49:35.001Z</time></trkpt><trkpt lat="1.145547386731252" lon="-76.65142981507164"><ele>611.6</ele><time>2026-03-22T19:49:36.001Z</time></trkpt><trkpt lat="1.1455315936488806" lon="-76.65152278992188"><ele>612.4</ele><time>2026-03-22T19:49:37.001Z</time></trkpt><trkpt lat="1.1455180897377337" lon="-76.65161703487482"><ele>613.2</ele><time>2026-03-22T19:49:38.001Z</time></trkpt><trkpt lat="1.1455022442598028" lon="-76.65171418287844"><ele>614.0</ele><time>2026-03-22T19:49:39.001Z</time></trkpt><trkpt lat="1.1454817679371083" lon="-76.65182212200098"><ele>614.0</ele><time>2026-03-22T19:49:40.001Z</time></trkpt><trkpt lat="1.145472371210285" lon="-76.65191342418994"><ele>614.0</ele><time>2026-03-22T19:49:41.001Z</time></trkpt><trkpt lat="1.1454581531760852" lon="-76.65198856141149"><ele>614.0</ele><time>2026-03-22T19:49:42.001Z</time></trkpt><trkpt lat="1.1454409949890758" lon="-76.65208258735282"><ele>614.0</ele><time>2026-03-22T19:49:44.001Z</time></trkpt><trkpt lat="1.145419735316328" lon="-76.65218174930368"><ele>614.0</ele><time>2026-03-22T19:49:46.001Z</time></trkpt><trkpt lat="1.1454029501620828" lon="-76.65228477234055"><ele>615.0</ele><time>2026-03-22T19:49:48.001Z</time></trkpt><trkpt lat="1.1453821046084773" lon="-76.6523852903272"><ele>616.0</ele><time>2026-03-22T19:49:50.001Z</time></trkpt><trkpt lat="1.1453744045459433" lon="-76.65248748610665"><ele>617.0</ele><time>2026-03-22T19:49:52.001Z</time></trkpt><trkpt lat="1.1453584078555403" lon="-76.65261099103034"><ele>618.0</ele><time>2026-03-22T19:49:54.001Z</time></trkpt><trkpt lat="1.1453462126643585" lon="-76.65268044621011"><ele>619.0</ele><time>2026-03-22T19:49:55.001Z</time></trkpt><trkpt lat="1.1453358422099773" lon="-76.65275986775876"><ele>619.8333333333334</ele><time>2026-03-22T19:49:56.001Z</time></trkpt><trkpt lat="1.1453200416626563" lon="-76.65284564632215"><ele>620.6666666666667</ele><time>2026-03-22T19:49:57.001Z</time></trkpt><trkpt lat="1.1453077954997795" lon="-76.65293219754278"><ele>621.5</ele><time>2026-03-22T19:49:58.001Z</time></trkpt><trkpt lat="1.145277608642568" lon="-76.65302475347251"><ele>622.3333333333334</ele><time>2026-03-22T19:49:59.001Z</time></trkpt><trkpt lat="1.1452853689890734" lon="-76.65312217238838"><ele>623.1666666666666</ele><time>2026-03-22T19:50:00.001Z</time></trkpt><trkpt lat="1.145270876700901" lon="-76.65320014992295"><ele>624.0</ele><time>2026-03-22T19:50:01.001Z</time></trkpt><trkpt lat="1.145262173279183" lon="-76.653270484989"><ele>624.0</ele><time>2026-03-22T19:50:02.001Z</time></trkpt><trkpt lat="1.145244238473197" lon="-76.65334405301701"><ele>624.0</ele><time>2026-03-22T19:50:03.001Z</time></trkpt><trkpt lat="1.1452386912132364" lon="-76.65342483392737"><ele>624.0</ele><time>2026-03-22T19:50:04.001Z</time></trkpt><trkpt lat="1.1452480325920513" lon="-76.6535065819692"><ele>624.0</ele><time>2026-03-22T19:50:05.001Z</time></trkpt><trkpt lat="1.1452467837012534" lon="-76.65359259370598"><ele>624.0</ele><time>2026-03-22T19:50:06.001Z</time></trkpt><trkpt lat="1.1452440094356213" lon="-76.65367737735646"><ele>624.0</ele><time>2026-03-22T19:50:07.001Z</time></trkpt><trkpt lat="1.1452416825490688" lon="-76.6537680249925"><ele>624.4</ele><time>2026-03-22T19:50:08.001Z</time></trkpt><trkpt lat="1.1452372460776796" lon="-76.65386457033983"><ele>624.8</ele><time>2026-03-22T19:50:09.001Z</time></trkpt><trkpt lat="1.1452353072569925" lon="-76.65395974472241"><ele>625.2</ele><time>2026-03-22T19:50:10.001Z</time></trkpt><trkpt lat="1.1452355966423418" lon="-76.65404914282084"><ele>625.6</ele><time>2026-03-22T19:50:11.001Z</time></trkpt><trkpt lat="1.1452409898455225" lon="-76.65414498736882"><ele>626.0</ele><time>2026-03-22T19:50:12.001Z</time></trkpt><trkpt lat="1.1452541248862576" lon="-76.65422673687905"><ele>626.0</ele><time>2026-03-22T19:50:13.001Z</time></trkpt><trkpt lat="1.1452635089554482" lon="-76.65430716996981"><ele>626.0</ele><time>2026-03-22T19:50:14.001Z</time></trkpt><trkpt lat="1.1452701354542187" lon="-76.65440214231738"><ele>626.0</ele><time>2026-03-22T19:50:15.001Z</time></trkpt><trkpt lat="1.1452840186727151" lon="-76.65451718107576"><ele>626.0</ele><time>2026-03-22T19:50:16.001Z</time></trkpt><trkpt lat="1.14531898589102" lon="-76.65462194550783"><ele>626.0</ele><time>2026-03-22T19:50:17.001Z</time></trkpt><trkpt lat="1.145347987983938" lon="-76.65473527756535"><ele>627.5</ele><time>2026-03-22T19:50:18.001Z</time></trkpt><trkpt lat="1.145378053342451" lon="-76.65484511248489"><ele>629.0</ele><time>2026-03-22T19:50:19.001Z</time></trkpt><trkpt lat="1.1454056047283228" lon="-76.6549543343894"><ele>630.5</ele><time>2026-03-22T19:50:20Z</time></trkpt><trkpt lat="1.1454265565202504" lon="-76.65506560945147"><ele>632.0</ele><time>2026-03-22T19:50:21Z</time></trkpt><trkpt lat="1.1454521038793701" lon="-76.65517625515895"><ele>632.0</ele><time>2026-03-22T19:50:22Z</time></trkpt><trkpt lat="1.1454814001669613" lon="-76.65528419073809"><ele>632.0</ele><time>2026-03-22T19:50:23Z</time></trkpt><trkpt lat="1.1455114247329543" lon="-76.65539561256617"><ele>632.0</ele><time>2026-03-22T19:50:24Z</time></trkpt><trkpt lat="1.145556437274909" lon="-76.65550728873394"><ele>632.0</ele><time>2026-03-22T19:50:25Z</time></trkpt><trkpt lat="1.145572722537562" lon="-76.65562460521383"><ele>634.25</ele><time>2026-03-22T19:50:26Z</time></trkpt><trkpt lat="1.145585247788377" lon="-76.6557530401386"><ele>636.5</ele><time>2026-03-22T19:50:27Z</time></trkpt><trkpt lat="1.1455978899660946" lon="-76.65588267405758"><ele>638.75</ele><time>2026-03-22T19:50:28Z</time></trkpt><trkpt lat="1.1456096853334046" lon="-76.65600431593703"><ele>641.0</ele><time>2026-03-22T19:50:29Z</time></trkpt><trkpt lat="1.145621802433707" lon="-76.65612974848484"><ele>641.8</ele><time>2026-03-22T19:50:30Z</time></trkpt><trkpt lat="1.1456322865222557" lon="-76.65623827646264"><ele>642.5999999999999</ele><time>2026-03-22T19:50:31Z</time></trkpt><trkpt lat="1.1456422347842714" lon="-76.65634125783028"><ele>643.4</ele><time>2026-03-22T19:50:32Z</time></trkpt><trkpt lat="1.1456524229906486" lon="-76.65644672300029"><ele>644.2</ele><time>2026-03-22T19:50:33Z</time></trkpt><trkpt lat="1.145663132569217" lon="-76.65655758524886"><ele>645.0</ele><time>2026-03-22T19:50:34Z</time></trkpt><trkpt lat="1.1456737675553887" lon="-76.65666767528725"><ele>645.0</ele><time>2026-03-22T19:50:35Z</time></trkpt><trkpt lat="1.1456849851344266" lon="-76.65678379625531"><ele>645.0</ele><time>2026-03-22T19:50:36Z</time></trkpt><trkpt lat="1.145696245558737" lon="-76.65690036065685"><ele>645.0</ele><time>2026-03-22T19:50:37Z</time></trkpt><trkpt lat="1.1457115425655888" lon="-76.65701196163283"><ele>645.0</ele><time>2026-03-22T19:50:38Z</time></trkpt><trkpt lat="1.1457185911289316" lon="-76.65711979421334"><ele>646.4</ele><time>2026-03-22T19:50:39Z</time></trkpt><trkpt lat="1.1457392644431015" lon="-76.65721399167782"><ele>647.8</ele><time>2026-03-22T19:50:40Z</time></trkpt><trkpt lat="1.1457867511780873" lon="-76.65729783928566"><ele>649.2</ele><time>2026-03-22T19:50:41Z</time></trkpt><trkpt lat="1.1457139651890251" lon="-76.6574192914489"><ele>650.6</ele><time>2026-03-22T19:50:42Z</time></trkpt><trkpt lat="1.1456844897153942" lon="-76.65752825490821"><ele>652.0</ele><time>2026-03-22T19:50:43Z</time></trkpt><trkpt lat="1.1456555734707643" lon="-76.6576368803691"><ele>652.0</ele><time>2026-03-22T19:50:44Z</time></trkpt><trkpt lat="1.145630324679467" lon="-76.6577320488778"><ele>652.0</ele><time>2026-03-22T19:50:45Z</time></trkpt><trkpt lat="1.1456034913677102" lon="-76.65783318979116"><ele>652.0</ele><time>2026-03-22T19:50:46Z</time></trkpt><trkpt lat="1.1455762852487559" lon="-76.65793573589193"><ele>652.0</ele><time>2026-03-22T19:50:47Z</time></trkpt><trkpt lat="1.1455542729009944" lon="-76.65801870549221"><ele>652.0</ele><time>2026-03-22T19:50:48Z</time></trkpt><trkpt lat="1.1455641954631823" lon="-76.6581003161828"><ele>652.1666666666667</ele><time>2026-03-22T19:50:49Z</time></trkpt><trkpt lat="1.145545835135491" lon="-76.65817378462025"><ele>652.3333333333334</ele><time>2026-03-22T19:50:50Z</time></trkpt><trkpt lat="1.145543667946458" lon="-76.65829599303216"><ele>652.5</ele><time>2026-03-22T19:50:52Z</time></trkpt><trkpt lat="1.1455594535783773" lon="-76.65836176561056"><ele>652.6666666666666</ele><time>2026-03-22T19:50:53Z</time></trkpt><trkpt lat="1.1455728444758162" lon="-76.65843122760914"><ele>652.8333333333333</ele><time>2026-03-22T19:50:54Z</time></trkpt><trkpt lat="1.1455978209151483" lon="-76.65849878276651"><ele>653.0</ele><time>2026-03-22T19:50:55Z</time></trkpt><trkpt lat="1.1456304405936337" lon="-76.65856427253321"><ele>654.2</ele><time>2026-03-22T19:50:56Z</time></trkpt><trkpt lat="1.1456827141095196" lon="-76.65863782797825"><ele>655.4</ele><time>2026-03-22T19:50:57Z</time></trkpt><trkpt lat="1.1457295473234752" lon="-76.65872830055997"><ele>656.6</ele><time>2026-03-22T19:50:58Z</time></trkpt><trkpt lat="1.1457702093413284" lon="-76.65881145007924"><ele>657.8000000000001</ele><time>2026-03-22T19:50:59Z</time></trkpt><trkpt lat="1.1458579453310436" lon="-76.65886914654972"><ele>659.0</ele><time>2026-03-22T19:51:00Z</time></trkpt><trkpt lat="1.1459194291831671" lon="-76.65892878590851"><ele>659.2</ele><time>2026-03-22T19:51:01Z</time></trkpt><trkpt lat="1.145940260577079" lon="-76.6590362711035"><ele>659.4000000000001</ele><time>2026-03-22T19:51:02Z</time></trkpt><trkpt lat="1.1459722836817494" lon="-76.65914574863994"><ele>659.6</ele><time>2026-03-22T19:51:03Z</time></trkpt><trkpt lat="1.1459850056716507" lon="-76.65924563646763"><ele>659.8</ele><time>2026-03-22T19:51:04Z</time></trkpt><trkpt lat="1.1460084710472074" lon="-76.65935059150492"><ele>660.0</ele><time>2026-03-22T19:51:05Z</time></trkpt><trkpt lat="1.1460141337017256" lon="-76.65945104182035"><ele>661.75</ele><time>2026-03-22T19:51:06Z</time></trkpt><trkpt lat="1.1460417750651617" lon="-76.65952697620207"><ele>663.5</ele><time>2026-03-22T19:51:07Z</time></trkpt><trkpt lat="1.1458939653400384" lon="-76.65959524000128"><ele>665.25</ele><time>2026-03-22T19:51:08Z</time></trkpt><trkpt lat="1.1458548457435542" lon="-76.65970423902523"><ele>667.0</ele><time>2026-03-22T19:51:09Z</time></trkpt><trkpt lat="1.1458335505388382" lon="-76.65984037836157"><ele>667.0</ele><time>2026-03-22T19:51:10Z</time></trkpt><trkpt lat="1.1458267412841376" lon="-76.6599498572015"><ele>667.0</ele><time>2026-03-22T19:51:11Z</time></trkpt><trkpt lat="1.145808970849104" lon="-76.66007587364324"><ele>667.0</ele><time>2026-03-22T19:51:12Z</time></trkpt><trkpt lat="1.1457873339841247" lon="-76.66022005232834"><ele>667.0</ele><time>2026-03-22T19:51:13Z</time></trkpt><trkpt lat="1.145765746062631" lon="-76.66035210529554"><ele>668.0</ele><time>2026-03-22T19:51:14Z</time></trkpt><trkpt lat="1.1457613245115716" lon="-76.66047803073072"><ele>669.0</ele><time>2026-03-22T19:51:15Z</time></trkpt><trkpt lat="1.145780313530664" lon="-76.66059648410123"><ele>670.0</ele><time>2026-03-22T19:51:16Z</time></trkpt><trkpt lat="1.145782426088184" lon="-76.66071502408633"><ele>671.0</ele><time>2026-03-22T19:51:17Z</time></trkpt><trkpt lat="1.1458069879458157" lon="-76.66082098017779"><ele>671.0</ele><time>2026-03-22T19:51:18Z</time></trkpt><trkpt lat="1.1458254911808934" lon="-76.66093904520137"><ele>671.0</ele><time>2026-03-22T19:51:19Z</time></trkpt><trkpt lat="1.145854762902275" lon="-76.66103192648875"><ele>671.0</ele><time>2026-03-22T19:51:20Z</time></trkpt><trkpt lat="1.1458761768728443" lon="-76.66113995747371"><ele>671.0</ele><time>2026-03-22T19:51:21Z</time></trkpt><trkpt lat="1.145885765885814" lon="-76.66123545778194"><ele>671.0</ele><time>2026-03-22T19:51:22Z</time></trkpt><trkpt lat="1.145885203238523" lon="-76.66133065041997"><ele>672.5999999999999</ele><time>2026-03-22T19:51:23Z</time></trkpt><trkpt lat="1.1459400712627297" lon="-76.66140203566857"><ele>674.2</ele><time>2026-03-22T19:51:24Z</time></trkpt><trkpt lat="1.1460251093229792" lon="-76.6613933459954"><ele>675.8</ele><time>2026-03-22T19:51:25Z</time></trkpt><trkpt lat="1.1461410444386873" lon="-76.66139830445479"><ele>677.4000000000001</ele><time>2026-03-22T19:51:26Z</time></trkpt><trkpt lat="1.1462039014401733" lon="-76.66144682850917"><ele>679.0</ele><time>2026-03-22T19:51:28Z</time></trkpt><trkpt lat="1.1462658463606503" lon="-76.66154364852405"><ele>679.0</ele><time>2026-03-22T19:51:30Z</time></trkpt><trkpt lat="1.1462351195651244" lon="-76.661609015723"><ele>679.0</ele><time>2026-03-22T19:51:31Z</time></trkpt><trkpt lat="1.1462498049856815" lon="-76.66167291029271"><ele>679.0</ele><time>2026-03-22T19:51:32Z</time></trkpt><trkpt lat="1.1462225620022037" lon="-76.66177070471326"><ele>679.0</ele><time>2026-03-22T19:51:34Z</time></trkpt><trkpt lat="1.1461953142892116" lon="-76.6618362384079"><ele>679.0</ele><time>2026-03-22T19:51:35Z</time></trkpt><trkpt lat="1.1461681943913098" lon="-76.66190629375464"><ele>679.0</ele><time>2026-03-22T19:51:36Z</time></trkpt><trkpt lat="1.1461174539058616" lon="-76.662026666065"><ele>679.8333333333334</ele><time>2026-03-22T19:51:38.001Z</time></trkpt><trkpt lat="1.14608766428519" lon="-76.66209662579944"><ele>680.6666666666667</ele><time>2026-03-22T19:51:39.001Z</time></trkpt><trkpt lat="1.146076557293012" lon="-76.66217164001726"><ele>681.5</ele><time>2026-03-22T19:51:40.001Z</time></trkpt><trkpt lat="1.1460437693384988" lon="-76.66224685817271"><ele>682.3333333333334</ele><time>2026-03-22T19:51:41.001Z</time></trkpt><trkpt lat="1.1460246030684083" lon="-76.662330023226"><ele>683.1666666666666</ele><time>2026-03-22T19:51:42.001Z</time></trkpt><trkpt lat="1.1460125967925914" lon="-76.66241715109875"><ele>684.0</ele><time>2026-03-22T19:51:43.001Z</time></trkpt><trkpt lat="1.1460102467243432" lon="-76.66250401494958"><ele>684.0</ele><time>2026-03-22T19:51:44.001Z</time></trkpt><trkpt lat="1.146021401719786" lon="-76.66258770165061"><ele>684.0</ele><time>2026-03-22T19:51:45.001Z</time></trkpt><trkpt lat="1.1460508798099043" lon="-76.66266853341726"><ele>684.0</ele><time>2026-03-22T19:51:46.001Z</time></trkpt><trkpt lat="1.1460809009122426" lon="-76.66274756345778"><ele>684.0</ele><time>2026-03-22T19:51:47.001Z</time></trkpt><trkpt lat="1.1461218208521957" lon="-76.66283350331192"><ele>684.0</ele><time>2026-03-22T19:51:48.001Z</time></trkpt><trkpt lat="1.1461680303274648" lon="-76.6629233676198"><ele>684.5</ele><time>2026-03-22T19:51:49.001Z</time></trkpt><trkpt lat="1.1462072509423535" lon="-76.66299022815338"><ele>685.0</ele><time>2026-03-22T19:51:50.001Z</time></trkpt><trkpt lat="1.1462332675912614" lon="-76.66306730452204"><ele>685.5</ele><time>2026-03-22T19:51:51.001Z</time></trkpt><trkpt lat="1.1462700902007854" lon="-76.66314829527009"><ele>686.0</ele><time>2026-03-22T19:51:52.001Z</time></trkpt><trkpt lat="1.1462834225551781" lon="-76.66322353775196"><ele>686.5</ele><time>2026-03-22T19:51:53.001Z</time></trkpt><trkpt lat="1.1463034433356496" lon="-76.66329290442707"><ele>687.0</ele><time>2026-03-22T19:51:54.001Z</time></trkpt><trkpt lat="1.1463262760507875" lon="-76.66336851676203"><ele>687.0</ele><time>2026-03-22T19:51:55.001Z</time></trkpt><trkpt lat="1.1463490001682892" lon="-76.66344217437354"><ele>687.0</ele><time>2026-03-22T19:51:56.001Z</time></trkpt><trkpt lat="1.1463092229552811" lon="-76.66356646839678"><ele>687.0</ele><time>2026-03-22T19:51:58.001Z</time></trkpt><trkpt lat="1.1462996747749692" lon="-76.66363077422083"><ele>687.0</ele><time>2026-03-22T19:51:59.001Z</time></trkpt><trkpt lat="1.1462584363090667" lon="-76.66374625523783"><ele>687.0</ele><time>2026-03-22T19:52:01.001Z</time></trkpt><trkpt lat="1.1462298421191293" lon="-76.6638295980504"><ele>688.3333333333334</ele><time>2026-03-22T19:52:02.001Z</time></trkpt><trkpt lat="1.1462071658174844" lon="-76.66389574128017"><ele>689.6666666666666</ele><time>2026-03-22T19:52:03.001Z</time></trkpt><trkpt lat="1.1461622587949374" lon="-76.66404107600121"><ele>691.0</ele><time>2026-03-22T19:52:05.001Z</time></trkpt><trkpt lat="1.1461632532747967" lon="-76.66410464614813"><ele>692.3333333333333</ele><time>2026-03-22T19:52:06.001Z</time></trkpt><trkpt lat="1.1461643856140844" lon="-76.66417497779862"><ele>693.6666666666666</ele><time>2026-03-22T19:52:07.001Z</time></trkpt><trkpt lat="1.1461655583310468" lon="-76.66424781630289"><ele>695.0</ele><time>2026-03-22T19:52:08.001Z</time></trkpt><trkpt lat="1.1461798728224288" lon="-76.6643337906907"><ele>695.0000000000001</ele><time>2026-03-22T19:52:09.001Z</time></trkpt><trkpt lat="1.1461942744230647" lon="-76.66440440153086"><ele>695.0</ele><time>2026-03-22T19:52:10.001Z</time></trkpt><trkpt lat="1.1462239734903328" lon="-76.66446874463968"><ele>695.0</ele><time>2026-03-22T19:52:11.001Z</time></trkpt><trkpt lat="1.1462227759563506" lon="-76.66453171252543"><ele>695.0</ele><time>2026-03-22T19:52:12.001Z</time></trkpt><trkpt lat="1.1462210214970678" lon="-76.66459939092806"><ele>695.0</ele><time>2026-03-22T19:52:13.001Z</time></trkpt><trkpt lat="1.1462323077049328" lon="-76.66468022831214"><ele>695.0000000000001</ele><time>2026-03-22T19:52:14.001Z</time></trkpt><trkpt lat="1.1462785647662954" lon="-76.66475801961549"><ele>695.0</ele><time>2026-03-22T19:52:15.001Z</time></trkpt><trkpt lat="1.1462705129283906" lon="-76.66483591074675"><ele>695.6</ele><time>2026-03-22T19:52:16.001Z</time></trkpt><trkpt lat="1.146279759163195" lon="-76.66491557608028"><ele>696.2</ele><time>2026-03-22T19:52:17.001Z</time></trkpt><trkpt lat="1.1462907386959769" lon="-76.66500750053059"><ele>696.8</ele><time>2026-03-22T19:52:18.001Z</time></trkpt><trkpt lat="1.14630238807753" lon="-76.66510503317431"><ele>697.4</ele><time>2026-03-22T19:52:19.001Z</time></trkpt><trkpt lat="1.146314366370349" lon="-76.66519976902"><ele>698.0</ele><time>2026-03-22T19:52:20.001Z</time></trkpt><trkpt lat="1.1463255787510322" lon="-76.66529285584998"><ele>699.8</ele><time>2026-03-22T19:52:21.001Z</time></trkpt><trkpt lat="1.1463101633876642" lon="-76.66537758413644"><ele>701.5999999999999</ele><time>2026-03-22T19:52:22.001Z</time></trkpt><trkpt lat="1.14629682244608" lon="-76.66546547045475"><ele>703.4000000000001</ele><time>2026-03-22T19:52:23.001Z</time></trkpt><trkpt lat="1.146288413446536" lon="-76.66552869543403"><ele>705.2</ele><time>2026-03-22T19:52:24.001Z</time></trkpt><trkpt lat="1.1462694648054812" lon="-76.66565903557444"><ele>707.0</ele><time>2026-03-22T19:52:26.001Z</time></trkpt><trkpt lat="1.1462535667402436" lon="-76.66577356143819"><ele>707.0</ele><time>2026-03-22T19:52:28.001Z</time></trkpt><trkpt lat="1.1462089560436504" lon="-76.6658700686357"><ele>707.0</ele><time>2026-03-22T19:52:30.001Z</time></trkpt><trkpt lat="1.1461812857696387" lon="-76.66592936901964"><ele>707.0</ele><time>2026-03-22T19:52:31.001Z</time></trkpt><trkpt lat="1.1461537431823072" lon="-76.6659883957551"><ele>707.0</ele><time>2026-03-22T19:52:32.001Z</time></trkpt><trkpt lat="1.1461271150915797" lon="-76.66604546263159"><ele>707.0</ele><time>2026-03-22T19:52:33.001Z</time></trkpt><trkpt lat="1.1460974207446277" lon="-76.66610902131902"><ele>707.0</ele><time>2026-03-22T19:52:34.001Z</time></trkpt><trkpt lat="1.1460463580022566" lon="-76.66621918754896"><ele>708.0</ele><time>2026-03-22T19:52:36.001Z</time></trkpt><trkpt lat="1.1460308359386104" lon="-76.66629143760517"><ele>709.0</ele><time>2026-03-22T19:52:37.001Z</time></trkpt><trkpt lat="1.145997724988697" lon="-76.66634819126442"><ele>710.0</ele><time>2026-03-22T19:52:38.001Z</time></trkpt><trkpt lat="1.145933859651765" lon="-76.66645102810874"><ele>711.0</ele><time>2026-03-22T19:52:40.001Z</time></trkpt><trkpt lat="1.145889508026591" lon="-76.6665611041306"><ele>712.0</ele><time>2026-03-22T19:52:42Z</time></trkpt><trkpt lat="1.1458348575429373" lon="-76.66664842326854"><ele>712.0</ele><time>2026-03-22T19:52:44Z</time></trkpt><trkpt lat="1.1457818122932024" lon="-76.66677096403073"><ele>712.0</ele><time>2026-03-22T19:52:46Z</time></trkpt><trkpt lat="1.145766553063178" lon="-76.66683493009636"><ele>712.0</ele><time>2026-03-22T19:52:47Z</time></trkpt><trkpt lat="1.1457277352803006" lon="-76.66693831137812"><ele>712.0</ele><time>2026-03-22T19:52:49Z</time></trkpt><trkpt lat="1.1457583045158086" lon="-76.66701654455225"><ele>712.0</ele><time>2026-03-22T19:53:26Z</time></trkpt><trkpt lat="1.1457315196700013" lon="-76.66712839798923"><ele>712.5714285714286</ele><time>2026-03-22T19:53:29Z</time></trkpt><trkpt lat="1.1457217368545907" lon="-76.66721510317294"><ele>713.1428571428571</ele><time>2026-03-22T19:53:31Z</time></trkpt><trkpt lat="1.1457033260273817" lon="-76.66728382064599"><ele>713.7142857142858</ele><time>2026-03-22T19:53:32Z</time></trkpt><trkpt lat="1.1456754292632005" lon="-76.66735108708343"><ele>714.2857142857142</ele><time>2026-03-22T19:53:33Z</time></trkpt><trkpt lat="1.1456519378641974" lon="-76.6674210592448"><ele>714.8571428571429</ele><time>2026-03-22T19:53:34Z</time></trkpt><trkpt lat="1.145631871452253" lon="-76.66748843523474"><ele>715.4285714285714</ele><time>2026-03-22T19:53:35Z</time></trkpt><trkpt lat="1.145612348333276" lon="-76.66755580143086"><ele>716.0</ele><time>2026-03-22T19:53:36Z</time></trkpt><trkpt lat="1.1455976773855232" lon="-76.66762499305233"><ele>716.0</ele><time>2026-03-22T19:53:37Z</time></trkpt><trkpt lat="1.1455783003219793" lon="-76.66774744355449"><ele>716.0</ele><time>2026-03-22T19:53:39Z</time></trkpt><trkpt lat="1.1455656778710022" lon="-76.66787115154081"><ele>716.0</ele><time>2026-03-22T19:53:41Z</time></trkpt><trkpt lat="1.1455678291678009" lon="-76.66798773533193"><ele>716.0</ele><time>2026-03-22T19:53:43Z</time></trkpt><trkpt lat="1.1455681417836452" lon="-76.66810198260559"><ele>717.1666666666666</ele><time>2026-03-22T19:53:45.001Z</time></trkpt><trkpt lat="1.1455667762313415" lon="-76.66816591176392"><ele>718.3333333333333</ele><time>2026-03-22T19:53:46.001Z</time></trkpt><trkpt lat="1.1455568031384002" lon="-76.66823088878645"><ele>719.5</ele><time>2026-03-22T19:53:47.001Z</time></trkpt><trkpt lat="1.145534141276665" lon="-76.66831254602215"><ele>720.6666666666666</ele><time>2026-03-22T19:53:48.001Z</time></trkpt><trkpt lat="1.1455072863254043" lon="-76.66838998459522"><ele>721.8333333333334</ele><time>2026-03-22T19:53:49.001Z</time></trkpt><trkpt lat="1.145480808857115" lon="-76.66847578452206"><ele>723.0</ele><time>2026-03-22T19:53:50.001Z</time></trkpt><trkpt lat="1.1454478093784992" lon="-76.66856272858833"><ele>723.8</ele><time>2026-03-22T19:53:51.001Z</time></trkpt><trkpt lat="1.1454118176152184" lon="-76.6686631339656"><ele>724.5999999999999</ele><time>2026-03-22T19:53:52.001Z</time></trkpt><trkpt lat="1.1453835247842805" lon="-76.66875098469596"><ele>725.4000000000001</ele><time>2026-03-22T19:53:53.001Z</time></trkpt><trkpt lat="1.1453689327517353" lon="-76.66884629380131"><ele>726.2</ele><time>2026-03-22T19:53:54.001Z</time></trkpt><trkpt lat="1.1453490497119763" lon="-76.66892086676805"><ele>727.0</ele><time>2026-03-22T19:53:55.001Z</time></trkpt><trkpt lat="1.1453267004359167" lon="-76.66900512647167"><ele>727.0</ele><time>2026-03-22T19:53:56.001Z</time></trkpt><trkpt lat="1.1453033839165874" lon="-76.66909303281157"><ele>727.0</ele><time>2026-03-22T19:53:57.001Z</time></trkpt><trkpt lat="1.1452793392408007" lon="-76.66918287852091"><ele>727.0</ele><time>2026-03-22T19:53:58.001Z</time></trkpt><trkpt lat="1.1452388854849618" lon="-76.66926978572097"><ele>727.0</ele><time>2026-03-22T19:53:59.001Z</time></trkpt><trkpt lat="1.1452213723477829" lon="-76.66935488150175"><ele>727.0</ele><time>2026-03-22T19:54:00.001Z</time></trkpt><trkpt lat="1.1451982484202865" lon="-76.66944002496298"><ele>728.8333333333334</ele><time>2026-03-22T19:54:01.001Z</time></trkpt><trkpt lat="1.145178565873374" lon="-76.66952158977524"><ele>730.6666666666667</ele><time>2026-03-22T19:54:02.001Z</time></trkpt><trkpt lat="1.145161310105723" lon="-76.66960021345686"><ele>732.5</ele><time>2026-03-22T19:54:03.001Z</time></trkpt><trkpt lat="1.1451439223865834" lon="-76.66968043132967"><ele>734.3333333333334</ele><time>2026-03-22T19:54:04.001Z</time></trkpt><trkpt lat="1.1451259686060704" lon="-76.66975403987246"><ele>736.1666666666666</ele><time>2026-03-22T19:54:05.001Z</time></trkpt><trkpt lat="1.1451152844556023" lon="-76.66985842433986"><ele>738.0</ele><time>2026-03-22T19:54:07.001Z</time></trkpt><trkpt lat="1.1450856363442603" lon="-76.66996010588998"><ele>738.0</ele><time>2026-03-22T19:54:09.001Z</time></trkpt><trkpt lat="1.1450751675236512" lon="-76.67003192688323"><ele>738.0</ele><time>2026-03-22T19:54:11.001Z</time></trkpt><trkpt lat="1.145065936364047" lon="-76.67009525689636"><ele>738.0</ele><time>2026-03-22T19:54:14.001Z</time></trkpt><trkpt lat="1.1451450014227713" lon="-76.67007197490258"><ele>738.0</ele><time>2026-03-22T19:54:51Z</time></trkpt><trkpt lat="1.1451219057727982" lon="-76.67015292922329"><ele>738.0</ele><time>2026-03-22T19:54:53Z</time></trkpt><trkpt lat="1.1450835084277464" lon="-76.67024489351509"><ele>738.0</ele><time>2026-03-22T19:54:54Z</time></trkpt><trkpt lat="1.1450393224625088" lon="-76.67036293635215"><ele>738.1666666666666</ele><time>2026-03-22T19:54:55Z</time></trkpt><trkpt lat="1.144979432010982" lon="-76.67045334780516"><ele>738.3333333333334</ele><time>2026-03-22T19:54:56Z</time></trkpt><trkpt lat="1.1449038240540677" lon="-76.67052064739444"><ele>738.5</ele><time>2026-03-22T19:54:57Z</time></trkpt><trkpt lat="1.1448464512301428" lon="-76.67056789422116"><ele>738.6666666666667</ele><time>2026-03-22T19:54:58Z</time></trkpt><trkpt lat="1.1448011004012104" lon="-76.67061156999156"><ele>738.8333333333334</ele><time>2026-03-22T19:54:59Z</time></trkpt><trkpt lat="1.1447524673482252" lon="-76.67067281090178"><ele>739.0</ele><time>2026-03-22T19:55:00Z</time></trkpt><trkpt lat="1.1447033251143504" lon="-76.6707155915817"><ele>739.0</ele><time>2026-03-22T19:55:01Z</time></trkpt><trkpt lat="1.1446532555473006" lon="-76.67076206449387"><ele>739.0</ele><time>2026-03-22T19:55:02Z</time></trkpt><trkpt lat="1.144606834646411" lon="-76.6708155825951"><ele>739.0</ele><time>2026-03-22T19:55:03Z</time></trkpt><trkpt lat="1.1445436017936452" lon="-76.67087109042122"><ele>739.0</ele><time>2026-03-22T19:55:04Z</time></trkpt><trkpt lat="1.1444867830934613" lon="-76.67091947591489"><ele>739.0</ele><time>2026-03-22T19:55:05Z</time></trkpt><trkpt lat="1.144486468145986" lon="-76.6709981829677"><ele>739.0</ele><time>2026-03-22T19:55:06Z</time></trkpt><trkpt lat="1.144461232181574" lon="-76.67106570130727"><ele>739.0</ele><time>2026-03-22T19:55:07Z</time></trkpt><trkpt lat="1.1444202618978658" lon="-76.67112987595317"><ele>740.3333333333334</ele><time>2026-03-22T19:55:08Z</time></trkpt><trkpt lat="1.1444091832542675" lon="-76.67120669518042"><ele>741.6666666666667</ele><time>2026-03-22T19:55:09Z</time></trkpt><trkpt lat="1.144372401805288" lon="-76.67127639661051"><ele>743.0</ele><time>2026-03-22T19:55:10Z</time></trkpt><trkpt lat="1.1443530092974772" lon="-76.6713586170007"><ele>744.3333333333334</ele><time>2026-03-22T19:55:11Z</time></trkpt><trkpt lat="1.144306248812506" lon="-76.67142617127294"><ele>745.6666666666666</ele><time>2026-03-22T19:55:12Z</time></trkpt><trkpt lat="1.1442524543379229" lon="-76.67149055569458"><ele>747.0</ele><time>2026-03-22T19:55:13Z</time></trkpt><trkpt lat="1.144218011496204" lon="-76.67154440863864"><ele>747.0</ele><time>2026-03-22T19:55:14Z</time></trkpt><trkpt lat="1.1441565285204323" lon="-76.67158706627261"><ele>747.0</ele><time>2026-03-22T19:55:15Z</time></trkpt><trkpt lat="1.1440858480933576" lon="-76.67161954466835"><ele>747.0</ele><time>2026-03-22T19:55:16Z</time></trkpt><trkpt lat="1.1440161409186287" lon="-76.6716621941698"><ele>747.0</ele><time>2026-03-22T19:55:17Z</time></trkpt><trkpt lat="1.1439452438912971" lon="-76.67171614152694"><ele>747.0</ele><time>2026-03-22T19:55:18Z</time></trkpt><trkpt lat="1.1438566731440296" lon="-76.67177745861896"><ele>747.0</ele><time>2026-03-22T19:55:19Z</time></trkpt><trkpt lat="1.143775203015059" lon="-76.67184385063467"><ele>746.2</ele><time>2026-03-22T19:55:20Z</time></trkpt><trkpt lat="1.143708630218534" lon="-76.6719022760088"><ele>745.4000000000001</ele><time>2026-03-22T19:55:21Z</time></trkpt><trkpt lat="1.1436394337097848" lon="-76.67195375356944"><ele>744.5999999999999</ele><time>2026-03-22T19:55:22Z</time></trkpt><trkpt lat="1.1435620151745958" lon="-76.67203620677164"><ele>743.8</ele><time>2026-03-22T19:55:23Z</time></trkpt><trkpt lat="1.1435036685629216" lon="-76.67210430323719"><ele>743.0</ele><time>2026-03-22T19:55:24Z</time></trkpt><trkpt lat="1.1434441835728006" lon="-76.67217412736937"><ele>744.3333333333333</ele><time>2026-03-22T19:55:25Z</time></trkpt><trkpt lat="1.1433822203542525" lon="-76.67223725127131"><ele>745.6666666666666</ele><time>2026-03-22T19:55:26Z</time></trkpt><trkpt lat="1.1433265638711665" lon="-76.67230787798039"><ele>747.0</ele><time>2026-03-22T19:55:27Z</time></trkpt><trkpt lat="1.143270670928934" lon="-76.67238804010042"><ele>748.3333333333334</ele><time>2026-03-22T19:55:28Z</time></trkpt><trkpt lat="1.1432121467555914" lon="-76.67244892460185"><ele>749.6666666666667</ele><time>2026-03-22T19:55:29Z</time></trkpt><trkpt lat="1.1431531461360287" lon="-76.67250868340365"><ele>751.0</ele><time>2026-03-22T19:55:30Z</time></trkpt><trkpt lat="1.1430966335091515" lon="-76.67257182625188"><ele>751.0</ele><time>2026-03-22T19:55:31Z</time></trkpt><trkpt lat="1.1430367472662204" lon="-76.6726440995049"><ele>751.0</ele><time>2026-03-22T19:55:32Z</time></trkpt><trkpt lat="1.1430088665069658" lon="-76.67273482441804"><ele>751.0</ele><time>2026-03-22T19:55:33Z</time></trkpt><trkpt lat="1.142970635939367" lon="-76.67281679081371"><ele>751.0</ele><time>2026-03-22T19:55:34Z</time></trkpt><trkpt lat="1.1429680222925966" lon="-76.67289261647586"><ele>751.0</ele><time>2026-03-22T19:55:35Z</time></trkpt><trkpt lat="1.1429697287796428" lon="-76.67296987237407"><ele>751.0</ele><time>2026-03-22T19:55:36Z</time></trkpt><trkpt lat="1.1429697287785492" lon="-76.67306400714531"><ele>752.1999999999999</ele><time>2026-03-22T19:55:37Z</time></trkpt><trkpt lat="1.1429852590515124" lon="-76.6731315339836"><ele>753.4</ele><time>2026-03-22T19:55:38Z</time></trkpt><trkpt lat="1.142995842914109" lon="-76.67322045825591"><ele>754.6</ele><time>2026-03-22T19:55:39Z</time></trkpt><trkpt lat="1.1430047508013785" lon="-76.67329586333433"><ele>755.8</ele><time>2026-03-22T19:55:40Z</time></trkpt><trkpt lat="1.1430160453182112" lon="-76.67339151998333"><ele>757.0</ele><time>2026-03-22T19:55:41Z</time></trkpt><trkpt lat="1.1430089653372966" lon="-76.67351262394374"><ele>757.0</ele><time>2026-03-22T19:55:42Z</time></trkpt><trkpt lat="1.1429986784620632" lon="-76.6736008243696"><ele>757.0</ele><time>2026-03-22T19:55:43Z</time></trkpt><trkpt lat="1.1429803258098152" lon="-76.67367769570379"><ele>757.0</ele><time>2026-03-22T19:55:44Z</time></trkpt><trkpt lat="1.1429927033580756" lon="-76.67375017521354"><ele>757.0</ele><time>2026-03-22T19:55:45Z</time></trkpt><trkpt lat="1.1430015245727028" lon="-76.67381737415306"><ele>757.0</ele><time>2026-03-22T19:55:46Z</time></trkpt><trkpt lat="1.14302771370656" lon="-76.67392764525482"><ele>757.0</ele><time>2026-03-22T19:55:48Z</time></trkpt><trkpt lat="1.1430554841479108" lon="-76.67401869192558"><ele>760.1666666666667</ele><time>2026-03-22T19:55:50Z</time></trkpt><trkpt lat="1.1430735148636895" lon="-76.67409184457401"><ele>763.3333333333334</ele><time>2026-03-22T19:55:52Z</time></trkpt><trkpt lat="1.1430836901727741" lon="-76.6741846327108"><ele>766.5</ele><time>2026-03-22T19:55:54Z</time></trkpt><trkpt lat="1.1431185816735503" lon="-76.67425606251065"><ele>769.6666666666667</ele><time>2026-03-22T19:55:57Z</time></trkpt><trkpt lat="1.1430791389666695" lon="-76.67430930905115"><ele>772.8333333333334</ele><time>2026-03-22T19:56:42Z</time></trkpt><trkpt lat="1.1430238304397196" lon="-76.6744025671596"><ele>776.0</ele><time>2026-03-22T19:56:44Z</time></trkpt><trkpt lat="1.1429689387550581" lon="-76.67449332078833"><ele>775.3333333333334</ele><time>2026-03-22T19:56:46Z</time></trkpt><trkpt lat="1.14299684012983" lon="-76.67459344296131"><ele>774.6666666666667</ele><time>2026-03-22T19:56:48Z</time></trkpt><trkpt lat="1.1430457665636005" lon="-76.67469376956828"><ele>774.0</ele><time>2026-03-22T19:56:50Z</time></trkpt><trkpt lat="1.1430759747841912" lon="-76.67475125283698"><ele>773.3333333333333</ele><time>2026-03-22T19:56:51Z</time></trkpt><trkpt lat="1.1431174157092225" lon="-76.67480524314658"><ele>772.6666666666666</ele><time>2026-03-22T19:56:52Z</time></trkpt><trkpt lat="1.1431630333824754" lon="-76.67486127616588"><ele>772.0</ele><time>2026-03-22T19:56:53Z</time></trkpt><trkpt lat="1.1432207163636863" lon="-76.6749091325432"><ele>771.9999999999999</ele><time>2026-03-22T19:56:54Z</time></trkpt><trkpt lat="1.1432702129283292" lon="-76.67495053924095"><ele>772.0</ele><time>2026-03-22T19:56:55Z</time></trkpt><trkpt lat="1.1433143741466536" lon="-76.67500918628288"><ele>772.0</ele><time>2026-03-22T19:56:56Z</time></trkpt><trkpt lat="1.1433574132653144" lon="-76.67506269760325"><ele>772.0</ele><time>2026-03-22T19:56:57Z</time></trkpt><trkpt lat="1.1433970914349507" lon="-76.67511835304556"><ele>771.9999999999999</ele><time>2026-03-22T19:56:58Z</time></trkpt><trkpt lat="1.1434361644122604" lon="-76.6751731628704"><ele>772.0</ele><time>2026-03-22T19:56:59Z</time></trkpt><trkpt lat="1.1434882243606193" lon="-76.67528353150153"><ele>774.8</ele><time>2026-03-22T19:57:01Z</time></trkpt><trkpt lat="1.1435496494132609" lon="-76.67538448890885"><ele>777.6</ele><time>2026-03-22T19:57:03Z</time></trkpt><trkpt lat="1.143616001443195" lon="-76.67547902603127"><ele>780.4</ele><time>2026-03-22T19:57:05Z</time></trkpt><trkpt lat="1.1436457182918855" lon="-76.67554186477432"><ele>783.1999999999999</ele><time>2026-03-22T19:57:06Z</time></trkpt><trkpt lat="1.1436730496011693" lon="-76.67560555996101"><ele>786.0</ele><time>2026-03-22T19:57:07Z</time></trkpt><trkpt lat="1.143709215195945" lon="-76.67569206828537"><ele>786.0</ele><time>2026-03-22T19:57:09Z</time></trkpt><trkpt lat="1.1437018322900185" lon="-76.67576376549286"><ele>786.0</ele><time>2026-03-22T19:57:13Z</time></trkpt><trkpt lat="1.1437801263500862" lon="-76.6758522440495"><ele>786.0</ele><time>2026-03-22T19:57:19Z</time></trkpt><trkpt lat="1.1438281898397888" lon="-76.67592734448002"><ele>786.0</ele><time>2026-03-22T19:57:20Z</time></trkpt><trkpt lat="1.1438660979588962" lon="-76.6760211583299"><ele>786.0</ele><time>2026-03-22T19:57:21Z</time></trkpt><trkpt lat="1.1439140874559899" lon="-76.67609328949057"><ele>788.1999999999999</ele><time>2026-03-22T19:57:22Z</time></trkpt><trkpt lat="1.1439664253424282" lon="-76.67616805083571"><ele>790.4</ele><time>2026-03-22T19:57:23Z</time></trkpt><trkpt lat="1.1440339543251243" lon="-76.67624321174222"><ele>792.6</ele><time>2026-03-22T19:57:24Z</time></trkpt><trkpt lat="1.1441329131743596" lon="-76.67629844724063"><ele>794.8</ele><time>2026-03-22T19:57:25Z</time></trkpt><trkpt lat="1.1442326483296867" lon="-76.67635729839294"><ele>797.0</ele><time>2026-03-22T19:57:26Z</time></trkpt><trkpt lat="1.144307722024234" lon="-76.67644843034175"><ele>797.0</ele><time>2026-03-22T19:57:27Z</time></trkpt><trkpt lat="1.1443801038010604" lon="-76.67654206353244"><ele>797.0</ele><time>2026-03-22T19:57:28Z</time></trkpt><trkpt lat="1.1444723695532049" lon="-76.67667790463555"><ele>797.0</ele><time>2026-03-22T19:57:29Z</time></trkpt><trkpt lat="1.144574862205844" lon="-76.6767984799877"><ele>797.0</ele><time>2026-03-22T19:57:30Z</time></trkpt><trkpt lat="1.1446716923941576" lon="-76.67692785432398"><ele>800.25</ele><time>2026-03-22T19:57:31Z</time></trkpt><trkpt lat="1.1447457904418887" lon="-76.67706751037045"><ele>803.5</ele><time>2026-03-22T19:57:32Z</time></trkpt><trkpt lat="1.1448064296024454" lon="-76.67719884866142"><ele>806.75</ele><time>2026-03-22T19:57:33Z</time></trkpt><trkpt lat="1.1448341696729114" lon="-76.67733742697327"><ele>810.0</ele><time>2026-03-22T19:57:34Z</time></trkpt><trkpt lat="1.1448678368670078" lon="-76.67749280717243"><ele>807.5</ele><time>2026-03-22T19:57:35Z</time></trkpt><trkpt lat="1.144891427755054" lon="-76.67762015145311"><ele>805.0</ele><time>2026-03-22T19:57:36Z</time></trkpt><trkpt lat="1.1449247400309377" lon="-76.67775487312281"><ele>802.5</ele><time>2026-03-22T19:57:37Z</time></trkpt><trkpt lat="1.1449786276677247" lon="-76.67785834810029"><ele>800.0</ele><time>2026-03-22T19:57:38Z</time></trkpt><trkpt lat="1.145061994916511" lon="-76.67798212817263"><ele>805.0</ele><time>2026-03-22T19:57:39Z</time></trkpt><trkpt lat="1.145125299411874" lon="-76.67809909807225"><ele>810.0</ele><time>2026-03-22T19:57:40Z</time></trkpt><trkpt lat="1.1451759530529764" lon="-76.67820185049096"><ele>815.0</ele><time>2026-03-22T19:57:41Z</time></trkpt><trkpt lat="1.1452079088497118" lon="-76.67826922063422"><ele>820.0</ele><time>2026-03-22T19:57:42Z</time></trkpt><trkpt lat="1.1451732740972345" lon="-76.67839186452285"><ele>825.0</ele><time>2026-03-22T19:57:44Z</time></trkpt><trkpt lat="1.1451144394002966" lon="-76.67842667270209"><ele>825.0</ele><time>2026-03-22T19:57:45Z</time></trkpt><trkpt lat="1.1450495512811054" lon="-76.6784227051904"><ele>825.0</ele><time>2026-03-22T19:57:46Z</time></trkpt><trkpt lat="1.1449478667708295" lon="-76.67836745459896"><ele>825.0</ele><time>2026-03-22T19:57:47Z</time></trkpt><trkpt lat="1.1448364018398414" lon="-76.67832667552693"><ele>825.0</ele><time>2026-03-22T19:57:48Z</time></trkpt><trkpt lat="1.1447044147627454" lon="-76.67826861284796"><ele>825.0</ele><time>2026-03-22T19:57:49Z</time></trkpt><trkpt lat="1.1445809734731804" lon="-76.67825285773175"><ele>825.8333333333334</ele><time>2026-03-22T19:57:50Z</time></trkpt><trkpt lat="1.1444723873579745" lon="-76.67824073019594"><ele>826.6666666666667</ele><time>2026-03-22T19:57:51Z</time></trkpt><trkpt lat="1.1443908138568417" lon="-76.67823800646066"><ele>827.5</ele><time>2026-03-22T19:57:52Z</time></trkpt><trkpt lat="1.144359803072218" lon="-76.67831456111672"><ele>828.3333333333334</ele><time>2026-03-22T19:57:55Z</time></trkpt><trkpt lat="1.1444106514353543" lon="-76.6783927661683"><ele>829.1666666666667</ele><time>2026-03-22T19:57:57Z</time></trkpt><trkpt lat="1.1444698052626723" lon="-76.6784394462427"><ele>830.0</ele><time>2026-03-22T19:57:58Z</time></trkpt><trkpt lat="1.144572773942219" lon="-76.67850741848113"><ele>835.3333333333334</ele><time>2026-03-22T19:57:59Z</time></trkpt><trkpt lat="1.144699907783739" lon="-76.67860927564591"><ele>840.6666666666667</ele><time>2026-03-22T19:58:00Z</time></trkpt><trkpt lat="1.144812417086831" lon="-76.67869105749038"><ele>846.0</ele><time>2026-03-22T19:58:01Z</time></trkpt><trkpt lat="1.1449521774717575" lon="-76.67880757893049"><ele>846.0</ele><time>2026-03-22T19:58:02Z</time></trkpt><trkpt lat="1.1450831447846437" lon="-76.67892638784384"><ele>846.0</ele><time>2026-03-22T19:58:03Z</time></trkpt><trkpt lat="1.145184988702148" lon="-76.67902377410853"><ele>846.0</ele><time>2026-03-22T19:58:04Z</time></trkpt><trkpt lat="1.1453274862963019" lon="-76.67914885846861"><ele>846.0</ele><time>2026-03-22T19:58:05Z</time></trkpt><trkpt lat="1.145417315108624" lon="-76.67925375798424"><ele>846.0</ele><time>2026-03-22T19:58:06Z</time></trkpt><trkpt lat="1.1454554366547316" lon="-76.67934321122223"><ele>846.0</ele><time>2026-03-22T19:58:07Z</time></trkpt><trkpt lat="1.1454683873495828" lon="-76.67943385395985"><ele>846.0</ele><time>2026-03-22T19:58:08Z</time></trkpt><trkpt lat="1.1454876674597723" lon="-76.67952046033264"><ele>846.0</ele><time>2026-03-22T19:58:09Z</time></trkpt><trkpt lat="1.1455092618703018" lon="-76.6796087958944"><ele>848.6666666666666</ele><time>2026-03-22T19:58:10Z</time></trkpt><trkpt lat="1.1455401653170305" lon="-76.6796921962268"><ele>851.3333333333333</ele><time>2026-03-22T19:58:11Z</time></trkpt><trkpt lat="1.1455755305055335" lon="-76.67976275922375"><ele>854.0</ele><time>2026-03-22T19:58:12Z</time></trkpt><trkpt lat="1.1456262172013532" lon="-76.67982467230678"><ele>856.6666666666666</ele><time>2026-03-22T19:58:13Z</time></trkpt><trkpt lat="1.1456692226621557" lon="-76.6798812253232"><ele>859.3333333333333</ele><time>2026-03-22T19:58:14Z</time></trkpt><trkpt lat="1.1457181797712288" lon="-76.67999683868621"><ele>862.0</ele><time>2026-03-22T19:58:16Z</time></trkpt><trkpt lat="1.145763118293481" lon="-76.6800902590119"><ele>862.0</ele><time>2026-03-22T19:58:18Z</time></trkpt><trkpt lat="1.145879875630921" lon="-76.68013055347262"><ele>862.0</ele><time>2026-03-22T19:58:20Z</time></trkpt><trkpt lat="1.1460043355402" lon="-76.68017674152851"><ele>862.0</ele><time>2026-03-22T19:58:22Z</time></trkpt><trkpt lat="1.1460601387946474" lon="-76.68022688717839"><ele>862.0</ele><time>2026-03-22T19:58:23Z</time></trkpt><trkpt lat="1.14611267301351" lon="-76.68026882876357"><ele>862.0</ele><time>2026-03-22T19:58:24Z</time></trkpt><trkpt lat="1.1461700982630074" lon="-76.68032588821043"><ele>867.1666666666666</ele><time>2026-03-22T19:58:25Z</time></trkpt><trkpt lat="1.1462240558048422" lon="-76.68038493561423"><ele>872.3333333333333</ele><time>2026-03-22T19:58:26Z</time></trkpt><trkpt lat="1.1462836303043602" lon="-76.68043622890363"><ele>877.5</ele><time>2026-03-22T19:58:27Z</time></trkpt><trkpt lat="1.1463480813325215" lon="-76.68049127899828"><ele>882.6666666666667</ele><time>2026-03-22T19:58:28Z</time></trkpt><trkpt lat="1.1463923177474908" lon="-76.68056512212961"><ele>887.8333333333334</ele><time>2026-03-22T19:58:29Z</time></trkpt><trkpt lat="1.146441062695094" lon="-76.68062401416056"><ele>893.0</ele><time>2026-03-22T19:58:30Z</time></trkpt><trkpt lat="1.1464931018240228" lon="-76.6806804973608"><ele>891.4285714285714</ele><time>2026-03-22T19:58:31Z</time></trkpt><trkpt lat="1.1465595939239839" lon="-76.68072171103998"><ele>889.8571428571429</ele><time>2026-03-22T19:58:32Z</time></trkpt><trkpt lat="1.1466097587377928" lon="-76.6807683258022"><ele>888.2857142857142</ele><time>2026-03-22T19:58:33Z</time></trkpt><trkpt lat="1.1466507335084766" lon="-76.68082475476857"><ele>886.7142857142858</ele><time>2026-03-22T19:58:34Z</time></trkpt><trkpt lat="1.146699049572006" lon="-76.68088679961446"><ele>885.1428571428571</ele><time>2026-03-22T19:58:35Z</time></trkpt><trkpt lat="1.1467413092106822" lon="-76.68093827277792"><ele>883.5714285714286</ele><time>2026-03-22T19:58:36Z</time></trkpt><trkpt lat="1.1467638125000323" lon="-76.68101454321634"><ele>882.0</ele><time>2026-03-22T19:58:37Z</time></trkpt><trkpt lat="1.1467799535310017" lon="-76.68109665537784"><ele>886.6666666666666</ele><time>2026-03-22T19:58:38Z</time></trkpt><trkpt lat="1.1467918733763551" lon="-76.68118573445958"><ele>891.3333333333333</ele><time>2026-03-22T19:58:39Z</time></trkpt><trkpt lat="1.146812489620202" lon="-76.68126724075"><ele>896.0</ele><time>2026-03-22T19:58:40Z</time></trkpt><trkpt lat="1.1468393948440045" lon="-76.68135970761286"><ele>900.6666666666666</ele><time>2026-03-22T19:58:41Z</time></trkpt><trkpt lat="1.1468704896745812" lon="-76.68144894488246"><ele>905.3333333333333</ele><time>2026-03-22T19:58:42Z</time></trkpt><trkpt lat="1.1469014385771723" lon="-76.68152115575255"><ele>910.0</ele><time>2026-03-22T19:58:43Z</time></trkpt><trkpt lat="1.1469523328593538" lon="-76.68158764648423"><ele>909.9999999999999</ele><time>2026-03-22T19:58:44Z</time></trkpt><trkpt lat="1.147020581932328" lon="-76.68164905938528"><ele>910.0</ele><time>2026-03-22T19:58:45Z</time></trkpt><trkpt lat="1.1470976879490677" lon="-76.68168705556278"><ele>910.0</ele><time>2026-03-22T19:58:46Z</time></trkpt><trkpt lat="1.1471505557938075" lon="-76.6817298730839"><ele>910.0</ele><time>2026-03-22T19:58:47Z</time></trkpt><trkpt lat="1.1472269858973925" lon="-76.68177434514095"><ele>909.9999999999999</ele><time>2026-03-22T19:58:48Z</time></trkpt><trkpt lat="1.147310425099371" lon="-76.681838067914"><ele>910.0</ele><time>2026-03-22T19:58:49Z</time></trkpt><trkpt lat="1.147370883690092" lon="-76.68191483344981"><ele>908.6</ele><time>2026-03-22T19:58:50Z</time></trkpt><trkpt lat="1.1474412252606103" lon="-76.68195832206166"><ele>907.2</ele><time>2026-03-22T19:58:51Z</time></trkpt><trkpt lat="1.1475184838539527" lon="-76.68200653573875"><ele>905.8</ele><time>2026-03-22T19:58:52Z</time></trkpt><trkpt lat="1.147581052114837" lon="-76.68205602306875"><ele>904.4</ele><time>2026-03-22T19:58:53Z</time></trkpt><trkpt lat="1.1476779034413531" lon="-76.68211300115605"><ele>903.0</ele><time>2026-03-22T19:58:55Z</time></trkpt><trkpt lat="1.147611199546614" lon="-76.6821667437924"><ele>903.0</ele><time>2026-03-22T19:58:58Z</time></trkpt><trkpt lat="1.1474893699978" lon="-76.68213072313124"><ele>903.0</ele><time>2026-03-22T19:59:00Z</time></trkpt><trkpt lat="1.1474122619023437" lon="-76.68210959641011"><ele>903.0</ele><time>2026-03-22T19:59:01Z</time></trkpt><trkpt lat="1.1473427792979811" lon="-76.68208754616381"><ele>903.0</ele><time>2026-03-22T19:59:02Z</time></trkpt><trkpt lat="1.1472763498954044" lon="-76.682081029217"><ele>903.0</ele><time>2026-03-22T19:59:03Z</time></trkpt><trkpt lat="1.1471789935836623" lon="-76.68205629107767"><ele>903.0</ele><time>2026-03-22T19:59:04Z</time></trkpt><trkpt lat="1.1470868494871103" lon="-76.68201968736697"><ele>904.4</ele><time>2026-03-22T19:59:05Z</time></trkpt><trkpt lat="1.1469747399503938" lon="-76.68198069613535"><ele>905.8</ele><time>2026-03-22T19:59:06Z</time></trkpt><trkpt lat="1.146871622891039" lon="-76.68194328523167"><ele>907.2</ele><time>2026-03-22T19:59:07Z</time></trkpt><trkpt lat="1.146763883511556" lon="-76.68191726538727"><ele>908.6</ele><time>2026-03-22T19:59:08Z</time></trkpt><trkpt lat="1.146661388238583" lon="-76.68187883754733"><ele>910.0</ele><time>2026-03-22T19:59:09Z</time></trkpt><trkpt lat="1.1465597180579952" lon="-76.68184994289899"><ele>912.0</ele><time>2026-03-22T19:59:10Z</time></trkpt><trkpt lat="1.1464669106542427" lon="-76.68181632654883"><ele>914.0</ele><time>2026-03-22T19:59:11Z</time></trkpt><trkpt lat="1.1463838813503375" lon="-76.681792341225"><ele>916.0</ele><time>2026-03-22T19:59:12Z</time></trkpt><trkpt lat="1.1463035093438962" lon="-76.68176570318872"><ele>918.0</ele><time>2026-03-22T19:59:13Z</time></trkpt><trkpt lat="1.1462138803084583" lon="-76.68174663603934"><ele>920.0</ele><time>2026-03-22T19:59:14Z</time></trkpt><trkpt lat="1.1461254919010244" lon="-76.68172169525207"><ele>920.0</ele><time>2026-03-22T19:59:15Z</time></trkpt><trkpt lat="1.1460370980826557" lon="-76.68170664700226"><ele>920.0</ele><time>2026-03-22T19:59:16Z</time></trkpt><trkpt lat="1.145937433020079" lon="-76.68170422370528"><ele>920.0</ele><time>2026-03-22T19:59:17Z</time></trkpt><trkpt lat="1.1458357829904606" lon="-76.68169875994273"><ele>920.0</ele><time>2026-03-22T19:59:18Z</time></trkpt><trkpt lat="1.1457410776524062" lon="-76.68167359579891"><ele>920.0</ele><time>2026-03-22T19:59:19Z</time></trkpt><trkpt lat="1.1456321732524253" lon="-76.68166076884316"><ele>922.6</ele><time>2026-03-22T19:59:20Z</time></trkpt><trkpt lat="1.145550110123218" lon="-76.68165166538479"><ele>925.2</ele><time>2026-03-22T19:59:21Z</time></trkpt><trkpt lat="1.1454666887856466" lon="-76.68166454676357"><ele>927.8</ele><time>2026-03-22T19:59:22Z</time></trkpt><trkpt lat="1.1453691793537177" lon="-76.68169676865945"><ele>930.4</ele><time>2026-03-22T19:59:23Z</time></trkpt><trkpt lat="1.145264665816208" lon="-76.68168590263187"><ele>933.0</ele><time>2026-03-22T19:59:24Z</time></trkpt><trkpt lat="1.1451636077509246" lon="-76.68166440411032"><ele>933.0</ele><time>2026-03-22T19:59:25Z</time></trkpt><trkpt lat="1.1450669887980964" lon="-76.68162741234055"><ele>933.0</ele><time>2026-03-22T19:59:26Z</time></trkpt><trkpt lat="1.144960483047515" lon="-76.68160072485935"><ele>933.0</ele><time>2026-03-22T19:59:27Z</time></trkpt><trkpt lat="1.1448557654963807" lon="-76.6815714067233"><ele>933.0</ele><time>2026-03-22T19:59:28Z</time></trkpt><trkpt lat="1.1447560847209162" lon="-76.68155472597226"><ele>933.0</ele><time>2026-03-22T19:59:29Z</time></trkpt><trkpt lat="1.1446665442677317" lon="-76.68154668956849"><ele>934.4</ele><time>2026-03-22T19:59:30Z</time></trkpt><trkpt lat="1.1445713301011546" lon="-76.68154555052026"><ele>935.8</ele><time>2026-03-22T19:59:31Z</time></trkpt><trkpt lat="1.1444653869412007" lon="-76.68154950975759"><ele>937.2</ele><time>2026-03-22T19:59:32Z</time></trkpt><trkpt lat="1.1443643957050842" lon="-76.68154464772958"><ele>938.6</ele><time>2026-03-22T19:59:33Z</time></trkpt><trkpt lat="1.1442681688868328" lon="-76.6815528699648"><ele>940.0</ele><time>2026-03-22T19:59:34Z</time></trkpt><trkpt lat="1.1441833574228408" lon="-76.68156785635624"><ele>939.9999999999999</ele><time>2026-03-22T19:59:35Z</time></trkpt><trkpt lat="1.1440988511166026" lon="-76.68157910170916"><ele>940.0</ele><time>2026-03-22T19:59:36Z</time></trkpt><trkpt lat="1.144011772288171" lon="-76.681599697472"><ele>940.0</ele><time>2026-03-22T19:59:37Z</time></trkpt><trkpt lat="1.1439232296776134" lon="-76.68161392839629"><ele>940.0</ele><time>2026-03-22T19:59:38Z</time></trkpt><trkpt lat="1.1438291750638776" lon="-76.68163094334743"><ele>939.9999999999999</ele><time>2026-03-22T19:59:39Z</time></trkpt><trkpt lat="1.1437600240362427" lon="-76.6816603946475"><ele>940.0</ele><time>2026-03-22T19:59:40Z</time></trkpt><trkpt lat="1.1437167618769855" lon="-76.68170786089945"><ele>939.8333333333333</ele><time>2026-03-22T19:59:41Z</time></trkpt><trkpt lat="1.1437084226621161" lon="-76.68177412308076"><ele>939.6666666666666</ele><time>2026-03-22T19:59:42Z</time></trkpt><trkpt lat="1.1437306591814578" lon="-76.68185056755055"><ele>939.5</ele><time>2026-03-22T19:59:43Z</time></trkpt><trkpt lat="1.1437571256459538" lon="-76.68192517546397"><ele>939.3333333333333</ele><time>2026-03-22T19:59:44Z</time></trkpt><trkpt lat="1.143797356725858" lon="-76.68199531013374"><ele>939.1666666666666</ele><time>2026-03-22T19:59:45Z</time></trkpt><trkpt lat="1.1438505172639717" lon="-76.68210662675817"><ele>939.0</ele><time>2026-03-22T19:59:46Z</time></trkpt><trkpt lat="1.143911052379938" lon="-76.68220109534009"><ele>939.0</ele><time>2026-03-22T19:59:47Z</time></trkpt><trkpt lat="1.1439572742877788" lon="-76.68228392637545"><ele>939.0</ele><time>2026-03-22T19:59:48Z</time></trkpt><trkpt lat="1.1439981700501138" lon="-76.68235383186048"><ele>939.0</ele><time>2026-03-22T19:59:49Z</time></trkpt><trkpt lat="1.14402541334525" lon="-76.68241622148032"><ele>939.0</ele><time>2026-03-22T19:59:50Z</time></trkpt><trkpt lat="1.1440683266525344" lon="-76.68249305253863"><ele>939.0</ele><time>2026-03-22T19:59:51Z</time></trkpt><trkpt lat="1.1441070624818535" lon="-76.68254634496374"><ele>939.0</ele><time>2026-03-22T19:59:52Z</time></trkpt><trkpt lat="1.1441787304906719" lon="-76.68261851849654"><ele>938.6</ele><time>2026-03-22T19:59:54Z</time></trkpt><trkpt lat="1.1442409943753107" lon="-76.6827024937981"><ele>938.2</ele><time>2026-03-22T19:59:57Z</time></trkpt><trkpt lat="1.1442892071998754" lon="-76.68278088613451"><ele>937.8000000000001</ele><time>2026-03-22T19:59:59Z</time></trkpt><trkpt lat="1.1443434368625902" lon="-76.68284767347289"><ele>937.4000000000001</ele><time>2026-03-22T20:00:01Z</time></trkpt><trkpt lat="1.144403555142864" lon="-76.68292300103595"><ele>937.0</ele><time>2026-03-22T20:00:03.001Z</time></trkpt><trkpt lat="1.1444772539411887" lon="-76.68298466267974"><ele>936.9999999999999</ele><time>2026-03-22T20:00:05.001Z</time></trkpt><trkpt lat="1.1445279885065476" lon="-76.68305026673767"><ele>937.0</ele><time>2026-03-22T20:00:07.001Z</time></trkpt><trkpt lat="1.144577009903898" lon="-76.68313850878164"><ele>937.0</ele><time>2026-03-22T20:00:09.001Z</time></trkpt><trkpt lat="1.144608057739191" lon="-76.68324847656176"><ele>937.0</ele><time>2026-03-22T20:00:11Z</time></trkpt><trkpt lat="1.1446205069013176" lon="-76.68331478121301"><ele>936.9999999999999</ele><time>2026-03-22T20:00:12Z</time></trkpt><trkpt lat="1.144634377657101" lon="-76.68338689725003"><ele>937.0</ele><time>2026-03-22T20:00:13Z</time></trkpt><trkpt lat="1.1446789770398256" lon="-76.683447973969"><ele>937.0</ele><time>2026-03-22T20:00:14Z</time></trkpt><trkpt lat="1.1447079095477832" lon="-76.68350781536832"><ele>937.0</ele><time>2026-03-22T20:00:15Z</time></trkpt><trkpt lat="1.1447452953987667" lon="-76.68362824583927"><ele>937.0</ele><time>2026-03-22T20:00:17Z</time></trkpt><trkpt lat="1.1447547133148528" lon="-76.68376262969957"><ele>937.0</ele><time>2026-03-22T20:00:19Z</time></trkpt><trkpt lat="1.1447564973542306" lon="-76.68384840717077"><ele>937.0</ele><time>2026-03-22T20:00:20Z</time></trkpt><trkpt lat="1.1447455375443865" lon="-76.68392358314324"><ele>935.4999999999999</ele><time>2026-03-22T20:00:21Z</time></trkpt><trkpt lat="1.1447163613582212" lon="-76.68401705773874"><ele>934.0</ele><time>2026-03-22T20:00:22Z</time></trkpt><trkpt lat="1.1446858597415916" lon="-76.68408416669452"><ele>932.5</ele><time>2026-03-22T20:00:23Z</time></trkpt><trkpt lat="1.1446639905110025" lon="-76.68415460734617"><ele>931.0</ele><time>2026-03-22T20:00:24Z</time></trkpt><trkpt lat="1.1446418155819216" lon="-76.68423442676578"><ele>929.4999999999999</ele><time>2026-03-22T20:00:25Z</time></trkpt><trkpt lat="1.1446139830157978" lon="-76.68430042971632"><ele>928.0</ele><time>2026-03-22T20:00:26Z</time></trkpt><trkpt lat="1.1445851487303969" lon="-76.68438678523192"><ele>928.2</ele><time>2026-03-22T20:00:27Z</time></trkpt><trkpt lat="1.1445599910035256" lon="-76.68447688152335"><ele>928.4</ele><time>2026-03-22T20:00:28Z</time></trkpt><trkpt lat="1.1445370237883945" lon="-76.68457107959968"><ele>928.6000000000001</ele><time>2026-03-22T20:00:29Z</time></trkpt><trkpt lat="1.1445260555344277" lon="-76.68467732257669"><ele>928.8000000000001</ele><time>2026-03-22T20:00:30Z</time></trkpt><trkpt lat="1.1445210599496562" lon="-76.68478148271899"><ele>929.0</ele><time>2026-03-22T20:00:31Z</time></trkpt><trkpt lat="1.1445309087987594" lon="-76.68487572542884"><ele>929.0000000000001</ele><time>2026-03-22T20:00:32Z</time></trkpt><trkpt lat="1.1445415442542177" lon="-76.68496668164305"><ele>929.0</ele><time>2026-03-22T20:00:33Z</time></trkpt><trkpt lat="1.1445507671492035" lon="-76.68506111832403"><ele>929.0</ele><time>2026-03-22T20:00:34Z</time></trkpt><trkpt lat="1.144535052715859" lon="-76.6851402472108"><ele>929.0</ele><time>2026-03-22T20:00:35Z</time></trkpt><trkpt lat="1.144498932904536" lon="-76.6852203877335"><ele>929.0000000000001</ele><time>2026-03-22T20:00:36Z</time></trkpt><trkpt lat="1.1444586418822484" lon="-76.68528033334346"><ele>929.0</ele><time>2026-03-22T20:00:37Z</time></trkpt><trkpt lat="1.1444040405953166" lon="-76.68534402814215"><ele>928.6666666666667</ele><time>2026-03-22T20:00:38Z</time></trkpt><trkpt lat="1.144339782832635" lon="-76.68539865278385"><ele>928.3333333333334</ele><time>2026-03-22T20:00:39Z</time></trkpt><trkpt lat="1.1442761422926262" lon="-76.68545858276366"><ele>928.0</ele><time>2026-03-22T20:00:40Z</time></trkpt><trkpt lat="1.1442033965831815" lon="-76.6855023695756"><ele>927.6666666666667</ele><time>2026-03-22T20:00:41Z</time></trkpt><trkpt lat="1.1441330859956267" lon="-76.68554855657004"><ele>927.3333333333334</ele><time>2026-03-22T20:00:42Z</time></trkpt><trkpt lat="1.1440579410997609" lon="-76.68559084885149"><ele>927.0</ele><time>2026-03-22T20:00:43Z</time></trkpt><trkpt lat="1.1439787604880747" lon="-76.68562770455648"><ele>927.0</ele><time>2026-03-22T20:00:44Z</time></trkpt><trkpt lat="1.143907031410902" lon="-76.68564634373118"><ele>927.0</ele><time>2026-03-22T20:00:45Z</time></trkpt><trkpt lat="1.1438288343929908" lon="-76.68566247741192"><ele>927.0</ele><time>2026-03-22T20:00:46Z</time></trkpt><trkpt lat="1.1437493347118337" lon="-76.68566980659907"><ele>927.0</ele><time>2026-03-22T20:00:47Z</time></trkpt><trkpt lat="1.14366341401832" lon="-76.68568146531516"><ele>927.0</ele><time>2026-03-22T20:00:48Z</time></trkpt><trkpt lat="1.1435719957250612" lon="-76.68570060347123"><ele>927.0</ele><time>2026-03-22T20:00:49Z</time></trkpt><trkpt lat="1.1434741831273183" lon="-76.68572828316466"><ele>927.0</ele><time>2026-03-22T20:00:50Z</time></trkpt><trkpt lat="1.1433869794559597" lon="-76.68575032327254"><ele>927.0</ele><time>2026-03-22T20:00:51Z</time></trkpt><trkpt lat="1.1433035911308416" lon="-76.68576922758466"><ele>927.0</ele><time>2026-03-22T20:00:52Z</time></trkpt><trkpt lat="1.1432161484682544" lon="-76.68576867486023"><ele>927.0</ele><time>2026-03-22T20:00:53Z</time></trkpt><trkpt lat="1.1431417425418406" lon="-76.68578304609959"><ele>927.0</ele><time>2026-03-22T20:00:54Z</time></trkpt><trkpt lat="1.1430742551911843" lon="-76.68579608103914"><ele>927.0</ele><time>2026-03-22T20:00:55Z</time></trkpt><trkpt lat="1.1430064121190688" lon="-76.68580918468786"><ele>926.3333333333334</ele><time>2026-03-22T20:00:56Z</time></trkpt><trkpt lat="1.1429426641606852" lon="-76.68582121663187"><ele>925.6666666666667</ele><time>2026-03-22T20:00:57Z</time></trkpt><trkpt lat="1.1428756514996117" lon="-76.6858346155726"><ele>925.0</ele><time>2026-03-22T20:00:58Z</time></trkpt><trkpt lat="1.1428190567493388" lon="-76.6858623896857"><ele>924.3333333333334</ele><time>2026-03-22T20:00:59Z</time></trkpt><trkpt lat="1.1426851161271798" lon="-76.68588774270269"><ele>923.6666666666667</ele><time>2026-03-22T20:01:01Z</time></trkpt><trkpt lat="1.1426175759096668" lon="-76.68590398088352"><ele>923.0</ele><time>2026-03-22T20:01:02Z</time></trkpt><trkpt lat="1.1425505776767564" lon="-76.68591850402744"><ele>923.0</ele><time>2026-03-22T20:01:03Z</time></trkpt><trkpt lat="1.1424840742260918" lon="-76.68594280703836"><ele>923.0</ele><time>2026-03-22T20:01:04Z</time></trkpt><trkpt lat="1.1424159425927156" lon="-76.68597148813369"><ele>923.0</ele><time>2026-03-22T20:01:05Z</time></trkpt><trkpt lat="1.1423514803654893" lon="-76.68599683535619"><ele>923.0</ele><time>2026-03-22T20:01:06Z</time></trkpt><trkpt lat="1.1422872141567957" lon="-76.68602608735178"><ele>923.0</ele><time>2026-03-22T20:01:07Z</time></trkpt><trkpt lat="1.1422193756659353" lon="-76.6860557697571"><ele>923.0</ele><time>2026-03-22T20:01:08Z</time></trkpt><trkpt lat="1.14215088840635" lon="-76.68608888146711"><ele>923.0</ele><time>2026-03-22T20:01:09Z</time></trkpt><trkpt lat="1.1420866835769214" lon="-76.68611511206218"><ele>920.3333333333334</ele><time>2026-03-22T20:01:10Z</time></trkpt><trkpt lat="1.1420233587093844" lon="-76.68614078963022"><ele>917.6666666666667</ele><time>2026-03-22T20:01:11Z</time></trkpt><trkpt lat="1.14195916441305" lon="-76.68617388993037"><ele>915.0</ele><time>2026-03-22T20:01:12Z</time></trkpt><trkpt lat="1.1418921644049467" lon="-76.68620546544167"><ele>912.3333333333333</ele><time>2026-03-22T20:01:13Z</time></trkpt><trkpt lat="1.1418238889817582" lon="-76.68623923787094"><ele>909.6666666666666</ele><time>2026-03-22T20:01:14Z</time></trkpt><trkpt lat="1.1417536984243914" lon="-76.68627712777844"><ele>907.0</ele><time>2026-03-22T20:01:15Z</time></trkpt><trkpt lat="1.1416754504176858" lon="-76.68631527092269"><ele>906.9999999999999</ele><time>2026-03-22T20:01:16Z</time></trkpt><trkpt lat="1.1416039744651092" lon="-76.68634945556288"><ele>907.0</ele><time>2026-03-22T20:01:17Z</time></trkpt><trkpt lat="1.1415259705300522" lon="-76.68636754210968"><ele>907.0</ele><time>2026-03-22T20:01:18Z</time></trkpt><trkpt lat="1.1414552053822116" lon="-76.68640043895931"><ele>907.0</ele><time>2026-03-22T20:01:19Z</time></trkpt><trkpt lat="1.1413865305550162" lon="-76.68644828840324"><ele>906.9999999999999</ele><time>2026-03-22T20:01:20Z</time></trkpt><trkpt lat="1.1413093816028865" lon="-76.68647857028137"><ele>907.0</ele><time>2026-03-22T20:01:21Z</time></trkpt><trkpt lat="1.1412330676434734" lon="-76.68650521542376"><ele>906.857142857143</ele><time>2026-03-22T20:01:22Z</time></trkpt><trkpt lat="1.1411598607235178" lon="-76.68653214944496"><ele>906.7142857142858</ele><time>2026-03-22T20:01:23Z</time></trkpt><trkpt lat="1.141094055266238" lon="-76.6865656984094"><ele>906.5714285714286</ele><time>2026-03-22T20:01:24Z</time></trkpt><trkpt lat="1.141034067083896" lon="-76.68659863112441"><ele>906.4285714285714</ele><time>2026-03-22T20:01:25Z</time></trkpt><trkpt lat="1.1409719903317455" lon="-76.68664468985718"><ele>906.2857142857142</ele><time>2026-03-22T20:01:26Z</time></trkpt><trkpt lat="1.140922544841032" lon="-76.68669190362887"><ele>906.142857142857</ele><time>2026-03-22T20:01:27Z</time></trkpt><trkpt lat="1.1408722347080766" lon="-76.68673330206072"><ele>905.9999999999999</ele><time>2026-03-22T20:01:28Z</time></trkpt><trkpt lat="1.1408194335500434" lon="-76.68678219744424"><ele>906.0</ele><time>2026-03-22T20:01:29Z</time></trkpt><trkpt lat="1.140772449574485" lon="-76.68683121676452"><ele>906.0</ele><time>2026-03-22T20:01:30Z</time></trkpt><trkpt lat="1.1406932287515634" lon="-76.68691190451733"><ele>906.0</ele><time>2026-03-22T20:01:32Z</time></trkpt><trkpt lat="1.1406479055908068" lon="-76.68695736678072"><ele>906.0</ele><time>2026-03-22T20:01:33Z</time></trkpt><trkpt lat="1.140594714114873" lon="-76.68705444019736"><ele>906.0</ele><time>2026-03-22T20:01:35Z</time></trkpt><trkpt lat="1.1405691368639264" lon="-76.68714280632507"><ele>906.0</ele><time>2026-03-22T20:01:37Z</time></trkpt><trkpt lat="1.1405772358231783" lon="-76.68724603267974"><ele>903.1999999999999</ele><time>2026-03-22T20:01:39Z</time></trkpt><trkpt lat="1.1405908255637518" lon="-76.68736297874923"><ele>900.3999999999999</ele><time>2026-03-22T20:01:41Z</time></trkpt><trkpt lat="1.140601500582216" lon="-76.68748508861391"><ele>897.6</ele><time>2026-03-22T20:01:43Z</time></trkpt><trkpt lat="1.1406138461904973" lon="-76.6875507112941"><ele>894.8</ele><time>2026-03-22T20:01:44Z</time></trkpt><trkpt lat="1.1406162396213693" lon="-76.6876200851468"><ele>892.0</ele><time>2026-03-22T20:01:45Z</time></trkpt><trkpt lat="1.1406087382307197" lon="-76.6877408442435"><ele>888.25</ele><time>2026-03-22T20:01:47Z</time></trkpt><trkpt lat="1.1405386390293706" lon="-76.68783622795029"><ele>884.5</ele><time>2026-03-22T20:01:49Z</time></trkpt><trkpt lat="1.1404915149840666" lon="-76.68793777231585"><ele>880.75</ele><time>2026-03-22T20:01:51Z</time></trkpt><trkpt lat="1.140440331913289" lon="-76.68804752663813"><ele>877.0</ele><time>2026-03-22T20:01:53Z</time></trkpt><trkpt lat="1.1404244158101682" lon="-76.68819915122698"><ele>877.0</ele><time>2026-03-22T20:01:55Z</time></trkpt><trkpt lat="1.1404396941996489" lon="-76.68830543064294"><ele>877.0</ele><time>2026-03-22T20:01:57Z</time></trkpt><trkpt lat="1.1404674933371743" lon="-76.68842631028048"><ele>877.0</ele><time>2026-03-22T20:01:59Z</time></trkpt><trkpt lat="1.1404843329706675" lon="-76.68849368487632"><ele>877.0</ele><time>2026-03-22T20:02:00Z</time></trkpt><trkpt lat="1.1405146564023592" lon="-76.68861497858335"><ele>877.0</ele><time>2026-03-22T20:02:02Z</time></trkpt><trkpt lat="1.1405311412728858" lon="-76.68867939185326"><ele>875.2</ele><time>2026-03-22T20:02:03Z</time></trkpt><trkpt lat="1.1405196973793088" lon="-76.68879077590654"><ele>873.4000000000001</ele><time>2026-03-22T20:02:05Z</time></trkpt><trkpt lat="1.1404861989136832" lon="-76.68890730229997"><ele>871.5999999999999</ele><time>2026-03-22T20:02:07Z</time></trkpt><trkpt lat="1.140453121394334" lon="-76.68902559160203"><ele>869.8</ele><time>2026-03-22T20:02:09.001Z</time></trkpt><trkpt lat="1.1404338056558638" lon="-76.68909118986825"><ele>868.0</ele><time>2026-03-22T20:02:10.001Z</time></trkpt><trkpt lat="1.1404250305581773" lon="-76.68916324121211"><ele>868.0</ele><time>2026-03-22T20:02:11.001Z</time></trkpt><trkpt lat="1.1404055228079197" lon="-76.68923784632499"><ele>868.0</ele><time>2026-03-22T20:02:12.001Z</time></trkpt><trkpt lat="1.1403747850926746" lon="-76.68929618845813"><ele>868.0</ele><time>2026-03-22T20:02:13.001Z</time></trkpt><trkpt lat="1.1403124171143855" lon="-76.68940134328648"><ele>868.0</ele><time>2026-03-22T20:02:15.001Z</time></trkpt><trkpt lat="1.1402813557724465" lon="-76.68946309023298"><ele>868.0</ele><time>2026-03-22T20:02:16.001Z</time></trkpt><trkpt lat="1.1402238977765635" lon="-76.68958484758393"><ele>866.0</ele><time>2026-03-22T20:02:18.001Z</time></trkpt><trkpt lat="1.1401226488343634" lon="-76.68964664082132"><ele>864.0</ele><time>2026-03-22T20:02:20.001Z</time></trkpt><trkpt lat="1.1400684684211568" lon="-76.68967970491477"><ele>862.0</ele><time>2026-03-22T20:02:21.001Z</time></trkpt><trkpt lat="1.1399823395604856" lon="-76.689732265848"><ele>860.0</ele><time>2026-03-22T20:02:23.001Z</time></trkpt><trkpt lat="1.139947037456589" lon="-76.68978628700769"><ele>858.0</ele><time>2026-03-22T20:02:25.001Z</time></trkpt><trkpt lat="1.1398819866779575" lon="-76.68986646788206"><ele>857.0</ele><time>2026-03-22T20:02:27.001Z</time></trkpt><trkpt lat="1.1398206244428846" lon="-76.68994271601899"><ele>856.0</ele><time>2026-03-22T20:02:29.001Z</time></trkpt><trkpt lat="1.139759940116017" lon="-76.69001857038981"><ele>855.0</ele><time>2026-03-22T20:02:31.001Z</time></trkpt><trkpt lat="1.1397133858914277" lon="-76.69011066680568"><ele>854.0</ele><time>2026-03-22T20:02:33.001Z</time></trkpt><trkpt lat="1.1396630519772324" lon="-76.69021108278339"><ele>853.0</ele><time>2026-03-22T20:02:35.001Z</time></trkpt><trkpt lat="1.1396184776215132" lon="-76.69030030248479"><ele>852.8</ele><time>2026-03-22T20:02:37Z</time></trkpt><trkpt lat="1.13962013502456" lon="-76.69036575524869"><ele>852.5999999999999</ele><time>2026-03-22T20:02:38Z</time></trkpt><trkpt lat="1.1396248798980966" lon="-76.69048069904031"><ele>852.4000000000001</ele><time>2026-03-22T20:02:40Z</time></trkpt><trkpt lat="1.1396289612378074" lon="-76.69058885438686"><ele>852.2</ele><time>2026-03-22T20:02:42Z</time></trkpt><trkpt lat="1.1395525311121557" lon="-76.69066555260954"><ele>852.0</ele><time>2026-03-22T20:02:44Z</time></trkpt><trkpt lat="1.139494459566343" lon="-76.69073472162815"><ele>852.0</ele><time>2026-03-22T20:02:46Z</time></trkpt><trkpt lat="1.1394346645374664" lon="-76.69069408112993"><ele>852.0</ele><time>2026-03-22T20:02:48Z</time></trkpt><trkpt lat="1.139360783922847" lon="-76.69068120538739"><ele>852.0</ele><time>2026-03-22T20:02:49Z</time></trkpt><trkpt lat="1.1392881224959142" lon="-76.69066795079429"><ele>852.0</ele><time>2026-03-22T20:02:50Z</time></trkpt><trkpt lat="1.1391999848485277" lon="-76.69065170107113"><ele>852.0</ele><time>2026-03-22T20:02:51Z</time></trkpt><trkpt lat="1.1391231249294" lon="-76.69063753057893"><ele>852.0</ele><time>2026-03-22T20:02:52Z</time></trkpt><trkpt lat="1.1390064018794712" lon="-76.69072411592569"><ele>851.0</ele><time>2026-03-22T20:02:53Z</time></trkpt><trkpt lat="1.1388981762353996" lon="-76.69076959114464"><ele>850.0</ele><time>2026-03-22T20:02:55Z</time></trkpt><trkpt lat="1.138776611929155" lon="-76.69081922761382"><ele>849.0</ele><time>2026-03-22T20:02:57Z</time></trkpt><trkpt lat="1.1387103152893487" lon="-76.69087245045658"><ele>848.0</ele><time>2026-03-22T20:02:58Z</time></trkpt><trkpt lat="1.1386509041938382" lon="-76.69091441362148"><ele>847.0</ele><time>2026-03-22T20:02:59Z</time></trkpt><trkpt lat="1.1385636775644314" lon="-76.69097618479258"><ele>847.0</ele><time>2026-03-22T20:03:01Z</time></trkpt><trkpt lat="1.1384644257997385" lon="-76.69104317058027"><ele>847.0</ele><time>2026-03-22T20:03:03Z</time></trkpt><trkpt lat="1.1383481169300294" lon="-76.69109342658417"><ele>847.0</ele><time>2026-03-22T20:03:05Z</time></trkpt><trkpt lat="1.1382430883713026" lon="-76.69113767845762"><ele>847.0</ele><time>2026-03-22T20:03:07Z</time></trkpt><trkpt lat="1.1381057750998949" lon="-76.69119521612622"><ele>847.6666666666666</ele><time>2026-03-22T20:03:09Z</time></trkpt><trkpt lat="1.138041710544244" lon="-76.6912017138733"><ele>848.3333333333333</ele><time>2026-03-22T20:03:10Z</time></trkpt><trkpt lat="1.1379667562333742" lon="-76.69120891174833"><ele>849.0</ele><time>2026-03-22T20:03:11Z</time></trkpt><trkpt lat="1.137896778710721" lon="-76.69121454832361"><ele>849.6666666666667</ele><time>2026-03-22T20:03:12Z</time></trkpt><trkpt lat="1.1378202725469224" lon="-76.6912500680323"><ele>850.3333333333334</ele><time>2026-03-22T20:03:14Z</time></trkpt><trkpt lat="1.1377185747988516" lon="-76.69131180108313"><ele>851.0</ele><time>2026-03-22T20:03:16Z</time></trkpt><trkpt lat="1.1376555327038873" lon="-76.69135061476037"><ele>851.0</ele><time>2026-03-22T20:03:17Z</time></trkpt><trkpt lat="1.1375962222890095" lon="-76.69138713092018"><ele>851.0</ele><time>2026-03-22T20:03:18Z</time></trkpt><trkpt lat="1.1375091644296726" lon="-76.69144015537117"><ele>851.0</ele><time>2026-03-22T20:03:20Z</time></trkpt><trkpt lat="1.1374122201980916" lon="-76.69149854436445"><ele>851.0</ele><time>2026-03-22T20:03:22Z</time></trkpt><trkpt lat="1.1373616714213057" lon="-76.69156460121418"><ele>851.0</ele><time>2026-03-22T20:03:24Z</time></trkpt><trkpt lat="1.1372895616393404" lon="-76.69163721941881"><ele>851.25</ele><time>2026-03-22T20:03:26Z</time></trkpt><trkpt lat="1.137208814565835" lon="-76.6917179664931"><ele>851.5</ele><time>2026-03-22T20:03:28Z</time></trkpt><trkpt lat="1.1371125688659554" lon="-76.69179615364942"><ele>851.75</ele><time>2026-03-22T20:03:30Z</time></trkpt><trkpt lat="1.1370183224695194" lon="-76.69185621001392"><ele>852.0</ele><time>2026-03-22T20:03:32Z</time></trkpt><trkpt lat="1.1369302244611137" lon="-76.69191273329903"><ele>852.75</ele><time>2026-03-22T20:03:34Z</time></trkpt><trkpt lat="1.1368284968718434" lon="-76.69197827070663"><ele>853.5</ele><time>2026-03-22T20:03:36Z</time></trkpt><trkpt lat="1.13672309282055" lon="-76.69204063663042"><ele>854.25</ele><time>2026-03-22T20:03:38Z</time></trkpt><trkpt lat="1.1366201036886168" lon="-76.69210064733602"><ele>855.0</ele><time>2026-03-22T20:03:40Z</time></trkpt><trkpt lat="1.13654141930675" lon="-76.69214988369764"><ele>855.0</ele><time>2026-03-22T20:03:42Z</time></trkpt><trkpt lat="1.1364508024950997" lon="-76.69220021719703"><ele>855.0</ele><time>2026-03-22T20:03:44Z</time></trkpt><trkpt lat="1.1363659375849071" lon="-76.69228217862974"><ele>855.0</ele><time>2026-03-22T20:03:46Z</time></trkpt><trkpt lat="1.1362941971574394" lon="-76.6923752181753"><ele>855.0</ele><time>2026-03-22T20:03:48Z</time></trkpt><trkpt lat="1.1362350053927603" lon="-76.69245603165922"><ele>855.0</ele><time>2026-03-22T20:03:50Z</time></trkpt><trkpt lat="1.1361936122462355" lon="-76.69252624777099"><ele>855.0</ele><time>2026-03-22T20:03:52Z</time></trkpt><trkpt lat="1.136138689006939" lon="-76.6926133599077"><ele>855.0</ele><time>2026-03-22T20:03:54Z</time></trkpt><trkpt lat="1.1360877992490048" lon="-76.69269851206964"><ele>855.0</ele><time>2026-03-22T20:03:56Z</time></trkpt><trkpt lat="1.1360388457755797" lon="-76.69277692399068"><ele>855.0</ele><time>2026-03-22T20:03:58Z</time></trkpt><trkpt lat="1.13599258391814" lon="-76.6928540936133"><ele>855.0</ele><time>2026-03-22T20:04:00Z</time></trkpt><trkpt lat="1.135916293081189" lon="-76.69295230031055"><ele>854.8333333333334</ele><time>2026-03-22T20:04:02Z</time></trkpt><trkpt lat="1.1358729515208257" lon="-76.69300247731478"><ele>854.6666666666667</ele><time>2026-03-22T20:04:03Z</time></trkpt><trkpt lat="1.1358349678176387" lon="-76.69305340452432"><ele>854.5</ele><time>2026-03-22T20:04:04Z</time></trkpt><trkpt lat="1.1357950932476077" lon="-76.69310758716531"><ele>854.3333333333334</ele><time>2026-03-22T20:04:05Z</time></trkpt><trkpt lat="1.135711976095485" lon="-76.69316280671828"><ele>854.1666666666667</ele><time>2026-03-22T20:04:07Z</time></trkpt><trkpt lat="1.1356215054918244" lon="-76.69322291159155"><ele>854.0</ele><time>2026-03-22T20:04:09Z</time></trkpt><trkpt lat="1.1355259278470133" lon="-76.69328686171006"><ele>854.0000000000001</ele><time>2026-03-22T20:04:11Z</time></trkpt><trkpt lat="1.1354714627802143" lon="-76.69332287336734"><ele>854.0</ele><time>2026-03-22T20:04:12Z</time></trkpt><trkpt lat="1.1354116000146837" lon="-76.6933578483572"><ele>854.0</ele><time>2026-03-22T20:04:13Z</time></trkpt><trkpt lat="1.1353566711082568" lon="-76.69338920758709"><ele>854.0</ele><time>2026-03-22T20:04:14.001Z</time></trkpt><trkpt lat="1.1352990196386394" lon="-76.69342212114181"><ele>854.0000000000001</ele><time>2026-03-22T20:04:15.001Z</time></trkpt><trkpt lat="1.1352001564930636" lon="-76.69347865968551"><ele>854.0</ele><time>2026-03-22T20:04:17.001Z</time></trkpt><trkpt lat="1.1351077763748942" lon="-76.69353127959413"><ele>854.0</ele><time>2026-03-22T20:04:19.001Z</time></trkpt><trkpt lat="1.1350426459976972" lon="-76.69358000118086"><ele>854.0</ele><time>2026-03-22T20:04:21.001Z</time></trkpt><trkpt lat="1.134984688807175" lon="-76.69361277146078"><ele>854.0</ele><time>2026-03-22T20:04:23.001Z</time></trkpt><trkpt lat="1.1349478398963162" lon="-76.69366433718494"><ele>854.0</ele><time>2026-03-22T20:04:26.001Z</time></trkpt><trkpt lat="1.1349360188842645" lon="-76.6937294772355"><ele>854.0</ele><time>2026-03-22T20:04:28.001Z</time></trkpt><trkpt lat="1.1349083564603157" lon="-76.69380364782025"><ele>854.0</ele><time>2026-03-22T20:04:31.001Z</time></trkpt><trkpt lat="1.1348844430260612" lon="-76.69386593226635"><ele>854.0</ele><time>2026-03-22T20:04:35.001Z</time></trkpt><trkpt lat="1.1348516768153565" lon="-76.69394305401266"><ele>855.0000000000001</ele><time>2026-03-22T20:04:37.001Z</time></trkpt><trkpt lat="1.1348673703515586" lon="-76.6940454332068"><ele>856.0</ele><time>2026-03-22T20:04:40.001Z</time></trkpt><trkpt lat="1.1348047575028444" lon="-76.69406208485779"><ele>857.0</ele><time>2026-03-22T20:04:46.001Z</time></trkpt><trkpt lat="1.1347387415574355" lon="-76.6940059923835"><ele>858.0</ele><time>2026-03-22T20:04:54.001Z</time></trkpt><trkpt lat="1.1346584811058011" lon="-76.69399767740278"><ele>859.0000000000001</ele><time>2026-03-22T20:04:57.001Z</time></trkpt><trkpt lat="1.1345911188131952" lon="-76.69397157112418"><ele>860.0</ele><time>2026-03-22T20:04:58.001Z</time></trkpt><trkpt lat="1.1345250016887236" lon="-76.69395088646677"><ele>860.0</ele><time>2026-03-22T20:04:59.001Z</time></trkpt><trkpt lat="1.1344544417133786" lon="-76.69395170822287"><ele>860.0</ele><time>2026-03-22T20:05:00.001Z</time></trkpt><trkpt lat="1.1343679907987891" lon="-76.69398719526534"><ele>860.0</ele><time>2026-03-22T20:05:02Z</time></trkpt><trkpt lat="1.1342670658676306" lon="-76.69399109353277"><ele>860.0</ele><time>2026-03-22T20:05:04Z</time></trkpt><trkpt lat="1.1341407976110092" lon="-76.69398394995005"><ele>860.0</ele><time>2026-03-22T20:05:06Z</time></trkpt><trkpt lat="1.134077111438726" lon="-76.69398002031974"><ele>861.0</ele><time>2026-03-22T20:05:07Z</time></trkpt><trkpt lat="1.1339675375486746" lon="-76.69398235538036"><ele>862.0</ele><time>2026-03-22T20:05:09Z</time></trkpt><trkpt lat="1.1338965575076392" lon="-76.69399356609507"><ele>863.0</ele><time>2026-03-22T20:05:10Z</time></trkpt><trkpt lat="1.1337629499384003" lon="-76.69398280782508"><ele>864.0</ele><time>2026-03-22T20:05:12Z</time></trkpt><trkpt lat="1.1336417868893045" lon="-76.69395442955827"><ele>865.0</ele><time>2026-03-22T20:05:14Z</time></trkpt><trkpt lat="1.1335432659567797" lon="-76.69390757828448"><ele>865.0</ele><time>2026-03-22T20:05:16Z</time></trkpt><trkpt lat="1.1334452391351508" lon="-76.69391647683648"><ele>865.0</ele><time>2026-03-22T20:05:18Z</time></trkpt><trkpt lat="1.1333484245656786" lon="-76.6939592015874"><ele>865.0</ele><time>2026-03-22T20:05:20Z</time></trkpt><trkpt lat="1.1332954901833254" lon="-76.69400179546834"><ele>865.0</ele><time>2026-03-22T20:05:21Z</time></trkpt><trkpt lat="1.1332250306665284" lon="-76.69409644789131"><ele>865.0</ele><time>2026-03-22T20:05:23Z</time></trkpt><trkpt lat="1.1332110754318365" lon="-76.69418133167692"><ele>866.0</ele><time>2026-03-22T20:05:25Z</time></trkpt><trkpt lat="1.1331588293272652" lon="-76.69426427421782"><ele>867.0</ele><time>2026-03-22T20:05:28Z</time></trkpt><trkpt lat="1.1331074126068488" lon="-76.69431155793146"><ele>868.0</ele><time>2026-03-22T20:05:30Z</time></trkpt><trkpt lat="1.1330333554160334" lon="-76.6943671029555"><ele>869.0</ele><time>2026-03-22T20:05:32Z</time></trkpt><trkpt lat="1.1329511820988765" lon="-76.69441509804011"><ele>870.0</ele><time>2026-03-22T20:05:34Z</time></trkpt><trkpt lat="1.1328791277952757" lon="-76.69447768157767"><ele>870.0</ele><time>2026-03-22T20:05:36Z</time></trkpt><trkpt lat="1.1327919586361235" lon="-76.6945522381021"><ele>870.0</ele><time>2026-03-22T20:05:38Z</time></trkpt><trkpt lat="1.1327209368423004" lon="-76.69460545847511"><ele>870.0</ele><time>2026-03-22T20:05:40Z</time></trkpt><trkpt lat="1.132667168659634" lon="-76.69465747984239"><ele>870.0</ele><time>2026-03-22T20:05:42Z</time></trkpt><trkpt lat="1.1326145048258716" lon="-76.69471537762712"><ele>870.0</ele><time>2026-03-22T20:05:44Z</time></trkpt><trkpt lat="1.1325550351125637" lon="-76.69478820186205"><ele>870.0</ele><time>2026-03-22T20:05:46Z</time></trkpt><trkpt lat="1.1324789377742548" lon="-76.69484840816554"><ele>870.0</ele><time>2026-03-22T20:05:48Z</time></trkpt><trkpt lat="1.1324232361166704" lon="-76.69488578877485"><ele>870.0</ele><time>2026-03-22T20:05:50Z</time></trkpt><trkpt lat="1.132364926431033" lon="-76.6949144711352"><ele>870.0</ele><time>2026-03-22T20:05:52Z</time></trkpt><trkpt lat="1.1322987715660529" lon="-76.69494572974104"><ele>870.0</ele><time>2026-03-22T20:05:54Z</time></trkpt><trkpt lat="1.1322208274534384" lon="-76.69497233603988"><ele>870.0</ele><time>2026-03-22T20:05:56Z</time></trkpt><trkpt lat="1.1321266143918314" lon="-76.69498985979301"><ele>869.3333333333334</ele><time>2026-03-22T20:05:58Z</time></trkpt><trkpt lat="1.1320491675390476" lon="-76.69504411103802"><ele>868.6666666666667</ele><time>2026-03-22T20:06:00Z</time></trkpt><trkpt lat="1.1319657430642867" lon="-76.69511323108426"><ele>868.0</ele><time>2026-03-22T20:06:02Z</time></trkpt><trkpt lat="1.1319125471252451" lon="-76.69516109563793"><ele>867.3333333333334</ele><time>2026-03-22T20:06:04Z</time></trkpt><trkpt lat="1.1318619858527672" lon="-76.69524521942131"><ele>866.6666666666667</ele><time>2026-03-22T20:06:06Z</time></trkpt><trkpt lat="1.1318286161471713" lon="-76.69530156020085"><ele>866.0</ele><time>2026-03-22T20:06:06.999Z</time></trkpt><trkpt lat="1.131787049411233" lon="-76.6953564745766"><ele>868.0</ele><time>2026-03-22T20:06:07.999Z</time></trkpt><trkpt lat="1.1317004095011407" lon="-76.69543072926753"><ele>870.0</ele><time>2026-03-22T20:06:09.999Z</time></trkpt><trkpt lat="1.1316034055101318" lon="-76.69546725434853"><ele>872.0</ele><time>2026-03-22T20:06:11.999Z</time></trkpt><trkpt lat="1.1314900914312138" lon="-76.69546326623383"><ele>874.0</ele><time>2026-03-22T20:06:13.999Z</time></trkpt><trkpt lat="1.1313885306985307" lon="-76.6954004823964"><ele>874.0</ele><time>2026-03-22T20:06:15.999Z</time></trkpt><trkpt lat="1.1313128860163482" lon="-76.69534445311496"><ele>874.0000000000001</ele><time>2026-03-22T20:06:17.999Z</time></trkpt><trkpt lat="1.1312054160283698" lon="-76.69538054862075"><ele>874.0000000000001</ele><time>2026-03-22T20:06:20Z</time></trkpt><trkpt lat="1.1310970123463875" lon="-76.6954268917052"><ele>874.0</ele><time>2026-03-22T20:06:22Z</time></trkpt><trkpt lat="1.130996698839197" lon="-76.69545727664497"><ele>874.0</ele><time>2026-03-22T20:06:24Z</time></trkpt><trkpt lat="1.1309224185235396" lon="-76.69546730150024"><ele>873.9999999999999</ele><time>2026-03-22T20:06:26Z</time></trkpt><trkpt lat="1.1308518145531414" lon="-76.69548693150386"><ele>874.0</ele><time>2026-03-22T20:06:28Z</time></trkpt><trkpt lat="1.130782013959986" lon="-76.6955035376512"><ele>874.0</ele><time>2026-03-22T20:06:30Z</time></trkpt><trkpt lat="1.1306985323450411" lon="-76.69551855986597"><ele>874.0</ele><time>2026-03-22T20:06:32Z</time></trkpt><trkpt lat="1.1306193463178302" lon="-76.69553838503279"><ele>873.9999999999999</ele><time>2026-03-22T20:06:34Z</time></trkpt><trkpt lat="1.130534373832552" lon="-76.69557028010551"><ele>874.0</ele><time>2026-03-22T20:06:36Z</time></trkpt><trkpt lat="1.13043202588524" lon="-76.69558938247502"><ele>872.3333333333333</ele><time>2026-03-22T20:06:38Z</time></trkpt><trkpt lat="1.130367451871598" lon="-76.69559934949434"><ele>870.6666666666666</ele><time>2026-03-22T20:06:39Z</time></trkpt><trkpt lat="1.1303064578618909" lon="-76.69561629114384"><ele>869.0</ele><time>2026-03-22T20:06:40Z</time></trkpt><trkpt lat="1.1301850859091274" lon="-76.69563772079469"><ele>867.3333333333333</ele><time>2026-03-22T20:06:42Z</time></trkpt><trkpt lat="1.130070931934261" lon="-76.69565996681682"><ele>865.6666666666666</ele><time>2026-03-22T20:06:44Z</time></trkpt><trkpt lat="1.1300088370654433" lon="-76.69568612099387"><ele>864.0</ele><time>2026-03-22T20:06:45Z</time></trkpt><trkpt lat="1.1299187427038238" lon="-76.6957033680782"><ele>864.25</ele><time>2026-03-22T20:06:47Z</time></trkpt><trkpt lat="1.1298099575508025" lon="-76.69569637614845"><ele>864.5</ele><time>2026-03-22T20:06:49Z</time></trkpt><trkpt lat="1.129680653555997" lon="-76.69563920635211"><ele>864.75</ele><time>2026-03-22T20:06:51Z</time></trkpt><trkpt lat="1.1295848344181043" lon="-76.69556762969638"><ele>865.0</ele><time>2026-03-22T20:06:53Z</time></trkpt><trkpt lat="1.1295451067035394" lon="-76.69547627321744"><ele>864.9999999999999</ele><time>2026-03-22T20:06:55Z</time></trkpt><trkpt lat="1.12951859709931" lon="-76.6953518501452"><ele>865.0</ele><time>2026-03-22T20:06:57Z</time></trkpt><trkpt lat="1.1294689656659218" lon="-76.69530967873874"><ele>865.0</ele><time>2026-03-22T20:06:59Z</time></trkpt><trkpt lat="1.1294070391745739" lon="-76.69533600205044"><ele>865.0</ele><time>2026-03-22T20:07:00Z</time></trkpt><trkpt lat="1.1293464792080228" lon="-76.69536628376672"><ele>864.9999999999999</ele><time>2026-03-22T20:07:01Z</time></trkpt><trkpt lat="1.1292573386862346" lon="-76.69537427719175"><ele>865.0</ele><time>2026-03-22T20:07:03Z</time></trkpt><trkpt lat="1.129161803507505" lon="-76.69539963398991"><ele>865.0</ele><time>2026-03-22T20:07:05Z</time></trkpt><trkpt lat="1.1291084166398604" lon="-76.69543839891423"><ele>865.0</ele><time>2026-03-22T20:07:06Z</time></trkpt><trkpt lat="1.1290250041152536" lon="-76.69549456284423"><ele>865.0</ele><time>2026-03-22T20:07:08Z</time></trkpt><trkpt lat="1.1289423374215748" lon="-76.69555848574024"><ele>865.0</ele><time>2026-03-22T20:07:10Z</time></trkpt><trkpt lat="1.1288859574770678" lon="-76.69561833514317"><ele>865.0</ele><time>2026-03-22T20:07:12Z</time></trkpt><trkpt lat="1.1287906649456272" lon="-76.6956695205888"><ele>862.6666666666666</ele><time>2026-03-22T20:07:14Z</time></trkpt><trkpt lat="1.128693615612329" lon="-76.69570062100141"><ele>860.3333333333333</ele><time>2026-03-22T20:07:15.999Z</time></trkpt><trkpt lat="1.1286302631854817" lon="-76.69569793103146"><ele>858.0</ele><time>2026-03-22T20:07:16.999Z</time></trkpt><trkpt lat="1.1285676958623965" lon="-76.69570797350093"><ele>855.6666666666667</ele><time>2026-03-22T20:07:17.999Z</time></trkpt><trkpt lat="1.12852981492817" lon="-76.69576375415068"><ele>853.3333333333334</ele><time>2026-03-22T20:07:24.999Z</time></trkpt><trkpt lat="1.128439685208934" lon="-76.69579029940162"><ele>851.0</ele><time>2026-03-22T20:07:31.999Z</time></trkpt><trkpt lat="1.1283577878505655" lon="-76.69579852711767"><ele>851.0</ele><time>2026-03-22T20:07:34.999Z</time></trkpt><trkpt lat="1.12829140531038" lon="-76.69582389128527"><ele>851.0</ele><time>2026-03-22T20:07:38.999Z</time></trkpt><trkpt lat="1.1282319686035776" lon="-76.69578955122795"><ele>851.0</ele><time>2026-03-22T20:07:45.999Z</time></trkpt><trkpt lat="1.128157953647701" lon="-76.69578162697422"><ele>851.0</ele><time>2026-03-22T20:07:52.999Z</time></trkpt><trkpt lat="1.1281077515496591" lon="-76.69573467953077"><ele>851.0</ele><time>2026-03-22T20:08:00.999Z</time></trkpt><trkpt lat="1.1280348024654734" lon="-76.6957230424295"><ele>851.0</ele><time>2026-03-22T20:08:07.999Z</time></trkpt><trkpt lat="1.127989959096958" lon="-76.69567314639737"><ele>851.0</ele><time>2026-03-22T20:08:14.999Z</time></trkpt><trkpt lat="1.1279286615744746" lon="-76.69564594788191"><ele>846.1428571428571</ele><time>2026-03-22T20:08:21.999Z</time></trkpt><trkpt lat="1.12787702370952" lon="-76.69559426052763"><ele>841.2857142857143</ele><time>2026-03-22T20:08:31Z</time></trkpt><trkpt lat="1.1278171045905616" lon="-76.69557149353341"><ele>836.4285714285713</ele><time>2026-03-22T20:08:51Z</time></trkpt><trkpt lat="1.127798326061489" lon="-76.69550697201524"><ele>831.5714285714286</ele><time>2026-03-22T20:08:57Z</time></trkpt><trkpt lat="1.1277855391775498" lon="-76.6954354212631"><ele>826.7142857142857</ele><time>2026-03-22T20:09:01Z</time></trkpt><trkpt lat="1.1277714563209187" lon="-76.69537058370095"><ele>821.8571428571428</ele><time>2026-03-22T20:09:05Z</time></trkpt><trkpt lat="1.1276891102057207" lon="-76.69534796436203"><ele>817.0</ele><time>2026-03-22T20:09:24Z</time></trkpt><trkpt lat="1.1276226866892287" lon="-76.69536573015034"><ele>816.9999999999999</ele><time>2026-03-22T20:09:27Z</time></trkpt><trkpt lat="1.12755333258754" lon="-76.69541947621589"><ele>817.0</ele><time>2026-03-22T20:09:28.999Z</time></trkpt><trkpt lat="1.1274922955645932" lon="-76.6954595861761"><ele>817.0</ele><time>2026-03-22T20:09:31.999Z</time></trkpt><trkpt lat="1.127428825732266" lon="-76.69547993701595"><ele>817.0</ele><time>2026-03-22T20:09:35.999Z</time></trkpt><trkpt lat="1.1273745571995635" lon="-76.69552882828367"><ele>817.0</ele><time>2026-03-22T20:09:45.999Z</time></trkpt><trkpt lat="1.1273256658492725" lon="-76.69558450220497"><ele>816.9999999999999</ele><time>2026-03-22T20:10:09.999Z</time></trkpt><trkpt lat="1.1272896087440347" lon="-76.6956379715969"><ele>817.0</ele><time>2026-03-22T20:10:15.999Z</time></trkpt><trkpt lat="1.127235091003955" lon="-76.69557971286287"><ele>812.6666666666666</ele><time>2026-03-22T20:10:49Z</time></trkpt><trkpt lat="1.127180829910485" lon="-76.69562448647767"><ele>808.3333333333333</ele><time>2026-03-22T20:11:16Z</time></trkpt><trkpt lat="1.1272135145518125" lon="-76.69568893870436"><ele>804.0</ele><time>2026-03-22T20:11:21Z</time></trkpt><trkpt lat="1.1271950624343625" lon="-76.69578706307935"><ele>799.6666666666667</ele><time>2026-03-22T20:13:08Z</time></trkpt><trkpt lat="1.127136042978312" lon="-76.69582717296241"><ele>795.3333333333334</ele><time>2026-03-22T20:14:17.999Z</time></trkpt><trkpt lat="1.1271500376754868" lon="-76.69589370524449"><ele>791.0</ele><time>2026-03-22T20:17:27Z</time></trkpt><trkpt lat="1.1270751224076658" lon="-76.69589347232387"><ele>791.0</ele><time>2026-03-22T20:18:34.999Z</time></trkpt><trkpt lat="1.1270440960874093" lon="-76.69582274702483"><ele>791.0</ele><time>2026-03-22T20:19:15Z</time></trkpt><trkpt lat="1.126978066245969" lon="-76.69581557288308"><ele>791.0</ele><time>2026-03-22T20:19:49Z</time></trkpt><trkpt lat="1.126958917007925" lon="-76.69588393894078"><ele>791.0</ele><time>2026-03-22T20:20:56.999Z</time></trkpt><trkpt lat="1.1269707274676704" lon="-76.69594589871541"><ele>791.0</ele><time>2026-03-22T20:21:22Z</time></trkpt><trkpt lat="1.1270202656991908" lon="-76.69602228758764"><ele>791.0</ele><time>2026-03-22T20:22:12.999Z</time></trkpt><trkpt lat="1.1270034669766096" lon="-76.69608857578352"><ele>791.0</ele><time>2026-03-22T20:22:26.999Z</time></trkpt><trkpt lat="1.1270208858679818" lon="-76.69616644973824"><ele>792.1428571428571</ele><time>2026-03-22T20:22:52.999Z</time></trkpt><trkpt lat="1.1269824827374875" lon="-76.69621999646884"><ele>793.2857142857142</ele><time>2026-03-22T20:23:13Z</time></trkpt><trkpt lat="1.1269276567345654" lon="-76.69625277291911"><ele>794.4285714285714</ele><time>2026-03-22T20:24:39.999Z</time></trkpt><trkpt lat="1.1268875286429567" lon="-76.69630549121972"><ele>795.5714285714286</ele><time>2026-03-22T20:30:35.999Z</time></trkpt><trkpt lat="1.1268292519744791" lon="-76.69634491193662"><ele>796.7142857142857</ele><time>2026-03-22T20:30:55.999Z</time></trkpt><trkpt lat="1.1267698725638249" lon="-76.69632033140584"><ele>797.8571428571429</ele><time>2026-03-22T20:32:34Z</time></trkpt><trkpt lat="1.1267402610087491" lon="-76.69623987982304"><ele>799.0</ele><time>2026-03-22T20:32:48Z</time></trkpt><trkpt lat="1.1267857738588147" lon="-76.69618122366009"><ele>799.0</ele><time>2026-03-22T20:34:01Z</time></trkpt><trkpt lat="1.1267749893606473" lon="-76.6961146460683"><ele>799.0</ele><time>2026-03-22T20:34:07Z</time></trkpt><trkpt lat="1.1267550795018477" lon="-76.69604983901633"><ele>799.0</ele><time>2026-03-22T20:34:16Z</time></trkpt><trkpt lat="1.1266919601981245" lon="-76.6960200284611"><ele>799.0</ele><time>2026-03-22T20:34:25Z</time></trkpt><trkpt lat="1.126676108256345" lon="-76.6959587979256"><ele>799.0</ele><time>2026-03-22T20:34:34Z</time></trkpt><trkpt lat="1.1266201533003612" lon="-76.69592789565526"><ele>799.0</ele><time>2026-03-22T20:34:38Z</time></trkpt><trkpt lat="1.1265488233551242" lon="-76.6958525546134"><ele>799.0</ele><time>2026-03-22T20:34:45Z</time></trkpt><trkpt lat="1.126605084896816" lon="-76.6958888927383"><ele>797.3333333333333</ele><time>2026-03-22T20:35:19Z</time></trkpt><trkpt lat="1.1265444720596183" lon="-76.69587094468773"><ele>795.6666666666666</ele><time>2026-03-22T20:35:30Z</time></trkpt><trkpt lat="1.1264795708775903" lon="-76.69581063315584"><ele>794.0</ele><time>2026-03-22T20:35:34Z</time></trkpt><trkpt lat="1.1264124750549644" lon="-76.69577112438459"><ele>792.3333333333333</ele><time>2026-03-22T20:35:37Z</time></trkpt><trkpt lat="1.1263411599663211" lon="-76.69573252601684"><ele>790.6666666666666</ele><time>2026-03-22T20:35:41Z</time></trkpt><trkpt lat="1.1263064475916806" lon="-76.69566397937758"><ele>789.0</ele><time>2026-03-22T20:35:45Z</time></trkpt><trkpt lat="1.1262808727620088" lon="-76.69559310900239"><ele>788.9999999999999</ele><time>2026-03-22T20:35:48Z</time></trkpt><trkpt lat="1.1262766902751573" lon="-76.6955242262236"><ele>789.0</ele><time>2026-03-22T20:35:51Z</time></trkpt><trkpt lat="1.126293501555415" lon="-76.69543822183086"><ele>789.0</ele><time>2026-03-22T20:35:54Z</time></trkpt><trkpt lat="1.1262754644344533" lon="-76.69536577991724"><ele>789.0</ele><time>2026-03-22T20:35:56Z</time></trkpt><trkpt lat="1.1262717944745884" lon="-76.69529162093689"><ele>789.0</ele><time>2026-03-22T20:35:58Z</time></trkpt><trkpt lat="1.1262592804859102" lon="-76.69522798583246"><ele>788.9999999999999</ele><time>2026-03-22T20:36:01Z</time></trkpt><trkpt lat="1.126255211235358" lon="-76.69515403297989"><ele>789.0</ele><time>2026-03-22T20:36:05Z</time></trkpt><trkpt lat="1.1262332514238784" lon="-76.69508650032326"><ele>788.2857142857142</ele><time>2026-03-22T20:36:09Z</time></trkpt><trkpt lat="1.1262283760211727" lon="-76.69500250813981"><ele>787.5714285714286</ele><time>2026-03-22T20:36:15Z</time></trkpt><trkpt lat="1.1262306994855156" lon="-76.6949170117095"><ele>786.8571428571429</ele><time>2026-03-22T20:36:18Z</time></trkpt><trkpt lat="1.1262669990702356" lon="-76.69485367156415"><ele>786.1428571428571</ele><time>2026-03-22T20:36:24Z</time></trkpt><trkpt lat="1.1262907474150954" lon="-76.69479369351231"><ele>785.4285714285714</ele><time>2026-03-22T20:36:29Z</time></trkpt><trkpt lat="1.126288235163601" lon="-76.69472787777799"><ele>784.7142857142857</ele><time>2026-03-22T20:36:32Z</time></trkpt><trkpt lat="1.1262953780711649" lon="-76.69465587427611"><ele>784.0</ele><time>2026-03-22T20:36:38Z</time></trkpt><trkpt lat="1.1263468920789574" lon="-76.69460280788998"><ele>783.9999999999999</ele><time>2026-03-22T20:36:41Z</time></trkpt><trkpt lat="1.1263324440287432" lon="-76.6945350217217"><ele>784.0</ele><time>2026-03-22T20:36:43Z</time></trkpt><trkpt lat="1.1263385596436257" lon="-76.69444871627321"><ele>784.0</ele><time>2026-03-22T20:36:45Z</time></trkpt><trkpt lat="1.1262931924971873" lon="-76.69438059333555"><ele>784.0</ele><time>2026-03-22T20:36:46Z</time></trkpt><trkpt lat="1.1262426416300542" lon="-76.69432169852024"><ele>783.9999999999999</ele><time>2026-03-22T20:36:47Z</time></trkpt><trkpt lat="1.1263166043374297" lon="-76.69429379922116"><ele>784.0</ele><time>2026-03-22T20:36:51Z</time></trkpt><trkpt lat="1.1263896800195423" lon="-76.69424814099158"><ele>783.6666666666666</ele><time>2026-03-22T20:36:57Z</time></trkpt><trkpt lat="1.1264895044947074" lon="-76.69425786974033"><ele>783.3333333333333</ele><time>2026-03-22T20:36:58Z</time></trkpt><trkpt lat="1.1265809694829527" lon="-76.69424105571431"><ele>783.0</ele><time>2026-03-22T20:36:59Z</time></trkpt><trkpt lat="1.1266565902179562" lon="-76.69421705629868"><ele>782.6666666666667</ele><time>2026-03-22T20:37:00Z</time></trkpt><trkpt lat="1.1265710223160434" lon="-76.69421300694403"><ele>782.3333333333334</ele><time>2026-03-22T20:37:12Z</time></trkpt><trkpt lat="1.12648919623873" lon="-76.69420093264429"><ele>782.0</ele><time>2026-03-22T20:37:13Z</time></trkpt><trkpt lat="1.1264465707087075" lon="-76.69425223936364"><ele>781.9999999999999</ele><time>2026-03-22T20:37:29Z</time></trkpt><trkpt lat="1.1263952431320232" lon="-76.69419902763697"><ele>782.0</ele><time>2026-03-22T20:37:42Z</time></trkpt><trkpt lat="1.1263602007178033" lon="-76.69413361261324"><ele>782.0</ele><time>2026-03-22T20:37:53Z</time></trkpt><trkpt lat="1.1263946432716834" lon="-76.69406772873904"><ele>782.0</ele><time>2026-03-22T20:37:59Z</time></trkpt><trkpt lat="1.1264043949031897" lon="-76.69399967928621"><ele>782.0</ele><time>2026-03-22T20:38:06Z</time></trkpt><trkpt lat="1.1264186028516372" lon="-76.69393724160487"><ele>781.9999999999999</ele><time>2026-03-22T20:38:12Z</time></trkpt><trkpt lat="1.1264059118198422" lon="-76.69386594592456"><ele>782.0</ele><time>2026-03-22T20:38:19Z</time></trkpt><trkpt lat="1.1264260087726838" lon="-76.69377136677423"><ele>782.0000000000001</ele><time>2026-03-22T20:38:33Z</time></trkpt><trkpt lat="1.126398734780037" lon="-76.69370101804273"><ele>782.0</ele><time>2026-03-22T20:38:39Z</time></trkpt><trkpt lat="1.1263704162686579" lon="-76.6936128045796"><ele>782.0</ele><time>2026-03-22T20:38:44Z</time></trkpt><trkpt lat="1.126438344772174" lon="-76.6936235170691"><ele>782.0</ele><time>2026-03-22T20:38:45Z</time></trkpt><trkpt lat="1.1263808480836115" lon="-76.6935767625235"><ele>782.0000000000001</ele><time>2026-03-22T20:38:51Z</time></trkpt><trkpt lat="1.126347908342105" lon="-76.69349713522705"><ele>782.0</ele><time>2026-03-22T20:38:53Z</time></trkpt><trkpt lat="1.126296626038326" lon="-76.6934539460916"><ele>781.25</ele><time>2026-03-22T20:38:59Z</time></trkpt><trkpt lat="1.1262703730619452" lon="-76.6933934858389"><ele>780.5</ele><time>2026-03-22T20:39:04Z</time></trkpt><trkpt lat="1.1261969044258129" lon="-76.69333652715956"><ele>779.75</ele><time>2026-03-22T20:39:08Z</time></trkpt><trkpt lat="1.1261900012083532" lon="-76.69327161765021"><ele>779.0</ele><time>2026-03-22T20:39:13Z</time></trkpt><trkpt lat="1.1260925162849387" lon="-76.69352383772724"><ele>779.0</ele><time>2026-03-22T20:39:17Z</time></trkpt><trkpt lat="1.126054060572647" lon="-76.69361688840932"><ele>779.0</ele><time>2026-03-22T20:39:18Z</time></trkpt><trkpt lat="1.126075732581319" lon="-76.69370156762054"><ele>779.0</ele><time>2026-03-22T20:39:21Z</time></trkpt><trkpt lat="1.1260078803649674" lon="-76.69357255647066"><ele>779.0</ele><time>2026-03-22T20:39:23Z</time></trkpt><trkpt lat="1.1259886445624212" lon="-76.69350151622325"><ele>779.0</ele><time>2026-03-22T20:39:27Z</time></trkpt><trkpt lat="1.1260619960001843" lon="-76.6934521718734"><ele>779.0</ele><time>2026-03-22T20:39:31Z</time></trkpt><trkpt lat="1.1260055004227691" lon="-76.69340728599731"><ele>779.0</ele><time>2026-03-22T20:39:33Z</time></trkpt><trkpt lat="1.1260341356593968" lon="-76.69326578720478"><ele>779.0</ele><time>2026-03-22T20:39:36Z</time></trkpt><trkpt lat="1.1260180021239152" lon="-76.69313574965994"><ele>779.0</ele><time>2026-03-22T20:39:41Z</time></trkpt><trkpt lat="1.1260728472252628" lon="-76.69302588366342"><ele>779.0000000000001</ele><time>2026-03-22T20:39:43Z</time></trkpt><trkpt lat="1.126139801977395" lon="-76.69296558367498"><ele>779.0</ele><time>2026-03-22T20:39:45Z</time></trkpt><trkpt lat="1.1261778530342164" lon="-76.69290715934459"><ele>779.0</ele><time>2026-03-22T20:39:46Z</time></trkpt><trkpt lat="1.1262527699686955" lon="-76.69288833035598"><ele>779.0</ele><time>2026-03-22T20:39:53Z</time></trkpt><trkpt lat="1.1263061425475887" lon="-76.6928491089664"><ele>779.0</ele><time>2026-03-22T20:39:55Z</time></trkpt><trkpt lat="1.1263684415177209" lon="-76.69282521941754"><ele>779.0000000000001</ele><time>2026-03-22T20:39:58Z</time></trkpt><trkpt lat="1.1263873305059904" lon="-76.69276494244636"><ele>779.0</ele><time>2026-03-22T20:40:01Z</time></trkpt><trkpt lat="1.1264046139352502" lon="-76.69268846494683"><ele>778.3333333333334</ele><time>2026-03-22T20:40:08Z</time></trkpt><trkpt lat="1.1264382109782223" lon="-76.69262613890437"><ele>777.6666666666667</ele><time>2026-03-22T20:40:51Z</time></trkpt><trkpt lat="1.1264785857628399" lon="-76.69256131663643"><ele>777.0</ele><time>2026-03-22T20:41:46Z</time></trkpt><trkpt lat="1.12650603139791" lon="-76.69248629786794"><ele>776.3333333333333</ele><time>2026-03-22T20:41:49Z</time></trkpt><trkpt lat="1.1265285179229378" lon="-76.6924215294843"><ele>775.6666666666666</ele><time>2026-03-22T20:41:52Z</time></trkpt><trkpt lat="1.1265716254533922" lon="-76.69235996438319"><ele>775.0</ele><time>2026-03-22T20:41:58Z</time></trkpt><trkpt lat="1.1266094563289044" lon="-76.69229014594035"><ele>774.3333333333333</ele><time>2026-03-22T20:42:03Z</time></trkpt><trkpt lat="1.1266140890784622" lon="-76.69220382609377"><ele>773.6666666666666</ele><time>2026-03-22T20:42:07Z</time></trkpt><trkpt lat="1.126632618545512" lon="-76.69213637841982"><ele>773.0</ele><time>2026-03-22T20:42:09Z</time></trkpt><trkpt lat="1.1266369851551505" lon="-76.69206798574484"><ele>772.3333333333333</ele><time>2026-03-22T20:42:12Z</time></trkpt><trkpt lat="1.1266356647277804" lon="-76.69199488739464"><ele>771.6666666666666</ele><time>2026-03-22T20:42:16Z</time></trkpt><trkpt lat="1.1265909540536656" lon="-76.69191767963925"><ele>771.0</ele><time>2026-03-22T20:42:20Z</time></trkpt><trkpt lat="1.1265847039534609" lon="-76.69184661086587"><ele>769.5714285714286</ele><time>2026-03-22T20:42:23Z</time></trkpt><trkpt lat="1.1266083510552432" lon="-76.69177136182513"><ele>768.1428571428571</ele><time>2026-03-22T20:42:27Z</time></trkpt><trkpt lat="1.1266415566483756" lon="-76.69171296687338"><ele>766.7142857142857</ele><time>2026-03-22T20:42:30Z</time></trkpt><trkpt lat="1.126688277678834" lon="-76.69165721026819"><ele>765.2857142857142</ele><time>2026-03-22T20:42:34Z</time></trkpt><trkpt lat="1.126745555260106" lon="-76.69162295409228"><ele>763.8571428571429</ele><time>2026-03-22T20:42:37Z</time></trkpt><trkpt lat="1.1267892512860198" lon="-76.69156895607452"><ele>762.4285714285713</ele><time>2026-03-22T20:42:40Z</time></trkpt><trkpt lat="1.126825283681914" lon="-76.69149838644212"><ele>761.0</ele><time>2026-03-22T20:42:44Z</time></trkpt><trkpt lat="1.1268589287878183" lon="-76.69144480450036"><ele>761.0</ele><time>2026-03-22T20:42:48Z</time></trkpt><trkpt lat="1.1269092357493131" lon="-76.69137843854509"><ele>761.0</ele><time>2026-03-22T20:42:52Z</time></trkpt><trkpt lat="1.1269780971011774" lon="-76.69131462923573"><ele>761.0</ele><time>2026-03-22T20:42:55Z</time></trkpt><trkpt lat="1.127021645805971" lon="-76.69125804184831"><ele>761.0</ele><time>2026-03-22T20:42:57Z</time></trkpt><trkpt lat="1.127034375214245" lon="-76.69119372232383"><ele>761.0</ele><time>2026-03-22T20:43:00Z</time></trkpt><trkpt lat="1.127047230998548" lon="-76.69111117197068"><ele>761.0</ele><time>2026-03-22T20:43:03Z</time></trkpt><trkpt lat="1.1270770053033066" lon="-76.69104211483143"><ele>760.7142857142857</ele><time>2026-03-22T20:43:08Z</time></trkpt><trkpt lat="1.1271096050351006" lon="-76.69098792844318"><ele>760.4285714285714</ele><time>2026-03-22T20:43:11Z</time></trkpt><trkpt lat="1.1271518651616699" lon="-76.69092956298634"><ele>760.1428571428571</ele><time>2026-03-22T20:43:18Z</time></trkpt><trkpt lat="1.1271967481296807" lon="-76.69087045759967"><ele>759.8571428571429</ele><time>2026-03-22T20:45:32Z</time></trkpt><trkpt lat="1.1272536928533192" lon="-76.69083528849164"><ele>759.5714285714286</ele><time>2026-03-22T20:45:36Z</time></trkpt><trkpt lat="1.127284429994358" lon="-76.69075653160404"><ele>759.2857142857142</ele><time>2026-03-22T20:45:41Z</time></trkpt><trkpt lat="1.127297392986594" lon="-76.69068245639676"><ele>759.0</ele><time>2026-03-22T20:45:45Z</time></trkpt><trkpt lat="1.1273330814670683" lon="-76.69062865338853"><ele>759.0</ele><time>2026-03-22T20:45:48Z</time></trkpt><trkpt lat="1.1273253330153086" lon="-76.69053484405653"><ele>759.0</ele><time>2026-03-22T20:46:08Z</time></trkpt><trkpt lat="1.1272932053637907" lon="-76.69047727051574"><ele>759.0</ele><time>2026-03-22T20:46:24Z</time></trkpt><trkpt lat="1.1272869081179102" lon="-76.69039017979709"><ele>759.0</ele><time>2026-03-22T20:46:30Z</time></trkpt><trkpt lat="1.127294122763238" lon="-76.69030710200379"><ele>759.0</ele><time>2026-03-22T20:46:33Z</time></trkpt><trkpt lat="1.1272960228464086" lon="-76.69023260761276"><ele>759.0</ele><time>2026-03-22T20:46:36Z</time></trkpt><trkpt lat="1.1272875453252464" lon="-76.69016099143983"><ele>759.2857142857142</ele><time>2026-03-22T20:46:40Z</time></trkpt><trkpt lat="1.1272772774604631" lon="-76.69009592684957"><ele>759.5714285714286</ele><time>2026-03-22T20:46:49Z</time></trkpt><trkpt lat="1.1272831959239296" lon="-76.69002291291122"><ele>759.8571428571429</ele><time>2026-03-22T20:46:53Z</time></trkpt><trkpt lat="1.1272939301400235" lon="-76.68995285667131"><ele>760.1428571428571</ele><time>2026-03-22T20:46:56Z</time></trkpt><trkpt lat="1.1273059268339045" lon="-76.68988971383813"><ele>760.4285714285714</ele><time>2026-03-22T20:46:59Z</time></trkpt><trkpt lat="1.1273193733874056" lon="-76.68982081648757"><ele>760.7142857142857</ele><time>2026-03-22T20:47:02Z</time></trkpt><trkpt lat="1.1273787406764113" lon="-76.68976094829053"><ele>761.0</ele><time>2026-03-22T20:47:06Z</time></trkpt><trkpt lat="1.1274319942591269" lon="-76.68970045505351"><ele>761.0</ele><time>2026-03-22T20:47:09Z</time></trkpt><trkpt lat="1.127471529122559" lon="-76.68963462260481"><ele>761.0</ele><time>2026-03-22T20:47:12Z</time></trkpt><trkpt lat="1.1274964021171088" lon="-76.68956839055477"><ele>761.0</ele><time>2026-03-22T20:47:38Z</time></trkpt><trkpt lat="1.1274672404631234" lon="-76.68949867093826"><ele>761.0</ele><time>2026-03-22T20:47:42Z</time></trkpt><trkpt lat="1.127431607582702" lon="-76.68942917457161"><ele>761.0</ele><time>2026-03-22T20:47:46Z</time></trkpt><trkpt lat="1.1273948794715734" lon="-76.68935337583959"><ele>761.0</ele><time>2026-03-22T20:47:49Z</time></trkpt><trkpt lat="1.1273749258954484" lon="-76.68927888013586"><ele>758.3333333333333</ele><time>2026-03-22T20:47:59Z</time></trkpt><trkpt lat="1.1273106549954686" lon="-76.6892135723341"><ele>755.6666666666666</ele><time>2026-03-22T20:48:13Z</time></trkpt><trkpt lat="1.1272732500359894" lon="-76.68915216402678"><ele>753.0</ele><time>2026-03-22T20:48:16Z</time></trkpt><trkpt lat="1.127232505704566" lon="-76.6890966947897"><ele>750.3333333333334</ele><time>2026-03-22T20:48:22Z</time></trkpt><trkpt lat="1.1271708663578286" lon="-76.6890315690732"><ele>747.6666666666667</ele><time>2026-03-22T20:48:26Z</time></trkpt><trkpt lat="1.1271380718762136" lon="-76.68897473734737"><ele>745.0</ele><time>2026-03-22T20:48:31Z</time></trkpt><trkpt lat="1.1270978303959172" lon="-76.68892515552514"><ele>745.0</ele><time>2026-03-22T20:48:37Z</time></trkpt><trkpt lat="1.1270502739116892" lon="-76.68888212014399"><ele>745.0</ele><time>2026-03-22T20:48:40Z</time></trkpt><trkpt lat="1.1269804191732073" lon="-76.68882927279707"><ele>745.0</ele><time>2026-03-22T20:49:02Z</time></trkpt><trkpt lat="1.1269108393142209" lon="-76.68883283095221"><ele>745.0</ele><time>2026-03-22T20:49:08Z</time></trkpt><trkpt lat="1.126833446679326" lon="-76.68882815001874"><ele>745.0</ele><time>2026-03-22T20:49:17Z</time></trkpt><trkpt lat="1.126755019375247" lon="-76.68882249676824"><ele>745.0</ele><time>2026-03-22T20:49:19Z</time></trkpt><trkpt lat="1.1266802876313744" lon="-76.68881049566255"><ele>745.0</ele><time>2026-03-22T20:49:21Z</time></trkpt><trkpt lat="1.1266134795131892" lon="-76.68879135399357"><ele>745.0</ele><time>2026-03-22T20:49:23Z</time></trkpt><trkpt lat="1.1265371627870748" lon="-76.6888128197123"><ele>745.0</ele><time>2026-03-22T20:49:25Z</time></trkpt><trkpt lat="1.1264795213226726" lon="-76.68877791943062"><ele>745.0</ele><time>2026-03-22T20:49:27Z</time></trkpt><trkpt lat="1.1264059886124824" lon="-76.6887229562824"><ele>745.0</ele><time>2026-03-22T20:49:30Z</time></trkpt><trkpt lat="1.1263585420094906" lon="-76.68866643704814"><ele>745.0</ele><time>2026-03-22T20:49:32Z</time></trkpt><trkpt lat="1.126296376824037" lon="-76.68862161826314"><ele>744.6666666666667</ele><time>2026-03-22T20:49:35Z</time></trkpt><trkpt lat="1.1262612114408557" lon="-76.68856849997063"><ele>744.3333333333334</ele><time>2026-03-22T20:49:39Z</time></trkpt><trkpt lat="1.126256828202845" lon="-76.68863783972915"><ele>744.0</ele><time>2026-03-22T20:49:41Z</time></trkpt><trkpt lat="1.1262778399004942" lon="-76.68857280497038"><ele>743.6666666666666</ele><time>2026-03-22T20:50:00Z</time></trkpt><trkpt lat="1.1263034654218702" lon="-76.68848278578176"><ele>743.3333333333333</ele><time>2026-03-22T20:50:29Z</time></trkpt><trkpt lat="1.1262626842923893" lon="-76.6884319588412"><ele>743.0</ele><time>2026-03-22T20:50:40Z</time></trkpt><trkpt lat="1.1263037491231018" lon="-76.68832863747001"><ele>743.0</ele><time>2026-03-22T20:51:02Z</time></trkpt><trkpt lat="1.1262381450111671" lon="-76.68829206010564"><ele>743.0</ele><time>2026-03-22T20:51:41Z</time></trkpt><trkpt lat="1.1261755029123932" lon="-76.68827636294873"><ele>743.0</ele><time>2026-03-22T20:52:03Z</time></trkpt><trkpt lat="1.1261339245601196" lon="-76.68820841627047"><ele>743.0</ele><time>2026-03-22T20:52:09Z</time></trkpt><trkpt lat="1.1260619576623492" lon="-76.68818192223279"><ele>743.0</ele><time>2026-03-22T20:52:12Z</time></trkpt><trkpt lat="1.126035901996108" lon="-76.68812450264562"><ele>743.0</ele><time>2026-03-22T20:52:14Z</time></trkpt><trkpt lat="1.125977482709826" lon="-76.68807001015502"><ele>743.0</ele><time>2026-03-22T20:52:18Z</time></trkpt><trkpt lat="1.1259940781979472" lon="-76.68796961232312"><ele>743.0</ele><time>2026-03-22T20:52:21Z</time></trkpt><trkpt lat="1.1259244278100218" lon="-76.68784812034417"><ele>743.0</ele><time>2026-03-22T20:52:24Z</time></trkpt><trkpt lat="1.1258343567049376" lon="-76.6878118627719"><ele>743.0</ele><time>2026-03-22T20:52:26Z</time></trkpt><trkpt lat="1.1257883652501017" lon="-76.6877675745112"><ele>743.0</ele><time>2026-03-22T20:52:29Z</time></trkpt><trkpt lat="1.1258553340802135" lon="-76.68771644731855"><ele>743.0</ele><time>2026-03-22T20:52:33Z</time></trkpt><trkpt lat="1.1258801635719253" lon="-76.68762606700363"><ele>742.2</ele><time>2026-03-22T20:52:35Z</time></trkpt><trkpt lat="1.125887974236852" lon="-76.68754489961144"><ele>741.4</ele><time>2026-03-22T20:52:38Z</time></trkpt><trkpt lat="1.1259914057885239" lon="-76.68760577032886"><ele>740.6</ele><time>2026-03-22T20:52:43Z</time></trkpt><trkpt lat="1.1259569336014452" lon="-76.68752222655759"><ele>739.8000000000001</ele><time>2026-03-22T20:52:47Z</time></trkpt><trkpt lat="1.1259357589789813" lon="-76.68745055302361"><ele>739.0</ele><time>2026-03-22T20:52:49Z</time></trkpt><trkpt lat="1.125953211489996" lon="-76.68734818797128"><ele>739.0</ele><time>2026-03-22T20:52:54Z</time></trkpt><trkpt lat="1.1259544241814874" lon="-76.68724955688047"><ele>739.0</ele><time>2026-03-22T20:52:57Z</time></trkpt><trkpt lat="1.1259592319565388" lon="-76.6871417150481"><ele>739.0</ele><time>2026-03-22T20:52:59Z</time></trkpt><trkpt lat="1.1259452927706988" lon="-76.68705094361887"><ele>739.0</ele><time>2026-03-22T20:53:01Z</time></trkpt><trkpt lat="1.1259372417036955" lon="-76.68697883074805"><ele>739.0</ele><time>2026-03-22T20:53:03Z</time></trkpt><trkpt lat="1.1259404383502776" lon="-76.68690439596931"><ele>739.0</ele><time>2026-03-22T20:53:05Z</time></trkpt><trkpt lat="1.1259375849862583" lon="-76.6868398182169"><ele>738.1666666666667</ele><time>2026-03-22T20:53:06Z</time></trkpt><trkpt lat="1.1259044178437076" lon="-76.68674864839682"><ele>737.3333333333334</ele><time>2026-03-22T20:53:07Z</time></trkpt><trkpt lat="1.1258605129578416" lon="-76.6866561716631"><ele>736.5</ele><time>2026-03-22T20:53:10Z</time></trkpt><trkpt lat="1.1258589699859503" lon="-76.68657739894206"><ele>735.6666666666666</ele><time>2026-03-22T20:53:11Z</time></trkpt><trkpt lat="1.1258701536166458" lon="-76.68650710379231"><ele>734.8333333333333</ele><time>2026-03-22T20:53:12Z</time></trkpt><trkpt lat="1.1258553472096284" lon="-76.68643310352917"><ele>734.0</ele><time>2026-03-22T20:53:13Z</time></trkpt><trkpt lat="1.125835957975627" lon="-76.68635328829339"><ele>734.0</ele><time>2026-03-22T20:53:14Z</time></trkpt><trkpt lat="1.1258106467603546" lon="-76.68628648315745"><ele>734.0</ele><time>2026-03-22T20:53:15Z</time></trkpt><trkpt lat="1.1257783671271298" lon="-76.68623199144729"><ele>734.0</ele><time>2026-03-22T20:53:16Z</time></trkpt><trkpt lat="1.1257553230556345" lon="-76.68610646229135"><ele>734.0</ele><time>2026-03-22T20:53:17Z</time></trkpt><trkpt lat="1.1257405273382703" lon="-76.68602615323547"><ele>734.0</ele><time>2026-03-22T20:53:18Z</time></trkpt><trkpt lat="1.1257011551792069" lon="-76.68594380918425"><ele>734.0</ele><time>2026-03-22T20:53:20Z</time></trkpt><trkpt lat="1.125721491508016" lon="-76.68585245178917"><ele>732.8333333333333</ele><time>2026-03-22T20:53:22Z</time></trkpt><trkpt lat="1.1256600182790477" lon="-76.68578006395295"><ele>731.6666666666666</ele><time>2026-03-22T20:53:24Z</time></trkpt><trkpt lat="1.1256911411373791" lon="-76.68571720154989"><ele>730.5</ele><time>2026-03-22T20:53:26Z</time></trkpt><trkpt lat="1.1256872181643238" lon="-76.68564501602208"><ele>729.3333333333334</ele><time>2026-03-22T20:53:30Z</time></trkpt><trkpt lat="1.1256629563713196" lon="-76.68555648346944"><ele>728.1666666666667</ele><time>2026-03-22T20:53:33Z</time></trkpt><trkpt lat="1.12562821855363" lon="-76.68546076388313"><ele>727.0</ele><time>2026-03-22T20:53:35Z</time></trkpt><trkpt lat="1.125589885467939" lon="-76.6854097419368"><ele>727.0</ele><time>2026-03-22T20:53:38Z</time></trkpt><trkpt lat="1.1255676981608458" lon="-76.68534877329645"><ele>727.0</ele><time>2026-03-22T20:53:40Z</time></trkpt><trkpt lat="1.1255035580965904" lon="-76.68539204759747"><ele>727.0</ele><time>2026-03-22T20:53:57Z</time></trkpt><trkpt lat="1.1255115967849145" lon="-76.68530692715987"><ele>727.0</ele><time>2026-03-22T20:54:01Z</time></trkpt><trkpt lat="1.1255084464327327" lon="-76.68522727330651"><ele>727.0</ele><time>2026-03-22T20:54:05Z</time></trkpt><trkpt lat="1.1255160035867462" lon="-76.68514810369506"><ele>727.0</ele><time>2026-03-22T20:54:10Z</time></trkpt><trkpt lat="1.1255064025504595" lon="-76.68507948193536"><ele>726.1666666666667</ele><time>2026-03-22T20:54:14Z</time></trkpt><trkpt lat="1.1254922698512029" lon="-76.68500696537706"><ele>725.3333333333334</ele><time>2026-03-22T20:54:18Z</time></trkpt><trkpt lat="1.125452685147184" lon="-76.68494215160328"><ele>724.5</ele><time>2026-03-22T20:54:22Z</time></trkpt><trkpt lat="1.125435551954259" lon="-76.68487147714289"><ele>723.6666666666666</ele><time>2026-03-22T20:54:27Z</time></trkpt><trkpt lat="1.1253885633244438" lon="-76.68479699549985"><ele>722.8333333333333</ele><time>2026-03-22T20:54:30Z</time></trkpt><trkpt lat="1.1253525537801188" lon="-76.68473778121336"><ele>722.0</ele><time>2026-03-22T20:54:33Z</time></trkpt><trkpt lat="1.1253415175276202" lon="-76.68465936181964"><ele>722.0</ele><time>2026-03-22T20:54:36Z</time></trkpt><trkpt lat="1.125333325205331" lon="-76.68458927796884"><ele>722.0</ele><time>2026-03-22T20:54:41Z</time></trkpt><trkpt lat="1.1253125302957714" lon="-76.68450328573194"><ele>722.0</ele><time>2026-03-22T20:54:46Z</time></trkpt><trkpt lat="1.1253209371842936" lon="-76.68444055839878"><ele>722.0</ele><time>2026-03-22T20:54:49Z</time></trkpt><trkpt lat="1.1253454379728476" lon="-76.68433982411305"><ele>722.0</ele><time>2026-03-22T20:54:52Z</time></trkpt><trkpt lat="1.1253587298727366" lon="-76.68427227774013"><ele>722.0</ele><time>2026-03-22T20:54:55Z</time></trkpt><trkpt lat="1.125334511624941" lon="-76.6841992870178"><ele>721.1666666666666</ele><time>2026-03-22T20:54:59Z</time></trkpt><trkpt lat="1.1253550829103334" lon="-76.68412713885326"><ele>720.3333333333333</ele><time>2026-03-22T20:55:01Z</time></trkpt><trkpt lat="1.125395538500793" lon="-76.68405211953882"><ele>719.5</ele><time>2026-03-22T20:55:04Z</time></trkpt><trkpt lat="1.1253630108414119" lon="-76.68396466456811"><ele>718.6666666666666</ele><time>2026-03-22T20:55:09Z</time></trkpt><trkpt lat="1.1253398966476502" lon="-76.683878403928"><ele>717.8333333333334</ele><time>2026-03-22T20:55:12Z</time></trkpt><trkpt lat="1.1253149305396466" lon="-76.68380027697387"><ele>717.0</ele><time>2026-03-22T20:55:14Z</time></trkpt><trkpt lat="1.1253038620229663" lon="-76.68373318328582"><ele>717.0</ele><time>2026-03-22T20:55:16Z</time></trkpt><trkpt lat="1.125338438125709" lon="-76.68364927866506"><ele>717.0</ele><time>2026-03-22T20:55:19Z</time></trkpt><trkpt lat="1.1253278719421866" lon="-76.68357738417878"><ele>717.0</ele><time>2026-03-22T20:55:21Z</time></trkpt><trkpt lat="1.1252996007568703" lon="-76.68349902183927"><ele>717.0</ele><time>2026-03-22T20:55:24Z</time></trkpt><trkpt lat="1.1252594140101766" lon="-76.68342924620964"><ele>717.0</ele><time>2026-03-22T20:55:26Z</time></trkpt><trkpt lat="1.12520343980641" lon="-76.68337972020032"><ele>717.0</ele><time>2026-03-22T20:55:29Z</time></trkpt><trkpt lat="1.1251194947113663" lon="-76.68334318012712"><ele>716.1666666666666</ele><time>2026-03-22T20:55:32Z</time></trkpt><trkpt lat="1.1250595591531403" lon="-76.68329606563357"><ele>715.3333333333334</ele><time>2026-03-22T20:55:34Z</time></trkpt><trkpt lat="1.1249910228855209" lon="-76.68325953967324"><ele>714.5</ele><time>2026-03-22T20:55:36Z</time></trkpt><trkpt lat="1.1249315017298995" lon="-76.68319124893087"><ele>713.6666666666667</ele><time>2026-03-22T20:55:39Z</time></trkpt><trkpt lat="1.124887558042969" lon="-76.68314509278717"><ele>712.8333333333334</ele><time>2026-03-22T20:55:42Z</time></trkpt><trkpt lat="1.1248194873340802" lon="-76.68309600914719"><ele>712.0</ele><time>2026-03-22T20:55:47Z</time></trkpt><trkpt lat="1.1247532947483585" lon="-76.68303153797802"><ele>712.0</ele><time>2026-03-22T20:55:51Z</time></trkpt><trkpt lat="1.1247103065044544" lon="-76.68297620719274"><ele>712.0</ele><time>2026-03-22T20:55:53Z</time></trkpt><trkpt lat="1.1246568610901502" lon="-76.6829290728327"><ele>712.0</ele><time>2026-03-22T20:55:56Z</time></trkpt><trkpt lat="1.1245861396522485" lon="-76.68286851618801"><ele>712.0</ele><time>2026-03-22T20:55:59Z</time></trkpt><trkpt lat="1.1245394160853643" lon="-76.6828094519833"><ele>712.0</ele><time>2026-03-22T20:56:02Z</time></trkpt><trkpt lat="1.1244747102148966" lon="-76.68274642248203"><ele>712.0</ele><time>2026-03-22T20:56:05Z</time></trkpt><trkpt lat="1.1243981039028508" lon="-76.68266428319858"><ele>712.0</ele><time>2026-03-22T20:56:07Z</time></trkpt><trkpt lat="1.1243580854799433" lon="-76.68260016903727"><ele>712.0</ele><time>2026-03-22T20:56:08Z</time></trkpt><trkpt lat="1.1243175052128425" lon="-76.68253986778532"><ele>712.0</ele><time>2026-03-22T20:56:09Z</time></trkpt><trkpt lat="1.124262123199891" lon="-76.68247611742743"><ele>712.0</ele><time>2026-03-22T20:56:11Z</time></trkpt><trkpt lat="1.1242092337903127" lon="-76.68240910753117"><ele>712.0</ele><time>2026-03-22T20:56:13Z</time></trkpt><trkpt lat="1.1241655394879546" lon="-76.68235192279253"><ele>712.0</ele><time>2026-03-22T20:56:15Z</time></trkpt><trkpt lat="1.1241527038950747" lon="-76.68227610405744"><ele>712.0</ele><time>2026-03-22T20:56:17Z</time></trkpt><trkpt lat="1.1241085186286246" lon="-76.68221811858491"><ele>712.0</ele><time>2026-03-22T20:56:20Z</time></trkpt><trkpt lat="1.124056394684536" lon="-76.68215711212491"><ele>712.0</ele><time>2026-03-22T20:56:23Z</time></trkpt><trkpt lat="1.124007262251981" lon="-76.68208033267034"><ele>712.0</ele><time>2026-03-22T20:56:28Z</time></trkpt><trkpt lat="1.1239819661988024" lon="-76.68200091121032"><ele>712.0</ele><time>2026-03-22T20:56:31Z</time></trkpt><trkpt lat="1.1239430597861466" lon="-76.68194344663638"><ele>712.0</ele><time>2026-03-22T20:56:33Z</time></trkpt><trkpt lat="1.1238983656183124" lon="-76.68188839017242"><ele>711.0</ele><time>2026-03-22T20:56:35Z</time></trkpt><trkpt lat="1.1238592223935253" lon="-76.68181984888129"><ele>710.0</ele><time>2026-03-22T20:56:37Z</time></trkpt><trkpt lat="1.1238118646345348" lon="-76.68176136005346"><ele>709.0</ele><time>2026-03-22T20:56:40Z</time></trkpt><trkpt lat="1.123783822826507" lon="-76.68168779431664"><ele>708.0</ele><time>2026-03-22T20:56:44Z</time></trkpt><trkpt lat="1.123732333792314" lon="-76.68162346982075"><ele>707.0</ele><time>2026-03-22T20:56:48Z</time></trkpt><trkpt lat="1.1236836794352205" lon="-76.68155614582896"><ele>706.0</ele><time>2026-03-22T20:56:51Z</time></trkpt><trkpt lat="1.123626924525765" lon="-76.68151475496396"><ele>706.0</ele><time>2026-03-22T20:56:53Z</time></trkpt><trkpt lat="1.1235531331472868" lon="-76.68152710332927"><ele>706.0</ele><time>2026-03-22T20:56:55Z</time></trkpt><trkpt lat="1.1235041368709116" lon="-76.68148221690703"><ele>706.0</ele><time>2026-03-22T20:56:58Z</time></trkpt><trkpt lat="1.1234494348567985" lon="-76.68143317980136"><ele>706.0</ele><time>2026-03-22T20:57:02Z</time></trkpt><trkpt lat="1.1233894791225199" lon="-76.681410868577"><ele>706.0</ele><time>2026-03-22T20:57:26Z</time></trkpt><trkpt lat="1.1233232370846067" lon="-76.68137928876577"><ele>706.0</ele><time>2026-03-22T20:58:00Z</time></trkpt><trkpt lat="1.123261470370763" lon="-76.68134283414474"><ele>706.0</ele><time>2026-03-22T20:58:03Z</time></trkpt><trkpt lat="1.1231967413211843" lon="-76.68130450069195"><ele>704.8333333333334</ele><time>2026-03-22T20:58:05Z</time></trkpt><trkpt lat="1.1231280458324968" lon="-76.68126315711113"><ele>703.6666666666667</ele><time>2026-03-22T20:58:07Z</time></trkpt><trkpt lat="1.1230543432268736" lon="-76.68123039832719"><ele>702.5</ele><time>2026-03-22T20:58:09Z</time></trkpt><trkpt lat="1.1229756361543186" lon="-76.68121626637709"><ele>701.3333333333334</ele><time>2026-03-22T20:58:13Z</time></trkpt><trkpt lat="1.1229037824507746" lon="-76.6812191225938"><ele>700.1666666666666</ele><time>2026-03-22T20:58:18Z</time></trkpt><trkpt lat="1.1228372272188583" lon="-76.68121739563469"><ele>699.0</ele><time>2026-03-22T20:58:24Z</time></trkpt><trkpt lat="1.1227673935902767" lon="-76.68119985668002"><ele>699.0</ele><time>2026-03-22T20:58:27Z</time></trkpt><trkpt lat="1.122693628759755" lon="-76.68120110285773"><ele>699.0</ele><time>2026-03-22T20:58:31Z</time></trkpt><trkpt lat="1.1226298916360824" lon="-76.68122512113698"><ele>699.0</ele><time>2026-03-22T20:58:37Z</time></trkpt><trkpt lat="1.1225468003203254" lon="-76.6812399304649"><ele>699.0</ele><time>2026-03-22T20:58:43Z</time></trkpt><trkpt lat="1.1224572471156065" lon="-76.68119707897026"><ele>699.0</ele><time>2026-03-22T20:58:48Z</time></trkpt><trkpt lat="1.1223560210097616" lon="-76.68115661504262"><ele>699.0</ele><time>2026-03-22T20:58:51Z</time></trkpt><trkpt lat="1.1222816115645373" lon="-76.68112980577696"><ele>697.3333333333334</ele><time>2026-03-22T20:58:55Z</time></trkpt><trkpt lat="1.1222401604536456" lon="-76.68108021233901"><ele>695.6666666666666</ele><time>2026-03-22T20:58:58Z</time></trkpt><trkpt lat="1.122212353721047" lon="-76.68101275537595"><ele>694.0</ele><time>2026-03-22T20:59:02Z</time></trkpt><trkpt lat="1.1221506390510256" lon="-76.68095522124693"><ele>692.3333333333333</ele><time>2026-03-22T20:59:06Z</time></trkpt><trkpt lat="1.1221034946676869" lon="-76.68087919453744"><ele>690.6666666666666</ele><time>2026-03-22T20:59:11Z</time></trkpt><trkpt lat="1.1220879012554332" lon="-76.68081295655644"><ele>689.0</ele><time>2026-03-22T20:59:14Z</time></trkpt><trkpt lat="1.122016499132562" lon="-76.68077136658141"><ele>689.0</ele><time>2026-03-22T20:59:17Z</time></trkpt><trkpt lat="1.1219589072320495" lon="-76.68073143810572"><ele>689.0</ele><time>2026-03-22T20:59:18Z</time></trkpt><trkpt lat="1.1218889363607418" lon="-76.68068266058664"><ele>689.0</ele><time>2026-03-22T20:59:19Z</time></trkpt><trkpt lat="1.1218333249761305" lon="-76.68064972616797"><ele>689.0</ele><time>2026-03-22T20:59:22Z</time></trkpt><trkpt lat="1.1217659272816507" lon="-76.68059043991042"><ele>689.0</ele><time>2026-03-22T20:59:24Z</time></trkpt><trkpt lat="1.1217414887699408" lon="-76.68052929669439"><ele>689.0</ele><time>2026-03-22T20:59:26Z</time></trkpt><trkpt lat="1.121709679492483" lon="-76.68045202177261"><ele>689.0</ele><time>2026-03-22T20:59:28Z</time></trkpt><trkpt lat="1.1216433829239456" lon="-76.68040999434871"><ele>689.0</ele><time>2026-03-22T20:59:31Z</time></trkpt><trkpt lat="1.1215317839924692" lon="-76.6803108525686"><ele>689.0</ele><time>2026-03-22T20:59:37Z</time></trkpt><trkpt lat="1.1214676003469486" lon="-76.6802921279256"><ele>689.0</ele><time>2026-03-22T20:59:43Z</time></trkpt><trkpt lat="1.1214525408689138" lon="-76.68021840182546"><ele>689.0</ele><time>2026-03-22T20:59:49Z</time></trkpt><trkpt lat="1.1215100869428807" lon="-76.6801919664068"><ele>689.0</ele><time>2026-03-22T20:59:59Z</time></trkpt><trkpt lat="1.1214975664778692" lon="-76.68026607916673"><ele>689.5714285714286</ele><time>2026-03-22T21:00:27Z</time></trkpt><trkpt lat="1.1214387486791593" lon="-76.68029689821374"><ele>690.1428571428571</ele><time>2026-03-22T21:00:35Z</time></trkpt><trkpt lat="1.1213694651306254" lon="-76.68031504969505"><ele>690.7142857142858</ele><time>2026-03-22T21:00:51Z</time></trkpt><trkpt lat="1.121413237891913" lon="-76.68036328659983"><ele>691.2857142857142</ele><time>2026-03-22T21:01:54Z</time></trkpt><trkpt lat="1.1214610753279055" lon="-76.68031176304068"><ele>691.8571428571429</ele><time>2026-03-22T21:02:27Z</time></trkpt><trkpt lat="1.1213734032782277" lon="-76.680332042808"><ele>692.4285714285714</ele><time>2026-03-22T21:02:29Z</time></trkpt><trkpt lat="1.1213056103197419" lon="-76.68035666623159"><ele>693.0</ele><time>2026-03-22T21:03:03Z</time></trkpt><trkpt lat="1.121398662876231" lon="-76.68035758497616"><ele>693.0</ele><time>2026-03-22T21:03:28Z</time></trkpt><trkpt lat="1.1213207893502588" lon="-76.68044288939365"><ele>693.0</ele><time>2026-03-22T21:03:48Z</time></trkpt><trkpt lat="1.1212839070970684" lon="-76.68049571932384"><ele>693.0</ele><time>2026-03-22T21:03:52Z</time></trkpt><trkpt lat="1.1205631281386494" lon="-76.6800817885529"><ele>693.0</ele><time>2026-03-22T21:06:49Z</time></trkpt><trkpt lat="1.1212073449347608" lon="-76.68055091816225"><ele>693.0</ele><time>2026-03-22T21:06:52Z</time></trkpt><trkpt lat="1.1211660311307452" lon="-76.68048667512564"><ele>693.0</ele><time>2026-03-22T21:08:05Z</time></trkpt><trkpt lat="1.121138893337891" lon="-76.68039669940781"><ele>693.0</ele><time>2026-03-22T21:08:51.999Z</time></trkpt><trkpt lat="1.121204066478975" lon="-76.68049237225829"><ele>693.0</ele><time>2026-03-22T21:09:29.016Z</time></trkpt><trkpt lat="1.1211498994464375" lon="-76.68054517226068"><ele>693.0</ele><time>2026-03-22T21:11:04.01Z</time></trkpt><trkpt lat="1.1210895553042937" lon="-76.68050166191989"><ele>693.0</ele><time>2026-03-22T21:11:06.01Z</time></trkpt><trkpt lat="1.1211599867754776" lon="-76.68052631439086"><ele>693.0</ele><time>2026-03-22T21:11:26.999Z</time></trkpt><trkpt lat="1.121235340083202" lon="-76.6805288343828"><ele>693.0</ele><time>2026-03-22T21:11:27.999Z</time></trkpt><trkpt lat="1.121273520383595" lon="-76.68057970501103"><ele>693.0</ele><time>2026-03-22T21:11:44.999Z</time></trkpt><trkpt lat="1.121335580654339" lon="-76.68056662362795"><ele>693.0</ele><time>2026-03-22T21:12:31.999Z</time></trkpt><trkpt lat="1.1213148643419482" lon="-76.68050234955892"><ele>693.0</ele><time>2026-03-22T21:12:48.999Z</time></trkpt><trkpt lat="1.1212935159767896" lon="-76.68043246100166"><ele>693.0</ele><time>2026-03-22T21:13:18.999Z</time></trkpt><trkpt lat="1.121342999631607" lon="-76.68038655338547"><ele>693.0</ele><time>2026-03-22T21:13:25.999Z</time></trkpt><trkpt lat="1.1214294550785768" lon="-76.68029420894656"><ele>693.0</ele><time>2026-03-22T21:13:38.999Z</time></trkpt><trkpt lat="1.121491804323967" lon="-76.68026692252523"><ele>693.0</ele><time>2026-03-22T21:13:53.999Z</time></trkpt><trkpt lat="1.1214296379277273" lon="-76.68029557045105"><ele>693.0</ele><time>2026-03-22T21:14:41.999Z</time></trkpt><trkpt lat="1.121436449616949" lon="-76.68022518539964"><ele>693.0</ele><time>2026-03-22T21:14:56.999Z</time></trkpt><trkpt lat="1.121372225750669" lon="-76.68022681623941"><ele>693.0</ele><time>2026-03-22T21:15:18.999Z</time></trkpt><trkpt lat="1.1213025145416482" lon="-76.68025068854618"><ele>693.0</ele><time>2026-03-22T21:15:32.999Z</time></trkpt><trkpt lat="1.1212265281133411" lon="-76.68030426063784"><ele>693.0</ele><time>2026-03-22T21:15:57Z</time></trkpt><trkpt lat="1.1211683004471082" lon="-76.68039647122987"><ele>693.0</ele><time>2026-03-22T21:17:09.999Z</time></trkpt><trkpt lat="1.1211089058214596" lon="-76.68041803986257"><ele>693.0</ele><time>2026-03-22T21:17:56Z</time></trkpt><trkpt lat="1.1210535121174376" lon="-76.68045531469724"><ele>693.0</ele><time>2026-03-22T21:18:06Z</time></trkpt><trkpt lat="1.1211122938598994" lon="-76.68051850048019"><ele>693.0</ele><time>2026-03-22T21:18:21Z</time></trkpt><trkpt lat="1.1210603212198689" lon="-76.68044424962288"><ele>693.0</ele><time>2026-03-22T21:18:31Z</time></trkpt><trkpt lat="1.1210255385652277" lon="-76.68053705496051"><ele>693.0</ele><time>2026-03-22T21:19:08.999Z</time></trkpt><trkpt lat="1.1210454497484312" lon="-76.68047463075094"><ele>693.0</ele><time>2026-03-22T21:20:08Z</time></trkpt><trkpt lat="1.1209816756999984" lon="-76.68041308728964"><ele>693.0</ele><time>2026-03-22T21:20:22Z</time></trkpt><trkpt lat="1.1209692591804654" lon="-76.68051301075472"><ele>693.0</ele><time>2026-03-22T21:21:30.999Z</time></trkpt><trkpt lat="1.121033426092658" lon="-76.68054098001778"><ele>693.0</ele><time>2026-03-22T21:31:18Z</time></trkpt><trkpt lat="1.121093785778489" lon="-76.68058670994075"><ele>693.0</ele><time>2026-03-22T21:41:26Z</time></trkpt><trkpt lat="1.1210231379259121" lon="-76.68062265828384"><ele>693.0</ele><time>2026-03-22T21:42:18Z</time></trkpt><trkpt lat="1.1209645730203697" lon="-76.68064838732161"><ele>693.0</ele><time>2026-03-22T21:42:57Z</time></trkpt><trkpt lat="1.12090637731529" lon="-76.68059909316254"><ele>693.0</ele><time>2026-03-22T21:43:08Z</time></trkpt><trkpt lat="1.1208635503742643" lon="-76.68055108449882"><ele>693.0</ele><time>2026-03-22T21:43:35Z</time></trkpt><trkpt lat="1.12081081309132" lon="-76.68059736540462"><ele>693.0</ele><time>2026-03-22T22:21:57.999Z</time></trkpt><trkpt lat="1.1207539582801176" lon="-76.68050746581181"><ele>693.0</ele><time>2026-03-22T22:22:29.999Z</time></trkpt><trkpt lat="1.1206976702964109" lon="-76.68044442758664"><ele>693.0</ele><time>2026-03-22T22:22:31.999Z</time></trkpt><trkpt lat="1.120636019713316" lon="-76.68036813258146"><ele>692.5999999999999</ele><time>2026-03-22T22:22:33.999Z</time></trkpt><trkpt lat="1.1205665752817775" lon="-76.68029872013113"><ele>692.1999999999999</ele><time>2026-03-22T22:22:35.999Z</time></trkpt><trkpt lat="1.120479156645424" lon="-76.68025820806783"><ele>691.8</ele><time>2026-03-22T22:22:37.999Z</time></trkpt><trkpt lat="1.1204193534702198" lon="-76.68029470886029"><ele>691.4</ele><time>2026-03-22T22:22:38.999Z</time></trkpt><trkpt lat="1.1203135946125646" lon="-76.68027659719972"><ele>691.0</ele><time>2026-03-22T22:22:40.999Z</time></trkpt><trkpt lat="1.1202124890997283" lon="-76.6802593925086"><ele>690.5999999999999</ele><time>2026-03-22T22:22:42.999Z</time></trkpt><trkpt lat="1.120101850989981" lon="-76.68021758161352"><ele>690.2</ele><time>2026-03-22T22:22:44.999Z</time></trkpt><trkpt lat="1.1199802924670708" lon="-76.68015417627326"><ele>689.8</ele><time>2026-03-22T22:22:46.999Z</time></trkpt><trkpt lat="1.1199307175867539" lon="-76.68011366128344"><ele>689.4000000000001</ele><time>2026-03-22T22:22:47.999Z</time></trkpt><trkpt lat="1.1198433545950544" lon="-76.68004226401222"><ele>689.0</ele><time>2026-03-22T22:22:50Z</time></trkpt><trkpt lat="1.1197512216288854" lon="-76.67996725431469"><ele>688.4000000000001</ele><time>2026-03-22T22:22:52Z</time></trkpt><trkpt lat="1.1196837673956226" lon="-76.67987532607526"><ele>687.8</ele><time>2026-03-22T22:22:54Z</time></trkpt><trkpt lat="1.1196250971036938" lon="-76.67978768089777"><ele>687.2</ele><time>2026-03-22T22:22:56Z</time></trkpt><trkpt lat="1.11956572922659" lon="-76.67969714849883"><ele>686.5999999999999</ele><time>2026-03-22T22:22:58Z</time></trkpt><trkpt lat="1.1195355134331544" lon="-76.67959164324174"><ele>686.0</ele><time>2026-03-22T22:23:00Z</time></trkpt><trkpt lat="1.1194889654734255" lon="-76.67949337087309"><ele>684.5999999999999</ele><time>2026-03-22T22:23:02Z</time></trkpt><trkpt lat="1.1194369205501888" lon="-76.67940276074245"><ele>683.2</ele><time>2026-03-22T22:23:04Z</time></trkpt><trkpt lat="1.1193839669789822" lon="-76.67928965788677"><ele>681.8</ele><time>2026-03-22T22:23:06Z</time></trkpt><trkpt lat="1.119340480774856" lon="-76.67919524232607"><ele>680.4000000000001</ele><time>2026-03-22T22:23:08Z</time></trkpt><trkpt lat="1.1192851213702801" lon="-76.67910105354552"><ele>679.0</ele><time>2026-03-22T22:23:10Z</time></trkpt><trkpt lat="1.1192074089706532" lon="-76.67899961263205"><ele>679.0</ele><time>2026-03-22T22:23:12Z</time></trkpt><trkpt lat="1.1191331265482811" lon="-76.67890272265429"><ele>679.0</ele><time>2026-03-22T22:23:14Z</time></trkpt><trkpt lat="1.1190604307590757" lon="-76.67880867463259"><ele>679.0</ele><time>2026-03-22T22:23:16Z</time></trkpt><trkpt lat="1.1189845759379795" lon="-76.67870970779911"><ele>679.0</ele><time>2026-03-22T22:23:18Z</time></trkpt><trkpt lat="1.1189155449408352" lon="-76.67861959553063"><ele>678.4000000000001</ele><time>2026-03-22T22:23:20Z</time></trkpt><trkpt lat="1.1188531229435037" lon="-76.67852522654408"><ele>677.8</ele><time>2026-03-22T22:23:22Z</time></trkpt><trkpt lat="1.1187817403659173" lon="-76.6784330462369"><ele>677.2</ele><time>2026-03-22T22:23:24Z</time></trkpt><trkpt lat="1.118715037965843" lon="-76.67834963070852"><ele>676.5999999999999</ele><time>2026-03-22T22:23:26Z</time></trkpt><trkpt lat="1.1186487093847675" lon="-76.67826433974899"><ele>676.0</ele><time>2026-03-22T22:23:28Z</time></trkpt><trkpt lat="1.1185703599194337" lon="-76.6781959303079"><ele>676.0</ele><time>2026-03-22T22:23:30Z</time></trkpt><trkpt lat="1.118479068031039" lon="-76.67815531921555"><ele>676.0</ele><time>2026-03-22T22:23:31.999Z</time></trkpt><trkpt lat="1.1184123342740038" lon="-76.67811241047697"><ele>676.0</ele><time>2026-03-22T22:23:33.999Z</time></trkpt><trkpt lat="1.1183568568904596" lon="-76.678025333205"><ele>676.0</ele><time>2026-03-22T22:23:35.999Z</time></trkpt><trkpt lat="1.118280552132883" lon="-76.6779397005033"><ele>676.0</ele><time>2026-03-22T22:23:37.999Z</time></trkpt><trkpt lat="1.118198412944193" lon="-76.67785554066724"><ele>676.0</ele><time>2026-03-22T22:23:39.999Z</time></trkpt><trkpt lat="1.118125261614533" lon="-76.67777567134213"><ele>676.0</ele><time>2026-03-22T22:23:41.999Z</time></trkpt><trkpt lat="1.1180680329893276" lon="-76.67766189274533"><ele>676.0</ele><time>2026-03-22T22:23:43.999Z</time></trkpt><trkpt lat="1.1180216875624411" lon="-76.6775929653791"><ele>676.0</ele><time>2026-03-22T22:23:44.999Z</time></trkpt><trkpt lat="1.1179728411287169" lon="-76.67753489579273"><ele>676.0</ele><time>2026-03-22T22:23:45.999Z</time></trkpt><trkpt lat="1.1179330540313615" lon="-76.67748059777664"><ele>675.1999999999999</ele><time>2026-03-22T22:23:46.999Z</time></trkpt><trkpt lat="1.117867512901804" lon="-76.67738228343423"><ele>674.4</ele><time>2026-03-22T22:23:48.999Z</time></trkpt><trkpt lat="1.1178006336405883" lon="-76.67729023656365"><ele>673.6</ele><time>2026-03-22T22:23:50.999Z</time></trkpt><trkpt lat="1.1177715601610088" lon="-76.67723395842027"><ele>672.8</ele><time>2026-03-22T22:23:51.999Z</time></trkpt><trkpt lat="1.117714416866539" lon="-76.67714261605383"><ele>672.0</ele><time>2026-03-22T22:23:53.999Z</time></trkpt><trkpt lat="1.1176700361860419" lon="-76.6770602548232"><ele>672.0</ele><time>2026-03-22T22:23:55.999Z</time></trkpt><trkpt lat="1.1176053487224795" lon="-76.67698420877716"><ele>672.0</ele><time>2026-03-22T22:23:57.999Z</time></trkpt><trkpt lat="1.1175548823554675" lon="-76.67694093028733"><ele>672.0</ele><time>2026-03-22T22:23:59.999Z</time></trkpt><trkpt lat="1.1175050796500303" lon="-76.67687664717857"><ele>672.0</ele><time>2026-03-22T22:24:01.999Z</time></trkpt><trkpt lat="1.1174313479163729" lon="-76.67679738456472"><ele>672.0</ele><time>2026-03-22T22:24:03.999Z</time></trkpt><trkpt lat="1.117346259565623" lon="-76.67671429841401"><ele>671.0</ele><time>2026-03-22T22:24:05.999Z</time></trkpt><trkpt lat="1.1173018932131897" lon="-76.67666449525602"><ele>670.0</ele><time>2026-03-22T22:24:06.999Z</time></trkpt><trkpt lat="1.1172583500849584" lon="-76.6766144158297"><ele>669.0</ele><time>2026-03-22T22:24:07.999Z</time></trkpt><trkpt lat="1.1172186359728924" lon="-76.6765617016568"><ele>668.0</ele><time>2026-03-22T22:24:08.999Z</time></trkpt><trkpt lat="1.117177726695125" lon="-76.67651281810122"><ele>667.0</ele><time>2026-03-22T22:24:09.999Z</time></trkpt><trkpt lat="1.1170873604735225" lon="-76.67641966007363"><ele>666.0</ele><time>2026-03-22T22:24:11.999Z</time></trkpt><trkpt lat="1.117041533631117" lon="-76.67636920527903"><ele>666.0</ele><time>2026-03-22T22:24:12.999Z</time></trkpt><trkpt lat="1.1169974090328472" lon="-76.676261296791"><ele>666.0</ele><time>2026-03-22T22:24:14.999Z</time></trkpt><trkpt lat="1.1169632373166192" lon="-76.6761466877164"><ele>666.0</ele><time>2026-03-22T22:24:16.999Z</time></trkpt><trkpt lat="1.116934115226332" lon="-76.67608813427194"><ele>666.0</ele><time>2026-03-22T22:24:17.999Z</time></trkpt><trkpt lat="1.1169308212806355" lon="-76.67602270821686"><ele>666.0</ele><time>2026-03-22T22:24:18.999Z</time></trkpt><trkpt lat="1.11692844586351" lon="-76.67595666964532"><ele>666.0</ele><time>2026-03-22T22:24:19.999Z</time></trkpt><trkpt lat="1.1169215069746559" lon="-76.67583004696101"><ele>664.6666666666666</ele><time>2026-03-22T22:24:21.999Z</time></trkpt><trkpt lat="1.116914640949837" lon="-76.67576003420986"><ele>663.3333333333334</ele><time>2026-03-22T22:24:22.999Z</time></trkpt><trkpt lat="1.1169112061138124" lon="-76.67568974003146"><ele>662.0</ele><time>2026-03-22T22:24:23.999Z</time></trkpt><trkpt lat="1.1169053714207207" lon="-76.67561918865759"><ele>660.6666666666667</ele><time>2026-03-22T22:24:24.999Z</time></trkpt><trkpt lat="1.1169000174801398" lon="-76.67555162448721"><ele>659.3333333333334</ele><time>2026-03-22T22:24:25.999Z</time></trkpt><trkpt lat="1.116890320221383" lon="-76.67542801003307"><ele>658.0</ele><time>2026-03-22T22:24:27.999Z</time></trkpt><trkpt lat="1.1168826131813656" lon="-76.67531495507656"><ele>659.6666666666667</ele><time>2026-03-22T22:24:29.999Z</time></trkpt><trkpt lat="1.1168807628734438" lon="-76.67521308521087"><ele>661.3333333333334</ele><time>2026-03-22T22:24:31.999Z</time></trkpt><trkpt lat="1.1168858967529014" lon="-76.6751151042061"><ele>663.0</ele><time>2026-03-22T22:24:33.999Z</time></trkpt><trkpt lat="1.1168978364956983" lon="-76.67504195107068"><ele>664.6666666666666</ele><time>2026-03-22T22:24:35.999Z</time></trkpt><trkpt lat="1.1169591826736605" lon="-76.67496647307222"><ele>666.3333333333333</ele><time>2026-03-22T22:24:38.999Z</time></trkpt><trkpt lat="1.1169694647891388" lon="-76.67489360645982"><ele>668.0</ele><time>2026-03-22T22:24:40.999Z</time></trkpt><trkpt lat="1.1169947694260385" lon="-76.6748226023428"><ele>668.0</ele><time>2026-03-22T22:24:42.999Z</time></trkpt><trkpt lat="1.117107448754127" lon="-76.6748233484934"><ele>668.0</ele><time>2026-03-22T22:24:43.999Z</time></trkpt><trkpt lat="1.1171639933975792" lon="-76.6747542777553"><ele>668.0</ele><time>2026-03-22T22:24:45.999Z</time></trkpt><trkpt lat="1.1172169733515627" lon="-76.67468221651006"><ele>668.0</ele><time>2026-03-22T22:24:47.999Z</time></trkpt><trkpt lat="1.117240361258766" lon="-76.67458955992669"><ele>668.0</ele><time>2026-03-22T22:24:49.999Z</time></trkpt><trkpt lat="1.1172579210451137" lon="-76.67448869563476"><ele>673.1666666666666</ele><time>2026-03-22T22:24:51.999Z</time></trkpt><trkpt lat="1.1172642810572275" lon="-76.67440831211131"><ele>678.3333333333333</ele><time>2026-03-22T22:24:53.999Z</time></trkpt><trkpt lat="1.1172631414599252" lon="-76.67432181979308"><ele>683.5</ele><time>2026-03-22T22:24:56Z</time></trkpt><trkpt lat="1.1172724035135773" lon="-76.67424361985306"><ele>688.6666666666666</ele><time>2026-03-22T22:24:58Z</time></trkpt><trkpt lat="1.117265356694935" lon="-76.67417986959508"><ele>693.8333333333334</ele><time>2026-03-22T22:25:00Z</time></trkpt><trkpt lat="1.1172474992750552" lon="-76.67410707096907"><ele>699.0</ele><time>2026-03-22T22:25:02Z</time></trkpt><trkpt lat="1.1172259651230594" lon="-76.67403399117404"><ele>699.0</ele><time>2026-03-22T22:25:04Z</time></trkpt><trkpt lat="1.1172028407184251" lon="-76.67396438672083"><ele>699.0</ele><time>2026-03-22T22:25:06Z</time></trkpt><trkpt lat="1.1171816217453658" lon="-76.67389467215789"><ele>699.0</ele><time>2026-03-22T22:25:08Z</time></trkpt><trkpt lat="1.1171577081164015" lon="-76.67381734516226"><ele>699.0</ele><time>2026-03-22T22:25:10Z</time></trkpt><trkpt lat="1.1171339976968848" lon="-76.67372228494047"><ele>699.0</ele><time>2026-03-22T22:25:12Z</time></trkpt><trkpt lat="1.117115804901219" lon="-76.67362043281271"><ele>699.0</ele><time>2026-03-22T22:25:14Z</time></trkpt><trkpt lat="1.117102970561694" lon="-76.67352128275382"><ele>700.6</ele><time>2026-03-22T22:25:16Z</time></trkpt><trkpt lat="1.1170926626687863" lon="-76.67342092264538"><ele>702.2</ele><time>2026-03-22T22:25:18Z</time></trkpt><trkpt lat="1.1170601568569327" lon="-76.67331892334775"><ele>703.8000000000001</ele><time>2026-03-22T22:25:20Z</time></trkpt><trkpt lat="1.1170164094074444" lon="-76.67324011171388"><ele>705.4000000000001</ele><time>2026-03-22T22:25:22Z</time></trkpt><trkpt lat="1.1169498884169404" lon="-76.67316232593228"><ele>707.0</ele><time>2026-03-22T22:25:24Z</time></trkpt><trkpt lat="1.1169092591650291" lon="-76.67309706739364"><ele>707.0</ele><time>2026-03-22T22:25:26Z</time></trkpt><trkpt lat="1.1168887592856895" lon="-76.67303385158561"><ele>707.0</ele><time>2026-03-22T22:25:28Z</time></trkpt><trkpt lat="1.1168716504696405" lon="-76.67296708983748"><ele>707.0</ele><time>2026-03-22T22:25:30Z</time></trkpt><trkpt lat="1.1168690701522466" lon="-76.67289350120998"><ele>707.0</ele><time>2026-03-22T22:25:32Z</time></trkpt><trkpt lat="1.1168694116393294" lon="-76.67282621509203"><ele>707.0</ele><time>2026-03-22T22:25:34Z</time></trkpt><trkpt lat="1.1168782832747333" lon="-76.67276377509256"><ele>707.0</ele><time>2026-03-22T22:25:36Z</time></trkpt><trkpt lat="1.116889362283774" lon="-76.67268293258658"><ele>707.0</ele><time>2026-03-22T22:25:39Z</time></trkpt><trkpt lat="1.11688797423701" lon="-76.67261165977831"><ele>704.1428571428571</ele><time>2026-03-22T22:25:42Z</time></trkpt><trkpt lat="1.116894232870283" lon="-76.67254089621058"><ele>701.2857142857142</ele><time>2026-03-22T22:26:15.999Z</time></trkpt><trkpt lat="1.1168868997257997" lon="-76.67246730894368"><ele>698.4285714285714</ele><time>2026-03-22T22:26:19.999Z</time></trkpt><trkpt lat="1.1168523979072291" lon="-76.67240927574873"><ele>695.5714285714286</ele><time>2026-03-22T22:26:23.999Z</time></trkpt><trkpt lat="1.1168154056087616" lon="-76.67235332416985"><ele>692.7142857142857</ele><time>2026-03-22T22:26:33.999Z</time></trkpt><trkpt lat="1.1168097122168048" lon="-76.67228170732626"><ele>689.8571428571429</ele><time>2026-03-22T22:26:40.999Z</time></trkpt><trkpt lat="1.1168688111087643" lon="-76.67224807557783"><ele>687.0</ele><time>2026-03-22T22:26:56.999Z</time></trkpt><trkpt lat="1.1168864883136258" lon="-76.6721623905435"><ele>687.0</ele><time>2026-03-22T22:27:00.999Z</time></trkpt><trkpt lat="1.1168942480283366" lon="-76.67208823657853"><ele>687.0</ele><time>2026-03-22T22:27:03Z</time></trkpt><trkpt lat="1.116895412476008" lon="-76.67200413114352"><ele>687.0</ele><time>2026-03-22T22:27:05Z</time></trkpt><trkpt lat="1.116893872316085" lon="-76.67192159978505"><ele>687.0</ele><time>2026-03-22T22:27:07Z</time></trkpt><trkpt lat="1.1168975705741104" lon="-76.67184264600742"><ele>687.0</ele><time>2026-03-22T22:27:09Z</time></trkpt><trkpt lat="1.1169079004323936" lon="-76.67176406152284"><ele>687.0</ele><time>2026-03-22T22:27:11Z</time></trkpt><trkpt lat="1.116921340801248" lon="-76.67168378586727"><ele>684.2</ele><time>2026-03-22T22:27:13Z</time></trkpt><trkpt lat="1.1169460689393416" lon="-76.67160142050048"><ele>681.4000000000001</ele><time>2026-03-22T22:27:15Z</time></trkpt><trkpt lat="1.1169568987578147" lon="-76.67148648924945"><ele>678.5999999999999</ele><time>2026-03-22T22:27:17Z</time></trkpt><trkpt lat="1.116998292771739" lon="-76.67136446130642"><ele>675.8</ele><time>2026-03-22T22:27:19Z</time></trkpt><trkpt lat="1.1170052309944967" lon="-76.67129176080212"><ele>673.0</ele><time>2026-03-22T22:27:20Z</time></trkpt><trkpt lat="1.1170359576414304" lon="-76.67122416615234"><ele>673.0</ele><time>2026-03-22T22:27:21Z</time></trkpt><trkpt lat="1.11706192076873" lon="-76.67115263568998"><ele>673.0</ele><time>2026-03-22T22:27:22Z</time></trkpt><trkpt lat="1.117089997436895" lon="-76.67108638648611"><ele>673.0</ele><time>2026-03-22T22:27:23Z</time></trkpt><trkpt lat="1.1171203573005826" lon="-76.67102197053539"><ele>673.0</ele><time>2026-03-22T22:27:24Z</time></trkpt><trkpt lat="1.117152596134931" lon="-76.6709630730256"><ele>673.0</ele><time>2026-03-22T22:27:25Z</time></trkpt><trkpt lat="1.1171863616810187" lon="-76.67090015103868"><ele>673.0</ele><time>2026-03-22T22:27:26Z</time></trkpt><trkpt lat="1.1172101016929956" lon="-76.67083557051167"><ele>673.0</ele><time>2026-03-22T22:27:27Z</time></trkpt><trkpt lat="1.117229511998209" lon="-76.67077324061344"><ele>671.6666666666667</ele><time>2026-03-22T22:27:28Z</time></trkpt><trkpt lat="1.1172502755104583" lon="-76.6707100158504"><ele>670.3333333333334</ele><time>2026-03-22T22:27:29Z</time></trkpt><trkpt lat="1.117268338442696" lon="-76.67064261181076"><ele>669.0</ele><time>2026-03-22T22:27:30Z</time></trkpt><trkpt lat="1.1172844070001653" lon="-76.67057746252219"><ele>667.6666666666666</ele><time>2026-03-22T22:27:31Z</time></trkpt><trkpt lat="1.117299541807341" lon="-76.67051528850469"><ele>666.3333333333333</ele><time>2026-03-22T22:27:32Z</time></trkpt><trkpt lat="1.1173347457069196" lon="-76.67039952501544"><ele>665.0</ele><time>2026-03-22T22:27:34Z</time></trkpt><trkpt lat="1.117372825095617" lon="-76.67027868761363"><ele>665.1666666666666</ele><time>2026-03-22T22:27:36Z</time></trkpt><trkpt lat="1.1173809775543282" lon="-76.67019660305117"><ele>665.3333333333333</ele><time>2026-03-22T22:27:37Z</time></trkpt><trkpt lat="1.1173922869814208" lon="-76.67012017679068"><ele>665.5</ele><time>2026-03-22T22:27:38Z</time></trkpt><trkpt lat="1.1173977228498633" lon="-76.67003862734701"><ele>665.6666666666666</ele><time>2026-03-22T22:27:39Z</time></trkpt><trkpt lat="1.1174114225186351" lon="-76.66996098387733"><ele>665.8333333333334</ele><time>2026-03-22T22:27:40Z</time></trkpt><trkpt lat="1.1174284069600866" lon="-76.66988643375872"><ele>666.0</ele><time>2026-03-22T22:27:41Z</time></trkpt><trkpt lat="1.1174542056046135" lon="-76.66979057776643"><ele>663.5</ele><time>2026-03-22T22:27:42Z</time></trkpt><trkpt lat="1.1174723063620058" lon="-76.66971206251372"><ele>661.0</ele><time>2026-03-22T22:27:43Z</time></trkpt><trkpt lat="1.1174902405318479" lon="-76.66963631592147"><ele>658.5</ele><time>2026-03-22T22:27:44Z</time></trkpt><trkpt lat="1.1174994190142187" lon="-76.66955798438616"><ele>656.0</ele><time>2026-03-22T22:27:45Z</time></trkpt><trkpt lat="1.1175071981193658" lon="-76.66947848376633"><ele>653.5</ele><time>2026-03-22T22:27:46Z</time></trkpt><trkpt lat="1.1175153069336985" lon="-76.66939925685635"><ele>651.0</ele><time>2026-03-22T22:27:47Z</time></trkpt><trkpt lat="1.1175264023211782" lon="-76.66932227077807"><ele>650.5</ele><time>2026-03-22T22:27:48Z</time></trkpt><trkpt lat="1.117541686086268" lon="-76.66924856364597"><ele>650.0</ele><time>2026-03-22T22:27:49Z</time></trkpt><trkpt lat="1.11755104588897" lon="-76.66917323685078"><ele>649.5</ele><time>2026-03-22T22:27:50Z</time></trkpt><trkpt lat="1.1175601477704764" lon="-76.66910990122682"><ele>649.0</ele><time>2026-03-22T22:27:51Z</time></trkpt><trkpt lat="1.1175852919244478" lon="-76.66899501174535"><ele>648.5</ele><time>2026-03-22T22:27:53Z</time></trkpt><trkpt lat="1.1175933878529676" lon="-76.66892906422208"><ele>648.0</ele><time>2026-03-22T22:27:54Z</time></trkpt><trkpt lat="1.1175975604837545" lon="-76.6688627668359"><ele>648.0</ele><time>2026-03-22T22:27:55Z</time></trkpt><trkpt lat="1.1175953513882033" lon="-76.66879650449064"><ele>648.0</ele><time>2026-03-22T22:27:56Z</time></trkpt><trkpt lat="1.117595689772762" lon="-76.66873162405096"><ele>648.0</ele><time>2026-03-22T22:27:57Z</time></trkpt><trkpt lat="1.1175964785936037" lon="-76.6686656123221"><ele>648.0</ele><time>2026-03-22T22:27:58Z</time></trkpt><trkpt lat="1.1175946994231993" lon="-76.66859809655008"><ele>648.0</ele><time>2026-03-22T22:27:59Z</time></trkpt><trkpt lat="1.1175999749328294" lon="-76.66853417543285"><ele>648.0</ele><time>2026-03-22T22:28:00Z</time></trkpt><trkpt lat="1.117603392693509" lon="-76.66846824752751"><ele>648.0</ele><time>2026-03-22T22:28:01Z</time></trkpt><trkpt lat="1.1176037154049687" lon="-76.66840403839726"><ele>647.2857142857143</ele><time>2026-03-22T22:28:02Z</time></trkpt><trkpt lat="1.1176067691545695" lon="-76.66833793821144"><ele>646.5714285714286</ele><time>2026-03-22T22:28:03Z</time></trkpt><trkpt lat="1.117607396620925" lon="-76.66826953142665"><ele>645.8571428571429</ele><time>2026-03-22T22:28:04Z</time></trkpt><trkpt lat="1.1176071852725231" lon="-76.66820146489833"><ele>645.1428571428571</ele><time>2026-03-22T22:28:05Z</time></trkpt><trkpt lat="1.1176044537606822" lon="-76.66813650289332"><ele>644.4285714285714</ele><time>2026-03-22T22:28:06Z</time></trkpt><trkpt lat="1.1176044113169201" lon="-76.66807014750216"><ele>643.7142857142857</ele><time>2026-03-22T22:28:07Z</time></trkpt><trkpt lat="1.1176027582651415" lon="-76.66799983082507"><ele>643.0</ele><time>2026-03-22T22:28:07.999Z</time></trkpt><trkpt lat="1.117595355747299" lon="-76.6679305867487"><ele>643.0</ele><time>2026-03-22T22:28:08.999Z</time></trkpt><trkpt lat="1.117587374586966" lon="-76.66780640166176"><ele>643.0</ele><time>2026-03-22T22:28:10.999Z</time></trkpt><trkpt lat="1.1175853511920355" lon="-76.66774324663108"><ele>643.0</ele><time>2026-03-22T22:28:11.999Z</time></trkpt><trkpt lat="1.1175817203516172" lon="-76.66767838542202"><ele>643.0</ele><time>2026-03-22T22:28:12.999Z</time></trkpt><trkpt lat="1.1175727203058994" lon="-76.66755621164259"><ele>643.0</ele><time>2026-03-22T22:28:14.999Z</time></trkpt><trkpt lat="1.1175722850834784" lon="-76.66749291110823"><ele>643.0</ele><time>2026-03-22T22:28:15.999Z</time></trkpt><trkpt lat="1.1175643966332973" lon="-76.66742510812817"><ele>642.7142857142857</ele><time>2026-03-22T22:28:16.999Z</time></trkpt><trkpt lat="1.1175549784032386" lon="-76.66735556962229"><ele>642.4285714285714</ele><time>2026-03-22T22:28:17.999Z</time></trkpt><trkpt lat="1.1175499484712537" lon="-76.66728570424793"><ele>642.1428571428571</ele><time>2026-03-22T22:28:18.999Z</time></trkpt><trkpt lat="1.1175417977919728" lon="-76.66721475130784"><ele>641.8571428571429</ele><time>2026-03-22T22:28:19.999Z</time></trkpt><trkpt lat="1.1175375342771827" lon="-76.66714053058212"><ele>641.5714285714286</ele><time>2026-03-22T22:28:20.999Z</time></trkpt><trkpt lat="1.1175306762656148" lon="-76.66706890581881"><ele>641.2857142857143</ele><time>2026-03-22T22:28:21.999Z</time></trkpt><trkpt lat="1.1175231474692153" lon="-76.66699331110573"><ele>641.0</ele><time>2026-03-22T22:28:22.999Z</time></trkpt><trkpt lat="1.117514900643121" lon="-76.66691947120889"><ele>640.7142857142858</ele><time>2026-03-22T22:28:23.999Z</time></trkpt><trkpt lat="1.1175110411452276" lon="-76.66684449462517"><ele>640.4285714285714</ele><time>2026-03-22T22:28:24.999Z</time></trkpt><trkpt lat="1.1175070373072746" lon="-76.66676927501621"><ele>640.1428571428571</ele><time>2026-03-22T22:28:25.999Z</time></trkpt><trkpt lat="1.1174990707760724" lon="-76.66669374392761"><ele>639.8571428571429</ele><time>2026-03-22T22:28:26.999Z</time></trkpt><trkpt lat="1.1174889629529938" lon="-76.66661899061508"><ele>639.5714285714286</ele><time>2026-03-22T22:28:27.999Z</time></trkpt><trkpt lat="1.1174832519173987" lon="-76.66654771546631"><ele>639.2857142857143</ele><time>2026-03-22T22:28:28.999Z</time></trkpt><trkpt lat="1.1174768930754135" lon="-76.66648004975032"><ele>639.0</ele><time>2026-03-22T22:28:29.999Z</time></trkpt><trkpt lat="1.1174722081094537" lon="-76.66641231415409"><ele>639.0000000000001</ele><time>2026-03-22T22:28:30.999Z</time></trkpt><trkpt lat="1.1174658570865879" lon="-76.66634584808345"><ele>639.0</ele><time>2026-03-22T22:28:31.999Z</time></trkpt><trkpt lat="1.1174602099779973" lon="-76.66627851034167"><ele>639.0</ele><time>2026-03-22T22:28:32.999Z</time></trkpt><trkpt lat="1.117457580019946" lon="-76.6662113795109"><ele>639.0</ele><time>2026-03-22T22:28:33.999Z</time></trkpt><trkpt lat="1.1174562667791612" lon="-76.6661446289017"><ele>639.0</ele><time>2026-03-22T22:28:34.999Z</time></trkpt><trkpt lat="1.1174546122357487" lon="-76.66607841656497"><ele>639.0000000000001</ele><time>2026-03-22T22:28:35.999Z</time></trkpt><trkpt lat="1.1174597302414118" lon="-76.66601042676795"><ele>639.0</ele><time>2026-03-22T22:28:36.999Z</time></trkpt><trkpt lat="1.1174692700455235" lon="-76.66594163211242"><ele>638.4285714285714</ele><time>2026-03-22T22:28:37.999Z</time></trkpt><trkpt lat="1.1174832550579512" lon="-76.66587006418065"><ele>637.8571428571429</ele><time>2026-03-22T22:28:38.999Z</time></trkpt><trkpt lat="1.1174982782305043" lon="-76.66579946989582"><ele>637.2857142857142</ele><time>2026-03-22T22:28:39.999Z</time></trkpt><trkpt lat="1.1175100535591334" lon="-76.66573047558805"><ele>636.7142857142858</ele><time>2026-03-22T22:28:40.999Z</time></trkpt><trkpt lat="1.1175268588133458" lon="-76.66565956179147"><ele>636.1428571428571</ele><time>2026-03-22T22:28:41.999Z</time></trkpt><trkpt lat="1.1175434746148212" lon="-76.66558852387367"><ele>635.5714285714286</ele><time>2026-03-22T22:28:42.999Z</time></trkpt><trkpt lat="1.1175574896320217" lon="-76.66551792117417"><ele>635.0</ele><time>2026-03-22T22:28:43.999Z</time></trkpt><trkpt lat="1.1175727035677088" lon="-76.66544665949937"><ele>634.9999999999999</ele><time>2026-03-22T22:28:44.999Z</time></trkpt><trkpt lat="1.117589252273197" lon="-76.66537491919506"><ele>635.0</ele><time>2026-03-22T22:28:45.999Z</time></trkpt><trkpt lat="1.1176041491397797" lon="-76.66530159718289"><ele>635.0</ele><time>2026-03-22T22:28:46.999Z</time></trkpt><trkpt lat="1.117619863091117" lon="-76.6652305124575"><ele>635.0</ele><time>2026-03-22T22:28:47.999Z</time></trkpt><trkpt lat="1.1176339622094758" lon="-76.66515924762216"><ele>635.0</ele><time>2026-03-22T22:28:48.999Z</time></trkpt><trkpt lat="1.1176490176168052" lon="-76.66508674581061"><ele>634.9999999999999</ele><time>2026-03-22T22:28:49.999Z</time></trkpt><trkpt lat="1.1176646831554815" lon="-76.6650142330825"><ele>635.0</ele><time>2026-03-22T22:28:50.999Z</time></trkpt><trkpt lat="1.1176806310285876" lon="-76.66494200408847"><ele>634.9999999999999</ele><time>2026-03-22T22:28:51.999Z</time></trkpt><trkpt lat="1.1176938989796767" lon="-76.66487041612659"><ele>635.0</ele><time>2026-03-22T22:28:52.999Z</time></trkpt><trkpt lat="1.1177064209301923" lon="-76.66480169829974"><ele>635.0</ele><time>2026-03-22T22:28:53.999Z</time></trkpt><trkpt lat="1.117720131198788" lon="-76.66473244867083"><ele>635.0</ele><time>2026-03-22T22:28:54.999Z</time></trkpt><trkpt lat="1.1177333412086663" lon="-76.66466217611328"><ele>635.0</ele><time>2026-03-22T22:28:55.999Z</time></trkpt><trkpt lat="1.1177479426804708" lon="-76.66459351917372"><ele>634.9999999999999</ele><time>2026-03-22T22:28:56.999Z</time></trkpt><trkpt lat="1.1177657243705024" lon="-76.66452415370472"><ele>635.0</ele><time>2026-03-22T22:28:57.999Z</time></trkpt><trkpt lat="1.1177809425108556" lon="-76.66445339713097"><ele>634.5714285714286</ele><time>2026-03-22T22:28:58.999Z</time></trkpt><trkpt lat="1.1177966662751257" lon="-76.66438202562186"><ele>634.1428571428571</ele><time>2026-03-22T22:28:59.999Z</time></trkpt><trkpt lat="1.1178111575498872" lon="-76.66431270465442"><ele>633.7142857142858</ele><time>2026-03-22T22:29:00.999Z</time></trkpt><trkpt lat="1.1178255923397837" lon="-76.66424173203661"><ele>633.2857142857142</ele><time>2026-03-22T22:29:01.999Z</time></trkpt><trkpt lat="1.1178432543891232" lon="-76.66417182578162"><ele>632.8571428571429</ele><time>2026-03-22T22:29:02.999Z</time></trkpt><trkpt lat="1.1178600938435224" lon="-76.66410117392414"><ele>632.4285714285714</ele><time>2026-03-22T22:29:03.999Z</time></trkpt><trkpt lat="1.1178769800501234" lon="-76.6640327258274"><ele>632.0</ele><time>2026-03-22T22:29:04.999Z</time></trkpt><trkpt lat="1.1178961254418016" lon="-76.66396365413037"><ele>632.0</ele><time>2026-03-22T22:29:05.999Z</time></trkpt><trkpt lat="1.11790821819621" lon="-76.66389229826882"><ele>632.0</ele><time>2026-03-22T22:29:06.999Z</time></trkpt><trkpt lat="1.1179197432750054" lon="-76.66382260582905"><ele>632.0</ele><time>2026-03-22T22:29:08Z</time></trkpt><trkpt lat="1.1179351238172692" lon="-76.66375582605086"><ele>632.0</ele><time>2026-03-22T22:29:09Z</time></trkpt><trkpt lat="1.1179496365006392" lon="-76.6636910752384"><ele>632.0</ele><time>2026-03-22T22:29:10Z</time></trkpt><trkpt lat="1.117965418757079" lon="-76.66362899183216"><ele>632.0</ele><time>2026-03-22T22:29:11Z</time></trkpt><trkpt lat="1.117996907892609" lon="-76.66350794966527"><ele>631.2857142857143</ele><time>2026-03-22T22:29:13Z</time></trkpt><trkpt lat="1.1180169043311503" lon="-76.6634456024804"><ele>630.5714285714286</ele><time>2026-03-22T22:29:14Z</time></trkpt><trkpt lat="1.1180422850898464" lon="-76.66338427651361"><ele>629.8571428571429</ele><time>2026-03-22T22:29:15Z</time></trkpt><trkpt lat="1.118066443460997" lon="-76.66332144463071"><ele>629.1428571428571</ele><time>2026-03-22T22:29:16Z</time></trkpt><trkpt lat="1.1180873110461864" lon="-76.66325480557418"><ele>628.4285714285714</ele><time>2026-03-22T22:29:17Z</time></trkpt><trkpt lat="1.118112497306271" lon="-76.66318862062029"><ele>627.7142857142858</ele><time>2026-03-22T22:29:18Z</time></trkpt><trkpt lat="1.1181381641175545" lon="-76.66312475297208"><ele>627.0</ele><time>2026-03-22T22:29:19Z</time></trkpt><trkpt lat="1.1181619575637836" lon="-76.66306301651899"><ele>627.0</ele><time>2026-03-22T22:29:20Z</time></trkpt><trkpt lat="1.1181849097978591" lon="-76.66300262106455"><ele>627.0</ele><time>2026-03-22T22:29:21Z</time></trkpt><trkpt lat="1.1182121316628157" lon="-76.66294348859807"><ele>627.0</ele><time>2026-03-22T22:29:22Z</time></trkpt><trkpt lat="1.1182410683909474" lon="-76.6628802587693"><ele>627.0</ele><time>2026-03-22T22:29:23Z</time></trkpt><trkpt lat="1.1182668809346783" lon="-76.66281459759391"><ele>627.0</ele><time>2026-03-22T22:29:24Z</time></trkpt><trkpt lat="1.118292921197059" lon="-76.66274996058856"><ele>627.0</ele><time>2026-03-22T22:29:25Z</time></trkpt><trkpt lat="1.1183214002447077" lon="-76.66268771735284"><ele>627.0</ele><time>2026-03-22T22:29:26Z</time></trkpt><trkpt lat="1.1183484334870717" lon="-76.66262448623038"><ele>626.4285714285714</ele><time>2026-03-22T22:29:27Z</time></trkpt><trkpt lat="1.1183699656433639" lon="-76.66255651271949"><ele>625.8571428571429</ele><time>2026-03-22T22:29:28Z</time></trkpt><trkpt lat="1.1183905091745767" lon="-76.66248663632882"><ele>625.2857142857142</ele><time>2026-03-22T22:29:29Z</time></trkpt><trkpt lat="1.1184137093854856" lon="-76.66241939549369"><ele>624.7142857142858</ele><time>2026-03-22T22:29:30Z</time></trkpt><trkpt lat="1.1184383583271338" lon="-76.66235490502858"><ele>624.1428571428571</ele><time>2026-03-22T22:29:31Z</time></trkpt><trkpt lat="1.1184599307329632" lon="-76.66228992815451"><ele>623.5714285714286</ele><time>2026-03-22T22:29:32Z</time></trkpt><trkpt lat="1.1184805335180943" lon="-76.66222368098225"><ele>623.0</ele><time>2026-03-22T22:29:33Z</time></trkpt><trkpt lat="1.1185021406623334" lon="-76.66215494921015"><ele>623.0</ele><time>2026-03-22T22:29:34Z</time></trkpt><trkpt lat="1.118527486220926" lon="-76.66208473920982"><ele>623.0</ele><time>2026-03-22T22:29:35Z</time></trkpt><trkpt lat="1.1185540879613978" lon="-76.66201628947304"><ele>623.0</ele><time>2026-03-22T22:29:36Z</time></trkpt><trkpt lat="1.1185816266525324" lon="-76.66194538151277"><ele>623.0</ele><time>2026-03-22T22:29:37Z</time></trkpt><trkpt lat="1.1186147773633222" lon="-76.66187720273975"><ele>623.0</ele><time>2026-03-22T22:29:38Z</time></trkpt><trkpt lat="1.1186428653811755" lon="-76.6618049268278"><ele>623.0</ele><time>2026-03-22T22:29:39Z</time></trkpt><trkpt lat="1.118666718656776" lon="-76.66173187799926"><ele>622.6666666666666</ele><time>2026-03-22T22:29:40Z</time></trkpt><trkpt lat="1.11869411577571" lon="-76.66166227155816"><ele>622.3333333333333</ele><time>2026-03-22T22:29:41Z</time></trkpt><trkpt lat="1.1187146434604354" lon="-76.66159046385778"><ele>622.0</ele><time>2026-03-22T22:29:42Z</time></trkpt><trkpt lat="1.1187301458076915" lon="-76.66151576557392"><ele>621.6666666666666</ele><time>2026-03-22T22:29:43Z</time></trkpt><trkpt lat="1.1187460282781916" lon="-76.66143887008614"><ele>621.3333333333334</ele><time>2026-03-22T22:29:44Z</time></trkpt><trkpt lat="1.1187607832186741" lon="-76.66136012991211"><ele>621.0</ele><time>2026-03-22T22:29:45Z</time></trkpt><trkpt lat="1.1187762060784763" lon="-76.66128632268853"><ele>621.0</ele><time>2026-03-22T22:29:46Z</time></trkpt><trkpt lat="1.1187902739295976" lon="-76.66121278496188"><ele>621.0</ele><time>2026-03-22T22:29:47Z</time></trkpt><trkpt lat="1.118805318645063" lon="-76.66113990910596"><ele>621.0</ele><time>2026-03-22T22:29:48Z</time></trkpt><trkpt lat="1.1188192402234607" lon="-76.66106691074322"><ele>621.0</ele><time>2026-03-22T22:29:49Z</time></trkpt><trkpt lat="1.118833065179024" lon="-76.66098982709563"><ele>621.0</ele><time>2026-03-22T22:29:50Z</time></trkpt><trkpt lat="1.1188514321471466" lon="-76.66091158266568"><ele>621.0</ele><time>2026-03-22T22:29:51Z</time></trkpt><trkpt lat="1.1188682177350813" lon="-76.66082815771479"><ele>620.8333333333334</ele><time>2026-03-22T22:29:52Z</time></trkpt><trkpt lat="1.1188858209871133" lon="-76.66074348269687"><ele>620.6666666666666</ele><time>2026-03-22T22:29:53Z</time></trkpt><trkpt lat="1.11890073409823" lon="-76.6606614840074"><ele>620.5</ele><time>2026-03-22T22:29:54Z</time></trkpt><trkpt lat="1.1189171093103356" lon="-76.66058143723441"><ele>620.3333333333333</ele><time>2026-03-22T22:29:55Z</time></trkpt><trkpt lat="1.1189336462361565" lon="-76.66050245039428"><ele>620.1666666666666</ele><time>2026-03-22T22:29:56Z</time></trkpt><trkpt lat="1.1189534068659541" lon="-76.6604274698874"><ele>620.0</ele><time>2026-03-22T22:29:57Z</time></trkpt><trkpt lat="1.1189689991246363" lon="-76.66035329551087"><ele>620.0</ele><time>2026-03-22T22:29:58Z</time></trkpt><trkpt lat="1.118983514802462" lon="-76.66028103290047"><ele>620.0</ele><time>2026-03-22T22:29:59Z</time></trkpt><trkpt lat="1.1189979114041566" lon="-76.66021090037351"><ele>620.0</ele><time>2026-03-22T22:30:00Z</time></trkpt><trkpt lat="1.119014413994871" lon="-76.6601438229309"><ele>620.0</ele><time>2026-03-22T22:30:01Z</time></trkpt><trkpt lat="1.119030725408245" lon="-76.66007768302228"><ele>620.0</ele><time>2026-03-22T22:30:02Z</time></trkpt><trkpt lat="1.1190468912919862" lon="-76.66001189057108"><ele>620.0</ele><time>2026-03-22T22:30:03Z</time></trkpt><trkpt lat="1.1190590662358968" lon="-76.65994360423575"><ele>620.0</ele><time>2026-03-22T22:30:04Z</time></trkpt><trkpt lat="1.1190667699468242" lon="-76.659876638046"><ele>619.7142857142858</ele><time>2026-03-22T22:30:05Z</time></trkpt><trkpt lat="1.1190733188252833" lon="-76.65980822907733"><ele>619.4285714285714</ele><time>2026-03-22T22:30:06Z</time></trkpt><trkpt lat="1.1190798469511924" lon="-76.65974002523446"><ele>619.1428571428571</ele><time>2026-03-22T22:30:07Z</time></trkpt><trkpt lat="1.1190865228913431" lon="-76.65967214076774"><ele>618.8571428571429</ele><time>2026-03-22T22:30:08Z</time></trkpt><trkpt lat="1.119092418160523" lon="-76.65960576427797"><ele>618.5714285714286</ele><time>2026-03-22T22:30:09Z</time></trkpt><trkpt lat="1.119101970813569" lon="-76.65954041231963"><ele>618.2857142857143</ele><time>2026-03-22T22:30:10Z</time></trkpt><trkpt lat="1.119113107866186" lon="-76.65947550289445"><ele>618.0</ele><time>2026-03-22T22:30:11Z</time></trkpt><trkpt lat="1.1191236966792188" lon="-76.65940982001749"><ele>617.4285714285714</ele><time>2026-03-22T22:30:12Z</time></trkpt><trkpt lat="1.119130941319193" lon="-76.65934112182"><ele>616.8571428571429</ele><time>2026-03-22T22:30:13Z</time></trkpt><trkpt lat="1.1191375720092824" lon="-76.65926954471558"><ele>616.2857142857142</ele><time>2026-03-22T22:30:14Z</time></trkpt><trkpt lat="1.119147286175457" lon="-76.65919658820744"><ele>615.7142857142858</ele><time>2026-03-22T22:30:15Z</time></trkpt><trkpt lat="1.1191603196647217" lon="-76.6591252825509"><ele>615.1428571428571</ele><time>2026-03-22T22:30:16Z</time></trkpt><trkpt lat="1.119176061318271" lon="-76.65905332410466"><ele>614.5714285714286</ele><time>2026-03-22T22:30:17Z</time></trkpt><trkpt lat="1.1191932565271754" lon="-76.65898137974261"><ele>614.0</ele><time>2026-03-22T22:30:18Z</time></trkpt><trkpt lat="1.1192112695905059" lon="-76.6589148690642"><ele>614.0</ele><time>2026-03-22T22:30:19Z</time></trkpt><trkpt lat="1.1192369470336028" lon="-76.65880670578746"><ele>614.0</ele><time>2026-03-22T22:30:21Z</time></trkpt><trkpt lat="1.119251353812334" lon="-76.65874215553603"><ele>614.0</ele><time>2026-03-22T22:30:25Z</time></trkpt><trkpt lat="1.1192784414317491" lon="-76.65867342785505"><ele>614.0</ele><time>2026-03-22T22:30:29.999Z</time></trkpt><trkpt lat="1.119305435020493" lon="-76.65859831083189"><ele>614.0</ele><time>2026-03-22T22:30:31.999Z</time></trkpt><trkpt lat="1.1193300314554233" lon="-76.65851010973645"><ele>614.0</ele><time>2026-03-22T22:30:33.999Z</time></trkpt><trkpt lat="1.1193795338310757" lon="-76.65842365660414"><ele>613.4</ele><time>2026-03-22T22:30:35.999Z</time></trkpt><trkpt lat="1.119455264988991" lon="-76.65834214447995"><ele>612.8</ele><time>2026-03-22T22:30:37.999Z</time></trkpt><trkpt lat="1.119529798522534" lon="-76.65826342620257"><ele>612.2</ele><time>2026-03-22T22:30:39.999Z</time></trkpt><trkpt lat="1.1196034344077168" lon="-76.65818810816648"><ele>611.6</ele><time>2026-03-22T22:30:41.999Z</time></trkpt><trkpt lat="1.1196827673792717" lon="-76.65811119354152"><ele>611.0</ele><time>2026-03-22T22:30:43.999Z</time></trkpt><trkpt lat="1.1197577851504585" lon="-76.65803000795295"><ele>611.0</ele><time>2026-03-22T22:30:45.999Z</time></trkpt><trkpt lat="1.119824002035283" lon="-76.65793594945127"><ele>611.0</ele><time>2026-03-22T22:30:47.999Z</time></trkpt><trkpt lat="1.1198713723217193" lon="-76.65782660902391"><ele>611.0</ele><time>2026-03-22T22:30:49.999Z</time></trkpt><trkpt lat="1.119913270438666" lon="-76.65772090166287"><ele>611.0</ele><time>2026-03-22T22:30:51.999Z</time></trkpt><trkpt lat="1.11993475808849" lon="-76.65762315352515"><ele>611.0</ele><time>2026-03-22T22:30:53.999Z</time></trkpt><trkpt lat="1.1199543960500313" lon="-76.65754447637099"><ele>610.6</ele><time>2026-03-22T22:30:55.999Z</time></trkpt><trkpt lat="1.1199704475366612" lon="-76.65746639523593"><ele>610.2</ele><time>2026-03-22T22:30:57.999Z</time></trkpt><trkpt lat="1.1199847243216539" lon="-76.65737170370642"><ele>609.8</ele><time>2026-03-22T22:30:59.999Z</time></trkpt><trkpt lat="1.1200134969173279" lon="-76.65727673352134"><ele>609.4</ele><time>2026-03-22T22:31:01.999Z</time></trkpt><trkpt lat="1.1200416357208187" lon="-76.65718223403692"><ele>609.0</ele><time>2026-03-22T22:31:03.999Z</time></trkpt><trkpt lat="1.1200771959054274" lon="-76.6570911405658"><ele>609.0</ele><time>2026-03-22T22:31:05.999Z</time></trkpt><trkpt lat="1.12010834720099" lon="-76.65699730642883"><ele>609.0</ele><time>2026-03-22T22:31:07.999Z</time></trkpt><trkpt lat="1.1201387434262224" lon="-76.6569107579588"><ele>609.0</ele><time>2026-03-22T22:31:09.999Z</time></trkpt><trkpt lat="1.1201692495040552" lon="-76.65683456786617"><ele>609.0</ele><time>2026-03-22T22:31:11.999Z</time></trkpt><trkpt lat="1.12020259220778" lon="-76.6567663314229"><ele>609.0</ele><time>2026-03-22T22:31:14Z</time></trkpt><trkpt lat="1.1202314721442075" lon="-76.65670299956906"><ele>609.0</ele><time>2026-03-22T22:31:16Z</time></trkpt><trkpt lat="1.1202620123730802" lon="-76.65664782176262"><ele>608.6666666666666</ele><time>2026-03-22T22:31:20Z</time></trkpt><trkpt lat="1.120262506349899" lon="-76.65658131762503"><ele>608.3333333333334</ele><time>2026-03-22T22:31:37Z</time></trkpt><trkpt lat="1.120298943450128" lon="-76.65652253830649"><ele>608.0</ele><time>2026-03-22T22:31:40Z</time></trkpt><trkpt lat="1.1203781162282125" lon="-76.65651948941351"><ele>607.6666666666667</ele><time>2026-03-22T22:31:43Z</time></trkpt><trkpt lat="1.1204501901962456" lon="-76.65652287076232"><ele>607.3333333333334</ele><time>2026-03-22T22:31:45Z</time></trkpt><trkpt lat="1.1205454726932598" lon="-76.65649876590855"><ele>607.0</ele><time>2026-03-22T22:31:47Z</time></trkpt><trkpt lat="1.1206485627409277" lon="-76.65647080867738"><ele>606.5</ele><time>2026-03-22T22:31:49Z</time></trkpt><trkpt lat="1.1207676316588735" lon="-76.65645238376506"><ele>606.0</ele><time>2026-03-22T22:31:51Z</time></trkpt><trkpt lat="1.1208902106392653" lon="-76.65642235741186"><ele>605.5</ele><time>2026-03-22T22:31:53Z</time></trkpt><trkpt lat="1.1209487131701708" lon="-76.65639580731279"><ele>605.0</ele><time>2026-03-22T22:31:54Z</time></trkpt><trkpt lat="1.1210072393810813" lon="-76.65636352705567"><ele>604.5</ele><time>2026-03-22T22:31:55Z</time></trkpt><trkpt lat="1.1210618516536457" lon="-76.65632737341716"><ele>604.0</ele><time>2026-03-22T22:31:56Z</time></trkpt><trkpt lat="1.1211132605646408" lon="-76.65628968615405"><ele>604.0</ele><time>2026-03-22T22:31:57Z</time></trkpt><trkpt lat="1.1212070889200538" lon="-76.65621639804534"><ele>604.0</ele><time>2026-03-22T22:31:59Z</time></trkpt><trkpt lat="1.1212918627918598" lon="-76.65614641914988"><ele>604.0</ele><time>2026-03-22T22:32:01Z</time></trkpt><trkpt lat="1.1213835037213395" lon="-76.65606983172394"><ele>604.0</ele><time>2026-03-22T22:32:03Z</time></trkpt><trkpt lat="1.1214865756468886" lon="-76.65600900301689"><ele>603.4</ele><time>2026-03-22T22:32:05Z</time></trkpt><trkpt lat="1.1215960242944365" lon="-76.65596326107912"><ele>602.8</ele><time>2026-03-22T22:32:07Z</time></trkpt><trkpt lat="1.1217058502638753" lon="-76.65591725127973"><ele>602.2</ele><time>2026-03-22T22:32:09Z</time></trkpt><trkpt lat="1.1218198305533584" lon="-76.65587633043282"><ele>601.6</ele><time>2026-03-22T22:32:11Z</time></trkpt><trkpt lat="1.1218809450558371" lon="-76.65585214599369"><ele>601.0</ele><time>2026-03-22T22:32:12Z</time></trkpt><trkpt lat="1.1219407766964573" lon="-76.65582205118912"><ele>601.0</ele><time>2026-03-22T22:32:13Z</time></trkpt><trkpt lat="1.1219989527993928" lon="-76.65578478092552"><ele>601.0</ele><time>2026-03-22T22:32:14Z</time></trkpt><trkpt lat="1.1220523261032358" lon="-76.65573499317517"><ele>601.0</ele><time>2026-03-22T22:32:15Z</time></trkpt><trkpt lat="1.1220957383945849" lon="-76.65567405506837"><ele>601.0</ele><time>2026-03-22T22:32:16Z</time></trkpt><trkpt lat="1.1221336035385485" lon="-76.65561094922802"><ele>601.0</ele><time>2026-03-22T22:32:17Z</time></trkpt><trkpt lat="1.1221623618006606" lon="-76.6555416570338"><ele>601.0</ele><time>2026-03-22T22:32:18Z</time></trkpt><trkpt lat="1.1221883991448693" lon="-76.65547100386179"><ele>601.0</ele><time>2026-03-22T22:32:19Z</time></trkpt><trkpt lat="1.1222079482907665" lon="-76.65539724188295"><ele>601.0</ele><time>2026-03-22T22:32:20Z</time></trkpt><trkpt lat="1.1222334497833144" lon="-76.65532660459336"><ele>601.0</ele><time>2026-03-22T22:32:21Z</time></trkpt><trkpt lat="1.122259691309941" lon="-76.65525836623992"><ele>601.0</ele><time>2026-03-22T22:32:22Z</time></trkpt><trkpt lat="1.1222833597588773" lon="-76.65518692799493"><ele>601.0</ele><time>2026-03-22T22:32:23Z</time></trkpt><trkpt lat="1.122307315072586" lon="-76.65511775975745"><ele>601.0</ele><time>2026-03-22T22:32:24Z</time></trkpt><trkpt lat="1.1223320250622808" lon="-76.65504900152182"><ele>601.0</ele><time>2026-03-22T22:32:25Z</time></trkpt><trkpt lat="1.1223565820974286" lon="-76.6549810610263"><ele>601.0</ele><time>2026-03-22T22:32:26Z</time></trkpt><trkpt lat="1.1223821601257589" lon="-76.65491596960119"><ele>598.5</ele><time>2026-03-22T22:32:27Z</time></trkpt><trkpt lat="1.1224146592782747" lon="-76.65485427818773"><ele>596.0</ele><time>2026-03-22T22:32:28Z</time></trkpt><trkpt lat="1.1224524276582852" lon="-76.65479664308825"><ele>593.5</ele><time>2026-03-22T22:32:29Z</time></trkpt><trkpt lat="1.1224953511520206" lon="-76.65474494406088"><ele>591.0</ele><time>2026-03-22T22:32:30Z</time></trkpt><trkpt lat="1.1225959937867462" lon="-76.65468454204087"><ele>588.5</ele><time>2026-03-22T22:32:32Z</time></trkpt><trkpt lat="1.1227039120283693" lon="-76.65467966325035"><ele>586.0</ele><time>2026-03-22T22:32:34Z</time></trkpt><trkpt lat="1.1228179008453405" lon="-76.65471302568031"><ele>586.0</ele><time>2026-03-22T22:32:36Z</time></trkpt><trkpt lat="1.122936192753534" lon="-76.65475931693622"><ele>586.0</ele><time>2026-03-22T22:32:38Z</time></trkpt><trkpt lat="1.1229961681085554" lon="-76.65478296988415"><ele>586.0</ele><time>2026-03-22T22:32:39Z</time></trkpt><trkpt lat="1.1230558338722947" lon="-76.65480631504246"><ele>586.0</ele><time>2026-03-22T22:32:40Z</time></trkpt><trkpt lat="1.123163783413826" lon="-76.65485061845251"><ele>586.0</ele><time>2026-03-22T22:32:42Z</time></trkpt><trkpt lat="1.1232594106100597" lon="-76.65488539332199"><ele>584.8</ele><time>2026-03-22T22:32:43.999Z</time></trkpt><trkpt lat="1.1233583609622015" lon="-76.65492704032903"><ele>583.6</ele><time>2026-03-22T22:32:45.999Z</time></trkpt><trkpt lat="1.1234623919712103" lon="-76.65496445304318"><ele>582.4</ele><time>2026-03-22T22:32:47.999Z</time></trkpt><trkpt lat="1.1235692704695313" lon="-76.65496707634968"><ele>581.2</ele><time>2026-03-22T22:32:49.999Z</time></trkpt><trkpt lat="1.1236805640991512" lon="-76.6549266120181"><ele>580.0</ele><time>2026-03-22T22:32:51.999Z</time></trkpt><trkpt lat="1.123773827031178" lon="-76.65487388222911"><ele>580.0</ele><time>2026-03-22T22:32:53.999Z</time></trkpt><trkpt lat="1.1238566896136686" lon="-76.65482099870832"><ele>580.0</ele><time>2026-03-22T22:32:55.999Z</time></trkpt><trkpt lat="1.1239388646522182" lon="-76.65476830329214"><ele>580.0</ele><time>2026-03-22T22:32:57.999Z</time></trkpt><trkpt lat="1.1240143539182381" lon="-76.65471910159106"><ele>580.0</ele><time>2026-03-22T22:32:59.999Z</time></trkpt><trkpt lat="1.1240903032048013" lon="-76.65465168135927"><ele>580.0</ele><time>2026-03-22T22:33:01.999Z</time></trkpt><trkpt lat="1.1241649959459208" lon="-76.65457210439689"><ele>580.0</ele><time>2026-03-22T22:33:03.999Z</time></trkpt><trkpt lat="1.1242445790016011" lon="-76.65448763129157"><ele>580.0</ele><time>2026-03-22T22:33:05.999Z</time></trkpt><trkpt lat="1.124332863730235" lon="-76.65440210400581"><ele>580.0</ele><time>2026-03-22T22:33:07.999Z</time></trkpt><trkpt lat="1.1244105800086273" lon="-76.65431576666934"><ele>580.0</ele><time>2026-03-22T22:33:09.999Z</time></trkpt><trkpt lat="1.1244694437953213" lon="-76.65420871263848"><ele>579.25</ele><time>2026-03-22T22:33:11.999Z</time></trkpt><trkpt lat="1.1245214761463718" lon="-76.65410399213559"><ele>578.5</ele><time>2026-03-22T22:33:13.999Z</time></trkpt><trkpt lat="1.1245688533242593" lon="-76.65399426224293"><ele>577.75</ele><time>2026-03-22T22:33:15.999Z</time></trkpt><trkpt lat="1.1246063744921435" lon="-76.65388012641367"><ele>577.0</ele><time>2026-03-22T22:33:17.999Z</time></trkpt><trkpt lat="1.1246492882775128" lon="-76.65376131257837"><ele>577.0</ele><time>2026-03-22T22:33:20Z</time></trkpt><trkpt lat="1.124695854627465" lon="-76.65364711209587"><ele>577.0</ele><time>2026-03-22T22:33:22Z</time></trkpt><trkpt lat="1.1247523914293958" lon="-76.65353504233519"><ele>577.0</ele><time>2026-03-22T22:33:24Z</time></trkpt><trkpt lat="1.1247817216551723" lon="-76.65347862139484"><ele>577.0</ele><time>2026-03-22T22:33:25Z</time></trkpt><trkpt lat="1.1248381708600896" lon="-76.65338180514946"><ele>577.0</ele><time>2026-03-22T22:33:27Z</time></trkpt><trkpt lat="1.1248960603458011" lon="-76.65329479313877"><ele>577.5</ele><time>2026-03-22T22:33:29Z</time></trkpt><trkpt lat="1.1249690394291414" lon="-76.65319584258955"><ele>578.0</ele><time>2026-03-22T22:33:31Z</time></trkpt><trkpt lat="1.1250073648265664" lon="-76.6531384916362"><ele>578.5</ele><time>2026-03-22T22:33:32Z</time></trkpt><trkpt lat="1.1250460244732896" lon="-76.65308248826413"><ele>579.0</ele><time>2026-03-22T22:33:33Z</time></trkpt><trkpt lat="1.1250859466725478" lon="-76.6530287901788"><ele>579.5</ele><time>2026-03-22T22:33:34Z</time></trkpt><trkpt lat="1.1251271507945262" lon="-76.65297707537697"><ele>580.0</ele><time>2026-03-22T22:33:35Z</time></trkpt><trkpt lat="1.125173435794855" lon="-76.65292976027972"><ele>580.0</ele><time>2026-03-22T22:33:36Z</time></trkpt><trkpt lat="1.125224327318998" lon="-76.65289028133147"><ele>580.0</ele><time>2026-03-22T22:33:37Z</time></trkpt><trkpt lat="1.125278810986756" lon="-76.65285729282728"><ele>580.0</ele><time>2026-03-22T22:33:38Z</time></trkpt><trkpt lat="1.125333930455844" lon="-76.65282573921941"><ele>580.0</ele><time>2026-03-22T22:33:39Z</time></trkpt><trkpt lat="1.1254504585950658" lon="-76.65277539834456"><ele>580.0</ele><time>2026-03-22T22:33:41Z</time></trkpt><trkpt lat="1.1255131499243247" lon="-76.65275489063171"><ele>580.0</ele><time>2026-03-22T22:33:42Z</time></trkpt><trkpt lat="1.1255782514017427" lon="-76.65273409435797"><ele>580.0</ele><time>2026-03-22T22:33:43Z</time></trkpt><trkpt lat="1.1256434459142786" lon="-76.65271320198558"><ele>580.0</ele><time>2026-03-22T22:33:44Z</time></trkpt><trkpt lat="1.12570913175191" lon="-76.65269071285687"><ele>580.0</ele><time>2026-03-22T22:33:45Z</time></trkpt><trkpt lat="1.1257768450814702" lon="-76.65266826701513"><ele>580.0</ele><time>2026-03-22T22:33:46Z</time></trkpt><trkpt lat="1.125845184801128" lon="-76.6526448742622"><ele>580.0</ele><time>2026-03-22T22:33:47Z</time></trkpt><trkpt lat="1.1259143589233185" lon="-76.65262055521568"><ele>580.0</ele><time>2026-03-22T22:33:48Z</time></trkpt><trkpt lat="1.1259845024279909" lon="-76.65259776823828"><ele>580.0</ele><time>2026-03-22T22:33:49Z</time></trkpt><trkpt lat="1.1260526062796148" lon="-76.65257576520446"><ele>580.0</ele><time>2026-03-22T22:33:50Z</time></trkpt><trkpt lat="1.1261178352880137" lon="-76.65255683698703"><ele>580.0</ele><time>2026-03-22T22:33:51Z</time></trkpt><trkpt lat="1.1261794273529366" lon="-76.65254034575023"><ele>580.0</ele><time>2026-03-22T22:33:52Z</time></trkpt><trkpt lat="1.12629771910309" lon="-76.65250988864469"><ele>580.0</ele><time>2026-03-22T22:33:54Z</time></trkpt><trkpt lat="1.1263586186817576" lon="-76.6524913408474"><ele>580.0</ele><time>2026-03-22T22:33:55Z</time></trkpt><trkpt lat="1.1264196400263755" lon="-76.65246978644424"><ele>580.0</ele><time>2026-03-22T22:33:56Z</time></trkpt><trkpt lat="1.1264803230562175" lon="-76.65244254230043"><ele>580.0</ele><time>2026-03-22T22:33:57Z</time></trkpt><trkpt lat="1.126537856818538" lon="-76.65240969859923"><ele>581.1428571428571</ele><time>2026-03-22T22:33:58Z</time></trkpt><trkpt lat="1.1265886741356803" lon="-76.65236434502057"><ele>582.2857142857143</ele><time>2026-03-22T22:33:59Z</time></trkpt><trkpt lat="1.1266334660709503" lon="-76.65231173494165"><ele>583.4285714285714</ele><time>2026-03-22T22:34:00Z</time></trkpt><trkpt lat="1.126671159003999" lon="-76.65224822526747"><ele>584.5714285714286</ele><time>2026-03-22T22:34:01Z</time></trkpt><trkpt lat="1.1267005650313524" lon="-76.65218305301481"><ele>585.7142857142858</ele><time>2026-03-22T22:34:02Z</time></trkpt><trkpt lat="1.12672502054833" lon="-76.652116062275"><ele>586.8571428571429</ele><time>2026-03-22T22:34:03Z</time></trkpt><trkpt lat="1.1267426393603062" lon="-76.65204601245807"><ele>588.0</ele><time>2026-03-22T22:34:04Z</time></trkpt><trkpt lat="1.1267438983331306" lon="-76.65196977933374"><ele>587.7142857142857</ele><time>2026-03-22T22:34:05Z</time></trkpt><trkpt lat="1.1267420904208039" lon="-76.65189663963986"><ele>587.4285714285714</ele><time>2026-03-22T22:34:06Z</time></trkpt><trkpt lat="1.1267515303321143" lon="-76.65182975885627"><ele>587.1428571428571</ele><time>2026-03-22T22:34:07Z</time></trkpt><trkpt lat="1.1267609381434267" lon="-76.65176293031705"><ele>586.8571428571429</ele><time>2026-03-22T22:34:08Z</time></trkpt><trkpt lat="1.126769854341224" lon="-76.65169851149457"><ele>586.5714285714286</ele><time>2026-03-22T22:34:09Z</time></trkpt><trkpt lat="1.126773921709852" lon="-76.6516324733731"><ele>586.2857142857142</ele><time>2026-03-22T22:34:10Z</time></trkpt><trkpt lat="1.1267758872402691" lon="-76.65156223642957"><ele>586.0</ele><time>2026-03-22T22:34:11Z</time></trkpt><trkpt lat="1.126776678281003" lon="-76.65149353336166"><ele>585.9999999999999</ele><time>2026-03-22T22:34:12Z</time></trkpt><trkpt lat="1.126779934037877" lon="-76.65142717200352"><ele>586.0</ele><time>2026-03-22T22:34:13Z</time></trkpt><trkpt lat="1.126783758906775" lon="-76.6513578182319"><ele>586.0</ele><time>2026-03-22T22:34:14Z</time></trkpt><trkpt lat="1.1267913652508654" lon="-76.65128730793238"><ele>586.0</ele><time>2026-03-22T22:34:15Z</time></trkpt><trkpt lat="1.1268020941654222" lon="-76.65121591124793"><ele>586.0</ele><time>2026-03-22T22:34:16Z</time></trkpt><trkpt lat="1.1268168524738649" lon="-76.65114467607474"><ele>585.9999999999999</ele><time>2026-03-22T22:34:17Z</time></trkpt><trkpt lat="1.1268331989831755" lon="-76.65107563552068"><ele>586.0</ele><time>2026-03-22T22:34:18Z</time></trkpt><trkpt lat="1.1268543704290657" lon="-76.6510120713108"><ele>584.6</ele><time>2026-03-22T22:34:19Z</time></trkpt><trkpt lat="1.1268826150694893" lon="-76.65095414026936"><ele>583.2</ele><time>2026-03-22T22:34:20Z</time></trkpt><trkpt lat="1.1269159879423634" lon="-76.65089973121017"><ele>581.8</ele><time>2026-03-22T22:34:21Z</time></trkpt><trkpt lat="1.1269970565411203" lon="-76.65080550581209"><ele>580.4</ele><time>2026-03-22T22:34:23Z</time></trkpt><trkpt lat="1.1270864678203956" lon="-76.65073910535338"><ele>579.0</ele><time>2026-03-22T22:34:25Z</time></trkpt><trkpt lat="1.1271903499311422" lon="-76.65067442471344"><ele>579.0</ele><time>2026-03-22T22:34:27Z</time></trkpt><trkpt lat="1.1272797520156341" lon="-76.65059094083442"><ele>579.0</ele><time>2026-03-22T22:34:29Z</time></trkpt><trkpt lat="1.1273477529962612" lon="-76.65050014482918"><ele>579.0</ele><time>2026-03-22T22:34:31Z</time></trkpt><trkpt lat="1.127421417190623" lon="-76.65041964353863"><ele>579.0</ele><time>2026-03-22T22:34:33Z</time></trkpt><trkpt lat="1.1274962935243682" lon="-76.65033925310065"><ele>580.8</ele><time>2026-03-22T22:34:35Z</time></trkpt><trkpt lat="1.1275792206285722" lon="-76.65030106738767"><ele>582.5999999999999</ele><time>2026-03-22T22:34:37Z</time></trkpt><trkpt lat="1.1276558361539233" lon="-76.65027974965895"><ele>584.4</ele><time>2026-03-22T22:34:39Z</time></trkpt><trkpt lat="1.1277522144545034" lon="-76.65025118938362"><ele>586.1999999999999</ele><time>2026-03-22T22:34:41Z</time></trkpt><trkpt lat="1.1278584028622671" lon="-76.65022905409683"><ele>588.0</ele><time>2026-03-22T22:34:43Z</time></trkpt><trkpt lat="1.1279562679302328" lon="-76.65024359973506"><ele>588.0</ele><time>2026-03-22T22:34:45Z</time></trkpt><trkpt lat="1.1280484658963292" lon="-76.65028379225271"><ele>588.0</ele><time>2026-03-22T22:34:47Z</time></trkpt><trkpt lat="1.1281184824766337" lon="-76.65035074084366"><ele>588.0</ele><time>2026-03-22T22:34:49Z</time></trkpt><trkpt lat="1.1281615179971485" lon="-76.6504408905371"><ele>588.0</ele><time>2026-03-22T22:34:51Z</time></trkpt><trkpt lat="1.1281741337862514" lon="-76.65052208197966"><ele>588.0</ele><time>2026-03-22T22:34:52.999Z</time></trkpt><trkpt lat="1.1281710666551343" lon="-76.65061204048916"><ele>590.0</ele><time>2026-03-22T22:34:54.999Z</time></trkpt><trkpt lat="1.1281781299276334" lon="-76.65070223471888"><ele>592.0</ele><time>2026-03-22T22:34:56.999Z</time></trkpt><trkpt lat="1.1282281206644453" lon="-76.65077760109872"><ele>594.0</ele><time>2026-03-22T22:34:58.999Z</time></trkpt><trkpt lat="1.128289980230643" lon="-76.65082972589614"><ele>596.0</ele><time>2026-03-22T22:35:00.999Z</time></trkpt><trkpt lat="1.1283693016004432" lon="-76.65087095385944"><ele>598.0</ele><time>2026-03-22T22:35:02.999Z</time></trkpt><trkpt lat="1.128452871226769" lon="-76.65090292482647"><ele>600.0</ele><time>2026-03-22T22:35:04.999Z</time></trkpt><trkpt lat="1.1285361602777357" lon="-76.65092027144362"><ele>602.0</ele><time>2026-03-22T22:35:06.999Z</time></trkpt><trkpt lat="1.1286415884515821" lon="-76.65092336493097"><ele>604.0</ele><time>2026-03-22T22:35:08.999Z</time></trkpt><trkpt lat="1.1287344125986336" lon="-76.65090330078148"><ele>606.0</ele><time>2026-03-22T22:35:10.999Z</time></trkpt><trkpt lat="1.1288087595950447" lon="-76.65084712964635"><ele>608.0</ele><time>2026-03-22T22:35:12.999Z</time></trkpt><trkpt lat="1.1288302003505069" lon="-76.65074782610948"><ele>610.0</ele><time>2026-03-22T22:35:14.999Z</time></trkpt><trkpt lat="1.128805695952288" lon="-76.65067040569971"><ele>610.0</ele><time>2026-03-22T22:35:16.999Z</time></trkpt><trkpt lat="1.1287608309797805" lon="-76.65060590980175"><ele>610.0</ele><time>2026-03-22T22:35:18.999Z</time></trkpt><trkpt lat="1.1287063244716713" lon="-76.65052586067209"><ele>610.0</ele><time>2026-03-22T22:35:20.999Z</time></trkpt><trkpt lat="1.12866463125277" lon="-76.65042904743487"><ele>610.0</ele><time>2026-03-22T22:35:22.999Z</time></trkpt><trkpt lat="1.128665178586898" lon="-76.6503163689555"><ele>610.0</ele><time>2026-03-22T22:35:24.999Z</time></trkpt><trkpt lat="1.1286847699701283" lon="-76.65020359761644"><ele>608.5</ele><time>2026-03-22T22:35:27Z</time></trkpt><trkpt lat="1.1287249559845791" lon="-76.65009909809368"><ele>607.0</ele><time>2026-03-22T22:35:29Z</time></trkpt><trkpt lat="1.1288044558114154" lon="-76.65001333426937"><ele>605.5</ele><time>2026-03-22T22:35:31Z</time></trkpt><trkpt lat="1.1289085690840868" lon="-76.6499601616267"><ele>604.0</ele><time>2026-03-22T22:35:33Z</time></trkpt><trkpt lat="1.1290311496230594" lon="-76.64994002482635"><ele>606.6</ele><time>2026-03-22T22:35:35Z</time></trkpt><trkpt lat="1.1290954164801255" lon="-76.64993263253989"><ele>609.2</ele><time>2026-03-22T22:35:36Z</time></trkpt><trkpt lat="1.1291595428936139" lon="-76.6499273044865"><ele>611.8000000000001</ele><time>2026-03-22T22:35:37Z</time></trkpt><trkpt lat="1.1292748244842552" lon="-76.64991737593157"><ele>614.4</ele><time>2026-03-22T22:35:39Z</time></trkpt><trkpt lat="1.1293860789152377" lon="-76.64990711768975"><ele>617.0</ele><time>2026-03-22T22:35:41Z</time></trkpt><trkpt lat="1.1295046035090253" lon="-76.64990284090712"><ele>617.0</ele><time>2026-03-22T22:35:43Z</time></trkpt><trkpt lat="1.1295688519186078" lon="-76.64991099424421"><ele>617.0</ele><time>2026-03-22T22:35:44Z</time></trkpt><trkpt lat="1.1296313513952454" lon="-76.64993026495856"><ele>617.0</ele><time>2026-03-22T22:35:45Z</time></trkpt><trkpt lat="1.1296916392656398" lon="-76.64996339859232"><ele>617.0</ele><time>2026-03-22T22:35:46Z</time></trkpt><trkpt lat="1.129745734255217" lon="-76.65000735294916"><ele>617.0</ele><time>2026-03-22T22:35:47Z</time></trkpt><trkpt lat="1.129791791148198" lon="-76.65006118310865"><ele>617.0</ele><time>2026-03-22T22:35:48Z</time></trkpt><trkpt lat="1.129833421430673" lon="-76.65012253407005"><ele>617.0</ele><time>2026-03-22T22:35:49Z</time></trkpt><trkpt lat="1.1298714605445555" lon="-76.65018650894118"><ele>617.5714285714286</ele><time>2026-03-22T22:35:50Z</time></trkpt><trkpt lat="1.1299039262619275" lon="-76.65024754950643"><ele>618.1428571428571</ele><time>2026-03-22T22:35:51Z</time></trkpt><trkpt lat="1.1299356944411842" lon="-76.65030784030395"><ele>618.7142857142857</ele><time>2026-03-22T22:35:52Z</time></trkpt><trkpt lat="1.1299652800174462" lon="-76.65036657492288"><ele>619.2857142857142</ele><time>2026-03-22T22:35:53Z</time></trkpt><trkpt lat="1.1300126223375164" lon="-76.65041757747701"><ele>619.8571428571429</ele><time>2026-03-22T22:35:54Z</time></trkpt><trkpt lat="1.1300654662551197" lon="-76.65046022896743"><ele>620.4285714285713</ele><time>2026-03-22T22:35:55Z</time></trkpt><trkpt lat="1.1301270125520617" lon="-76.65050021296126"><ele>621.0</ele><time>2026-03-22T22:35:56Z</time></trkpt><trkpt lat="1.1301872702421398" lon="-76.65052812481605"><ele>622.3333333333334</ele><time>2026-03-22T22:35:57Z</time></trkpt><trkpt lat="1.1302553007836702" lon="-76.65055350380332"><ele>623.6666666666666</ele><time>2026-03-22T22:35:58Z</time></trkpt><trkpt lat="1.130324193959273" lon="-76.65057416702952"><ele>625.0</ele><time>2026-03-22T22:35:59Z</time></trkpt><trkpt lat="1.1303932054533965" lon="-76.65059309749093"><ele>626.3333333333333</ele><time>2026-03-22T22:36:00Z</time></trkpt><trkpt lat="1.130466394957379" lon="-76.65060456106076"><ele>627.6666666666666</ele><time>2026-03-22T22:36:01Z</time></trkpt><trkpt lat="1.13054368423741" lon="-76.65061603823608"><ele>629.0</ele><time>2026-03-22T22:36:02Z</time></trkpt><trkpt lat="1.1306252219984654" lon="-76.65062157459886"><ele>629.0</ele><time>2026-03-22T22:36:03Z</time></trkpt><trkpt lat="1.1307105398420592" lon="-76.65062307973818"><ele>629.0</ele><time>2026-03-22T22:36:04Z</time></trkpt><trkpt lat="1.130796830686923" lon="-76.65062279872656"><ele>629.0</ele><time>2026-03-22T22:36:05Z</time></trkpt><trkpt lat="1.1308760856850077" lon="-76.65062286688585"><ele>629.0</ele><time>2026-03-22T22:36:06Z</time></trkpt><trkpt lat="1.1309644680903899" lon="-76.65062236235946"><ele>629.0</ele><time>2026-03-22T22:36:07Z</time></trkpt><trkpt lat="1.1310503328238293" lon="-76.65062235509147"><ele>629.0</ele><time>2026-03-22T22:36:08Z</time></trkpt><trkpt lat="1.1311375765081426" lon="-76.65061623679972"><ele>628.8</ele><time>2026-03-22T22:36:09Z</time></trkpt><trkpt lat="1.1312364128546037" lon="-76.65060931166282"><ele>628.5999999999999</ele><time>2026-03-22T22:36:10Z</time></trkpt><trkpt lat="1.1313356167554471" lon="-76.65060653829022"><ele>628.4</ele><time>2026-03-22T22:36:11Z</time></trkpt><trkpt lat="1.1314435731743362" lon="-76.65060387711188"><ele>628.1999999999999</ele><time>2026-03-22T22:36:12Z</time></trkpt><trkpt lat="1.1315510054052196" lon="-76.65060069378714"><ele>628.0</ele><time>2026-03-22T22:36:13Z</time></trkpt><trkpt lat="1.1316592394870357" lon="-76.65059351584355"><ele>628.8</ele><time>2026-03-22T22:36:14Z</time></trkpt><trkpt lat="1.1317664256192048" lon="-76.65058421871399"><ele>629.5999999999999</ele><time>2026-03-22T22:36:15Z</time></trkpt><trkpt lat="1.1318739135962597" lon="-76.65057294997212"><ele>630.4000000000001</ele><time>2026-03-22T22:36:16Z</time></trkpt><trkpt lat="1.1319803898210956" lon="-76.65056162027092"><ele>631.2</ele><time>2026-03-22T22:36:17Z</time></trkpt><trkpt lat="1.1320816615966425" lon="-76.65055594961301"><ele>632.0</ele><time>2026-03-22T22:36:18Z</time></trkpt><trkpt lat="1.132188336517546" lon="-76.65054570287978"><ele>632.0</ele><time>2026-03-22T22:36:19Z</time></trkpt><trkpt lat="1.1322905349738914" lon="-76.6505387651026"><ele>632.0</ele><time>2026-03-22T22:36:20Z</time></trkpt><trkpt lat="1.1323939319036627" lon="-76.65053088230043"><ele>632.0</ele><time>2026-03-22T22:36:21Z</time></trkpt><trkpt lat="1.132494756110945" lon="-76.65051745906749"><ele>632.0</ele><time>2026-03-22T22:36:22Z</time></trkpt><trkpt lat="1.1326004768102476" lon="-76.65050109442903"><ele>632.0</ele><time>2026-03-22T22:36:23Z</time></trkpt><trkpt lat="1.1327036879649253" lon="-76.6504772387437"><ele>634.0</ele><time>2026-03-22T22:36:24Z</time></trkpt><trkpt lat="1.1328019532927522" lon="-76.65044712002101"><ele>636.0</ele><time>2026-03-22T22:36:25Z</time></trkpt><trkpt lat="1.132906772205031" lon="-76.65041894572776"><ele>638.0</ele><time>2026-03-22T22:36:26Z</time></trkpt><trkpt lat="1.1330058434012777" lon="-76.6503944218831"><ele>640.0</ele><time>2026-03-22T22:36:27Z</time></trkpt><trkpt lat="1.1331089242852548" lon="-76.65037658318265"><ele>642.0</ele><time>2026-03-22T22:36:28Z</time></trkpt><trkpt lat="1.1332087981293917" lon="-76.65037129613098"><ele>642.8333333333334</ele><time>2026-03-22T22:36:29Z</time></trkpt><trkpt lat="1.1332983913294368" lon="-76.6503756911091"><ele>643.6666666666666</ele><time>2026-03-22T22:36:30Z</time></trkpt><trkpt lat="1.133384537945363" lon="-76.65038342646609"><ele>644.5</ele><time>2026-03-22T22:36:31Z</time></trkpt><trkpt lat="1.1334658680992677" lon="-76.65039958709286"><ele>645.3333333333333</ele><time>2026-03-22T22:36:32Z</time></trkpt><trkpt lat="1.1335494139044189" lon="-76.65041567241393"><ele>646.1666666666666</ele><time>2026-03-22T22:36:33Z</time></trkpt><trkpt lat="1.1336327842154934" lon="-76.65043134309748"><ele>647.0</ele><time>2026-03-22T22:36:34Z</time></trkpt><trkpt lat="1.1337144158270436" lon="-76.65045010545403"><ele>647.0</ele><time>2026-03-22T22:36:35Z</time></trkpt><trkpt lat="1.133797932134225" lon="-76.6504683121114"><ele>647.0</ele><time>2026-03-22T22:36:36Z</time></trkpt><trkpt lat="1.1338844015143226" lon="-76.65048302085702"><ele>647.0</ele><time>2026-03-22T22:36:37Z</time></trkpt><trkpt lat="1.133965311934905" lon="-76.65049955921421"><ele>647.0</ele><time>2026-03-22T22:36:38Z</time></trkpt><trkpt lat="1.1340386575484647" lon="-76.6505134817103"><ele>647.0</ele><time>2026-03-22T22:36:39Z</time></trkpt><trkpt lat="1.1341157897321197" lon="-76.65052297204168"><ele>647.0</ele><time>2026-03-22T22:36:40Z</time></trkpt><trkpt lat="1.1341895007493672" lon="-76.65053030449693"><ele>647.0</ele><time>2026-03-22T22:36:41Z</time></trkpt><trkpt lat="1.1342628342710155" lon="-76.65053130794708"><ele>647.0</ele><time>2026-03-22T22:36:42Z</time></trkpt><trkpt lat="1.1343379338011352" lon="-76.65053040337823"><ele>647.0</ele><time>2026-03-22T22:36:43Z</time></trkpt><trkpt lat="1.134406347965261" lon="-76.65052994501453"><ele>647.0</ele><time>2026-03-22T22:36:44Z</time></trkpt><trkpt lat="1.1344719314350558" lon="-76.65053903413639"><ele>647.0</ele><time>2026-03-22T22:36:45Z</time></trkpt><trkpt lat="1.1345843287669022" lon="-76.65056493872268"><ele>647.0</ele><time>2026-03-22T22:36:47Z</time></trkpt><trkpt lat="1.1346984076200484" lon="-76.65059323681312"><ele>647.0</ele><time>2026-03-22T22:36:49Z</time></trkpt><trkpt lat="1.1348176703551067" lon="-76.65060538184257"><ele>647.0</ele><time>2026-03-22T22:36:51Z</time></trkpt><trkpt lat="1.1349435201868094" lon="-76.65061301896932"><ele>647.0</ele><time>2026-03-22T22:36:53Z</time></trkpt><trkpt lat="1.135014932019787" lon="-76.65062138426882"><ele>647.0</ele><time>2026-03-22T22:36:54Z</time></trkpt><trkpt lat="1.1350899984333138" lon="-76.65063254643898"><ele>647.0</ele><time>2026-03-22T22:36:55Z</time></trkpt><trkpt lat="1.135166751243059" lon="-76.65064308768423"><ele>646.5</ele><time>2026-03-22T22:36:56Z</time></trkpt><trkpt lat="1.1352451370703007" lon="-76.65065291129719"><ele>646.0</ele><time>2026-03-22T22:36:57Z</time></trkpt><trkpt lat="1.1353268940777341" lon="-76.65066429824505"><ele>645.5</ele><time>2026-03-22T22:36:58Z</time></trkpt><trkpt lat="1.1354076099501895" lon="-76.65067130893578"><ele>645.0</ele><time>2026-03-22T22:36:59Z</time></trkpt><trkpt lat="1.1354817649090794" lon="-76.65068126114336"><ele>644.5</ele><time>2026-03-22T22:37:00Z</time></trkpt><trkpt lat="1.1355565352025139" lon="-76.65068497462272"><ele>644.0</ele><time>2026-03-22T22:37:01Z</time></trkpt><trkpt lat="1.1356261667057255" lon="-76.65068790960282"><ele>644.0</ele><time>2026-03-22T22:37:02Z</time></trkpt><trkpt lat="1.1356970871205887" lon="-76.65068041474814"><ele>644.0</ele><time>2026-03-22T22:37:03Z</time></trkpt><trkpt lat="1.1357644495855113" lon="-76.65066990719008"><ele>644.0</ele><time>2026-03-22T22:37:04Z</time></trkpt><trkpt lat="1.135833142046127" lon="-76.65065693256346"><ele>644.0</ele><time>2026-03-22T22:37:05Z</time></trkpt><trkpt lat="1.13590537100338" lon="-76.65063601489312"><ele>644.0</ele><time>2026-03-22T22:37:06Z</time></trkpt><trkpt lat="1.135972591647191" lon="-76.65061577023458"><ele>644.0</ele><time>2026-03-22T22:37:07Z</time></trkpt><trkpt lat="1.136041270401852" lon="-76.65058915579114"><ele>644.0</ele><time>2026-03-22T22:37:07.999Z</time></trkpt><trkpt lat="1.1361027468810765" lon="-76.65056487680488"><ele>644.3333333333333</ele><time>2026-03-22T22:37:08.999Z</time></trkpt><trkpt lat="1.1361692845128706" lon="-76.65053126889325"><ele>644.6666666666666</ele><time>2026-03-22T22:37:09.999Z</time></trkpt><trkpt lat="1.1362281039093112" lon="-76.65050749588443"><ele>645.0</ele><time>2026-03-22T22:37:10.999Z</time></trkpt><trkpt lat="1.136327590436242" lon="-76.65047779716444"><ele>645.3333333333334</ele><time>2026-03-22T22:37:12.999Z</time></trkpt><trkpt lat="1.1364227925598058" lon="-76.65045588435379"><ele>645.6666666666667</ele><time>2026-03-22T22:37:14.999Z</time></trkpt><trkpt lat="1.1365095659590148" lon="-76.6504487133797"><ele>646.0</ele><time>2026-03-22T22:37:16.999Z</time></trkpt><trkpt lat="1.1365965285568744" lon="-76.65046591513047"><ele>646.2857142857143</ele><time>2026-03-22T22:37:18.999Z</time></trkpt><trkpt lat="1.1366780774572036" lon="-76.65049592035473"><ele>646.5714285714286</ele><time>2026-03-22T22:37:20.999Z</time></trkpt><trkpt lat="1.136757588638941" lon="-76.65053874086063"><ele>646.8571428571429</ele><time>2026-03-22T22:37:22.999Z</time></trkpt><trkpt lat="1.1368256401411296" lon="-76.65057560764303"><ele>647.1428571428571</ele><time>2026-03-22T22:37:24.999Z</time></trkpt><trkpt lat="1.1368789102897456" lon="-76.6506101695483"><ele>647.4285714285714</ele><time>2026-03-22T22:37:26.999Z</time></trkpt><trkpt lat="1.1369377568281114" lon="-76.65063585345882"><ele>647.7142857142858</ele><time>2026-03-22T22:37:29.999Z</time></trkpt><trkpt lat="1.136990472725898" lon="-76.65067427523498"><ele>648.0</ele><time>2026-03-22T22:37:33Z</time></trkpt><trkpt lat="1.1370780678127077" lon="-76.6507007511933"><ele>648.0</ele><time>2026-03-22T22:37:36Z</time></trkpt><trkpt lat="1.1371299262009205" lon="-76.65075303112985"><ele>648.0</ele><time>2026-03-22T22:37:38Z</time></trkpt><trkpt lat="1.1371875733084023" lon="-76.6508069037293"><ele>648.0</ele><time>2026-03-22T22:37:42Z</time></trkpt><trkpt lat="1.1372398633941911" lon="-76.65085577008576"><ele>648.0</ele><time>2026-03-22T22:38:27Z</time></trkpt><trkpt lat="1.13728615902039" lon="-76.6508990344492"><ele>648.0</ele><time>2026-03-22T22:38:33Z</time></trkpt><trkpt lat="1.1373368800465342" lon="-76.65094643444444"><ele>648.0</ele><time>2026-03-22T22:39:04Z</time></trkpt><trkpt lat="1.1373833842392014" lon="-76.65098989373222"><ele>648.0</ele><time>2026-03-22T22:39:13.999Z</time></trkpt><trkpt lat="1.137438106743359" lon="-76.6510413563874"><ele>648.7142857142858</ele><time>2026-03-22T22:39:36.999Z</time></trkpt><trkpt lat="1.1374878108952151" lon="-76.65108818122779"><ele>649.4285714285714</ele><time>2026-03-22T22:39:41Z</time></trkpt><trkpt lat="1.1375341396801406" lon="-76.65113181929418"><ele>650.1428571428571</ele><time>2026-03-22T22:39:44Z</time></trkpt><trkpt lat="1.1375911311954496" lon="-76.65118498778179"><ele>650.8571428571429</ele><time>2026-03-22T22:39:48Z</time></trkpt><trkpt lat="1.1376387851082166" lon="-76.65123643142583"><ele>651.5714285714286</ele><time>2026-03-22T22:39:54Z</time></trkpt><trkpt lat="1.1377159033614832" lon="-76.65124943096475"><ele>652.2857142857143</ele><time>2026-03-22T22:40:11Z</time></trkpt><trkpt lat="1.1377750155683282" lon="-76.65127471701305"><ele>653.0</ele><time>2026-03-22T22:40:16Z</time></trkpt><trkpt lat="1.1378317315006907" lon="-76.65130706720075"><ele>653.4285714285714</ele><time>2026-03-22T22:41:16Z</time></trkpt><trkpt lat="1.1378951935271469" lon="-76.65131780651967"><ele>653.8571428571429</ele><time>2026-03-22T22:41:22.999Z</time></trkpt><trkpt lat="1.13795770491016" lon="-76.65134434076518"><ele>654.2857142857142</ele><time>2026-03-22T22:41:27.999Z</time></trkpt><trkpt lat="1.1380266700660033" lon="-76.65134260937369"><ele>654.7142857142858</ele><time>2026-03-22T22:41:41.999Z</time></trkpt><trkpt lat="1.1380949503233577" lon="-76.65135400058388"><ele>655.1428571428571</ele><time>2026-03-22T22:41:46Z</time></trkpt><trkpt lat="1.1381642215033285" lon="-76.65136555711086"><ele>655.5714285714286</ele><time>2026-03-22T22:41:50Z</time></trkpt><trkpt lat="1.138237289021012" lon="-76.65139051759311"><ele>656.0</ele><time>2026-03-22T22:41:54Z</time></trkpt><trkpt lat="1.138300042400811" lon="-76.65137714888732"><ele>655.9999999999999</ele><time>2026-03-22T22:41:57Z</time></trkpt><trkpt lat="1.1383518607520973" lon="-76.6513405109514"><ele>656.0</ele><time>2026-03-22T22:42:54Z</time></trkpt><trkpt lat="1.1384162796551889" lon="-76.65132400245481"><ele>656.0</ele><time>2026-03-22T22:42:57Z</time></trkpt><trkpt lat="1.1384981255002062" lon="-76.65134898907243"><ele>656.0</ele><time>2026-03-22T22:43:57Z</time></trkpt><trkpt lat="1.138575696688193" lon="-76.65131871578296"><ele>656.0</ele><time>2026-03-22T22:44:00Z</time></trkpt><trkpt lat="1.138639003990911" lon="-76.65129936295656"><ele>655.9999999999999</ele><time>2026-03-22T22:44:02Z</time></trkpt><trkpt lat="1.1387024760258395" lon="-76.65127596077647"><ele>656.0</ele><time>2026-03-22T22:44:04Z</time></trkpt><trkpt lat="1.1387682840826394" lon="-76.65125192327083"><ele>655.9999999999999</ele><time>2026-03-22T22:44:06Z</time></trkpt><trkpt lat="1.1388296440429506" lon="-76.65122959340562"><ele>656.0</ele><time>2026-03-22T22:44:08Z</time></trkpt><trkpt lat="1.1388856664410096" lon="-76.65119722661784"><ele>656.0</ele><time>2026-03-22T22:45:24Z</time></trkpt><trkpt lat="1.1389576500897176" lon="-76.65117092705792"><ele>656.0</ele><time>2026-03-22T22:45:28Z</time></trkpt><trkpt lat="1.1390407072902902" lon="-76.65114721881936"><ele>656.0</ele><time>2026-03-22T22:45:31Z</time></trkpt><trkpt lat="1.1391033646186095" lon="-76.6511276553689"><ele>655.9999999999999</ele><time>2026-03-22T22:45:35Z</time></trkpt><trkpt lat="1.1391761018600886" lon="-76.65110410004029"><ele>656.0</ele><time>2026-03-22T22:45:39Z</time></trkpt><trkpt lat="1.1392450345680967" lon="-76.65109059183447"><ele>655.1666666666666</ele><time>2026-03-22T22:45:55Z</time></trkpt><trkpt lat="1.1393160154392077" lon="-76.6510667280153"><ele>654.3333333333333</ele><time>2026-03-22T22:45:58Z</time></trkpt><trkpt lat="1.1393921760343853" lon="-76.65104758759446"><ele>653.5</ele><time>2026-03-22T22:47:36Z</time></trkpt><trkpt lat="1.1394554243543706" lon="-76.65103678175782"><ele>652.6666666666666</ele><time>2026-03-22T22:47:38Z</time></trkpt><trkpt lat="1.1395166610198684" lon="-76.65101116784967"><ele>651.8333333333334</ele><time>2026-03-22T22:47:40Z</time></trkpt><trkpt lat="1.1395995499111573" lon="-76.65097627977146"><ele>651.0</ele><time>2026-03-22T22:47:43Z</time></trkpt><trkpt lat="1.1396848549700263" lon="-76.65094314344621"><ele>651.0</ele><time>2026-03-22T22:47:46Z</time></trkpt><trkpt lat="1.1397587436077596" lon="-76.6509167547108"><ele>651.0</ele><time>2026-03-22T22:47:50Z</time></trkpt><trkpt lat="1.1398227495745321" lon="-76.650899244165"><ele>651.0</ele><time>2026-03-22T22:47:54Z</time></trkpt><trkpt lat="1.1399062530962996" lon="-76.65088344947478"><ele>651.0</ele><time>2026-03-22T22:49:34Z</time></trkpt><trkpt lat="1.1400001990220185" lon="-76.65085472347135"><ele>651.0</ele><time>2026-03-22T22:49:37Z</time></trkpt><trkpt lat="1.140088243406925" lon="-76.6508430896434"><ele>651.0</ele><time>2026-03-22T22:49:39Z</time></trkpt><trkpt lat="1.140175206899849" lon="-76.65080681033803"><ele>651.0</ele><time>2026-03-22T22:49:41Z</time></trkpt><trkpt lat="1.1402735188920077" lon="-76.65080088329735"><ele>651.0</ele><time>2026-03-22T22:49:43Z</time></trkpt><trkpt lat="1.1403696928625704" lon="-76.6507914544741"><ele>651.0</ele><time>2026-03-22T22:49:45Z</time></trkpt><trkpt lat="1.1404750554768641" lon="-76.65078179287157"><ele>651.0</ele><time>2026-03-22T22:49:47Z</time></trkpt><trkpt lat="1.1405902542510413" lon="-76.65077182335777"><ele>651.0</ele><time>2026-03-22T22:49:49Z</time></trkpt><trkpt lat="1.1406529917568924" lon="-76.65079602351219"><ele>649.25</ele><time>2026-03-22T22:49:50Z</time></trkpt><trkpt lat="1.1407683387002152" lon="-76.65082381245536"><ele>647.5</ele><time>2026-03-22T22:49:52Z</time></trkpt><trkpt lat="1.1408731168625232" lon="-76.65086724010149"><ele>645.75</ele><time>2026-03-22T22:49:54Z</time></trkpt><trkpt lat="1.140962084361255" lon="-76.65093414897657"><ele>644.0</ele><time>2026-03-22T22:49:56Z</time></trkpt><trkpt lat="1.1410343617947423" lon="-76.65102435830602"><ele>644.0</ele><time>2026-03-22T22:49:58Z</time></trkpt><trkpt lat="1.1410899516946609" lon="-76.65112291678061"><ele>644.0</ele><time>2026-03-22T22:50:00Z</time></trkpt><trkpt lat="1.1411387632838106" lon="-76.65122025936323"><ele>644.0</ele><time>2026-03-22T22:50:02Z</time></trkpt><trkpt lat="1.1412019415465977" lon="-76.65132623465023"><ele>644.0</ele><time>2026-03-22T22:50:04Z</time></trkpt><trkpt lat="1.1412427318710887" lon="-76.65137528277933"><ele>644.0</ele><time>2026-03-22T22:50:05Z</time></trkpt><trkpt lat="1.1413251150763928" lon="-76.65147980189649"><ele>645.2857142857143</ele><time>2026-03-22T22:50:07Z</time></trkpt><trkpt lat="1.1413586523086832" lon="-76.65153697492813"><ele>646.5714285714286</ele><time>2026-03-22T22:50:08Z</time></trkpt><trkpt lat="1.1413904061573634" lon="-76.65160326140727"><ele>647.8571428571429</ele><time>2026-03-22T22:50:09Z</time></trkpt><trkpt lat="1.1414254518613418" lon="-76.6516714608699"><ele>649.1428571428571</ele><time>2026-03-22T22:50:10Z</time></trkpt><trkpt lat="1.1414551769664036" lon="-76.65173962314375"><ele>650.4285714285714</ele><time>2026-03-22T22:50:11Z</time></trkpt><trkpt lat="1.1414837483768503" lon="-76.6518071894847"><ele>651.7142857142858</ele><time>2026-03-22T22:50:12Z</time></trkpt><trkpt lat="1.141512941515703" lon="-76.65187345308235"><ele>653.0</ele><time>2026-03-22T22:50:13Z</time></trkpt><trkpt lat="1.1415417610781329" lon="-76.6519362758853"><ele>651.1428571428572</ele><time>2026-03-22T22:50:14Z</time></trkpt><trkpt lat="1.141570665035034" lon="-76.65199822950589"><ele>649.2857142857143</ele><time>2026-03-22T22:50:15Z</time></trkpt><trkpt lat="1.1416013094456938" lon="-76.65205782383427"><ele>647.4285714285714</ele><time>2026-03-22T22:50:16Z</time></trkpt><trkpt lat="1.1416380314189858" lon="-76.65211742914408"><ele>645.5714285714287</ele><time>2026-03-22T22:50:17Z</time></trkpt><trkpt lat="1.14167946947544" lon="-76.65217181140855"><ele>643.7142857142858</ele><time>2026-03-22T22:50:18Z</time></trkpt><trkpt lat="1.1417363562234486" lon="-76.65221270123438"><ele>641.8571428571429</ele><time>2026-03-22T22:50:19Z</time></trkpt><trkpt lat="1.1417982101187476" lon="-76.65224145703294"><ele>640.0</ele><time>2026-03-22T22:50:20Z</time></trkpt><trkpt lat="1.1418619581025407" lon="-76.65226024086292"><ele>640.0</ele><time>2026-03-22T22:50:21Z</time></trkpt><trkpt lat="1.1419280139722827" lon="-76.65227437007722"><ele>640.0</ele><time>2026-03-22T22:50:22Z</time></trkpt><trkpt lat="1.1419974581415224" lon="-76.65228326252503"><ele>640.0</ele><time>2026-03-22T22:50:23Z</time></trkpt><trkpt lat="1.1420680696529177" lon="-76.65228841856302"><ele>640.0</ele><time>2026-03-22T22:50:24Z</time></trkpt><trkpt lat="1.1421325514070488" lon="-76.65228853902735"><ele>640.0</ele><time>2026-03-22T22:50:25Z</time></trkpt><trkpt lat="1.142197506474556" lon="-76.65226373305812"><ele>640.0</ele><time>2026-03-22T22:50:26Z</time></trkpt><trkpt lat="1.1422908175309556" lon="-76.65225603312207"><ele>640.0</ele><time>2026-03-22T22:50:28Z</time></trkpt><trkpt lat="1.142365927739849" lon="-76.65225180067674"><ele>640.0</ele><time>2026-03-22T22:50:30Z</time></trkpt><trkpt lat="1.1423937754046791" lon="-76.65218222469926"><ele>640.0</ele><time>2026-03-22T22:50:32Z</time></trkpt><trkpt lat="1.142331355492185" lon="-76.65213111487776"><ele>640.0</ele><time>2026-03-22T22:50:33Z</time></trkpt><trkpt lat="1.1423229478915975" lon="-76.65201036545491"><ele>640.0</ele><time>2026-03-22T22:50:35Z</time></trkpt><trkpt lat="1.1423138968706117" lon="-76.65188037523184"><ele>640.0</ele><time>2026-03-22T22:50:37Z</time></trkpt><trkpt lat="1.142308249295548" lon="-76.65180481327367"><ele>638.7142857142857</ele><time>2026-03-22T22:50:38Z</time></trkpt><trkpt lat="1.1423026188078482" lon="-76.65172927554445"><ele>637.4285714285714</ele><time>2026-03-22T22:50:39Z</time></trkpt><trkpt lat="1.1422969681052277" lon="-76.65165346661564"><ele>636.1428571428571</ele><time>2026-03-22T22:50:40Z</time></trkpt><trkpt lat="1.1423078728375042" lon="-76.65157792034657"><ele>634.8571428571429</ele><time>2026-03-22T22:50:41Z</time></trkpt><trkpt lat="1.1422952919458798" lon="-76.65150426898501"><ele>633.5714285714286</ele><time>2026-03-22T22:50:42Z</time></trkpt><trkpt lat="1.1422900174912367" lon="-76.65143278104381"><ele>632.2857142857143</ele><time>2026-03-22T22:50:43Z</time></trkpt><trkpt lat="1.1422872663209689" lon="-76.65136124905233"><ele>631.0</ele><time>2026-03-22T22:50:44Z</time></trkpt><trkpt lat="1.1422854842796466" lon="-76.65128137620489"><ele>631.0</ele><time>2026-03-22T22:50:45Z</time></trkpt><trkpt lat="1.1422828604198207" lon="-76.65120019324706"><ele>631.0</ele><time>2026-03-22T22:50:46Z</time></trkpt><trkpt lat="1.142278363255729" lon="-76.65111699868142"><ele>631.0</ele><time>2026-03-22T22:50:47Z</time></trkpt><trkpt lat="1.1422742907660548" lon="-76.65103720193767"><ele>631.0</ele><time>2026-03-22T22:50:48Z</time></trkpt><trkpt lat="1.1422688375955168" lon="-76.65095700905097"><ele>631.0</ele><time>2026-03-22T22:50:49Z</time></trkpt><trkpt lat="1.1422640410393987" lon="-76.65087705423136"><ele>631.0</ele><time>2026-03-22T22:50:50Z</time></trkpt><trkpt lat="1.1422618561764781" lon="-76.65079692431388"><ele>629.8571428571429</ele><time>2026-03-22T22:50:51Z</time></trkpt><trkpt lat="1.1422610628538559" lon="-76.65071878733166"><ele>628.7142857142857</ele><time>2026-03-22T22:50:52Z</time></trkpt><trkpt lat="1.142259489888623" lon="-76.65064226480368"><ele>627.5714285714286</ele><time>2026-03-22T22:50:53Z</time></trkpt><trkpt lat="1.1422565749408997" lon="-76.65056778229214"><ele>626.4285714285714</ele><time>2026-03-22T22:50:54Z</time></trkpt><trkpt lat="1.142254864065319" lon="-76.65050019373318"><ele>625.2857142857142</ele><time>2026-03-22T22:50:55Z</time></trkpt><trkpt lat="1.1422338206180773" lon="-76.65043379061457"><ele>624.1428571428571</ele><time>2026-03-22T22:50:56Z</time></trkpt><trkpt lat="1.1422300535376169" lon="-76.65036774946951"><ele>623.0</ele><time>2026-03-22T22:50:57Z</time></trkpt><trkpt lat="1.1422264571837415" lon="-76.65030470137106"><ele>621.5</ele><time>2026-03-22T22:50:58Z</time></trkpt><trkpt lat="1.142239306000179" lon="-76.65024272940778"><ele>620.0</ele><time>2026-03-22T22:50:59Z</time></trkpt><trkpt lat="1.142228346050111" lon="-76.65011702089471"><ele>618.5</ele><time>2026-03-22T22:51:01Z</time></trkpt><trkpt lat="1.142223314440077" lon="-76.65005270554599"><ele>617.0</ele><time>2026-03-22T22:51:02Z</time></trkpt><trkpt lat="1.142215459936394" lon="-76.64998218194019"><ele>615.5</ele><time>2026-03-22T22:51:03Z</time></trkpt><trkpt lat="1.1422097874879975" lon="-76.64990983109269"><ele>614.0</ele><time>2026-03-22T22:51:04Z</time></trkpt><trkpt lat="1.142205093292161" lon="-76.64983916502663"><ele>613.9999999999999</ele><time>2026-03-22T22:51:05Z</time></trkpt><trkpt lat="1.1422002312873885" lon="-76.64977040854991"><ele>614.0</ele><time>2026-03-22T22:51:06Z</time></trkpt><trkpt lat="1.1421970801692032" lon="-76.64970055896968"><ele>614.0</ele><time>2026-03-22T22:51:07Z</time></trkpt><trkpt lat="1.1421975253109122" lon="-76.64963089415687"><ele>614.0</ele><time>2026-03-22T22:51:08Z</time></trkpt><trkpt lat="1.142195084335846" lon="-76.64956044291473"><ele>614.0</ele><time>2026-03-22T22:51:09Z</time></trkpt><trkpt lat="1.1421846894508154" lon="-76.64949317634219"><ele>613.9999999999999</ele><time>2026-03-22T22:51:10Z</time></trkpt><trkpt lat="1.1421780756898645" lon="-76.64942361325987"><ele>614.0</ele><time>2026-03-22T22:51:11Z</time></trkpt><trkpt lat="1.1421776043484138" lon="-76.64935249522087"><ele>613.7142857142857</ele><time>2026-03-22T22:51:12Z</time></trkpt><trkpt lat="1.1421768184062424" lon="-76.6492804764393"><ele>613.4285714285714</ele><time>2026-03-22T22:51:13Z</time></trkpt><trkpt lat="1.1421549239132107" lon="-76.64921172204765"><ele>613.1428571428571</ele><time>2026-03-22T22:51:14Z</time></trkpt><trkpt lat="1.1421493698707677" lon="-76.64914337521226"><ele>612.8571428571429</ele><time>2026-03-22T22:51:15Z</time></trkpt><trkpt lat="1.142143865819419" lon="-76.64907564356047"><ele>612.5714285714286</ele><time>2026-03-22T22:51:16Z</time></trkpt><trkpt lat="1.142141128263795" lon="-76.6490052030772"><ele>612.2857142857142</ele><time>2026-03-22T22:51:17Z</time></trkpt><trkpt lat="1.1421373374731054" lon="-76.6489321541254"><ele>612.0</ele><time>2026-03-22T22:51:18Z</time></trkpt><trkpt lat="1.1421334700776358" lon="-76.6488576289905"><ele>612.0</ele><time>2026-03-22T22:51:19Z</time></trkpt><trkpt lat="1.142129815189033" lon="-76.64878719887801"><ele>612.0</ele><time>2026-03-22T22:51:20Z</time></trkpt><trkpt lat="1.1421335664236794" lon="-76.64867044535627"><ele>612.0</ele><time>2026-03-22T22:51:22Z</time></trkpt><trkpt lat="1.1421215997347176" lon="-76.64858715820249"><ele>612.0</ele><time>2026-03-22T22:51:24Z</time></trkpt><trkpt lat="1.1421170784799186" lon="-76.64851857861215"><ele>612.0</ele><time>2026-03-22T22:51:26Z</time></trkpt><trkpt lat="1.1421218502918589" lon="-76.64844066956844"><ele>612.0</ele><time>2026-03-22T22:51:28Z</time></trkpt><trkpt lat="1.1421667546537249" lon="-76.64836970221337"><ele>613.4</ele><time>2026-03-22T22:51:30Z</time></trkpt><trkpt lat="1.1422454390644308" lon="-76.6483257166542"><ele>614.8000000000001</ele><time>2026-03-22T22:51:32Z</time></trkpt><trkpt lat="1.1423305072213124" lon="-76.64828705943764"><ele>616.2</ele><time>2026-03-22T22:51:34Z</time></trkpt><trkpt lat="1.142421990061978" lon="-76.6482464821163"><ele>617.6</ele><time>2026-03-22T22:51:36Z</time></trkpt><trkpt lat="1.1425180548875644" lon="-76.64820565987839"><ele>619.0</ele><time>2026-03-22T22:51:38Z</time></trkpt><trkpt lat="1.1426237603194085" lon="-76.64816218088315"><ele>616.6666666666667</ele><time>2026-03-22T22:51:40Z</time></trkpt><trkpt lat="1.142741800606629" lon="-76.64812006226072"><ele>614.3333333333334</ele><time>2026-03-22T22:51:42Z</time></trkpt><trkpt lat="1.1428093448700327" lon="-76.64809301053245"><ele>612.0</ele><time>2026-03-22T22:51:43Z</time></trkpt><trkpt lat="1.1428784775206025" lon="-76.64806380146094"><ele>609.6666666666666</ele><time>2026-03-22T22:51:44Z</time></trkpt><trkpt lat="1.1429499563855683" lon="-76.64803487470503"><ele>607.3333333333333</ele><time>2026-03-22T22:51:45Z</time></trkpt><trkpt lat="1.1430190294377127" lon="-76.64800812720554"><ele>605.0</ele><time>2026-03-22T22:51:46Z</time></trkpt><trkpt lat="1.1430856958051874" lon="-76.64798144339265"><ele>605.0</ele><time>2026-03-22T22:51:47Z</time></trkpt><trkpt lat="1.1431475084428133" lon="-76.64795516957263"><ele>605.0</ele><time>2026-03-22T22:51:48Z</time></trkpt><trkpt lat="1.1432063359693418" lon="-76.64793072359075"><ele>605.0</ele><time>2026-03-22T22:51:49Z</time></trkpt><trkpt lat="1.1433020899107722" lon="-76.64788723101059"><ele>605.0</ele><time>2026-03-22T22:51:51Z</time></trkpt><trkpt lat="1.1433841199946029" lon="-76.64785211638015"><ele>605.0</ele><time>2026-03-22T22:51:53Z</time></trkpt><trkpt lat="1.1434829709970074" lon="-76.64782111272099"><ele>605.0</ele><time>2026-03-22T22:51:55Z</time></trkpt><trkpt lat="1.1435761398416502" lon="-76.6477710409073"><ele>602.6</ele><time>2026-03-22T22:51:57Z</time></trkpt><trkpt lat="1.1436569386264226" lon="-76.64773376933682"><ele>600.2</ele><time>2026-03-22T22:51:59Z</time></trkpt><trkpt lat="1.1437357232671177" lon="-76.64770486301731"><ele>597.8</ele><time>2026-03-22T22:52:01Z</time></trkpt><trkpt lat="1.1438399983760796" lon="-76.64767309442155"><ele>595.4</ele><time>2026-03-22T22:52:03Z</time></trkpt><trkpt lat="1.1439477297712577" lon="-76.64763166201162"><ele>593.0</ele><time>2026-03-22T22:52:05Z</time></trkpt><trkpt lat="1.1440470881565352" lon="-76.64759567179505"><ele>592.8333333333333</ele><time>2026-03-22T22:52:07Z</time></trkpt><trkpt lat="1.1441539770830547" lon="-76.64755627523614"><ele>592.6666666666666</ele><time>2026-03-22T22:52:09Z</time></trkpt><trkpt lat="1.1442728437204577" lon="-76.64750975766707"><ele>592.5</ele><time>2026-03-22T22:52:11Z</time></trkpt><trkpt lat="1.1443340689748382" lon="-76.64748392632168"><ele>592.3333333333334</ele><time>2026-03-22T22:52:12Z</time></trkpt><trkpt lat="1.1443951303159237" lon="-76.64745827748666"><ele>592.1666666666667</ele><time>2026-03-22T22:52:13Z</time></trkpt><trkpt lat="1.1444608410847477" lon="-76.64745019917729"><ele>592.0</ele><time>2026-03-22T22:52:14Z</time></trkpt><trkpt lat="1.1445616660981692" lon="-76.64737336227842"><ele>592.0</ele><time>2026-03-22T22:52:16Z</time></trkpt><trkpt lat="1.1446678554176188" lon="-76.64731206241721"><ele>592.0</ele><time>2026-03-22T22:52:18Z</time></trkpt><trkpt lat="1.144723835512998" lon="-76.64727950373681"><ele>592.0</ele><time>2026-03-22T22:52:19Z</time></trkpt><trkpt lat="1.1447808542872062" lon="-76.64724897713425"><ele>592.0</ele><time>2026-03-22T22:52:20Z</time></trkpt><trkpt lat="1.1448429573040575" lon="-76.6472178888478"><ele>592.0</ele><time>2026-03-22T22:52:21Z</time></trkpt><trkpt lat="1.1449124387579952" lon="-76.64718293172099"><ele>592.0</ele><time>2026-03-22T22:52:22Z</time></trkpt><trkpt lat="1.1449836692883157" lon="-76.6471445332661"><ele>592.0</ele><time>2026-03-22T22:52:23Z</time></trkpt><trkpt lat="1.1450569814897684" lon="-76.64710531235478"><ele>592.0</ele><time>2026-03-22T22:52:24Z</time></trkpt><trkpt lat="1.1451315323376052" lon="-76.64706795552094"><ele>592.0</ele><time>2026-03-22T22:52:25Z</time></trkpt><trkpt lat="1.1451998346318528" lon="-76.64702866536354"><ele>592.0</ele><time>2026-03-22T22:52:26Z</time></trkpt><trkpt lat="1.1452615178313188" lon="-76.64699230447722"><ele>592.0</ele><time>2026-03-22T22:52:27Z</time></trkpt><trkpt lat="1.145349853771863" lon="-76.64694216000059"><ele>592.0</ele><time>2026-03-22T22:52:29Z</time></trkpt><trkpt lat="1.145407527440366" lon="-76.64691099989967"><ele>591.8571428571429</ele><time>2026-03-22T22:52:31Z</time></trkpt><trkpt lat="1.1454771578035179" lon="-76.64687528715983"><ele>591.7142857142857</ele><time>2026-03-22T22:52:34Z</time></trkpt><trkpt lat="1.1455542839174915" lon="-76.64683611083309"><ele>591.5714285714286</ele><time>2026-03-22T22:52:36Z</time></trkpt><trkpt lat="1.1456261354589532" lon="-76.64679880690421"><ele>591.4285714285714</ele><time>2026-03-22T22:52:38Z</time></trkpt><trkpt lat="1.145686021441935" lon="-76.64676240178348"><ele>591.2857142857143</ele><time>2026-03-22T22:52:40Z</time></trkpt><trkpt lat="1.1457377586490933" lon="-76.6467214932939"><ele>591.1428571428571</ele><time>2026-03-22T22:52:42Z</time></trkpt><trkpt lat="1.1457993827295416" lon="-76.64669551168805"><ele>591.0</ele><time>2026-03-22T22:52:45Z</time></trkpt><trkpt lat="1.1458497937103658" lon="-76.64665358940442"><ele>592.1666666666666</ele><time>2026-03-22T22:52:52Z</time></trkpt><trkpt lat="1.145903515714026" lon="-76.64661961194781"><ele>593.3333333333334</ele><time>2026-03-22T22:52:58Z</time></trkpt><trkpt lat="1.145987905110839" lon="-76.64659121689655"><ele>594.5</ele><time>2026-03-22T22:53:02Z</time></trkpt><trkpt lat="1.1460599331837977" lon="-76.64655339519084"><ele>595.6666666666667</ele><time>2026-03-22T22:53:04Z</time></trkpt><trkpt lat="1.146139287024713" lon="-76.64651149413241"><ele>596.8333333333334</ele><time>2026-03-22T22:53:06Z</time></trkpt><trkpt lat="1.1462304686069111" lon="-76.64646581525629"><ele>598.0</ele><time>2026-03-22T22:53:08Z</time></trkpt><trkpt lat="1.1463156900370453" lon="-76.6464205584869"><ele>598.0</ele><time>2026-03-22T22:53:10Z</time></trkpt><trkpt lat="1.146398606033541" lon="-76.64637433619858"><ele>598.0</ele><time>2026-03-22T22:53:12Z</time></trkpt><trkpt lat="1.1464853049320542" lon="-76.64632658421223"><ele>598.0</ele><time>2026-03-22T22:53:14Z</time></trkpt><trkpt lat="1.1465807362586173" lon="-76.64627321168938"><ele>598.0</ele><time>2026-03-22T22:53:16Z</time></trkpt><trkpt lat="1.1466784309361058" lon="-76.64621600140157"><ele>598.0</ele><time>2026-03-22T22:53:18Z</time></trkpt><trkpt lat="1.1467644337848577" lon="-76.64616309131402"><ele>597.4</ele><time>2026-03-22T22:53:20Z</time></trkpt><trkpt lat="1.1468468925240873" lon="-76.64611583053146"><ele>596.8</ele><time>2026-03-22T22:53:22Z</time></trkpt><trkpt lat="1.1469377033072603" lon="-76.64606755046984"><ele>596.2</ele><time>2026-03-22T22:53:24Z</time></trkpt><trkpt lat="1.1470383616411024" lon="-76.64600911377721"><ele>595.6</ele><time>2026-03-22T22:53:26Z</time></trkpt><trkpt lat="1.1471272704191744" lon="-76.64595032945871"><ele>595.0</ele><time>2026-03-22T22:53:28Z</time></trkpt><trkpt lat="1.1472139057489221" lon="-76.6459007356368"><ele>595.0</ele><time>2026-03-22T22:53:30Z</time></trkpt><trkpt lat="1.147283972232899" lon="-76.64585564366796"><ele>595.0</ele><time>2026-03-22T22:53:32Z</time></trkpt><trkpt lat="1.1473574519199043" lon="-76.64581363955647"><ele>595.0</ele><time>2026-03-22T22:53:35Z</time></trkpt><trkpt lat="1.1474210378650702" lon="-76.64577004981537"><ele>595.0</ele><time>2026-03-22T22:53:40Z</time></trkpt><trkpt lat="1.1474954290160195" lon="-76.6457744427622"><ele>595.0</ele><time>2026-03-22T22:53:43Z</time></trkpt><trkpt lat="1.147553179022633" lon="-76.64583582985159"><ele>595.0</ele><time>2026-03-22T22:53:45Z</time></trkpt><trkpt lat="1.1476016878119923" lon="-76.64591488770505"><ele>595.0</ele><time>2026-03-22T22:53:47Z</time></trkpt><trkpt lat="1.147647032471104" lon="-76.6460167713662"><ele>595.0</ele><time>2026-03-22T22:53:49Z</time></trkpt><trkpt lat="1.1476951045373636" lon="-76.64613930325734"><ele>595.0</ele><time>2026-03-22T22:53:51Z</time></trkpt><trkpt lat="1.147718795608526" lon="-76.6462055521805"><ele>595.0</ele><time>2026-03-22T22:53:52Z</time></trkpt><trkpt lat="1.1477427077773263" lon="-76.64627337992714"><ele>595.0</ele><time>2026-03-22T22:53:53Z</time></trkpt><trkpt lat="1.1477682505690021" lon="-76.64634376177065"><ele>595.0</ele><time>2026-03-22T22:53:54Z</time></trkpt><trkpt lat="1.1477960530795062" lon="-76.64641113476777"><ele>595.0</ele><time>2026-03-22T22:53:55Z</time></trkpt><trkpt lat="1.147824899753288" lon="-76.64647982936867"><ele>595.0</ele><time>2026-03-22T22:53:56Z</time></trkpt><trkpt lat="1.1478539070021745" lon="-76.64654779271896"><ele>595.0</ele><time>2026-03-22T22:53:57Z</time></trkpt><trkpt lat="1.1478850643075489" lon="-76.6466100831792"><ele>595.0</ele><time>2026-03-22T22:53:58Z</time></trkpt><trkpt lat="1.1479109247225963" lon="-76.6466689407166"><ele>595.0</ele><time>2026-03-22T22:53:59Z</time></trkpt><trkpt lat="1.1479481695621252" lon="-76.64675824245111"><ele>595.0</ele><time>2026-03-22T22:54:01Z</time></trkpt><trkpt lat="1.147976283766561" lon="-76.6468387275535"><ele>595.0</ele><time>2026-03-22T22:54:04Z</time></trkpt><trkpt lat="1.147990792739284" lon="-76.64690785341199"><ele>595.0</ele><time>2026-03-22T22:54:10Z</time></trkpt><trkpt lat="1.1480103725189152" lon="-76.64697894198234"><ele>595.0</ele><time>2026-03-22T22:54:15Z</time></trkpt><trkpt lat="1.1480373099357346" lon="-76.64706583155963"><ele>595.0</ele><time>2026-03-22T22:54:18Z</time></trkpt><trkpt lat="1.1480688349329544" lon="-76.64717349949781"><ele>595.0</ele><time>2026-03-22T22:54:20Z</time></trkpt><trkpt lat="1.1481015918271298" lon="-76.6472903857286"><ele>595.7142857142857</ele><time>2026-03-22T22:54:22Z</time></trkpt><trkpt lat="1.148124673081237" lon="-76.64735371164421"><ele>596.4285714285714</ele><time>2026-03-22T22:54:23Z</time></trkpt><trkpt lat="1.14814524274131" lon="-76.64742099184838"><ele>597.1428571428571</ele><time>2026-03-22T22:54:24Z</time></trkpt><trkpt lat="1.1481716185037816" lon="-76.6474912163589"><ele>597.8571428571429</ele><time>2026-03-22T22:54:25Z</time></trkpt><trkpt lat="1.148196291541416" lon="-76.64756180211899"><ele>598.5714285714286</ele><time>2026-03-22T22:54:26Z</time></trkpt><trkpt lat="1.148216974482363" lon="-76.64763351987894"><ele>599.2857142857142</ele><time>2026-03-22T22:54:27Z</time></trkpt><trkpt lat="1.1482394136631082" lon="-76.64770590162945"><ele>600.0</ele><time>2026-03-22T22:54:28Z</time></trkpt><trkpt lat="1.148267249819432" lon="-76.64777973321644"><ele>599.1666666666666</ele><time>2026-03-22T22:54:29Z</time></trkpt><trkpt lat="1.14829366461186" lon="-76.64785062299423"><ele>598.3333333333334</ele><time>2026-03-22T22:54:30Z</time></trkpt><trkpt lat="1.14832248993566" lon="-76.64791874987117"><ele>597.5</ele><time>2026-03-22T22:54:31Z</time></trkpt><trkpt lat="1.148351737979348" lon="-76.64798375145949"><ele>596.6666666666667</ele><time>2026-03-22T22:54:32Z</time></trkpt><trkpt lat="1.1483795831148258" lon="-76.64804640397186"><ele>595.8333333333334</ele><time>2026-03-22T22:54:33Z</time></trkpt><trkpt lat="1.148401934929557" lon="-76.64815888158341"><ele>595.0</ele><time>2026-03-22T22:54:35Z</time></trkpt><trkpt lat="1.148419693892013" lon="-76.64824715898459"><ele>595.0</ele><time>2026-03-22T22:54:37Z</time></trkpt><trkpt lat="1.1485174635020075" lon="-76.64826283663471"><ele>595.0</ele><time>2026-03-22T22:54:38Z</time></trkpt><trkpt lat="1.1486284750489844" lon="-76.64827700340717"><ele>595.0</ele><time>2026-03-22T22:54:40Z</time></trkpt><trkpt lat="1.1486914242763342" lon="-76.6482833146361"><ele>595.0</ele><time>2026-03-22T22:54:41Z</time></trkpt><trkpt lat="1.1487573722996303" lon="-76.64828086709522"><ele>595.0</ele><time>2026-03-22T22:54:42Z</time></trkpt><trkpt lat="1.1488730063925519" lon="-76.64828225494624"><ele>595.0</ele><time>2026-03-22T22:54:44Z</time></trkpt><trkpt lat="1.1489752170465388" lon="-76.64828141688777"><ele>595.0</ele><time>2026-03-22T22:54:46Z</time></trkpt><trkpt lat="1.1490545734441544" lon="-76.6482842671884"><ele>595.0</ele><time>2026-03-22T22:54:48Z</time></trkpt><trkpt lat="1.1491271727938304" lon="-76.64827694669704"><ele>595.0</ele><time>2026-03-22T22:55:41Z</time></trkpt><trkpt lat="1.1492252593022136" lon="-76.64826636229004"><ele>595.0</ele><time>2026-03-22T22:55:44Z</time></trkpt><trkpt lat="1.1493243659224108" lon="-76.64827412337286"><ele>594.0</ele><time>2026-03-22T22:55:46Z</time></trkpt><trkpt lat="1.1494436009504236" lon="-76.64827645526776"><ele>593.0</ele><time>2026-03-22T22:55:48Z</time></trkpt><trkpt lat="1.1495667817526072" lon="-76.6482805618185"><ele>592.0</ele><time>2026-03-22T22:55:50Z</time></trkpt><trkpt lat="1.1496335381404357" lon="-76.64828369500688"><ele>591.0</ele><time>2026-03-22T22:55:51Z</time></trkpt><trkpt lat="1.1497012993635467" lon="-76.64828446564469"><ele>590.0</ele><time>2026-03-22T22:55:52Z</time></trkpt><trkpt lat="1.1497678434088818" lon="-76.64828426681774"><ele>589.0</ele><time>2026-03-22T22:55:53Z</time></trkpt><trkpt lat="1.1498369710183403" lon="-76.64828497736168"><ele>589.4285714285714</ele><time>2026-03-22T22:55:54Z</time></trkpt><trkpt lat="1.1499069648505675" lon="-76.64828421495332"><ele>589.8571428571428</ele><time>2026-03-22T22:55:55Z</time></trkpt><trkpt lat="1.1499755740291335" lon="-76.64828626546628"><ele>590.2857142857142</ele><time>2026-03-22T22:55:56Z</time></trkpt><trkpt lat="1.1500472275716256" lon="-76.64829326897522"><ele>590.7142857142857</ele><time>2026-03-22T22:55:57Z</time></trkpt><trkpt lat="1.1501203514023424" lon="-76.64829744194476"><ele>591.1428571428571</ele><time>2026-03-22T22:55:58Z</time></trkpt><trkpt lat="1.150190794420288" lon="-76.64830062450389"><ele>591.5714285714286</ele><time>2026-03-22T22:55:59Z</time></trkpt><trkpt lat="1.1502586730282252" lon="-76.64830157063685"><ele>592.0</ele><time>2026-03-22T22:56:00Z</time></trkpt><trkpt lat="1.1503298776472652" lon="-76.64830114356025"><ele>592.0</ele><time>2026-03-22T22:56:01Z</time></trkpt><trkpt lat="1.1504008379338924" lon="-76.64830755163803"><ele>592.0</ele><time>2026-03-22T22:56:02Z</time></trkpt><trkpt lat="1.1504679560204956" lon="-76.64830958205589"><ele>592.0</ele><time>2026-03-22T22:56:03Z</time></trkpt><trkpt lat="1.1505315693735076" lon="-76.64830948642084"><ele>592.0</ele><time>2026-03-22T22:56:04Z</time></trkpt><trkpt lat="1.1506450028405455" lon="-76.64830473622415"><ele>592.0</ele><time>2026-03-22T22:56:06Z</time></trkpt><trkpt lat="1.150722322824934" lon="-76.64828118856765"><ele>592.0</ele><time>2026-03-22T22:56:08Z</time></trkpt><trkpt lat="1.150776393731363" lon="-76.6482432705518"><ele>592.6</ele><time>2026-03-22T22:56:10Z</time></trkpt><trkpt lat="1.1507161393609342" lon="-76.64815749338558"><ele>593.2</ele><time>2026-03-22T22:56:11Z</time></trkpt><trkpt lat="1.150717899562194" lon="-76.64805370794764"><ele>593.8</ele><time>2026-03-22T22:56:13Z</time></trkpt><trkpt lat="1.150720197638254" lon="-76.64793853251325"><ele>594.4</ele><time>2026-03-22T22:56:15Z</time></trkpt><trkpt lat="1.1507228085428307" lon="-76.6478407022373"><ele>595.0</ele><time>2026-03-22T22:56:17Z</time></trkpt><trkpt lat="1.1507242135118534" lon="-76.64777648990308"><ele>595.0</ele><time>2026-03-22T22:56:20Z</time></trkpt><trkpt lat="1.1508637696337183" lon="-76.64774377119832"><ele>595.0</ele><time>2026-03-22T22:56:22Z</time></trkpt><trkpt lat="1.1509655555689269" lon="-76.6477269164243"><ele>595.0</ele><time>2026-03-22T22:56:24Z</time></trkpt><trkpt lat="1.1510348800688652" lon="-76.64772403066897"><ele>595.0</ele><time>2026-03-22T22:56:25Z</time></trkpt><trkpt lat="1.1511080592770604" lon="-76.64772061502887"><ele>595.0</ele><time>2026-03-22T22:56:26Z</time></trkpt><trkpt lat="1.1511827024908727" lon="-76.64771845218971"><ele>595.0</ele><time>2026-03-22T22:56:27Z</time></trkpt><trkpt lat="1.1512522231601563" lon="-76.64771663219861"><ele>595.0</ele><time>2026-03-22T22:56:28Z</time></trkpt><trkpt lat="1.151360218513915" lon="-76.64771315597264"><ele>595.0</ele><time>2026-03-22T22:56:30Z</time></trkpt><trkpt lat="1.1514791537301359" lon="-76.64771250545544"><ele>595.0</ele><time>2026-03-22T22:56:32Z</time></trkpt><trkpt lat="1.1515498453972042" lon="-76.64771269051852"><ele>595.0</ele><time>2026-03-22T22:56:33Z</time></trkpt><trkpt lat="1.1516213827150146" lon="-76.64771136319926"><ele>595.0</ele><time>2026-03-22T22:56:34Z</time></trkpt><trkpt lat="1.1516955030211002" lon="-76.6477084635159"><ele>595.4285714285714</ele><time>2026-03-22T22:56:35Z</time></trkpt><trkpt lat="1.151767972724983" lon="-76.64770359623296"><ele>595.8571428571429</ele><time>2026-03-22T22:56:36Z</time></trkpt><trkpt lat="1.1518354838373943" lon="-76.64769962322812"><ele>596.2857142857142</ele><time>2026-03-22T22:56:37Z</time></trkpt><trkpt lat="1.1519028945872685" lon="-76.64769905728376"><ele>596.7142857142858</ele><time>2026-03-22T22:56:38Z</time></trkpt><trkpt lat="1.151971244235515" lon="-76.64770069838103"><ele>597.1428571428571</ele><time>2026-03-22T22:56:39Z</time></trkpt><trkpt lat="1.152040837587917" lon="-76.64770458244467"><ele>597.5714285714286</ele><time>2026-03-22T22:56:40Z</time></trkpt><trkpt lat="1.1521123917493448" lon="-76.64770855154624"><ele>598.0</ele><time>2026-03-22T22:56:41Z</time></trkpt><trkpt lat="1.1521844520180404" lon="-76.64771118759391"><ele>598.0</ele><time>2026-03-22T22:56:42Z</time></trkpt><trkpt lat="1.1522495281538416" lon="-76.64770951591773"><ele>598.0</ele><time>2026-03-22T22:56:43Z</time></trkpt><trkpt lat="1.152314725561305" lon="-76.64770667478128"><ele>598.0</ele><time>2026-03-22T22:56:44Z</time></trkpt><trkpt lat="1.1523842530791901" lon="-76.64770641858371"><ele>598.0</ele><time>2026-03-22T22:56:45Z</time></trkpt><trkpt lat="1.1524574941842536" lon="-76.64770859122433"><ele>598.0</ele><time>2026-03-22T22:56:46Z</time></trkpt><trkpt lat="1.1525310648262297" lon="-76.64770902863455"><ele>598.0</ele><time>2026-03-22T22:56:47Z</time></trkpt><trkpt lat="1.1526028513938456" lon="-76.64770787636446"><ele>598.0</ele><time>2026-03-22T22:56:48Z</time></trkpt><trkpt lat="1.1526756623712777" lon="-76.64770622805305"><ele>598.3333333333334</ele><time>2026-03-22T22:56:49Z</time></trkpt><trkpt lat="1.1527428943584779" lon="-76.64770138957003"><ele>598.6666666666667</ele><time>2026-03-22T22:56:50Z</time></trkpt><trkpt lat="1.1528095162720151" lon="-76.64769580448538"><ele>599.0</ele><time>2026-03-22T22:56:51Z</time></trkpt><trkpt lat="1.1528729284708734" lon="-76.64768769615425"><ele>599.3333333333334</ele><time>2026-03-22T22:56:52Z</time></trkpt><trkpt lat="1.1529434417157118" lon="-76.64769575693899"><ele>599.6666666666666</ele><time>2026-03-22T22:56:53Z</time></trkpt><trkpt lat="1.1530651652757866" lon="-76.64768262848317"><ele>600.0</ele><time>2026-03-22T22:56:55Z</time></trkpt><trkpt lat="1.1531791828643883" lon="-76.64767837758569"><ele>600.4</ele><time>2026-03-22T22:56:57Z</time></trkpt><trkpt lat="1.1532601603903878" lon="-76.64766491023383"><ele>600.8</ele><time>2026-03-22T22:56:59Z</time></trkpt><trkpt lat="1.1532838953081723" lon="-76.6475882443582"><ele>601.2</ele><time>2026-03-22T22:57:01Z</time></trkpt><trkpt lat="1.1532689774533413" lon="-76.64751113193725"><ele>601.6</ele><time>2026-03-22T22:57:03Z</time></trkpt><trkpt lat="1.1533714108618698" lon="-76.64745577523331"><ele>602.0</ele><time>2026-03-22T22:57:05Z</time></trkpt><trkpt lat="1.1535033086640114" lon="-76.64744962666767"><ele>602.0</ele><time>2026-03-22T22:57:07Z</time></trkpt><trkpt lat="1.1535737571523854" lon="-76.6474479680809"><ele>602.0</ele><time>2026-03-22T22:57:08Z</time></trkpt><trkpt lat="1.1536491250888374" lon="-76.64745021208083"><ele>602.0</ele><time>2026-03-22T22:57:09Z</time></trkpt><trkpt lat="1.1537248208803468" lon="-76.64744551388736"><ele>602.0</ele><time>2026-03-22T22:57:10Z</time></trkpt><trkpt lat="1.1538009971494183" lon="-76.6474400449283"><ele>602.0</ele><time>2026-03-22T22:57:11Z</time></trkpt><trkpt lat="1.1538779186099384" lon="-76.64743471251559"><ele>602.0</ele><time>2026-03-22T22:57:12Z</time></trkpt><trkpt lat="1.153955643897407" lon="-76.64743379781913"><ele>602.0</ele><time>2026-03-22T22:57:13Z</time></trkpt><trkpt lat="1.1540349228661688" lon="-76.64743209964678"><ele>602.0</ele><time>2026-03-22T22:57:14Z</time></trkpt><trkpt lat="1.1541145582270171" lon="-76.64742906775413"><ele>602.0</ele><time>2026-03-22T22:57:15Z</time></trkpt><trkpt lat="1.154192100002471" lon="-76.64742596913175"><ele>602.0</ele><time>2026-03-22T22:57:16Z</time></trkpt><trkpt lat="1.1542652139494705" lon="-76.64742368437263"><ele>602.0</ele><time>2026-03-22T22:57:17Z</time></trkpt><trkpt lat="1.1543346779773271" lon="-76.64742290161975"><ele>602.0</ele><time>2026-03-22T22:57:18Z</time></trkpt><trkpt lat="1.1544357719015883" lon="-76.64741868483578"><ele>602.0</ele><time>2026-03-22T22:57:20Z</time></trkpt><trkpt lat="1.1545407208064835" lon="-76.64741772738826"><ele>602.0</ele><time>2026-03-22T22:57:22Z</time></trkpt><trkpt lat="1.1546059133136786" lon="-76.64741913774768"><ele>602.0</ele><time>2026-03-22T22:57:23Z</time></trkpt><trkpt lat="1.1546792777256283" lon="-76.64742257647153"><ele>602.0</ele><time>2026-03-22T22:57:24Z</time></trkpt><trkpt lat="1.1547567897987243" lon="-76.64742281489458"><ele>602.0</ele><time>2026-03-22T22:57:25Z</time></trkpt><trkpt lat="1.1548346603616577" lon="-76.6474035573076"><ele>602.0</ele><time>2026-03-22T22:57:26Z</time></trkpt><trkpt lat="1.154916571824302" lon="-76.64740044828181"><ele>602.1666666666666</ele><time>2026-03-22T22:57:27Z</time></trkpt><trkpt lat="1.155002077284812" lon="-76.64741365200915"><ele>602.3333333333333</ele><time>2026-03-22T22:57:28Z</time></trkpt><trkpt lat="1.1550891136991315" lon="-76.64740611914097"><ele>602.5</ele><time>2026-03-22T22:57:29Z</time></trkpt><trkpt lat="1.155179152289314" lon="-76.64740248115581"><ele>602.6666666666666</ele><time>2026-03-22T22:57:30Z</time></trkpt><trkpt lat="1.1552666528569653" lon="-76.64739935498731"><ele>602.8333333333334</ele><time>2026-03-22T22:57:31Z</time></trkpt><trkpt lat="1.1553552534498899" lon="-76.64739658263818"><ele>603.0</ele><time>2026-03-22T22:57:32Z</time></trkpt><trkpt lat="1.1554470545597484" lon="-76.64739579528204"><ele>603.0</ele><time>2026-03-22T22:57:33Z</time></trkpt><trkpt lat="1.1555416520433188" lon="-76.64739475871407"><ele>603.0</ele><time>2026-03-22T22:57:34Z</time></trkpt><trkpt lat="1.1556368147027196" lon="-76.64739321866782"><ele>603.0</ele><time>2026-03-22T22:57:35Z</time></trkpt><trkpt lat="1.1557309180170705" lon="-76.64739282757802"><ele>603.0</ele><time>2026-03-22T22:57:36Z</time></trkpt><trkpt lat="1.1558218501422657" lon="-76.64737264171447"><ele>603.0</ele><time>2026-03-22T22:57:37Z</time></trkpt><trkpt lat="1.1559115903977777" lon="-76.64736936459929"><ele>603.0</ele><time>2026-03-22T22:57:38Z</time></trkpt><trkpt lat="1.156000949134145" lon="-76.64737193803073"><ele>603.0</ele><time>2026-03-22T22:57:39Z</time></trkpt><trkpt lat="1.1560853251984822" lon="-76.64736926906387"><ele>603.0</ele><time>2026-03-22T22:57:40Z</time></trkpt><trkpt lat="1.1561664325093894" lon="-76.64736719602277"><ele>603.0</ele><time>2026-03-22T22:57:41Z</time></trkpt><trkpt lat="1.1562406295631122" lon="-76.64736310226948"><ele>603.0</ele><time>2026-03-22T22:57:42Z</time></trkpt><trkpt lat="1.1563077848676186" lon="-76.64735935194315"><ele>603.0</ele><time>2026-03-22T22:57:43Z</time></trkpt><trkpt lat="1.1564180357969351" lon="-76.64735871337257"><ele>603.0</ele><time>2026-03-22T22:57:45Z</time></trkpt><trkpt lat="1.156509087283992" lon="-76.64736060691862"><ele>603.0</ele><time>2026-03-22T22:57:48Z</time></trkpt><trkpt lat="1.1565552870995743" lon="-76.64745690927214"><ele>603.0</ele><time>2026-03-22T22:57:50Z</time></trkpt><trkpt lat="1.1565718139837184" lon="-76.64752767094647"><ele>603.0</ele><time>2026-03-22T22:57:52Z</time></trkpt><trkpt lat="1.1565887660170624" lon="-76.64760070343398"><ele>603.0</ele><time>2026-03-22T22:57:55Z</time></trkpt><trkpt lat="1.156585409667708" lon="-76.64769082437118"><ele>603.0</ele><time>2026-03-22T22:58:36Z</time></trkpt><trkpt lat="1.1565801411647436" lon="-76.64775469468069"><ele>606.0</ele><time>2026-03-22T22:59:06Z</time></trkpt><trkpt lat="1.1565573148493888" lon="-76.64781522575613"><ele>609.0</ele><time>2026-03-22T22:59:22Z</time></trkpt></trkseg></trk></gpx>